# Wetter Temperatur Luftdruck Luftfeuchtigkeit Sichtweite Windgeschwindigkeit Windrichtung Zeit
1 Clear 10 1021 46 10000 1 150 21:54 28.01.2020
2 Clear 10 1021 46 10000 1 150 21:36 28.01.2020
3 Clear 11 1021 40 10000 2.1 150 21:18 28.01.2020
4 Clear 11 1021 40 10000 2.1 150 20:42 28.01.2020
5 Clear 11 1021 40 10000 2.1 150 20:23 28.01.2020
6 Clear 12 1022 40 10000 1.5 150 19:39 28.01.2020
7 Clear 12 1022 40 10000 1.5 150 19:39 28.01.2020
8 Clear 12 1022 40 10000 1.5 150 19:21 28.01.2020
9 Clear 13 1022 37 10000 1.5 130 18:59 28.01.2020
10 Clear 13 1022 37 10000 1.5 130 18:40 28.01.2020
11 Clear 13 1022 37 10000 1.5 130 18:22 28.01.2020
12 Clear 15 1021 22 10000 1.5 150 17:59 28.01.2020
13 Clear 15 1021 22 10000 1.5 150 17:38 28.01.2020
14 Clear 15 1021 22 10000 1.5 150 17:38 28.01.2020
15 Clear 15 1021 20 10000 1.5 150 17:19 28.01.2020
16 Clear 16 1021 20 10000 2.1 140 16:55 28.01.2020
17 Clear 16 1021 20 10000 2.1 140 16:37 28.01.2020
18 Clear 16 1021 20 10000 2.1 140 16:19 28.01.2020
19 Clear 18 1021 31 10000 3.29 111 15:44 28.01.2020
20 Clear 19 1021 29 10000 1.5 140 15:19 28.01.2020
21 Clear 19 1021 29 10000 1.5 140 14:55 28.01.2020
22 Clear 19 1021 29 10000 1.5 140 14:36 28.01.2020
23 Clear 19 1021 29 10000 1.5 140 14:18 28.01.2020
24 Clear 19 1021 29 10000 1.5 160 13:39 28.01.2020
25 Clear 19 1021 29 10000 1.5 160 13:21 28.01.2020
26 Clear 19 1022 29 10000 1 30 12:42 28.01.2020
27 Clear 19 1022 29 10000 1 30 12:23 28.01.2020
28 Clear 19 1022 29 10000 1 30 12:23 28.01.2020
29 Clear 17 1023 14 10000 1 230 11:48 28.01.2020
30 Clear 17 1024 33 10000 1 210 11:23 28.01.2020
31 Clear 17 1024 33 10000 1 210 10:59 28.01.2020
32 Clear 17 1024 33 10000 1 210 10:40 28.01.2020
33 Clear 17 1024 33 10000 1 210 10:21 28.01.2020
34 Clear 16 1026 38 10000 1 160 09:55 28.01.2020
35 Clear 16 1026 38 10000 1 160 09:55 28.01.2020
36 Clear 16 1026 38 10000 1 160 09:36 28.01.2020
37 Clear 16 1026 38 10000 1 160 09:18 28.01.2020
38 Clear 14 1026 44 10000 1.22 195 08:39 28.01.2020
39 Clear 14 1026 44 10000 1.29 93 08:19 28.01.2020
40 Clear 14 1026 44 10000 1.29 93 08:19 28.01.2020
41 Clear 11 1026 50 10000 1.29 93 07:37 28.01.2020
42 Clear 6 1025 60 10000 1.29 93 06:50 28.01.2020
43 Clear 6 1025 60 10000 1.29 93 06:28 28.01.2020
44 Clear 3 1024 69 10000 1.29 93 05:55 28.01.2020
45 Clear 3 1024 69 10000 1.29 93 05:26 28.01.2020
46 Clear 3 1024 69 10000 1.29 93 05:26 28.01.2020
47 Clear 4 1024 69 10000 0.49 56 04:30 28.01.2020
48 Clear 4 1024 69 10000 0.49 56 02:58 28.01.2020
49 Clear 4 1024 69 10000 0.4 357 02:25 28.01.2020
50 Clear 5 1024 65 10000 0.4 357 01:57 28.01.2020
51 Clear 5 1024 65 10000 0.68 334 01:26 28.01.2020
52 Clear 6 1024 56 10000 1 290 00:51 28.01.2020
53 Clear 6 1024 56 10000 1 290 00:29 28.01.2020
54 Clear 7 1025 56 10000 1 290 23:51 27.01.2020
55 Clear 7 1025 56 10000 1 290 23:30 27.01.2020
56 Clear 9 1025 49 10000 1.5 280 22:56 27.01.2020
57 Clear 9 1025 49 10000 1.5 280 22:38 27.01.2020
58 Clear 9 1025 49 10000 1.5 280 22:19 27.01.2020
59 Clear 8 1025 37 10000 1.48 23 21:54 27.01.2020
60 Clear 8 1025 37 10000 1.48 23 21:36 27.01.2020
61 Clear 8 1025 37 10000 1.48 23 21:18 27.01.2020
62 Clear 9 1025 37 10000 1.48 23 20:43 27.01.2020
63 Clear 9 1025 30 10000 2.12 10 20:22 27.01.2020
64 Clear 11 1025 30 10000 1.5 20 19:59 27.01.2020
65 Clear 11 1025 30 10000 1.5 20 19:40 27.01.2020
66 Clear 11 1025 30 10000 1.5 20 19:22 27.01.2020
67 Clear 12 1025 37 10000 2.1 350 18:56 27.01.2020
68 Clear 12 1025 37 10000 2.1 350 18:37 27.01.2020
69 Clear 12 1025 37 10000 2.1 350 18:37 27.01.2020
70 Clear 12 1025 37 10000 2.1 350 18:19 27.01.2020
71 Clear 11 1025 30 0 2.12 10 17:39 27.01.2020
72 Clear 11 1025 30 0 2.12 10 17:39 27.01.2020
73 Clear 14 1025 33 10000 3.6 360 17:20 27.01.2020
74 Clear 14 1025 33 10000 3.6 360 16:58 27.01.2020
75 Clear 14 1025 33 10000 3.6 360 16:58 27.01.2020
76 Clear 14 1025 33 10000 3.6 360 16:40 27.01.2020
77 Clear 14 1025 33 10000 3.6 360 16:22 27.01.2020
78 Clear 16 1025 26 10000 3.1 330 15:55 27.01.2020
79 Clear 16 1025 26 10000 3.1 330 15:36 27.01.2020
80 Clear 16 1025 26 10000 3.1 330 15:18 27.01.2020
81 Clear 17 1024 29 10000 2.6 330 14:41 27.01.2020
82 Clear 17 1024 29 10000 2.6 330 14:22 27.01.2020
83 Clear 18 1025 25 10000 3.6 340 13:55 27.01.2020
84 Clear 18 1025 25 10000 3.6 340 13:37 27.01.2020
85 Clear 18 1025 25 10000 3.6 340 13:18 27.01.2020
86 Clear 17 1025 27 10000 3.6 330 12:43 27.01.2020
87 Clear 17 1025 27 10000 3.6 330 12:23 27.01.2020
88 Clear 16 1026 31 10000 3.6 340 11:55 27.01.2020
89 Clear 16 1026 31 10000 3.6 340 11:36 27.01.2020
90 Clear 16 1026 31 10000 3.6 340 11:18 27.01.2020
91 Clear 15 1027 33 10000 4.1 330 10:42 27.01.2020
92 Clear 15 1027 33 10000 4.1 330 10:23 27.01.2020
93 Clear 14 1028 27 10000 4.6 320 09:40 27.01.2020
94 Clear 14 1028 27 10000 4.6 320 09:19 27.01.2020
95 Clear 11 1029 50 10000 3.1 310 08:58 27.01.2020
96 Clear 11 1029 50 10000 3.1 310 08:40 27.01.2020
97 Clear 11 1029 50 10000 3.1 310 08:19 27.01.2020
98 Clear 9 1029 45 10000 4.1 300 07:50 27.01.2020
99 Clear 9 1029 45 10000 4.1 300 07:32 27.01.2020
100 Clear 6 1028 45 10000 2.6 280 06:39 27.01.2020
101 Clear 4 1028 69 10000 3.1 290 05:51 27.01.2020
102 Clear 4 1028 69 10000 3.1 290 05:18 27.01.2020
103 Clear 5 1027 65 10000 3.1 290 03:36 27.01.2020
104 Clear 5 1027 65 10000 2.6 290 01:57 27.01.2020
105 Clear 5 1027 65 10000 2.6 290 01:28 27.01.2020
106 Clear 6 1027 58 10000 2.1 300 00:42 27.01.2020
107 Clear 6 1027 58 10000 2.1 300 00:22 27.01.2020
108 Clear 6 1027 58 10000 1.5 300 23:46 26.01.2020
109 Clear 6 1027 58 10000 1.5 300 23:27 26.01.2020
110 Clear 7 1028 57 10000 2.1 300 22:59 26.01.2020
111 Clear 7 1028 57 10000 2.1 300 22:39 26.01.2020
112 Clear 7 1028 57 10000 2.1 300 22:20 26.01.2020
113 Clear 8 1028 61 10000 2.1 310 21:58 26.01.2020
114 Clear 8 1028 61 10000 2.1 310 21:39 26.01.2020
115 Clear 8 1028 61 10000 2.1 310 21:21 26.01.2020
116 Clear 8 1028 61 10000 2.1 310 21:21 26.01.2020
117 Clear 9 1028 57 10000 2.6 330 20:58 26.01.2020
118 Clear 9 1028 57 10000 2.6 330 20:38 26.01.2020
119 Clear 9 1028 57 10000 2.6 330 20:19 26.01.2020
120 Clear 10 1028 50 10000 3.6 360 19:58 26.01.2020
121 Clear 10 1028 50 10000 3.6 360 19:38 26.01.2020
122 Clear 10 1028 50 10000 3.6 360 19:20 26.01.2020
123 Clear 11 1027 50 10000 4.1 10 18:56 26.01.2020
124 Clear 11 1027 50 10000 4.1 10 18:38 26.01.2020
125 Clear 11 1027 50 10000 3.6 360 18:20 26.01.2020
126 Clear 11 1027 50 10000 3.6 360 17:55 26.01.2020
127 Clear 11 1027 50 10000 3.6 360 17:36 26.01.2020
128 Clear 13 1026 37 10000 5.1 360 17:18 26.01.2020
129 Clear 13 1026 37 10000 5.1 360 16:56 26.01.2020
130 Clear 13 1026 37 10000 5.1 360 16:56 26.01.2020
131 Clear 13 1026 37 10000 5.1 360 16:37 26.01.2020
132 Clear 13 1026 37 10000 5.1 360 16:18 26.01.2020
133 Clear 11 1025 41 0 5.39 356 15:43 26.01.2020
134 Clear 11 1025 41 0 5.39 356 15:21 26.01.2020
135 Clear 11 1025 41 0 5.39 356 14:56 26.01.2020
136 Clear 11 1025 41 0 5.39 356 14:38 26.01.2020
137 Clear 14 1024 23 0 6.62 339 14:18 26.01.2020
138 Clear 14 1024 23 0 6.62 339 13:39 26.01.2020
139 Clear 14 1024 23 0 6.59 340 13:18 26.01.2020
140 Clear 14 1024 23 0 6.59 340 12:54 26.01.2020
141 Clear 14 1024 23 0 6.59 340 12:36 26.01.2020
142 Clear 14 1024 23 0 6.59 340 12:18 26.01.2020
143 Clear 14 1024 23 0 6.59 340 11:56 26.01.2020
144 Clear 14 1024 23 0 6.59 340 11:36 26.01.2020
145 Clear 12 1028 37 9000 7.2 340 11:18 26.01.2020
146 Clear 12 1028 37 9000 7.2 340 10:39 26.01.2020
147 Clear 12 1028 37 9000 7.2 340 10:21 26.01.2020
148 Clear 10 1029 46 8000 7.7 330 09:59 26.01.2020
149 Clear 10 1029 46 8000 7.7 330 09:41 26.01.2020
150 Clear 10 1029 46 8000 7.7 330 09:22 26.01.2020
151 Dust 9 1029 49 5000 8.2 330 08:55 26.01.2020
152 Dust 9 1029 49 5000 8.2 330 08:37 26.01.2020
153 Dust 9 1029 49 5000 8.2 330 08:18 26.01.2020
154 Dust 7 1028 56 4000 7.2 320 07:45 26.01.2020
155 Dust 7 1028 56 4000 7.2 320 07:45 26.01.2020
156 Dust 7 1028 56 4000 7.2 320 07:22 26.01.2020
157 Dust 5 1028 65 4000 7.7 320 06:32 26.01.2020
158 Dust 5 1027 65 4000 8.2 320 05:52 26.01.2020
159 Dust 5 1027 65 4000 8.2 320 05:22 26.01.2020
160 Clear 6 1025 60 6000 7.2 320 03:22 26.01.2020
161 Clear 7 1025 39 7000 5.7 310 01:59 26.01.2020
162 Clear 7 1025 39 7000 5.7 310 01:39 26.01.2020
163 Clear 7 1025 39 7000 5.7 310 01:19 26.01.2020
164 Clear 8 1025 33 7000 4.6 300 00:39 26.01.2020
165 Clear 8 1025 33 7000 4.6 300 00:20 26.01.2020
166 Clear 6 1026 33 0 6.44 311 23:38 25.01.2020
167 Clear 8 1025 26 0 6.24 325 23:20 25.01.2020
168 Clear 8 1025 26 0 6.24 325 22:43 25.01.2020
169 Clear 8 1025 26 0 6.24 325 22:20 25.01.2020
170 Clear 8 1025 26 0 6.24 325 22:20 25.01.2020
171 Clear 8 1025 26 0 6.24 325 21:59 25.01.2020
172 Clear 8 1025 26 0 6.24 325 21:41 25.01.2020
173 Clear 8 1025 26 0 6.24 325 21:22 25.01.2020
174 Clear 8 1025 26 0 6.24 325 20:54 25.01.2020
175 Clear 8 1025 26 0 6.24 325 20:36 25.01.2020
176 Clear 11 1024 32 0 5.74 326 20:18 25.01.2020
177 Clear 11 1024 35 0 5.67 325 19:41 25.01.2020
178 Clear 11 1024 35 0 5.67 325 19:19 25.01.2020
179 Clear 11 1024 32 0 5.74 326 18:56 25.01.2020
180 Clear 11 1024 32 0 5.74 326 18:37 25.01.2020
181 Clear 11 1024 32 0 5.74 326 18:19 25.01.2020
182 Clear 11 1024 35 0 5.67 325 17:39 25.01.2020
183 Clear 14 1021 31 0 6.09 309 17:19 25.01.2020
184 Clear 13 1022 34 0 5.74 312 16:56 25.01.2020
185 Clear 14 1021 31 0 6.09 309 16:38 25.01.2020
186 Clear 14 1021 31 0 6.09 309 16:19 25.01.2020
187 Clear 14 1021 31 0 6.09 309 15:42 25.01.2020
188 Clear 14 1021 31 0 6.09 309 15:24 25.01.2020
189 Clear 14 1021 31 0 6.09 309 14:47 25.01.2020
190 Clear 16 1019 26 0 6.53 293 14:20 25.01.2020
191 Clear 16 1019 26 0 6.53 293 13:58 25.01.2020
192 Clear 16 1019 26 0 6.53 293 13:39 25.01.2020
193 Clear 16 1019 26 0 6.93 296 13:20 25.01.2020
194 Clear 16 1019 26 0 6.93 296 12:43 25.01.2020
195 Clear 16 1022 29 6000 6.7 320 12:21 25.01.2020
196 Clear 16 1022 29 6000 6.7 320 11:45 25.01.2020
197 Clear 16 1022 29 6000 6.7 320 11:21 25.01.2020
198 Dust 14 1023 33 5000 5.7 350 10:57 25.01.2020
199 Dust 14 1023 33 5000 5.7 350 10:39 25.01.2020
200 Dust 14 1023 33 5000 5.7 350 10:20 25.01.2020
201 Dust 14 1023 33 5000 5.7 350 10:20 25.01.2020
202 Dust 14 1023 35 5000 5.7 330 09:41 25.01.2020
203 Dust 14 1023 35 5000 5.7 330 09:22 25.01.2020
204 Clear 12 1024 40 6000 5.1 330 08:44 25.01.2020
205 Clear 12 1024 40 6000 5.1 330 08:21 25.01.2020
206 Clear 11 1023 40 6000 5.1 340 07:43 25.01.2020
207 Clear 10 1022 39 7000 4.1 320 06:51 25.01.2020
208 Clear 10 1022 39 7000 4.1 320 06:27 25.01.2020
209 Clear 8 1021 38 10000 6.73 265 05:45 25.01.2020
210 Clear 10 1020 43 10000 2.1 210 04:26 25.01.2020
211 Clear 10 1019 43 10000 2.1 180 03:50 25.01.2020
212 Clear 10 1019 46 10000 1.5 150 02:53 25.01.2020
213 Clear 10 1019 43 10000 2.6 160 01:59 25.01.2020
214 Clear 10 1019 43 10000 2.6 160 01:59 25.01.2020
215 Clear 10 1019 43 10000 2.6 160 01:37 25.01.2020
216 Clear 10 1019 43 10000 2.6 160 01:37 25.01.2020
217 Clear 11 1019 40 10000 2.1 160 00:42 25.01.2020
218 Clear 11 1019 40 10000 2.1 160 00:23 25.01.2020
219 Clear 11 1020 40 10000 2.6 170 23:57 24.01.2020
220 Clear 11 1020 40 10000 2.6 170 23:38 24.01.2020
221 Clear 11 1020 40 10000 2.6 170 23:38 24.01.2020
222 Clear 11 1020 40 10000 2.6 170 23:38 24.01.2020
223 Clear 11 1020 40 10000 2.6 170 23:19 24.01.2020
224 Clear 12 1020 34 10000 4.1 170 22:42 24.01.2020
225 Clear 12 1020 34 10000 4.1 170 22:23 24.01.2020
226 Clear 12 1020 34 10000 2.1 160 21:41 24.01.2020
227 Clear 12 1020 34 10000 2.1 160 21:20 24.01.2020
228 Clear 12 1020 34 10000 2.1 160 21:20 24.01.2020
229 Clear 12 1020 34 10000 1 150 20:55 24.01.2020
230 Clear 12 1020 34 10000 1 150 20:37 24.01.2020
231 Clear 12 1020 29 10000 1 150 20:18 24.01.2020
232 Clear 13 1020 35 10000 2.6 150 19:55 24.01.2020
233 Clear 13 1020 35 10000 2.6 150 19:37 24.01.2020
234 Clear 13 1020 35 10000 2.6 150 19:19 24.01.2020
235 Clear 14 1020 33 10000 2.6 160 19:19 24.01.2020
236 Clear 14 1020 33 10000 2.6 160 18:42 24.01.2020
237 Clear 14 1020 33 10000 2.6 160 18:42 24.01.2020
238 Clear 14 1020 33 10000 2.6 160 18:22 24.01.2020
239 Clear 14 1019 29 10000 1.5 130 17:45 24.01.2020
240 Clear 14 1019 26 10000 1.5 130 17:22 24.01.2020
241 Clear 16 1019 26 10000 1.5 130 16:57 24.01.2020
242 Clear 16 1019 26 10000 1.5 130 16:38 24.01.2020
243 Clear 16 1019 26 10000 1.5 130 16:19 24.01.2020
244 Clear 17 1018 26 10000 1.5 130 15:42 24.01.2020
245 Clear 17 1018 26 10000 1.5 130 15:21 24.01.2020
246 Clear 17 1018 33 10000 1.5 190 14:43 24.01.2020
247 Clear 17 1018 33 10000 1.5 190 14:24 24.01.2020
248 Clear 17 1019 21 10000 1.5 230 13:59 24.01.2020
249 Clear 17 1019 21 10000 1.5 230 13:40 24.01.2020
250 Clear 17 1019 21 10000 1.5 230 13:21 24.01.2020
251 Clear 17 1020 21 10000 2.1 230 12:42 24.01.2020
252 Clear 17 1020 21 10000 2.1 230 12:20 24.01.2020
253 Clear 17 1021 21 10000 1.5 330 11:44 24.01.2020
254 Clear 17 1021 22 10000 1.5 330 11:19 24.01.2020
255 Clear 15 1022 22 10000 1.5 110 10:56 24.01.2020
256 Clear 15 1022 22 10000 1.5 110 10:38 24.01.2020
257 Clear 15 1022 22 10000 1.5 110 10:18 24.01.2020
258 Clear 14 1023 44 10000 1 70 09:41 24.01.2020
259 Clear 14 1023 44 10000 1 70 09:23 24.01.2020
260 Clear 15 1024 38 10000 1.5 350 08:41 24.01.2020
261 Clear 11 1024 50 10000 1.38 93 08:21 24.01.2020
262 Clear 11 1024 50 10000 1.38 93 07:58 24.01.2020
263 Clear 11 1024 50 10000 1.38 93 07:37 24.01.2020
264 Clear 7 1023 56 10000 1 290 06:53 24.01.2020
265 Clear 7 1023 56 10000 1 290 06:33 24.01.2020
266 Clear 4 1022 69 10000 1.38 93 05:59 24.01.2020
267 Clear 4 1022 69 10000 1.3 13 05:18 24.01.2020
268 Clear 6 1021 56 10000 2.6 290 02:54 24.01.2020
269 Clear 6 1021 56 10000 2.6 290 02:26 24.01.2020
270 Clear 7 1022 52 10000 3.1 290 01:49 24.01.2020
271 Clear 7 1022 52 10000 3.1 290 01:31 24.01.2020
272 Clear 7 1022 52 10000 4.1 300 00:26 24.01.2020
273 Clear 6 1022 40 10000 3.13 4 23:51 23.01.2020
274 Clear 6 1022 40 10000 3.13 4 23:31 23.01.2020
275 Clear 8 1023 40 10000 1 40 22:59 23.01.2020
276 Clear 8 1023 40 10000 1 40 22:38 23.01.2020
277 Clear 8 1023 40 10000 1 40 22:19 23.01.2020
278 Clear 9 1023 45 10000 3.1 350 21:58 23.01.2020
279 Clear 9 1023 45 10000 3.1 350 21:39 23.01.2020
280 Clear 9 1023 45 10000 3.1 350 21:20 23.01.2020
281 Clear 10 1023 43 10000 3.1 350 20:59 23.01.2020
282 Clear 10 1023 43 10000 3.1 350 20:39 23.01.2020
283 Clear 10 1023 43 10000 3.1 350 20:20 23.01.2020
284 Clear 11 1023 40 10000 3.1 350 19:56 23.01.2020
285 Clear 11 1023 40 10000 3.1 350 19:38 23.01.2020
286 Clear 11 1023 40 10000 3.1 350 19:19 23.01.2020
287 Clouds 13 1022 34 10000 4.1 350 18:55 23.01.2020
288 Clouds 13 1022 34 10000 4.1 350 18:36 23.01.2020
289 Clouds 13 1022 34 10000 4.1 350 18:18 23.01.2020
290 Clouds 13 1021 35 10000 4.1 350 17:43 23.01.2020
291 Clouds 13 1021 35 10000 4.1 350 17:20 23.01.2020
292 Clouds 14 1020 33 10000 4.6 350 16:57 23.01.2020
293 Clouds 14 1020 33 10000 4.6 350 16:37 23.01.2020
294 Clouds 14 1020 33 10000 4.6 350 16:18 23.01.2020
295 Clouds 15 1020 30 10000 5.7 350 15:56 23.01.2020
296 Clouds 15 1020 30 10000 5.7 350 15:37 23.01.2020
297 Clouds 15 1020 30 10000 5.7 350 15:18 23.01.2020
298 Clouds 16 1019 29 10000 6.2 340 14:55 23.01.2020
299 Clouds 16 1019 29 10000 6.2 340 14:37 23.01.2020
300 Clouds 16 1019 29 10000 6.2 340 14:19 23.01.2020
301 Clouds 16 1019 29 10000 5.7 340 13:40 23.01.2020
302 Clouds 16 1019 29 10000 5.7 340 13:20 23.01.2020
303 Clouds 16 1020 31 10000 4.6 350 12:47 23.01.2020
304 Clouds 16 1020 31 10000 4.6 350 12:25 23.01.2020
305 Clouds 16 1020 31 10000 4.6 340 11:59 23.01.2020
306 Clouds 16 1020 31 10000 4.6 340 11:39 23.01.2020
307 Clouds 15 1021 33 10000 4.1 340 11:19 23.01.2020
308 Clouds 15 1021 33 10000 4.1 340 10:45 23.01.2020
309 Clouds 15 1021 33 10000 4.1 340 10:23 23.01.2020
310 Clouds 13 1022 37 10000 4.1 350 09:59 23.01.2020
311 Clouds 13 1022 37 10000 4.1 350 09:39 23.01.2020
312 Clouds 11 1023 40 10000 4.1 350 09:20 23.01.2020
313 Clouds 11 1023 40 10000 4.1 350 08:42 23.01.2020
314 Clouds 11 1023 40 10000 4.1 350 08:24 23.01.2020
315 Clouds 11 1023 40 10000 4.1 350 08:24 23.01.2020
316 Clouds 10 1023 43 10000 4.1 350 07:48 23.01.2020
317 Clouds 10 1023 43 10000 4.1 350 07:27 23.01.2020
318 Clouds 10 1022 39 10000 3.6 340 06:54 23.01.2020
319 Clouds 10 1022 39 10000 3.6 340 06:23 23.01.2020
320 Clouds 9 1021 42 10000 4.1 340 05:58 23.01.2020
321 Clouds 9 1020 42 10000 4.6 340 04:24 23.01.2020
322 Clouds 10 1020 43 10000 6.2 350 02:45 23.01.2020
323 Clouds 11 1020 34 10000 6.2 350 01:44 23.01.2020
324 Clouds 12 1019 32 10000 4.6 350 00:28 23.01.2020
325 Clouds 12 1019 37 10000 4.6 360 23:54 22.01.2020
326 Clouds 12 1019 37 10000 4.6 360 23:36 22.01.2020
327 Clouds 12 1019 37 10000 4.6 360 23:18 22.01.2020
328 Clouds 13 1019 37 10000 4.6 10 22:41 22.01.2020
329 Clouds 13 1019 37 10000 4.6 10 22:23 22.01.2020
330 Clouds 13 1019 37 10000 5.7 10 21:42 22.01.2020
331 Clouds 13 1019 37 10000 5.7 10 21:22 22.01.2020
332 Clouds 14 1019 35 10000 4.1 10 20:59 22.01.2020
333 Clouds 14 1019 35 10000 4.1 10 20:41 22.01.2020
334 Clouds 14 1019 35 10000 4.1 10 20:23 22.01.2020
335 Clouds 14 1018 35 10000 5.1 10 19:57 22.01.2020
336 Clouds 14 1018 35 10000 5.1 10 19:39 22.01.2020
337 Clouds 14 1018 35 10000 5.1 10 19:19 22.01.2020
338 Clouds 16 1018 34 10000 7.2 350 18:57 22.01.2020
339 Clouds 16 1018 34 10000 7.2 350 18:38 22.01.2020
340 Clouds 16 1018 34 10000 7.2 350 18:20 22.01.2020
341 Clouds 16 1017 34 10000 5.7 350 17:55 22.01.2020
342 Clouds 16 1017 34 10000 5.7 350 17:37 22.01.2020
343 Clouds 16 1017 29 10000 5.7 350 17:19 22.01.2020
344 Clear 17 1016 29 10000 6.7 360 16:43 22.01.2020
345 Clear 17 1016 29 10000 6.7 360 16:23 22.01.2020
346 Clear 18 1015 31 10000 6.2 350 15:59 22.01.2020
347 Clear 18 1015 31 10000 6.2 350 15:40 22.01.2020
348 Clear 18 1015 31 10000 6.2 350 15:22 22.01.2020
349 Clear 20 1014 28 10000 6.2 330 14:57 22.01.2020
350 Clear 20 1014 28 10000 6.2 330 14:37 22.01.2020
351 Clear 20 1014 30 10000 4.6 320 14:18 22.01.2020
352 Clear 20 1014 30 10000 4.6 320 13:54 22.01.2020
353 Clear 20 1014 30 10000 4.6 320 13:36 22.01.2020
354 Clear 20 1015 30 10000 5.1 340 13:18 22.01.2020
355 Clear 20 1015 30 10000 5.1 340 12:54 22.01.2020
356 Clear 20 1015 30 10000 5.1 340 12:36 22.01.2020
357 Clear 20 1015 30 10000 5.1 340 12:18 22.01.2020
358 Clouds 20 1015 30 10000 6.2 330 11:55 22.01.2020
359 Clouds 20 1015 30 10000 6.2 330 11:36 22.01.2020
360 Clouds 20 1015 30 10000 6.2 330 11:18 22.01.2020
361 Clouds 19 1016 32 10000 5.1 290 10:42 22.01.2020
362 Clouds 19 1016 32 10000 5.1 290 10:19 22.01.2020
363 Clouds 20 1017 34 10000 2.6 230 09:43 22.01.2020
364 Clouds 20 1017 34 10000 2.6 230 09:24 22.01.2020
365 Clouds 18 1017 42 8000 1.5 220 08:57 22.01.2020
366 Clouds 18 1017 42 8000 1.5 220 08:57 22.01.2020
367 Clouds 18 1017 42 8000 1.5 220 08:39 22.01.2020
368 Clouds 18 1017 42 8000 1.5 220 08:20 22.01.2020
369 Clouds 17 1017 42 8000 1.5 240 07:47 22.01.2020
370 Clouds 17 1017 42 8000 1.5 240 07:29 22.01.2020
371 Clear 14 1016 47 8000 1.5 210 06:46 22.01.2020
372 Clear 14 1016 47 8000 1.5 210 06:26 22.01.2020
373 Clear 13 1016 50 8000 1.5 170 05:26 22.01.2020
374 Clear 15 1014 46 8000 6.7 170 03:30 22.01.2020
375 Clear 15 1014 33 8000 7.2 170 02:57 22.01.2020
376 Clear 15 1013 33 8000 7.2 170 01:42 22.01.2020
377 Clear 15 1014 42 8000 6.7 170 00:44 22.01.2020
378 Clear 15 1014 42 8000 6.7 170 00:26 22.01.2020
379 Clear 15 1014 33 8000 7.7 170 23:38 21.01.2020
380 Clear 15 1014 33 8000 7.7 170 23:20 21.01.2020
381 Clear 16 1015 40 9000 6.2 170 22:55 21.01.2020
382 Clear 16 1015 40 9000 6.2 170 22:55 21.01.2020
383 Clear 16 1015 40 9000 6.2 170 22:36 21.01.2020
384 Clear 16 1015 40 9000 6.2 170 22:18 21.01.2020
385 Clear 17 1015 40 7000 8.7 170 21:55 21.01.2020
386 Clear 17 1015 40 7000 8.7 170 21:36 21.01.2020
387 Clear 17 1015 40 10000 5.7 160 21:18 21.01.2020
388 Clear 17 1015 40 10000 5.7 160 20:39 21.01.2020
389 Clear 17 1015 37 10000 5.7 160 20:20 21.01.2020
390 Clear 17 1016 33 10000 4.1 150 19:59 21.01.2020
391 Clear 17 1016 33 10000 4.1 150 19:40 21.01.2020
392 Clear 17 1016 33 10000 4.1 150 19:21 21.01.2020
393 Clear 18 1016 31 10000 4.6 150 18:57 21.01.2020
394 Clear 18 1016 31 10000 4.6 150 18:57 21.01.2020
395 Clear 18 1016 31 10000 4.6 150 18:39 21.01.2020
396 Clear 18 1016 31 10000 4.6 150 18:21 21.01.2020
397 Clear 19 1016 32 10000 4.1 150 17:59 21.01.2020
398 Clear 19 1016 32 10000 4.1 150 17:40 21.01.2020
399 Clear 19 1016 32 10000 4.1 150 17:18 21.01.2020
400 Clear 19 1016 32 10000 4.1 150 17:18 21.01.2020
401 Clear 19 1015 34 10000 3.6 150 16:38 21.01.2020
402 Clear 20 1015 30 10000 5.7 170 16:20 21.01.2020
403 Clear 20 1015 30 10000 5.7 170 15:59 21.01.2020
404 Clear 20 1015 30 10000 5.7 170 15:39 21.01.2020
405 Clear 20 1015 30 10000 5.7 170 15:19 21.01.2020
406 Clear 20 1015 30 10000 5.7 170 15:19 21.01.2020
407 Clear 21 1015 30 10000 4.6 160 14:40 21.01.2020
408 Clear 21 1015 30 10000 4.6 160 14:22 21.01.2020
409 Clear 21 1015 30 10000 5.7 170 13:55 21.01.2020
410 Clear 21 1015 30 10000 5.7 170 13:37 21.01.2020
411 Clear 21 1015 30 10000 5.7 170 13:18 21.01.2020
412 Clear 20 1016 32 10000 5.1 170 12:42 21.01.2020
413 Clear 20 1016 32 10000 5.1 170 12:24 21.01.2020
414 Clear 19 1017 34 10000 5.7 170 11:56 21.01.2020
415 Clear 19 1017 34 10000 5.7 170 11:38 21.01.2020
416 Clear 19 1017 34 10000 5.7 170 11:19 21.01.2020
417 Clear 19 1019 37 10000 4.1 160 10:43 21.01.2020
418 Clear 19 1019 37 10000 4.1 160 10:23 21.01.2020
419 Clouds 18 1020 42 10000 3.6 160 09:56 21.01.2020
420 Clouds 18 1020 42 10000 3.6 160 09:38 21.01.2020
421 Clear 17 1020 45 10000 4.1 160 09:19 21.01.2020
422 Clear 17 1020 45 10000 4.1 160 08:41 21.01.2020
423 Clear 17 1020 45 10000 4.1 160 08:22 21.01.2020
424 Clear 15 1020 51 10000 3.1 160 07:43 21.01.2020
425 Clear 15 1020 51 10000 3.1 160 07:24 21.01.2020
426 Clear 11 1020 66 8000 1 140 06:57 21.01.2020
427 Clear 11 1020 66 8000 1 140 06:38 21.01.2020
428 Clear 9 1020 70 8000 1 130 05:53 21.01.2020
429 Clear 9 1020 70 8000 1 130 05:32 21.01.2020
430 Clear 10 1019 66 10000 1.5 150 04:37 21.01.2020
431 Clear 11 1019 62 10000 1 140 02:27 21.01.2020
432 Clear 11 1019 62 10000 1.5 140 01:36 21.01.2020
433 Clear 12 1020 58 10000 2.1 140 00:41 21.01.2020
434 Clear 12 1020 58 10000 2.1 140 00:22 21.01.2020
435 Clear 12 1020 58 10000 1.5 170 23:41 20.01.2020
436 Clear 12 1020 58 10000 1.5 170 23:19 20.01.2020
437 Clear 12 1021 58 10000 3.5 109 23:00 20.01.2020
438 Clear 12 1021 58 10000 3.5 109 22:39 20.01.2020
439 Clear 12 1021 58 10000 3.5 109 22:21 20.01.2020
440 Clear 13 1021 54 10000 3.5 109 21:58 20.01.2020
441 Clear 13 1021 54 10000 3.5 109 21:58 20.01.2020
442 Clear 13 1021 54 10000 3.5 109 21:38 20.01.2020
443 Clear 13 1021 54 10000 3.5 109 21:20 20.01.2020
444 Clear 14 1022 50 10000 2.1 80 20:58 20.01.2020
445 Clear 14 1022 50 10000 2.1 80 20:39 20.01.2020
446 Clear 14 1022 50 10000 2.1 80 20:19 20.01.2020
447 Clear 14 1022 50 10000 2.1 80 20:19 20.01.2020
448 Clear 14 1022 50 10000 1.5 120 19:57 20.01.2020
449 Clear 14 1022 50 10000 1.5 120 19:38 20.01.2020
450 Clear 14 1022 50 10000 1.5 120 19:19 20.01.2020
451 Clear 15 1022 47 10000 1.5 80 18:45 20.01.2020
452 Clear 15 1022 47 10000 1.5 80 18:24 20.01.2020
453 Clear 17 1022 36 10000 2.1 70 17:59 20.01.2020
454 Clear 17 1022 36 10000 2.1 70 17:37 20.01.2020
455 Clear 17 1022 36 10000 2.1 70 17:18 20.01.2020
456 Clear 18 1021 31 10000 2.1 50 16:45 20.01.2020
457 Clear 18 1021 31 10000 2.1 50 16:25 20.01.2020
458 Clear 20 1021 28 10000 3.1 70 15:58 20.01.2020
459 Clear 20 1021 28 10000 3.1 70 15:40 20.01.2020
460 Clear 20 1021 28 10000 3.1 70 15:21 20.01.2020
461 Clear 21 1020 26 10000 2.6 40 14:55 20.01.2020
462 Clear 21 1020 26 10000 2.6 40 14:36 20.01.2020
463 Clear 21 1020 26 10000 2.6 40 14:18 20.01.2020
464 Clear 21 1021 32 10000 2.1 20 13:41 20.01.2020
465 Clear 21 1021 32 10000 2.1 20 13:23 20.01.2020
466 Clear 21 1021 29 10000 3.1 70 12:56 20.01.2020
467 Clear 21 1021 29 10000 3.1 70 12:38 20.01.2020
468 Clear 21 1021 29 10000 3.1 70 12:19 20.01.2020
469 Clear 20 1022 28 10000 2.6 120 11:43 20.01.2020
470 Clear 20 1022 28 10000 2.6 120 11:24 20.01.2020
471 Clear 20 1023 28 10000 3.1 90 10:57 20.01.2020
472 Clear 20 1023 28 10000 3.1 90 10:39 20.01.2020
473 Clear 20 1023 28 10000 3.1 90 10:19 20.01.2020
474 Clear 18 1024 36 10000 2.6 70 09:41 20.01.2020
475 Clear 18 1024 36 10000 2.6 70 09:41 20.01.2020
476 Clear 18 1024 36 10000 2.6 70 09:21 20.01.2020
477 Clear 16 1024 44 10000 2.1 60 08:49 20.01.2020
478 Clear 16 1024 44 10000 2.1 60 08:30 20.01.2020
479 Clouds 16 1024 48 10000 1 330 07:53 20.01.2020
480 Clouds 16 1024 48 10000 1 330 07:30 20.01.2020
481 Clouds 11 1023 62 10000 1 290 06:59 20.01.2020
482 Clouds 11 1023 62 10000 1 290 06:30 20.01.2020
483 Clouds 9 1022 70 10000 3.17 63 05:44 20.01.2020
484 Clouds 9 1022 70 10000 3.17 63 05:25 20.01.2020
485 Clouds 10 1021 71 10000 2.23 54 04:49 20.01.2020
486 Clouds 11 1021 66 10000 2.23 54 02:59 20.01.2020
487 Clouds 11 1020 71 10000 1 10 01:57 20.01.2020
488 Clouds 11 1020 71 10000 1 10 01:37 20.01.2020
489 Clouds 12 1020 66 10000 4.94 47 00:45 20.01.2020
490 Clouds 12 1020 66 10000 4.94 47 00:25 20.01.2020
491 Clouds 13 1020 62 10000 1 40 23:40 19.01.2020
492 Clear 13 1020 62 10000 1 40 23:20 19.01.2020
493 Clear 14 1020 58 10000 1 50 22:58 19.01.2020
494 Clear 14 1020 58 10000 1 50 22:40 19.01.2020
495 Clear 14 1020 58 10000 1 50 22:21 19.01.2020
496 Clear 14 1020 54 10000 2.1 30 21:57 19.01.2020
497 Clear 14 1020 54 10000 2.1 30 21:57 19.01.2020
498 Clear 14 1020 54 10000 2.1 30 21:39 19.01.2020
499 Clear 14 1020 54 10000 2.1 30 21:21 19.01.2020
500 Clear 15 1020 51 10000 2.6 20 20:58 19.01.2020
501 Clear 15 1020 51 10000 2.6 20 20:39 19.01.2020
502 Clear 15 1020 51 10000 2.6 20 20:21 19.01.2020
503 Clouds 16 1019 51 10000 2.1 30 19:58 19.01.2020
504 Clouds 16 1019 51 10000 2.1 30 19:39 19.01.2020
505 Clouds 16 1019 51 10000 2.1 30 19:39 19.01.2020
506 Clouds 16 1019 51 10000 2.1 30 19:21 19.01.2020
507 Clouds 17 1019 51 10000 1.5 40 18:59 19.01.2020
508 Clouds 17 1019 51 10000 1.5 40 18:41 19.01.2020
509 Clouds 17 1019 51 10000 1.5 40 18:21 19.01.2020
510 Clouds 18 1018 42 8000 3.1 30 17:59 19.01.2020
511 Clouds 18 1018 42 8000 3.1 30 17:40 19.01.2020
512 Clouds 18 1018 42 8000 3.1 30 17:22 19.01.2020
513 Clouds 19 1017 45 8000 3.1 30 16:59 19.01.2020
514 Clouds 19 1017 45 8000 3.1 30 16:40 19.01.2020
515 Clouds 19 1017 45 8000 3.1 30 16:40 19.01.2020
516 Clouds 19 1017 45 8000 3.1 30 16:21 19.01.2020
517 Clouds 21 1017 40 8000 3.1 10 15:59 19.01.2020
518 Clouds 21 1017 40 8000 3.1 10 15:40 19.01.2020
519 Clouds 21 1017 40 8000 3.1 10 15:21 19.01.2020
520 Clouds 21 1017 40 10000 2.6 20 14:59 19.01.2020
521 Clouds 21 1017 40 10000 2.6 20 14:39 19.01.2020
522 Clear 21 1017 40 10000 2.6 20 14:18 19.01.2020
523 Clear 22 1017 35 10000 3.1 340 13:58 19.01.2020
524 Clear 22 1017 35 10000 3.1 340 13:38 19.01.2020
525 Clear 22 1017 35 10000 3.1 340 13:20 19.01.2020
526 Clear 21 1016 40 10000 2.6 10 12:55 19.01.2020
527 Clear 21 1016 40 10000 2.6 10 12:37 19.01.2020
528 Clear 21 1016 40 10000 2.6 10 12:37 19.01.2020
529 Clear 21 1016 40 10000 2.6 10 12:19 19.01.2020
530 Clear 20 1017 42 10000 2.6 20 11:42 19.01.2020
531 Clear 20 1017 42 10000 2.6 20 11:21 19.01.2020
532 Clear 19 1018 42 9000 4.1 10 10:57 19.01.2020
533 Clear 19 1018 42 9000 4.1 10 10:39 19.01.2020
534 Clouds 17 1019 51 9000 4.1 30 10:19 19.01.2020
535 Clouds 17 1019 51 9000 4.1 30 09:56 19.01.2020
536 Clouds 17 1019 51 9000 4.1 30 09:56 19.01.2020
537 Clouds 17 1019 51 9000 4.1 30 09:56 19.01.2020
538 Clouds 17 1019 51 9000 4.1 30 09:56 19.01.2020
539 Clouds 17 1019 51 9000 4.1 30 09:56 19.01.2020
540 Clouds 17 1019 51 9000 4.1 30 09:37 19.01.2020
541 Clouds 17 1019 51 9000 4.1 30 09:19 19.01.2020
542 Clouds 16 1020 59 9000 3.6 30 08:52 19.01.2020
543 Clouds 16 1020 59 9000 3.6 30 08:30 19.01.2020
544 Clouds 15 1019 58 9000 4.1 20 07:46 19.01.2020
545 Clouds 15 1019 58 9000 4.1 20 07:26 19.01.2020
546 Clouds 14 1018 67 10000 1.5 360 06:54 19.01.2020
547 Clouds 14 1018 67 10000 1.5 360 06:21 19.01.2020
548 Clouds 11 1016 62 10000 1.5 350 03:28 19.01.2020
549 Clouds 12 1015 58 10000 1 290 02:26 19.01.2020
550 Clouds 12 1016 58 10000 2.44 259 01:29 19.01.2020
551 Clouds 13 1016 50 10000 1 40 00:54 19.01.2020
552 Clouds 15 1016 47 10000 1 40 00:31 19.01.2020
553 Clouds 15 1016 47 10000 1 40 23:59 18.01.2020
554 Clouds 15 1016 47 10000 1 40 23:41 18.01.2020
555 Clouds 15 1016 47 10000 1 40 23:23 18.01.2020
556 Clouds 15 1016 47 10000 1 40 23:23 18.01.2020
557 Clear 16 1016 38 10000 1.5 150 22:56 18.01.2020
558 Clear 16 1016 38 10000 1.5 150 22:38 18.01.2020
559 Clear 16 1016 38 10000 1.5 150 22:20 18.01.2020
560 Clear 17 1016 36 10000 1.5 150 21:57 18.01.2020
561 Clear 17 1016 36 10000 1.5 150 21:38 18.01.2020
562 Clear 17 1016 36 10000 1.5 150 21:20 18.01.2020
563 Clear 18 1016 31 10000 2.6 160 20:44 18.01.2020
564 Clouds 18 1016 31 10000 2.6 160 20:21 18.01.2020
565 Clouds 19 1016 34 10000 2.1 160 19:59 18.01.2020
566 Clouds 19 1016 34 10000 2.1 160 19:59 18.01.2020
567 Clouds 19 1016 34 10000 2.1 160 19:41 18.01.2020
568 Clouds 19 1016 34 10000 2.1 160 19:22 18.01.2020
569 Clouds 19 1016 37 10000 1 150 18:42 18.01.2020
570 Clouds 19 1016 37 10000 1 150 18:22 18.01.2020
571 Clouds 20 1016 37 8000 1.5 140 17:56 18.01.2020
572 Clouds 20 1016 37 8000 1.5 140 17:37 18.01.2020
573 Clear 23 1015 31 8000 1.5 160 17:19 18.01.2020
574 Clear 23 1015 31 8000 1.5 160 16:55 18.01.2020
575 Clear 23 1015 31 8000 1.5 160 16:36 18.01.2020
576 Clear 23 1015 31 8000 1.5 160 16:18 18.01.2020
577 Clear 25 1015 29 8000 1.5 160 15:41 18.01.2020
578 Clear 25 1015 29 8000 1.5 160 15:23 18.01.2020
579 Clear 25 1015 29 9000 2.6 220 14:55 18.01.2020
580 Clear 25 1015 29 9000 2.6 220 14:37 18.01.2020
581 Clouds 25 1015 23 9000 3.1 200 14:18 18.01.2020
582 Clouds 25 1015 23 9000 3.1 200 13:43 18.01.2020
583 Clouds 25 1015 23 9000 3.1 200 13:24 18.01.2020
584 Clouds 24 1015 25 9000 3.1 190 12:57 18.01.2020
585 Clouds 24 1015 25 9000 3.1 190 12:38 18.01.2020
586 Clouds 24 1015 25 9000 3.1 190 12:19 18.01.2020
587 Clouds 23 1016 23 9000 3.1 170 11:44 18.01.2020
588 Clouds 23 1016 23 9000 3.1 170 11:21 18.01.2020
589 Clouds 22 1017 24 9000 3.6 180 10:56 18.01.2020
590 Clouds 22 1017 24 9000 3.6 180 10:38 18.01.2020
591 Clouds 20 1018 30 10000 2.6 140 10:19 18.01.2020
592 Clouds 20 1018 30 10000 2.6 140 09:42 18.01.2020
593 Clouds 20 1018 30 10000 2.6 140 09:24 18.01.2020
594 Clouds 18 1019 31 10000 3.6 160 08:55 18.01.2020
595 Clouds 18 1019 31 10000 3.6 160 08:37 18.01.2020
596 Clear 18 1019 31 10000 3.6 160 08:18 18.01.2020
597 Clear 18 1019 31 10000 3.6 160 08:18 18.01.2020
598 Clear 15 1018 27 10000 4.1 160 07:44 18.01.2020
599 Clear 15 1018 27 10000 4.1 160 07:25 18.01.2020
600 Clear 12 1018 46 10000 2.6 140 06:46 18.01.2020
601 Clear 10 1018 53 10000 2.1 120 05:58 18.01.2020
602 Clouds 10 1017 57 10000 2.1 140 04:35 18.01.2020
603 Clouds 12 1016 46 10000 2.6 160 02:50 18.01.2020
604 Clear 13 1017 43 10000 3.1 170 01:51 18.01.2020
605 Clear 14 1017 40 10000 4.1 180 00:40 18.01.2020
606 Clear 14 1017 40 10000 4.1 180 00:21 18.01.2020
607 Clear 15 1018 40 10000 4.6 180 23:59 17.01.2020
608 Clear 15 1018 40 10000 4.6 180 23:40 17.01.2020
609 Clear 15 1018 38 10000 4.6 180 23:19 17.01.2020
610 Clear 16 1018 36 10000 3.1 180 22:43 17.01.2020
611 Clear 16 1018 36 10000 3.1 180 22:21 17.01.2020
612 Clear 16 1019 36 10000 2.1 190 21:57 17.01.2020
613 Clear 16 1019 36 10000 2.1 190 21:39 17.01.2020
614 Clear 16 1019 36 10000 2.1 190 21:20 17.01.2020
615 Clear 17 1018 38 10000 4.6 180 20:55 17.01.2020
616 Clear 17 1018 38 10000 4.6 180 20:37 17.01.2020
617 Clear 17 1018 32 10000 4.6 180 20:18 17.01.2020
618 Clear 17 1019 33 8000 4.6 170 19:54 17.01.2020
619 Clear 17 1019 33 8000 4.6 170 19:36 17.01.2020
620 Clear 17 1019 33 8000 4.6 170 19:36 17.01.2020
621 Clear 17 1019 33 8000 4.6 170 19:18 17.01.2020
622 Clear 17 1019 33 8000 3.6 160 18:44 17.01.2020
623 Clear 17 1019 33 8000 3.6 160 18:26 17.01.2020
624 Clear 18 1018 31 8000 3.6 170 17:56 17.01.2020
625 Clear 18 1018 31 8000 3.6 170 17:38 17.01.2020
626 Clear 18 1018 31 8000 3.6 170 17:20 17.01.2020
627 Clear 19 1018 29 8000 3.6 160 16:42 17.01.2020
628 Clear 19 1018 29 8000 3.6 160 16:20 17.01.2020
629 Clear 21 1017 27 8000 5.1 170 15:48 17.01.2020
630 Clear 21 1017 27 8000 5.1 170 15:28 17.01.2020
631 Clear 22 1018 24 10000 4.6 160 14:56 17.01.2020
632 Clear 22 1018 24 10000 4.6 160 14:56 17.01.2020
633 Clear 22 1018 24 10000 4.6 160 14:38 17.01.2020
634 Clouds 22 1018 24 10000 4.6 160 14:20 17.01.2020
635 Clouds 22 1018 24 10000 4.6 160 14:20 17.01.2020
636 Clouds 22 1018 24 10000 5.1 160 13:41 17.01.2020
637 Clear 22 1018 24 10000 5.1 160 13:22 17.01.2020
638 Clear 22 1019 24 10000 6.2 170 12:45 17.01.2020
639 Clear 22 1019 24 10000 6.2 170 12:23 17.01.2020
640 Clear 22 1019 24 10000 6.2 170 12:23 17.01.2020
641 Clear 20 1019 28 10000 6.2 170 11:41 17.01.2020
642 Clear 20 1019 28 10000 6.2 170 11:20 17.01.2020
643 Clear 19 1021 32 10000 6.2 170 10:55 17.01.2020
644 Clear 19 1021 32 10000 6.2 170 10:36 17.01.2020
645 Clear 19 1021 32 10000 6.2 170 10:18 17.01.2020
646 Clear 17 1022 42 10000 6.7 170 09:42 17.01.2020
647 Clear 16 1022 48 10000 7.2 170 09:20 17.01.2020
648 Clear 16 1022 48 10000 7.2 170 08:55 17.01.2020
649 Clear 16 1022 48 10000 7.2 170 08:37 17.01.2020
650 Clouds 15 1022 47 10000 6.7 170 08:18 17.01.2020
651 Clouds 15 1022 47 10000 6.7 170 07:43 17.01.2020
652 Clouds 15 1022 47 10000 6.7 170 07:24 17.01.2020
653 Clouds 12 1022 58 10000 4.1 170 06:43 17.01.2020
654 Clouds 12 1022 58 10000 4.1 170 06:20 17.01.2020
655 Clear 10 1022 57 0 4.47 142 04:25 17.01.2020
656 Clear 10 1022 57 0 4.47 142 02:55 17.01.2020
657 Clear 11 1022 53 0 4.37 149 02:30 17.01.2020
658 Clear 11 1022 53 0 4.37 149 01:32 17.01.2020
659 Clouds 11 1022 53 0 4.29 148 00:59 17.01.2020
660 Clouds 11 1022 53 0 4.29 148 00:35 17.01.2020
661 Clouds 11 1023 62 10000 1.5 150 23:56 16.01.2020
662 Clouds 11 1023 62 10000 1.5 150 23:38 16.01.2020
663 Clear 11 1023 62 10000 1.5 150 23:19 16.01.2020
664 Clear 11 1023 57 10000 2.1 160 22:40 16.01.2020
665 Clear 11 1023 57 10000 2.1 160 22:21 16.01.2020
666 Clear 11 1023 62 10000 1.5 140 21:57 16.01.2020
667 Clear 11 1023 62 10000 1.5 140 21:37 16.01.2020
668 Clear 11 1023 62 10000 1.5 140 21:19 16.01.2020
669 Clear 12 1024 58 10000 1.5 150 20:56 16.01.2020
670 Clear 12 1024 58 10000 1.5 150 20:37 16.01.2020
671 Clouds 12 1024 58 10000 1.5 150 20:18 16.01.2020
672 Clouds 13 1023 54 10000 1.5 160 19:55 16.01.2020
673 Clouds 13 1023 54 10000 1.5 160 19:37 16.01.2020
674 Clouds 13 1023 54 10000 1.5 160 19:18 16.01.2020
675 Clouds 13 1023 54 10000 1.5 150 18:55 16.01.2020
676 Clouds 13 1023 54 10000 1.5 150 18:36 16.01.2020
677 Clouds 13 1023 54 10000 1.5 150 18:18 16.01.2020
678 Clouds 15 1023 47 10000 2.1 130 17:41 16.01.2020
679 Clear 15 1023 47 10000 2.1 130 17:23 16.01.2020
680 Clear 16 1023 38 10000 2.1 130 16:57 16.01.2020
681 Clear 16 1023 38 10000 2.1 130 16:38 16.01.2020
682 Clear 16 1023 38 10000 2.1 130 16:19 16.01.2020
683 Clear 18 1023 34 10000 3.1 150 15:44 16.01.2020
684 Clear 18 1023 34 10000 3.1 150 15:22 16.01.2020
685 Clear 19 1022 29 10000 3.6 160 14:57 16.01.2020
686 Clear 19 1022 29 10000 3.6 160 14:38 16.01.2020
687 Clear 19 1022 29 10000 3.6 160 14:19 16.01.2020
688 Clear 19 1022 29 10000 3.6 170 13:44 16.01.2020
689 Clear 19 1022 29 10000 3.6 170 13:25 16.01.2020
690 Clear 18 1023 31 10000 4.1 170 12:46 16.01.2020
691 Clear 18 1023 31 10000 4.1 170 12:28 16.01.2020
692 Clear 17 1024 21 10000 4.1 180 11:58 16.01.2020
693 Clear 17 1024 21 10000 4.1 180 11:39 16.01.2020
694 Clear 16 1025 36 10000 4.6 170 11:21 16.01.2020
695 Clear 16 1025 36 10000 4.6 170 10:40 16.01.2020
696 Clear 15 1026 38 10000 4.6 180 10:21 16.01.2020
697 Clear 15 1026 38 10000 4.6 180 09:58 16.01.2020
698 Clear 15 1026 38 10000 4.6 180 09:40 16.01.2020
699 Clear 15 1026 38 10000 4.6 180 09:22 16.01.2020
700 Clear 14 1027 44 10000 2.6 160 08:53 16.01.2020
701 Clear 14 1027 44 10000 2.6 160 08:35 16.01.2020
702 Clear 11 1027 53 10000 1 100 07:59 16.01.2020
703 Clear 11 1027 53 10000 1 100 07:39 16.01.2020
704 Clear 11 1027 53 10000 1 100 07:21 16.01.2020
705 Clear 8 1027 61 10000 1 150 06:43 16.01.2020
706 Clear 8 1027 61 10000 1 150 06:22 16.01.2020
707 Clear 6 1026 70 10000 1 170 05:46 16.01.2020
708 Clear 5 1026 75 10000 2.81 131 04:40 16.01.2020
709 Clear 5 1026 75 10000 2.81 131 04:40 16.01.2020
710 Clear 5 1025 75 10000 1 170 03:28 16.01.2020
711 Clear 6 1025 70 10000 2.81 131 02:43 16.01.2020
712 Clear 7 1025 65 10000 1 150 01:24 16.01.2020
713 Clear 7 1025 65 10000 1 140 00:25 16.01.2020
714 Clear 7 1026 65 10000 1 140 23:56 15.01.2020
715 Clear 7 1026 65 10000 1 140 23:37 15.01.2020
716 Clear 7 1026 65 10000 1 140 23:18 15.01.2020
717 Clear 8 1026 61 10000 2.81 125 22:42 15.01.2020
718 Clear 8 1026 61 10000 2.81 125 22:20 15.01.2020
719 Clear 9 1027 61 10000 2.81 125 21:59 15.01.2020
720 Clear 9 1027 61 10000 2.81 125 21:40 15.01.2020
721 Clear 9 1027 61 10000 2.81 125 21:22 15.01.2020
722 Clear 9 1027 57 10000 2.81 125 20:58 15.01.2020
723 Clear 9 1027 57 10000 2.81 125 20:40 15.01.2020
724 Clouds 9 1027 57 10000 2.91 95 20:22 15.01.2020
725 Clouds 10 1027 57 10000 2.91 95 19:57 15.01.2020
726 Clouds 10 1027 57 10000 2.91 95 19:38 15.01.2020
727 Clouds 10 1027 57 10000 2.91 95 19:20 15.01.2020
728 Clouds 10 1027 57 10000 2.91 95 19:20 15.01.2020
729 Clouds 11 1026 50 10000 1.5 90 18:57 15.01.2020
730 Clouds 11 1026 50 10000 1.5 90 18:57 15.01.2020
731 Clouds 11 1026 50 10000 1.5 90 18:38 15.01.2020
732 Clouds 11 1026 50 10000 1.5 90 18:20 15.01.2020
733 Clouds 12 1026 46 10000 2.1 90 17:58 15.01.2020
734 Clouds 12 1026 46 10000 2.1 90 17:40 15.01.2020
735 Clouds 12 1026 46 10000 2.1 90 17:21 15.01.2020
736 Clouds 14 1026 35 10000 2.1 90 16:55 15.01.2020
737 Clouds 14 1026 35 10000 2.1 90 16:55 15.01.2020
738 Clouds 14 1026 35 10000 2.1 90 16:36 15.01.2020
739 Clouds 14 1026 35 10000 2.1 90 16:36 15.01.2020
740 Clouds 14 1026 35 10000 2.1 90 16:18 15.01.2020
741 Clouds 15 1025 38 10000 2.1 110 15:42 15.01.2020
742 Clouds 15 1025 38 10000 2.1 110 15:20 15.01.2020
743 Clouds 15 1025 38 10000 1 70 14:55 15.01.2020
744 Clouds 15 1025 38 10000 1 70 14:37 15.01.2020
745 Clear 15 1025 38 10000 1 70 14:18 15.01.2020
746 Clear 15 1025 33 10000 2.1 60 13:41 15.01.2020
747 Clear 15 1025 33 10000 2.1 60 13:23 15.01.2020
748 Clouds 14 1025 41 10000 1.5 80 12:55 15.01.2020
749 Clouds 14 1025 41 10000 1.5 80 12:55 15.01.2020
750 Clouds 14 1025 41 10000 1.5 80 12:37 15.01.2020
751 Clouds 14 1025 41 10000 1.5 80 12:18 15.01.2020
752 Clear 15 1026 41 10000 2.74 51 11:38 15.01.2020
753 Clear 15 1026 41 10000 2.79 22 11:20 15.01.2020
754 Clear 13 1027 37 10000 2.6 340 10:48 15.01.2020
755 Clear 13 1027 37 10000 2.6 340 10:29 15.01.2020
756 Clear 12 1028 40 10000 2.6 360 09:59 15.01.2020
757 Clear 12 1028 40 10000 2.6 360 09:41 15.01.2020
758 Clear 12 1028 40 10000 2.6 360 09:21 15.01.2020
759 Clear 10 1028 43 10000 2.6 360 08:44 15.01.2020
760 Clear 10 1028 43 10000 2.6 360 08:26 15.01.2020
761 Clear 9 1028 42 10000 3.6 320 07:54 15.01.2020
762 Clear 9 1028 42 10000 3.6 320 07:33 15.01.2020
763 Clear 5 1027 56 10000 2.6 300 06:54 15.01.2020
764 Clear 5 1027 56 10000 2.6 300 06:32 15.01.2020
765 Clear 4 1026 60 10000 1.5 280 05:32 15.01.2020
766 Clear 5 1025 52 10000 2.1 300 03:20 15.01.2020
767 Clouds 6 1025 45 10000 3.6 310 01:49 15.01.2020
768 Clear 6 1025 45 10000 3.6 310 01:22 15.01.2020
769 Clear 7 1025 42 10000 3.6 320 00:37 15.01.2020
770 Clear 7 1025 42 10000 3.6 320 00:19 15.01.2020
771 Clear 7 1025 45 8000 2.6 290 23:46 14.01.2020
772 Clear 7 1025 45 8000 2.6 290 23:28 14.01.2020
773 Clear 8 1025 36 7000 4.1 350 22:57 14.01.2020
774 Clear 8 1025 36 7000 4.1 350 22:39 14.01.2020
775 Clear 8 1025 36 7000 4.1 350 22:18 14.01.2020
776 Dust 9 1025 34 5000 3.6 350 21:57 14.01.2020
777 Dust 9 1025 34 5000 3.6 350 21:39 14.01.2020
778 Dust 9 1025 34 5000 3.6 350 21:19 14.01.2020
779 Dust 10 1025 34 5000 3.6 10 20:54 14.01.2020
780 Clear 8 1026 35 0 4.29 4 20:36 14.01.2020
781 Dust 11 1025 29 5000 4.6 10 20:18 14.01.2020
782 Dust 11 1025 29 5000 4.6 10 19:55 14.01.2020
783 Dust 11 1025 29 5000 4.6 10 19:36 14.01.2020
784 Dust 11 1025 29 5000 4.6 10 19:18 14.01.2020
785 Clear 11 1025 47 0 5.5 359 18:40 14.01.2020
786 Clear 13 1024 37 8000 6.2 350 18:20 14.01.2020
787 Clear 13 1024 37 8000 6.2 350 17:55 14.01.2020
788 Clear 13 1024 37 8000 6.2 350 17:36 14.01.2020
789 Clear 13 1024 37 8000 6.2 350 17:18 14.01.2020
790 Clear 14 1023 35 8000 6.7 350 16:42 14.01.2020
791 Clear 14 1023 35 8000 6.7 350 16:22 14.01.2020
792 Clear 16 1022 31 8000 7.7 330 15:56 14.01.2020
793 Clear 16 1022 31 8000 7.7 330 15:38 14.01.2020
794 Clear 16 1022 31 8000 7.7 330 15:18 14.01.2020
795 Clear 16 1022 31 8000 7.7 330 15:18 14.01.2020
796 Clear 17 1022 29 10000 6.7 340 14:43 14.01.2020
797 Clear 17 1022 29 10000 6.7 340 14:20 14.01.2020
798 Clear 18 1021 34 10000 7.2 340 13:54 14.01.2020
799 Clear 18 1021 34 10000 7.2 340 13:36 14.01.2020
800 Clear 18 1021 33 10000 7.2 340 13:18 14.01.2020
801 Clear 18 1021 31 10000 7.2 330 12:40 14.01.2020
802 Clear 18 1021 31 10000 7.2 330 12:20 14.01.2020
803 Clear 18 1021 31 10000 7.2 330 12:20 14.01.2020
804 Clear 18 1021 31 10000 6.2 340 12:20 14.01.2020
805 Clear 18 1021 31 10000 6.2 340 11:43 14.01.2020
806 Clear 18 1021 31 10000 6.2 340 11:23 14.01.2020
807 Clear 17 1023 33 10000 6.7 340 10:59 14.01.2020
808 Clear 17 1023 33 10000 6.7 340 10:39 14.01.2020
809 Clear 17 1023 33 10000 6.7 340 10:20 14.01.2020
810 Clear 16 1024 36 10000 5.1 320 09:57 14.01.2020
811 Clear 16 1024 36 10000 5.1 320 09:39 14.01.2020
812 Clear 13 1024 35 10000 3.6 310 09:20 14.01.2020
813 Clear 13 1024 35 10000 3.6 310 08:46 14.01.2020
814 Clear 13 1024 35 10000 3.6 310 08:24 14.01.2020
815 Clear 11 1024 34 10000 4.6 300 07:53 14.01.2020
816 Clear 11 1024 34 10000 4.6 300 07:33 14.01.2020
817 Clear 7 1023 52 10000 2.6 280 06:54 14.01.2020
818 Clear 7 1023 52 10000 2.6 280 06:27 14.01.2020
819 Clear 7 1022 48 10000 3.1 280 05:25 14.01.2020
820 Clear 7 1021 48 10000 2.6 290 03:51 14.01.2020
821 Clear 7 1020 48 10000 3.1 290 02:42 14.01.2020
822 Clear 8 1021 49 10000 3.1 280 01:53 14.01.2020
823 Clear 8 1021 61 10000 2.1 290 00:51 14.01.2020
824 Clear 8 1021 61 10000 2.1 290 00:32 14.01.2020
825 Clear 9 1020 33 10000 1.5 350 23:54 13.01.2020
826 Clear 9 1020 33 10000 1.5 350 23:54 13.01.2020
827 Clear 9 1020 33 10000 1.5 350 23:36 13.01.2020
828 Clear 9 1020 33 10000 1.5 350 23:18 13.01.2020
829 Clear 12 1021 37 10000 2.1 250 22:41 13.01.2020
830 Clear 12 1021 37 10000 2.1 250 22:21 13.01.2020
831 Clear 12 1021 33 10000 2.1 240 21:56 13.01.2020
832 Clear 12 1021 33 10000 2.1 240 21:38 13.01.2020
833 Clear 12 1021 33 10000 2.1 240 21:19 13.01.2020
834 Clear 11 1021 33 10000 1.5 240 20:58 13.01.2020
835 Clear 11 1021 33 10000 1.5 240 20:40 13.01.2020
836 Clear 11 1021 33 10000 1.5 240 20:22 13.01.2020
837 Clear 11 1021 53 10000 1 250 19:58 13.01.2020
838 Clear 11 1021 53 10000 1 250 19:39 13.01.2020
839 Clear 11 1021 53 10000 1 250 19:19 13.01.2020
840 Clear 13 1021 43 10000 1 270 18:56 13.01.2020
841 Clear 13 1021 43 10000 1 270 18:37 13.01.2020
842 Clear 13 1021 43 10000 1 270 18:37 13.01.2020
843 Clear 13 1021 43 10000 1 270 18:18 13.01.2020
844 Clear 13 1021 43 10000 1 270 18:18 13.01.2020
845 Clear 15 1021 41 10000 1 260 17:40 13.01.2020
846 Clear 15 1021 41 10000 1 260 17:22 13.01.2020
847 Clear 15 1021 41 10000 1 260 17:22 13.01.2020
848 Clear 16 1020 27 10000 2.1 270 16:56 13.01.2020
849 Clear 14 1018 27 0 1.98 245 16:38 13.01.2020
850 Clear 14 1018 27 0 1.98 245 16:19 13.01.2020
851 Clear 14 1018 27 0 1.98 245 15:44 13.01.2020
852 Clear 14 1018 27 0 1.98 245 15:23 13.01.2020
853 Clear 14 1018 27 0 1.98 245 14:58 13.01.2020
854 Clear 14 1018 27 0 1.98 245 14:38 13.01.2020
855 Clear 17 1018 20 0 4.88 267 14:19 13.01.2020
856 Clear 17 1018 20 0 4.88 267 13:42 13.01.2020
857 Clear 17 1018 20 0 4.88 267 13:24 13.01.2020
858 Clear 17 1018 21 0 4.88 266 12:59 13.01.2020
859 Clear 17 1018 21 0 4.88 266 12:41 13.01.2020
860 Clear 16 1021 31 10000 2.1 240 12:22 13.01.2020
861 Clear 16 1021 31 10000 2.1 240 11:57 13.01.2020
862 Clear 16 1021 31 10000 2.1 240 11:37 13.01.2020
863 Clear 15 1022 33 10000 2.6 260 11:19 13.01.2020
864 Clear 15 1022 33 10000 2.6 260 10:55 13.01.2020
865 Clear 15 1022 33 10000 2.6 260 10:37 13.01.2020
866 Clear 14 1024 35 10000 2.1 200 10:19 13.01.2020
867 Clear 14 1024 35 10000 2.1 200 09:43 13.01.2020
868 Clear 14 1024 35 10000 2.1 200 09:23 13.01.2020
869 Clear 13 1024 43 10000 1.5 180 08:44 13.01.2020
870 Clear 13 1024 43 10000 1.5 180 08:22 13.01.2020
871 Clear 10 1025 35 10000 1.5 180 07:59 13.01.2020
872 Clear 10 1025 35 10000 1.5 180 07:59 13.01.2020
873 Clear 10 1025 35 10000 1.5 180 07:41 13.01.2020
874 Clear 10 1025 35 10000 1.5 180 07:19 13.01.2020
875 Clear 5 1024 35 10000 1.5 280 06:37 13.01.2020
876 Clear 5 1024 35 10000 1.5 280 06:37 13.01.2020
877 Clear 4 1024 35 10000 1.21 167 05:37 13.01.2020
878 Clear 4 1024 49 10000 1.5 360 04:26 13.01.2020
879 Clear 5 1023 65 10000 1.5 290 03:35 13.01.2020
880 Clear 4 1022 49 10000 1 320 02:49 13.01.2020
881 Clear 4 1022 49 10000 1 320 02:29 13.01.2020
882 Clear 6 1023 49 10000 2.1 300 01:33 13.01.2020
883 Clear 6 1023 49 10000 1 210 00:43 13.01.2020
884 Clear 6 1023 49 10000 1 210 00:24 13.01.2020
885 Clear 7 1023 49 10000 1 260 23:57 12.01.2020
886 Clear 7 1023 49 10000 1 260 23:37 12.01.2020
887 Clear 7 1023 44 10000 1 260 23:19 12.01.2020
888 Clear 7 1024 44 10000 1 290 22:42 12.01.2020
889 Clear 7 1024 44 10000 1 290 22:24 12.01.2020
890 Clear 8 1024 61 10000 1 290 21:58 12.01.2020
891 Clear 8 1024 61 10000 1 290 21:39 12.01.2020
892 Clear 8 1024 61 10000 1 290 21:39 12.01.2020
893 Clear 8 1025 61 10000 1.29 24 21:20 12.01.2020
894 Clear 8 1025 61 10000 1.29 24 20:57 12.01.2020
895 Clear 8 1025 61 10000 1.29 24 20:39 12.01.2020
896 Clear 8 1025 61 10000 1.96 353 20:20 12.01.2020
897 Clear 11 1025 37 10000 1.5 300 19:56 12.01.2020
898 Clear 11 1025 37 10000 1.5 300 19:38 12.01.2020
899 Clear 11 1025 37 10000 1.5 300 19:38 12.01.2020
900 Clear 11 1025 37 10000 1.5 300 19:19 12.01.2020
901 Clear 11 1025 40 10000 2.1 300 18:57 12.01.2020
902 Clear 11 1025 40 10000 2.1 300 18:39 12.01.2020
903 Clear 11 1025 40 10000 2.1 300 18:21 12.01.2020
904 Clear 12 1024 37 10000 3.1 350 17:56 12.01.2020
905 Clear 12 1024 37 10000 3.1 350 17:37 12.01.2020
906 Clear 12 1024 37 10000 3.1 350 17:18 12.01.2020
907 Clear 13 1024 32 10000 3.6 340 16:55 12.01.2020
908 Clear 13 1024 32 10000 3.6 340 16:55 12.01.2020
909 Clear 13 1024 32 10000 3.6 340 16:37 12.01.2020
910 Clear 13 1024 32 10000 3.6 340 16:18 12.01.2020
911 Clear 15 1024 26 10000 4.1 350 15:42 12.01.2020
912 Clear 15 1024 26 10000 4.1 350 15:24 12.01.2020
913 Clear 15 1024 26 10000 4.1 350 15:24 12.01.2020
914 Clear 16 1023 26 10000 4.6 320 14:56 12.01.2020
915 Clear 16 1023 26 10000 4.6 320 14:37 12.01.2020
916 Clear 16 1023 29 10000 4.1 320 14:18 12.01.2020
917 Clear 16 1023 29 10000 4.1 320 13:42 12.01.2020
918 Clear 16 1023 29 10000 4.1 320 13:23 12.01.2020
919 Clear 16 1023 31 10000 5.1 340 12:58 12.01.2020
920 Clear 16 1023 31 10000 5.1 340 12:38 12.01.2020
921 Clear 16 1023 31 10000 5.1 340 12:19 12.01.2020
922 Clear 14 1024 35 10000 5.7 350 11:55 12.01.2020
923 Clear 14 1024 35 10000 5.7 350 11:36 12.01.2020
924 Clear 14 1025 35 10000 6.7 330 11:18 12.01.2020
925 Clear 14 1025 35 10000 6.7 330 10:41 12.01.2020
926 Clear 14 1025 35 10000 6.7 330 10:21 12.01.2020
927 Clear 13 1026 37 10000 7.2 340 09:55 12.01.2020
928 Clear 13 1026 37 10000 7.2 340 09:37 12.01.2020
929 Clear 12 1027 46 10000 6.2 340 09:18 12.01.2020
930 Clear 12 1027 46 10000 6.2 340 08:42 12.01.2020
931 Clear 12 1027 46 10000 6.2 340 08:19 12.01.2020
932 Clear 10 1027 53 10000 6.7 320 07:39 12.01.2020
933 Clear 10 1027 53 10000 6.7 320 07:21 12.01.2020
934 Clear 8 1026 61 10000 4.6 330 06:42 12.01.2020
935 Clear 8 1026 52 0 7.79 329 06:18 12.01.2020
936 Clear 7 1024 57 8000 4.1 310 05:21 12.01.2020
937 Clear 7 1023 57 8000 4.6 310 03:45 12.01.2020
938 Clear 8 1023 49 8000 5.1 310 02:59 12.01.2020
939 Clear 8 1023 49 8000 5.1 310 02:30 12.01.2020
940 Clear 8 1023 52 8000 4.1 310 01:42 12.01.2020
941 Clear 8 1023 52 8000 4.1 310 01:21 12.01.2020
942 Clear 8 1023 52 8000 4.1 310 01:21 12.01.2020
943 Clear 8 1023 52 8000 4.1 310 00:40 12.01.2020
944 Clear 9 1023 49 7000 5.1 320 00:19 12.01.2020
945 Clear 9 1023 49 7000 5.1 320 23:42 11.01.2020
946 Clear 9 1023 57 7000 4.1 300 23:19 11.01.2020
947 Clear 9 1023 57 7000 4.1 300 22:57 11.01.2020
948 Clear 9 1023 57 7000 4.1 300 22:39 11.01.2020
949 Clear 9 1023 57 7000 4.1 300 22:20 11.01.2020
950 Clear 10 1022 53 6000 5.7 320 21:55 11.01.2020
951 Clear 10 1022 53 6000 5.7 320 21:37 11.01.2020
952 Clear 10 1022 53 6000 5.7 320 21:18 11.01.2020
953 Clear 11 1022 50 6000 5.7 330 20:40 11.01.2020
954 Clear 11 1022 50 6000 5.7 330 20:22 11.01.2020
955 Clear 11 1022 50 6000 6.7 340 19:58 11.01.2020
956 Clear 11 1022 50 6000 6.7 340 19:38 11.01.2020
957 Clear 11 1022 50 6000 6.7 340 19:20 11.01.2020
958 Clouds 12 1020 40 7000 5.1 330 18:57 11.01.2020
959 Clouds 12 1020 40 7000 5.1 330 18:37 11.01.2020
960 Clouds 13 1020 37 10000 6.7 330 18:19 11.01.2020
961 Clouds 12 1020 40 7000 5.1 330 18:19 11.01.2020
962 Clouds 13 1020 37 10000 6.7 330 17:57 11.01.2020
963 Clouds 13 1020 37 10000 6.7 330 17:39 11.01.2020
964 Clouds 13 1020 37 10000 6.7 330 17:19 11.01.2020
965 Clouds 14 1019 33 10000 7.2 320 16:44 11.01.2020
966 Clouds 14 1019 33 10000 7.2 320 16:25 11.01.2020
967 Clouds 14 1018 30 10000 6.7 330 15:57 11.01.2020
968 Clouds 14 1018 30 10000 6.7 330 15:39 11.01.2020
969 Clouds 14 1018 30 10000 6.7 330 15:20 11.01.2020
970 Clouds 15 1017 26 10000 8.7 320 14:47 11.01.2020
971 Clouds 15 1017 26 10000 8.7 320 14:26 11.01.2020
972 Clouds 16 1016 26 10000 7.7 320 13:59 11.01.2020
973 Clouds 16 1016 26 10000 7.7 320 13:38 11.01.2020
974 Clouds 16 1016 26 10000 7.7 320 13:20 11.01.2020
975 Clouds 16 1016 29 10000 6.7 320 12:56 11.01.2020
976 Clouds 16 1016 29 10000 6.7 320 12:37 11.01.2020
977 Clouds 16 1016 29 10000 6.7 320 12:19 11.01.2020
978 Clouds 15 1017 30 10000 6.7 320 11:45 11.01.2020
979 Clouds 15 1017 30 10000 6.7 320 11:24 11.01.2020
980 Clouds 14 1018 33 10000 5.7 310 10:50 11.01.2020
981 Clouds 14 1018 33 10000 5.7 310 10:30 11.01.2020
982 Clear 14 1018 47 10000 4.1 320 09:44 11.01.2020
983 Clear 14 1018 47 10000 4.1 320 09:21 11.01.2020
984 Clear 14 1018 47 10000 4.1 320 09:21 11.01.2020
985 Clear 14 1018 47 10000 4.1 320 09:21 11.01.2020
986 Clear 12 1019 54 10000 4.1 320 08:59 11.01.2020
987 Clear 12 1019 54 10000 4.1 320 08:40 11.01.2020
988 Clear 11 1018 62 10000 3.1 330 08:19 11.01.2020
989 Clear 11 1018 62 10000 3.1 330 07:43 11.01.2020
990 Clear 11 1018 62 10000 3.1 330 07:24 11.01.2020
991 Clear 8 1017 75 10000 2.1 290 06:43 11.01.2020
992 Clear 8 1016 70 10000 3.6 330 05:30 11.01.2020
993 Clear 8 1016 70 10000 2.1 360 04:42 11.01.2020
994 Clear 8 1016 70 10000 2.1 360 04:24 11.01.2020
995 Clear 10 1014 50 10000 4.1 340 02:48 11.01.2020
996 Clear 9 1014 57 10000 2.6 290 01:47 11.01.2020
997 Clear 9 1014 57 10000 2.6 290 01:28 11.01.2020
998 Clear 10 1013 53 10000 3.1 310 00:54 11.01.2020
999 Clear 10 1013 53 10000 3.1 310 00:29 11.01.2020
1000 Clear 11 1014 50 10000 2.1 300 23:59 10.01.2020
1001 Clear 11 1014 50 10000 2.1 300 23:39 10.01.2020
1002 Clear 12 1014 50 10000 2.1 260 23:20 10.01.2020
1003 Clear 12 1014 50 10000 2.1 260 22:41 10.01.2020
1004 Clear 12 1014 50 10000 2.1 260 22:22 10.01.2020
1005 Clear 12 1013 46 10000 2.6 280 21:59 10.01.2020
1006 Clear 12 1013 46 10000 2.6 280 21:41 10.01.2020
1007 Clear 12 1013 46 10000 2.6 280 21:20 10.01.2020
1008 Clear 13 1014 43 10000 3.1 310 20:58 10.01.2020
1009 Clear 13 1014 43 10000 3.1 310 20:40 10.01.2020
1010 Clear 13 1014 43 10000 3.1 310 20:40 10.01.2020
1011 Clear 13 1014 43 10000 3.1 310 20:22 10.01.2020
1012 Clear 14 1013 35 10000 4.1 320 19:41 10.01.2020
1013 Clear 14 1013 35 10000 4.1 320 19:21 10.01.2020
1014 Clear 15 1013 30 10000 5.7 330 18:57 10.01.2020
1015 Clear 15 1013 30 10000 5.7 330 18:39 10.01.2020
1016 Clear 15 1013 30 10000 5.7 330 18:18 10.01.2020
1017 Clear 16 1012 36 10000 3.6 320 17:56 10.01.2020
1018 Clear 16 1012 36 10000 3.6 320 17:38 10.01.2020
1019 Clear 16 1012 28 10000 3.6 320 17:19 10.01.2020
1020 Clear 16 1012 28 10000 3.6 320 17:19 10.01.2020
1021 Clear 18 1011 27 10000 4.6 300 16:43 10.01.2020
1022 Clear 18 1011 27 10000 4.6 300 16:22 10.01.2020
1023 Clear 20 1010 24 10000 5.1 290 15:58 10.01.2020
1024 Clear 20 1010 24 10000 5.1 290 15:39 10.01.2020
1025 Clear 20 1010 24 10000 5.1 290 15:20 10.01.2020
1026 Clear 20 1010 24 10000 3.1 270 14:59 10.01.2020
1027 Clear 20 1010 24 10000 3.1 270 14:41 10.01.2020
1028 Clouds 20 1010 21 10000 4.1 270 14:20 10.01.2020
1029 Clouds 20 1010 21 10000 4.1 270 13:58 10.01.2020
1030 Clouds 20 1010 21 10000 4.1 270 13:39 10.01.2020
1031 Clouds 20 1010 24 10000 4.1 270 13:21 10.01.2020
1032 Clouds 21 1010 35 10000 2.6 260 12:57 10.01.2020
1033 Clouds 21 1010 35 10000 2.6 260 12:38 10.01.2020
1034 Clouds 21 1010 35 10000 2.6 260 12:18 10.01.2020
1035 Clouds 19 1011 45 10000 2.1 260 11:42 10.01.2020
1036 Clouds 19 1011 45 10000 2.1 260 11:42 10.01.2020
1037 Clouds 19 1011 45 10000 2.1 260 11:22 10.01.2020
1038 Clouds 18 1012 59 10000 1 240 10:59 10.01.2020
1039 Clouds 18 1012 59 10000 1 240 10:39 10.01.2020
1040 Clouds 18 1012 59 10000 1 240 10:21 10.01.2020
1041 Clouds 17 1013 63 10000 4.38 268 09:55 10.01.2020
1042 Clouds 17 1013 63 10000 4.38 268 09:37 10.01.2020
1043 Clouds 17 1013 63 10000 4.38 268 09:18 10.01.2020
1044 Clouds 15 1014 72 10000 4.38 268 08:40 10.01.2020
1045 Clouds 15 1014 72 10000 0.82 147 08:21 10.01.2020
1046 Clouds 14 1014 71 10000 0.68 127 07:44 10.01.2020
1047 Clouds 14 1014 71 10000 0.68 127 07:23 10.01.2020
1048 Clouds 10 1014 87 10000 1 220 06:45 10.01.2020
1049 Clouds 10 1014 87 10000 1 220 06:25 10.01.2020
1050 Clouds 9 1014 87 10000 0.68 127 05:44 10.01.2020
1051 Clear 9 1013 87 10000 1 80 03:35 10.01.2020
1052 Clear 10 1013 81 10000 1.23 54 02:58 10.01.2020
1053 Clear 10 1013 81 10000 1.23 54 02:37 10.01.2020
1054 Clouds 11 1013 76 10000 1.5 20 01:38 10.01.2020
1055 Clouds 12 1014 71 10000 2.6 20 00:57 10.01.2020
1056 Clouds 12 1014 71 10000 2.6 20 00:38 10.01.2020
1057 Clear 12 1014 76 8000 1.5 360 23:57 09.01.2020
1058 Clear 12 1014 76 8000 1.5 360 23:38 09.01.2020
1059 Clear 12 1014 76 8000 1.5 360 23:38 09.01.2020
1060 Clear 12 1014 76 8000 1.5 360 23:38 09.01.2020
1061 Clear 12 1014 76 8000 1.5 360 23:38 09.01.2020
1062 Clear 12 1014 76 8000 1.5 360 23:19 09.01.2020
1063 Clear 12 1014 76 8000 1.5 350 22:57 09.01.2020
1064 Clear 12 1014 76 8000 1.5 350 22:37 09.01.2020
1065 -273 0 0 0 0 0 22:18 09.01.2020
1066 Clear 13 1013 71 8000 1 20 21:56 09.01.2020
1067 Clear 13 1013 71 8000 1 20 21:37 09.01.2020
1068 Clear 13 1013 71 8000 1 20 21:37 09.01.2020
1069 Clear 13 1013 71 8000 1 20 21:37 09.01.2020
1070 Clear 13 1013 71 8000 1 20 21:18 09.01.2020
1071 Clear 14 1014 62 8000 1 60 20:55 09.01.2020
1072 Clear 14 1014 62 8000 1 60 20:37 09.01.2020
1073 Clear 14 1014 62 8000 1 60 20:19 09.01.2020
1074 Clouds 15 1014 58 8000 1.5 40 19:39 09.01.2020
1075 Clouds 15 1014 58 8000 1.5 40 19:21 09.01.2020
1076 Clouds 16 1014 48 10000 2.6 40 18:59 09.01.2020
1077 Clouds 16 1014 48 10000 2.6 40 18:40 09.01.2020
1078 Clouds 16 1014 48 10000 2.6 40 18:21 09.01.2020
1079 Clear 17 1013 45 10000 3.1 40 17:57 09.01.2020
1080 Clear 17 1013 45 10000 3.1 40 17:39 09.01.2020
1081 Clear 17 1013 45 10000 3.1 40 17:18 09.01.2020
1082 Clouds 18 1013 42 10000 2.1 70 16:42 09.01.2020
1083 Clouds 18 1013 42 10000 2.1 70 16:21 09.01.2020
1084 Clouds 19 1012 39 10000 2.1 40 15:43 09.01.2020
1085 Clouds 19 1012 39 10000 2.1 40 15:23 09.01.2020
1086 Clouds 20 1012 37 10000 2.1 50 14:59 09.01.2020
1087 Clouds 20 1012 37 10000 2.1 50 14:41 09.01.2020
1088 Clouds 20 1012 37 10000 2.1 50 14:19 09.01.2020
1089 Clouds 20 1012 42 10000 1 60 13:55 09.01.2020
1090 Clouds 20 1012 42 10000 1 60 13:37 09.01.2020
1091 Clouds 20 1012 42 10000 1 60 13:19 09.01.2020
1092 Clouds 21 1013 40 10000 1 360 12:56 09.01.2020
1093 Clouds 21 1013 40 10000 1 360 12:56 09.01.2020
1094 Clouds 21 1013 40 10000 1 360 12:38 09.01.2020
1095 Clouds 21 1013 40 10000 1 360 12:18 09.01.2020
1096 Clouds 20 1014 37 10000 1.5 360 11:42 09.01.2020
1097 Clouds 20 1014 37 10000 1.5 360 11:24 09.01.2020
1098 Clouds 20 1014 37 10000 1.5 360 11:24 09.01.2020
1099 Clouds 18 1015 36 10000 2.1 360 10:58 09.01.2020
1100 Clouds 18 1015 36 10000 2.1 360 10:39 09.01.2020
1101 Clouds 18 1015 36 10000 2.1 360 10:21 09.01.2020
1102 Clouds 17 1016 42 10000 2.6 360 09:45 09.01.2020
1103 Clouds 17 1016 42 10000 2.6 360 09:23 09.01.2020
1104 Clouds 14 1017 47 10000 2.6 360 08:57 09.01.2020
1105 Clouds 14 1017 47 10000 2.6 360 08:38 09.01.2020
1106 Clouds 14 1017 47 10000 2.6 360 08:20 09.01.2020
1107 Clouds 13 1017 50 10000 2.6 340 07:47 09.01.2020
1108 Clouds 13 1017 50 10000 2.6 340 07:28 09.01.2020
1109 Clouds 11 1017 62 10000 3.1 310 06:40 09.01.2020
1110 Clouds 11 1017 62 10000 3.1 310 06:22 09.01.2020
1111 Clouds 12 1016 71 10000 2.1 310 05:51 09.01.2020
1112 Clouds 12 1016 71 10000 2.1 310 05:18 09.01.2020
1113 Clouds 13 1015 71 10000 2.09 144 04:38 09.01.2020
1114 Clouds 13 1015 66 10000 2.09 144 03:27 09.01.2020
1115 Clouds 14 1015 58 10000 2.1 160 02:46 09.01.2020
1116 Clouds 14 1015 58 10000 2.6 160 01:41 09.01.2020
1117 Clouds 15 1015 54 10000 2.6 150 00:57 09.01.2020
1118 Clouds 15 1015 54 10000 2.6 150 00:37 09.01.2020
1119 Clouds 15 1015 54 10000 2.6 150 00:19 09.01.2020
1120 Clouds 16 1015 51 10000 2.1 160 23:39 08.01.2020
1121 Clouds 16 1015 51 10000 2.1 160 23:20 08.01.2020
1122 Clouds 16 1015 48 10000 2.6 150 22:40 08.01.2020
1123 Clouds 16 1015 48 10000 2.6 150 22:22 08.01.2020
1124 Clouds 16 1016 48 10000 3.1 160 21:59 08.01.2020
1125 Clouds 16 1016 48 10000 3.1 160 21:40 08.01.2020
1126 Clouds 16 1016 48 10000 3.1 160 21:20 08.01.2020
1127 Clouds 16 1016 51 10000 3.6 160 20:59 08.01.2020
1128 Clouds 16 1016 51 10000 3.6 160 20:41 08.01.2020
1129 Clouds 16 1016 51 10000 3.6 160 20:21 08.01.2020
1130 Clouds 17 1016 48 10000 3.1 160 19:58 08.01.2020
1131 Clouds 17 1016 48 10000 3.1 160 19:38 08.01.2020
1132 Clouds 17 1016 48 10000 3.1 160 19:19 08.01.2020
1133 Clouds 17 1016 48 10000 3.1 160 18:57 08.01.2020
1134 Clouds 17 1016 48 10000 3.1 160 18:38 08.01.2020
1135 Clouds 17 1016 48 10000 3.1 160 18:18 08.01.2020
1136 Clouds 18 1016 48 10000 1.5 140 17:56 08.01.2020
1137 Clouds 18 1016 48 10000 1.5 140 17:37 08.01.2020
1138 Clouds 18 1016 48 10000 1.5 140 17:18 08.01.2020
1139 Clouds 18 1016 48 10000 1.5 140 17:18 08.01.2020
1140 Clouds 18 1016 45 10000 1.5 150 16:55 08.01.2020
1141 Clouds 18 1016 45 10000 1.5 150 16:37 08.01.2020
1142 Clouds 18 1016 45 10000 1.5 150 16:18 08.01.2020
1143 Clouds 20 1015 34 10000 3.1 170 15:42 08.01.2020
1144 Clouds 20 1015 34 10000 3.1 170 15:21 08.01.2020
1145 Clouds 21 1015 30 10000 3.6 170 14:57 08.01.2020
1146 Clouds 21 1015 30 10000 3.6 170 14:39 08.01.2020
1147 Clouds 21 1015 30 10000 3.6 170 14:20 08.01.2020
1148 Clouds 21 1015 30 10000 3.1 160 13:40 08.01.2020
1149 Clouds 21 1015 30 10000 3.1 160 13:19 08.01.2020
1150 Clouds 20 1015 30 10000 3.1 150 12:43 08.01.2020
1151 Clouds 20 1015 30 10000 3.1 150 12:20 08.01.2020
1152 Clouds 19 1016 29 10000 3.6 170 11:59 08.01.2020
1153 Clouds 19 1016 29 10000 3.6 170 11:41 08.01.2020
1154 Clouds 19 1016 29 10000 3.6 170 11:19 08.01.2020
1155 Clouds 18 1017 31 10000 4.6 170 10:56 08.01.2020
1156 Clouds 18 1017 31 10000 4.6 170 10:37 08.01.2020
1157 Clouds 18 1017 31 10000 4.6 170 10:19 08.01.2020
1158 Clouds 18 1018 37 10000 4.6 170 09:42 08.01.2020
1159 Clouds 18 1018 37 10000 4.6 170 09:20 08.01.2020
1160 Clouds 16 1020 37 10000 4.6 160 08:57 08.01.2020
1161 Clouds 16 1020 37 10000 4.6 160 08:37 08.01.2020
1162 Clear 16 1020 34 10000 4.6 160 08:19 08.01.2020
1163 Clear 14 1020 41 10000 3.6 160 07:49 08.01.2020
1164 Clear 14 1020 41 10000 3.6 160 07:30 08.01.2020
1165 Clear 14 1020 41 10000 3.6 160 07:30 08.01.2020
1166 Clear 12 1019 54 10000 2.1 150 06:48 08.01.2020
1167 Clear 12 1019 54 10000 2.1 150 06:25 08.01.2020
1168 Clear 9 1019 66 10000 1.5 150 05:53 08.01.2020
1169 Clear 9 1019 66 10000 1.5 150 05:53 08.01.2020
1170 Clear 10 1019 61 10000 1.5 140 04:59 08.01.2020
1171 Clear 10 1019 61 10000 1.5 140 04:26 08.01.2020
1172 Clear 10 1019 61 10000 2.1 150 02:45 08.01.2020
1173 Clear 10 1019 61 10000 2.1 150 02:23 08.01.2020
1174 Clear 10 1019 66 10000 2.6 160 01:50 08.01.2020
1175 Clear 10 1019 66 10000 2.6 160 01:23 08.01.2020
1176 Clear 10 1020 71 10000 2.1 150 00:38 08.01.2020
1177 Clear 10 1020 71 10000 2.1 150 00:20 08.01.2020
1178 Clear 11 1020 66 10000 2.1 140 23:43 07.01.2020
1179 Clear 11 1020 66 10000 2.1 140 23:20 07.01.2020
1180 Clear 11 1020 66 10000 2.1 140 23:20 07.01.2020
1181 Clear 11 1021 66 10000 1.5 150 22:40 07.01.2020
1182 Clear 11 1021 66 10000 1.5 150 22:20 07.01.2020
1183 Clear 12 1021 62 10000 1.5 150 21:57 07.01.2020
1184 Clear 12 1021 62 10000 1.5 150 21:38 07.01.2020
1185 Clear 12 1021 62 10000 1.5 150 21:20 07.01.2020
1186 Clear 12 1021 66 10000 1.5 140 20:55 07.01.2020
1187 Clear 12 1021 66 10000 1.5 140 20:36 07.01.2020
1188 Clouds 12 1021 66 10000 1.5 140 20:18 07.01.2020
1189 Clouds 13 1022 62 10000 2.1 130 19:38 07.01.2020
1190 Clouds 13 1022 62 10000 2.1 130 19:20 07.01.2020
1191 Clouds 14 1021 58 10000 1.5 120 18:58 07.01.2020
1192 Clouds 14 1021 58 10000 1.5 120 18:40 07.01.2020
1193 Clouds 14 1021 58 10000 1.5 120 18:19 07.01.2020
1194 Clouds 15 1021 54 10000 2.1 120 17:58 07.01.2020
1195 Clouds 15 1021 54 10000 2.1 120 17:39 07.01.2020
1196 Clouds 15 1021 54 10000 2.1 120 17:20 07.01.2020
1197 Clouds 16 1020 44 10000 2.6 110 16:56 07.01.2020
1198 Clouds 16 1020 44 10000 2.6 110 16:37 07.01.2020
1199 Clouds 16 1020 44 10000 2.6 110 16:19 07.01.2020
1200 Clouds 17 1020 42 10000 2.1 130 15:57 07.01.2020
1201 Clouds 17 1020 42 10000 2.1 130 15:37 07.01.2020
1202 Clouds 17 1020 42 10000 2.1 130 15:18 07.01.2020
1203 Clouds 18 1020 36 10000 2.6 120 14:42 07.01.2020
1204 Clouds 18 1020 36 10000 2.6 120 14:23 07.01.2020
1205 Clouds 18 1020 36 10000 2.6 120 14:23 07.01.2020
1206 Clouds 18 1020 36 10000 2.6 120 13:56 07.01.2020
1207 Clouds 18 1020 36 10000 2.6 120 13:38 07.01.2020
1208 Clouds 18 1020 36 10000 2.6 120 13:18 07.01.2020
1209 Clouds 18 1020 39 10000 2.6 120 12:41 07.01.2020
1210 Clouds 18 1020 39 10000 2.6 120 12:19 07.01.2020
1211 Clouds 17 1022 42 10000 2.1 140 11:44 07.01.2020
1212 Clear 17 1022 42 10000 2.1 140 11:23 07.01.2020
1213 Clear 17 1022 42 10000 2.1 140 11:23 07.01.2020
1214 Clear 16 1023 44 10000 1.5 140 10:59 07.01.2020
1215 Clear 16 1023 44 10000 1.5 140 10:40 07.01.2020
1216 Clear 16 1023 44 10000 1.5 140 10:40 07.01.2020
1217 Clear 16 1023 44 10000 1.5 140 10:22 07.01.2020
1218 Clear 15 1024 54 10000 1.5 100 09:56 07.01.2020
1219 Clear 15 1024 54 10000 1.5 100 09:37 07.01.2020
1220 Clear 15 1024 54 10000 1.5 100 09:37 07.01.2020
1221 Clear 15 1024 54 10000 1.5 100 09:19 07.01.2020
1222 Clear 15 1024 54 10000 1.5 100 09:19 07.01.2020
1223 Clear 14 1025 54 10000 1.5 140 08:41 07.01.2020
1224 Clear 14 1025 54 10000 1.5 140 08:41 07.01.2020
1225 Clear 14 1025 54 10000 1.5 140 08:20 07.01.2020
1226 Clear 11 1025 76 8000 3.49 118 07:49 07.01.2020
1227 Clear 11 1025 76 8000 3.49 118 07:25 07.01.2020
1228 Clear 8 1024 93 7000 3.49 118 06:52 07.01.2020
1229 Clear 8 1024 93 7000 3.49 118 06:32 07.01.2020
1230 Clear 7 1024 87 6000 3.49 118 05:46 07.01.2020
1231 Clear 7 1023 87 10000 2.16 106 03:52 07.01.2020
1232 Clear 7 1023 87 10000 2.16 106 03:25 07.01.2020
1233 Clear 7 1022 87 10000 2.57 103 02:20 07.01.2020
1234 Clear 7 1022 93 10000 2.57 103 01:45 07.01.2020
1235 Clear 7 1022 93 10000 2.61 108 01:21 07.01.2020
1236 Clear 8 1023 87 10000 2.61 108 00:21 07.01.2020
1237 Clear 8 1023 87 10000 2.61 108 23:58 06.01.2020
1238 Clear 8 1023 87 10000 2.61 108 23:39 06.01.2020
1239 Clear 8 1023 87 10000 3.17 84 23:21 06.01.2020
1240 Clear 10 1023 76 10000 1 80 22:56 06.01.2020
1241 Clear 10 1023 76 10000 1 80 22:37 06.01.2020
1242 Clear 10 1023 76 10000 1 80 22:18 06.01.2020
1243 Clear 10 1023 76 10000 1 50 21:54 06.01.2020
1244 Clear 10 1023 76 10000 1 50 21:36 06.01.2020
1245 Clear 10 1023 76 10000 1 50 21:18 06.01.2020
1246 Clear 11 1023 76 10000 1.5 90 20:54 06.01.2020
1247 Clear 11 1023 76 10000 1.5 90 20:36 06.01.2020
1248 Clear 11 1023 76 10000 1.5 90 20:18 06.01.2020
1249 Clear 11 1023 76 10000 1.5 90 20:18 06.01.2020
1250 Clear 11 1023 76 10000 1.5 100 19:54 06.01.2020
1251 Clear 11 1023 76 10000 1.5 100 19:36 06.01.2020
1252 Clear 11 1023 76 10000 1.5 100 19:18 06.01.2020
1253 Clear 12 1023 71 10000 2.1 80 18:41 06.01.2020
1254 Clear 12 1023 71 10000 2.1 80 18:19 06.01.2020
1255 Clear 13 1022 66 10000 2.1 70 17:39 06.01.2020
1256 Clear 13 1022 66 10000 2.1 70 17:19 06.01.2020
1257 Clear 14 1022 62 10000 2.1 60 16:55 06.01.2020
1258 Clear 14 1022 62 10000 2.1 60 16:37 06.01.2020
1259 Clear 14 1022 62 10000 2.1 60 16:18 06.01.2020
1260 Clear 15 1021 51 10000 2.6 50 15:43 06.01.2020
1261 Clear 16 1021 48 10000 2.6 30 15:21 06.01.2020
1262 Clear 16 1021 48 10000 2.6 30 14:59 06.01.2020
1263 Clear 16 1021 48 10000 2.6 30 14:41 06.01.2020
1264 Clear 16 1021 48 10000 2.6 30 14:21 06.01.2020
1265 Clear 16 1021 48 10000 2.6 30 14:21 06.01.2020
1266 Clear 16 1021 51 10000 2.1 70 13:58 06.01.2020
1267 Clear 16 1021 51 10000 2.1 70 13:38 06.01.2020
1268 Clear 16 1021 51 10000 2.1 70 13:20 06.01.2020
1269 Clear 16 1021 51 10000 2.6 60 12:44 06.01.2020
1270 Clear 16 1021 51 10000 2.6 60 12:21 06.01.2020
1271 Clouds 15 1022 58 10000 3.6 50 11:59 06.01.2020
1272 Clouds 15 1022 58 10000 3.6 50 11:41 06.01.2020
1273 Clouds 15 1022 58 10000 3.6 50 11:23 06.01.2020
1274 Clouds 15 1022 67 9000 2.1 20 10:57 06.01.2020
1275 Clouds 15 1022 67 9000 2.1 20 10:39 06.01.2020
1276 Clouds 15 1022 67 9000 2.1 20 10:20 06.01.2020
1277 Clouds 15 1022 67 9000 2.1 20 10:20 06.01.2020
1278 Clear 13 1024 82 7000 1.5 350 09:39 06.01.2020
1279 Clear 13 1024 82 7000 1.5 350 09:20 06.01.2020
1280 Clear 13 1024 76 7000 3.75 48 08:48 06.01.2020
1281 Clear 13 1024 76 7000 3.42 48 08:30 06.01.2020
1282 Clear 10 1024 76 10000 2.1 310 07:53 06.01.2020
1283 Clear 10 1024 76 10000 2.1 310 07:32 06.01.2020
1284 Clear 8 1023 81 10000 1 300 06:46 06.01.2020
1285 Clear 8 1023 81 10000 1 300 06:23 06.01.2020
1286 Clear 7 1022 81 10000 1 290 05:45 06.01.2020
1287 Clear 7 1021 87 10000 1.5 290 04:38 06.01.2020
1288 Clear 7 1021 87 10000 1.5 290 04:19 06.01.2020
1289 Clear 8 1020 87 10000 1.5 300 02:46 06.01.2020
1290 Clear 8 1020 87 10000 1.5 300 02:24 06.01.2020
1291 Clear 9 1020 87 10000 1.5 280 01:44 06.01.2020
1292 Clear 9 1020 87 10000 1.5 280 01:26 06.01.2020
1293 Clear 10 1020 87 10000 1 280 00:42 06.01.2020
1294 Clear 10 1020 87 10000 1 280 00:22 06.01.2020
1295 Clear 10 1020 87 10000 2.1 290 23:42 05.01.2020
1296 Clear 10 1020 87 10000 2.1 290 23:42 05.01.2020
1297 Clear 10 1020 87 10000 2.1 290 23:22 05.01.2020
1298 Clear 10 1020 87 10000 2.6 300 22:56 05.01.2020
1299 Clear 10 1020 87 10000 2.6 300 22:38 05.01.2020
1300 Clear 10 1020 87 10000 2.6 300 22:19 05.01.2020
1301 Clear 11 1020 87 10000 1 250 21:54 05.01.2020
1302 Clear 11 1020 87 10000 1 250 21:36 05.01.2020
1303 Clear 11 1020 87 10000 1 250 21:18 05.01.2020
1304 Clear 10 1020 87 10000 2.17 32 20:55 05.01.2020
1305 Clear 10 1020 87 10000 2.17 32 20:55 05.01.2020
1306 Clear 10 1020 87 10000 2.74 67 20:36 05.01.2020
1307 Clouds 10 1020 87 10000 3.31 64 20:18 05.01.2020
1308 Clouds 11 1019 87 10000 3.31 64 19:54 05.01.2020
1309 Clouds 11 1019 87 10000 3.31 64 19:54 05.01.2020
1310 Clouds 11 1019 87 10000 3.31 64 19:36 05.01.2020
1311 Clouds 11 1019 87 10000 3.31 64 19:18 05.01.2020
1312 Clouds 12 1019 81 10000 1 40 18:54 05.01.2020
1313 Clouds 12 1019 81 10000 1 40 18:36 05.01.2020
1314 Clouds 12 1019 81 10000 1 40 18:18 05.01.2020
1315 Clouds 13 1018 71 10000 2.6 30 17:39 05.01.2020
1316 Clouds 13 1018 71 10000 2.6 30 17:20 05.01.2020
1317 Clouds 13 1017 76 10000 3.1 350 16:58 05.01.2020
1318 Clouds 13 1017 76 10000 3.1 350 16:39 05.01.2020
1319 Clouds 13 1017 76 10000 3.1 350 16:20 05.01.2020
1320 Clouds 13 1016 76 10000 2.1 30 15:41 05.01.2020
1321 Clouds 13 1016 76 10000 2.1 30 15:22 05.01.2020
1322 Clouds 13 1016 76 10000 2.1 30 15:22 05.01.2020
1323 Clouds 13 1016 76 10000 2.1 30 15:22 05.01.2020
1324 Clouds 13 1016 76 10000 4.1 360 14:57 05.01.2020
1325 Clouds 13 1016 76 10000 4.1 360 14:39 05.01.2020
1326 Clouds 13 1016 76 10000 4.1 360 14:21 05.01.2020
1327 Clouds 13 1015 87 6000 3.6 10 13:58 05.01.2020
1328 Clouds 13 1015 87 6000 3.6 10 13:38 05.01.2020
1329 Clouds 13 1015 87 6000 3.6 10 13:20 05.01.2020
1330 Clouds 13 1015 87 6000 3.1 350 12:57 05.01.2020
1331 Clouds 13 1015 87 6000 3.1 350 12:38 05.01.2020
1332 Clouds 13 1015 87 6000 3.1 350 12:20 05.01.2020
1333 Clouds 13 1015 87 6000 2.6 30 11:54 05.01.2020
1334 Clouds 13 1015 87 6000 2.6 30 11:36 05.01.2020
1335 Clouds 13 1015 87 6000 2.6 30 11:18 05.01.2020
1336 Mist 13 1015 87 5000 3.1 20 10:41 05.01.2020
1337 Mist 13 1015 87 5000 3.1 20 10:20 05.01.2020
1338 Mist 13 1016 87 4000 1.5 50 09:55 05.01.2020
1339 Mist 13 1016 87 4000 1.5 50 09:36 05.01.2020
1340 Mist 13 1016 87 4000 1.5 50 09:18 05.01.2020
1341 Mist 13 1017 87 3000 2.1 80 08:44 05.01.2020
1342 Mist 13 1017 87 3000 2.1 80 08:21 05.01.2020
1343 Thunderstorm 13 1017 87 3000 3.6 70 07:44 05.01.2020
1344 Thunderstorm 13 1017 87 3000 3.6 70 07:44 05.01.2020
1345 Thunderstorm 13 1017 87 3000 3.6 70 07:26 05.01.2020
1346 Thunderstorm 13 1017 93 3000 3.6 70 06:55 05.01.2020
1347 Thunderstorm 14 1016 87 4000 3.6 50 05:43 05.01.2020
1348 Thunderstorm 15 1015 93 4000 1.5 10 04:56 05.01.2020
1349 Thunderstorm 15 1015 93 4000 1.5 10 04:19 05.01.2020
1350 Thunderstorm 15 1015 93 4000 1.5 10 04:19 05.01.2020
1351 Thunderstorm 15 1015 93 4000 1 80 03:38 05.01.2020
1352 Thunderstorm 15 1014 87 5000 1 80 02:35 05.01.2020
1353 Thunderstorm 15 1015 87 5000 1 160 01:52 05.01.2020
1354 Thunderstorm 15 1014 87 9000 1.5 130 01:20 05.01.2020
1355 Thunderstorm 15 1014 87 10000 1.5 120 00:57 05.01.2020
1356 Thunderstorm 15 1014 87 10000 1.5 120 00:39 05.01.2020
1357 Thunderstorm 15 1014 87 10000 1.5 120 00:20 05.01.2020
1358 Thunderstorm 14 1015 93 6000 1 120 23:42 04.01.2020
1359 Thunderstorm 14 1015 93 6000 1 120 23:21 04.01.2020
1360 Thunderstorm 15 1016 82 3000 2.1 330 22:59 04.01.2020
1361 Thunderstorm 15 1016 82 3000 2.1 330 22:39 04.01.2020
1362 Thunderstorm 19 1015 52 8000 1.5 40 22:20 04.01.2020
1363 Thunderstorm 19 1015 52 8000 1.5 40 21:56 04.01.2020
1364 Thunderstorm 19 1015 52 8000 1.5 40 21:37 04.01.2020
1365 Thunderstorm 19 1015 52 8000 1.5 40 21:19 04.01.2020
1366 Clouds 19 1016 55 10000 2.1 30 20:55 04.01.2020
1367 Clouds 19 1016 55 10000 2.1 30 20:36 04.01.2020
1368 Clouds 19 1016 55 10000 2.1 30 20:36 04.01.2020
1369 Clouds 19 1016 55 10000 2.1 30 20:18 04.01.2020
1370 Clouds 20 1016 52 10000 3.1 40 19:41 04.01.2020
1371 Clouds 20 1016 52 10000 3.1 40 19:23 04.01.2020
1372 Clouds 20 1015 56 10000 4.1 30 18:57 04.01.2020
1373 Clouds 20 1015 56 10000 4.1 30 18:38 04.01.2020
1374 Clouds 20 1015 56 10000 4.1 30 18:19 04.01.2020
1375 Clouds 22 1015 49 10000 3.1 20 17:55 04.01.2020
1376 Clouds 22 1015 49 10000 3.1 20 17:37 04.01.2020
1377 Clouds 22 1015 49 10000 3.1 20 17:18 04.01.2020
1378 Clouds 23 1014 43 10000 5.1 350 16:40 04.01.2020
1379 Clouds 23 1014 43 10000 5.1 350 16:22 04.01.2020
1380 Clouds 23 1014 43 10000 5.1 350 16:22 04.01.2020
1381 Clouds 24 1013 41 10000 6.2 350 15:56 04.01.2020
1382 Clouds 24 1013 41 10000 6.2 350 15:38 04.01.2020
1383 Clouds 24 1013 41 10000 6.2 350 15:19 04.01.2020
1384 Clouds 26 1013 39 10000 4.6 340 14:55 04.01.2020
1385 Clouds 26 1013 39 10000 4.6 340 14:55 04.01.2020
1386 Clouds 26 1013 39 10000 4.6 340 14:36 04.01.2020
1387 Clouds 26 1013 39 10000 4.6 340 14:18 04.01.2020
1388 Clouds 27 1013 39 10000 5.7 290 13:54 04.01.2020
1389 Clouds 27 1013 39 10000 5.7 290 13:36 04.01.2020
1390 Clouds 27 1013 39 10000 5.7 290 13:18 04.01.2020
1391 Clouds 27 1013 39 10000 4.1 260 12:41 04.01.2020
1392 Clouds 27 1013 39 10000 4.1 260 12:19 04.01.2020
1393 Clear 27 1013 36 10000 3.6 240 11:57 04.01.2020
1394 Clear 27 1013 36 10000 3.6 240 11:38 04.01.2020
1395 Clear 27 1013 36 10000 3.6 240 11:19 04.01.2020
1396 Clear 27 1015 39 10000 3.6 240 10:42 04.01.2020
1397 Clear 27 1015 39 10000 3.6 240 10:23 04.01.2020
1398 Clear 26 1016 34 10000 4.6 230 09:57 04.01.2020
1399 Clear 26 1016 34 10000 4.6 230 09:39 04.01.2020
1400 Clear 26 1016 34 10000 4.6 230 09:20 04.01.2020
1401 Clear 25 1016 27 10000 5.7 220 08:40 04.01.2020
1402 Clear 25 1016 27 10000 5.7 220 08:20 04.01.2020
1403 Clear 23 1017 33 10000 2.1 170 07:42 04.01.2020
1404 Clear 23 1017 33 10000 2.1 170 07:19 04.01.2020
1405 Clear 20 1016 42 10000 1.5 150 06:33 04.01.2020
1406 Clear 18 1016 45 10000 1.5 150 05:19 04.01.2020
1407 Clear 18 1015 45 10000 1.5 90 04:34 04.01.2020
1408 Clear 18 1015 48 10000 1 60 03:43 04.01.2020
1409 Clear 18 1015 48 10000 1 60 03:18 04.01.2020
1410 Clear 20 1014 37 10000 2.6 180 02:21 04.01.2020
1411 Clear 20 1014 37 10000 2.6 180 02:21 04.01.2020
1412 Clear 20 1014 42 10000 1.5 150 01:55 04.01.2020
1413 Clear 20 1014 42 10000 1.5 150 01:31 04.01.2020
1414 Clear 19 1015 45 10000 1.5 80 00:43 04.01.2020
1415 Clear 19 1015 45 10000 1.5 80 00:23 04.01.2020
1416 Clear 21 1015 40 10000 1.5 150 23:44 03.01.2020
1417 Clear 21 1015 40 10000 1.5 150 23:25 03.01.2020
1418 Clear 22 1015 33 10000 3.6 170 22:41 03.01.2020
1419 Clear 22 1015 33 10000 3.6 170 22:20 03.01.2020
1420 Clear 22 1015 35 10000 3.1 160 21:59 03.01.2020
1421 Clear 22 1015 35 10000 3.1 160 21:38 03.01.2020
1422 Clear 22 1015 35 10000 3.1 160 21:19 03.01.2020
1423 Clear 22 1016 33 10000 3.1 160 20:58 03.01.2020
1424 Clear 22 1016 33 10000 3.1 160 20:40 03.01.2020
1425 Clear 22 1016 33 10000 3.1 160 20:18 03.01.2020
1426 Clear 22 1016 35 10000 2.1 160 19:56 03.01.2020
1427 Clear 22 1016 35 10000 2.1 160 19:37 03.01.2020
1428 Clear 22 1016 35 10000 2.1 160 19:19 03.01.2020
1429 Clear 23 1016 38 10000 2.1 160 18:43 03.01.2020
1430 Clear 23 1016 38 10000 2.1 160 18:24 03.01.2020
1431 Clear 25 1016 36 10000 2.1 160 17:55 03.01.2020
1432 Clear 25 1016 36 10000 2.1 160 17:37 03.01.2020
1433 Clear 25 1016 36 10000 2.1 160 17:37 03.01.2020
1434 Clear 25 1016 36 10000 2.1 160 17:18 03.01.2020
1435 Clear 25 1016 36 10000 2.1 160 17:18 03.01.2020
1436 Clear 27 1016 32 10000 1.5 230 16:42 03.01.2020
1437 Clear 27 1016 32 10000 1.5 230 16:23 03.01.2020
1438 Clear 28 1015 28 10000 2.6 230 15:44 03.01.2020
1439 Clear 28 1015 28 10000 2.6 230 15:19 03.01.2020
1440 Clear 30 1015 23 10000 4.6 230 14:59 03.01.2020
1441 Clear 30 1015 23 10000 4.6 230 14:38 03.01.2020
1442 Clear 30 1015 23 10000 4.6 230 14:19 03.01.2020
1443 Clear 29 1015 23 10000 4.6 230 13:44 03.01.2020
1444 Clear 29 1015 23 10000 4.6 230 13:44 03.01.2020
1445 Clear 29 1015 23 10000 4.6 230 13:44 03.01.2020
1446 Clear 29 1015 23 10000 4.6 230 13:24 03.01.2020
1447 Clear 29 1015 23 10000 4.6 200 12:59 03.01.2020
1448 Clear 29 1015 23 10000 4.6 200 12:39 03.01.2020
1449 Clear 29 1015 23 10000 4.6 200 12:21 03.01.2020
1450 Clear 28 1016 24 10000 3.6 190 11:45 03.01.2020
1451 Clear 28 1016 24 10000 3.6 190 11:21 03.01.2020
1452 Clear 26 1017 29 10000 4.1 190 10:45 03.01.2020
1453 Clear 26 1017 29 10000 4.1 190 10:26 03.01.2020
1454 Clear 24 1018 33 10000 3.1 180 09:58 03.01.2020
1455 Clear 24 1018 33 10000 3.1 180 09:39 03.01.2020
1456 Clear 24 1018 33 10000 3.1 180 09:21 03.01.2020
1457 Clear 23 1019 38 10000 2.6 190 08:56 03.01.2020
1458 Clear 23 1019 38 10000 2.6 190 08:38 03.01.2020
1459 Clear 23 1019 38 10000 2.6 190 08:19 03.01.2020
1460 Clear 19 1020 52 10000 2.6 160 07:40 03.01.2020
1461 Clear 19 1020 52 10000 2.6 160 07:18 03.01.2020
1462 Clear 17 1019 63 10000 1.5 150 06:49 03.01.2020
1463 Clear 17 1019 63 10000 1.5 150 06:30 03.01.2020
1464 Clear 15 1019 72 10000 1.5 120 05:45 03.01.2020
1465 Clear 16 1018 67 10000 2.1 140 04:22 03.01.2020
1466 Clear 17 1018 59 10000 2.6 160 02:56 03.01.2020
1467 Clear 17 1018 59 10000 2.6 160 02:56 03.01.2020
1468 Clear 17 1018 59 10000 2.6 160 02:33 03.01.2020
1469 Clear 17 1018 55 10000 3.1 150 01:42 03.01.2020
1470 Clear 17 1018 55 10000 3.6 160 00:50 03.01.2020
1471 Clear 17 1018 55 10000 3.6 160 00:30 03.01.2020
1472 Clear 17 1018 55 10000 2.6 160 23:55 02.01.2020
1473 Clear 17 1018 55 10000 2.6 160 23:37 02.01.2020
1474 Clear 17 1018 55 10000 2.6 160 23:18 02.01.2020
1475 Clear 18 1018 52 10000 4.6 170 22:45 02.01.2020
1476 Clear 18 1018 52 10000 4.6 170 22:45 02.01.2020
1477 Clear 18 1018 52 10000 4.6 170 22:21 02.01.2020
1478 Clear 18 1019 52 10000 2.1 150 21:59 02.01.2020
1479 Clear 18 1019 52 10000 2.1 150 21:41 02.01.2020
1480 Clear 18 1019 52 10000 2.1 150 21:23 02.01.2020
1481 Clear 19 1019 45 10000 2.6 160 20:58 02.01.2020
1482 Clear 19 1019 45 10000 2.6 160 20:39 02.01.2020
1483 Clear 19 1019 45 10000 2.6 160 20:39 02.01.2020
1484 Clear 19 1019 45 10000 2.6 160 20:21 02.01.2020
1485 Clear 20 1019 42 10000 3.1 160 19:55 02.01.2020
1486 Clear 20 1019 42 10000 3.1 160 19:55 02.01.2020
1487 Clear 20 1019 42 10000 3.1 160 19:55 02.01.2020
1488 Clear 20 1019 42 10000 3.1 160 19:37 02.01.2020
1489 Clear 20 1019 42 10000 3.1 160 19:19 02.01.2020
1490 Clear 20 1018 42 10000 2.6 150 18:57 02.01.2020
1491 Clear 20 1018 42 10000 2.6 150 18:38 02.01.2020
1492 Clear 20 1018 42 10000 2.6 150 18:20 02.01.2020
1493 Clear 21 1018 40 10000 2.6 140 17:56 02.01.2020
1494 Clear 21 1018 40 10000 2.6 140 17:36 02.01.2020
1495 Clear 21 1018 40 10000 2.6 140 17:18 02.01.2020
1496 Clear 22 1017 40 10000 2.6 150 16:56 02.01.2020
1497 Clear 22 1017 40 10000 2.6 150 16:38 02.01.2020
1498 Clear 22 1017 40 10000 2.6 150 16:19 02.01.2020
1499 Clear 23 1017 38 10000 3.6 160 15:45 02.01.2020
1500 Clear 23 1017 38 10000 3.6 160 15:24 02.01.2020
1501 Clear 24 1016 33 10000 4.6 160 14:58 02.01.2020
1502 Clear 24 1016 33 10000 4.6 160 14:38 02.01.2020
1503 Clouds 24 1016 33 10000 4.6 160 14:20 02.01.2020
1504 Clouds 23 1016 35 10000 4.1 160 13:58 02.01.2020
1505 Clouds 23 1016 35 10000 4.1 160 13:40 02.01.2020
1506 Clouds 23 1016 35 10000 4.1 160 13:19 02.01.2020
1507 Clouds 22 1017 37 10000 4.1 160 12:42 02.01.2020
1508 Clouds 21 1017 40 10000 4.6 180 12:21 02.01.2020
1509 Clouds 21 1017 40 10000 4.6 180 11:42 02.01.2020
1510 Clouds 21 1017 40 10000 4.6 180 11:22 02.01.2020
1511 Clouds 20 1018 37 10000 5.7 170 10:46 02.01.2020
1512 Clouds 20 1018 37 10000 5.7 170 10:28 02.01.2020
1513 Clouds 18 1020 36 10000 4.1 160 09:58 02.01.2020
1514 Clouds 18 1020 36 10000 4.1 160 09:36 02.01.2020
1515 Clouds 17 1021 36 10000 3.6 160 08:59 02.01.2020
1516 Clouds 17 1021 36 10000 3.6 160 08:40 02.01.2020
1517 Clouds 17 1021 36 10000 3.6 160 08:21 02.01.2020
1518 Clouds 16 1021 31 10000 4.6 160 07:47 02.01.2020
1519 Clouds 16 1021 31 10000 4.6 160 07:27 02.01.2020
1520 Clouds 13 1020 43 10000 2.6 140 06:43 02.01.2020
1521 Clouds 12 1019 43 10000 2.1 150 05:42 02.01.2020
1522 Clouds 12 1019 46 10000 1.5 150 04:36 02.01.2020
1523 Clouds 13 1018 45 10000 2.6 150 03:44 02.01.2020
1524 Clouds 12 1017 46 10000 1.5 150 02:21 02.01.2020
1525 Clouds 13 1018 42 10000 2.6 130 01:57 02.01.2020
1526 Clouds 13 1018 43 10000 2.6 130 01:26 02.01.2020
1527 Clouds 13 1018 47 10000 1 160 00:49 02.01.2020
1528 Clouds 13 1018 47 10000 1 160 00:26 02.01.2020
1529 Clouds 13 1018 47 10000 1 160 00:26 02.01.2020
1530 Clouds 14 1018 41 10000 1.5 140 23:43 01.01.2020
1531 Clouds 14 1018 41 10000 1.5 140 23:43 01.01.2020
1532 Clouds 14 1018 41 10000 1.5 140 23:23 01.01.2020
1533 Clouds 13 1018 43 10000 1.5 100 22:39 01.01.2020
1534 Clouds 13 1018 43 10000 1.5 100 22:21 01.01.2020
1535 Clouds 14 1019 41 10000 1.5 90 21:59 01.01.2020
1536 Clouds 14 1019 41 10000 1.5 90 21:40 01.01.2020
1537 Clouds 14 1019 41 10000 1.5 90 21:21 01.01.2020
1538 Clouds 15 1019 41 10000 1.5 90 20:58 01.01.2020
1539 Clouds 15 1019 41 10000 1.5 90 20:38 01.01.2020
1540 Clouds 15 1019 41 10000 1.5 90 20:20 01.01.2020
1541 Clouds 16 1019 34 10000 2.1 100 19:57 01.01.2020
1542 Clouds 16 1019 34 10000 2.1 100 19:38 01.01.2020
1543 Clouds 16 1019 34 10000 2.1 100 19:20 01.01.2020
1544 Clouds 16 1018 36 10000 2.6 100 18:57 01.01.2020
1545 Clouds 16 1018 36 10000 2.6 100 18:38 01.01.2020
1546 Clouds 16 1018 36 10000 2.6 100 18:20 01.01.2020
1547 Clouds 17 1018 33 10000 3.1 100 17:57 01.01.2020
1548 Clouds 17 1018 33 10000 3.1 100 17:39 01.01.2020
1549 Clouds 17 1018 33 10000 3.1 100 17:19 01.01.2020
1550 Clouds 18 1017 31 10000 3.6 110 16:57 01.01.2020
1551 Clouds 18 1017 31 10000 3.6 110 16:37 01.01.2020
1552 Clouds 18 1017 31 10000 3.6 110 16:19 01.01.2020
1553 Clouds 19 1016 29 10000 3.6 100 15:54 01.01.2020
1554 Clouds 19 1016 29 10000 3.6 100 15:36 01.01.2020
1555 Clouds 19 1016 29 10000 3.6 100 15:36 01.01.2020
1556 Clouds 19 1016 29 10000 3.6 100 15:36 01.01.2020
1557 Clouds 19 1016 29 10000 3.6 100 15:18 01.01.2020
1558 Clouds 19 1016 32 10000 2.6 110 14:42 01.01.2020
1559 Clouds 19 1016 32 10000 2.6 110 14:24 01.01.2020
1560 Clear 19 1016 29 10000 3.1 90 13:57 01.01.2020
1561 Clear 19 1016 29 10000 3.1 90 13:38 01.01.2020
1562 Clear 19 1016 29 10000 3.1 90 13:19 01.01.2020
1563 Clear 19 1016 29 10000 3.1 70 12:58 01.01.2020
1564 Clear 19 1016 29 10000 3.1 70 12:40 01.01.2020
1565 Clear 19 1016 29 10000 3.1 70 12:19 01.01.2020
1566 Clear 19 1016 29 10000 3.1 70 12:19 01.01.2020
1567 Clear 18 1017 31 10000 2.6 60 11:56 01.01.2020
1568 Clear 18 1017 31 10000 2.6 60 11:38 01.01.2020
1569 Clear 18 1017 31 10000 2.6 60 11:19 01.01.2020
1570 Clear 18 1018 31 10000 3.1 60 10:54 01.01.2020
1571 Clear 18 1018 31 10000 3.1 60 10:36 01.01.2020
1572 Clear 18 1018 31 10000 3.1 60 10:18 01.01.2020
1573 Clear 17 1020 36 10000 2.6 50 09:39 01.01.2020
1574 Clear 17 1020 36 10000 2.6 50 09:20 01.01.2020
1575 Clouds 16 1020 36 10000 3.6 60 08:56 01.01.2020
1576 Clouds 16 1020 36 10000 3.6 60 08:37 01.01.2020
1577 Clouds 16 1020 36 10000 3.6 60 08:19 01.01.2020
1578 Clouds 14 1020 44 10000 2.1 20 07:56 01.01.2020
1579 Clouds 14 1020 44 10000 2.1 20 07:38 01.01.2020
1580 Clouds 13 1020 47 10000 2.6 10 06:46 01.01.2020
1581 Clouds 13 1020 47 10000 2.6 10 06:22 01.01.2020
1582 Clouds 12 1019 58 10000 1.5 30 05:45 01.01.2020
1583 Clouds 13 1018 54 10000 2.1 30 03:48 01.01.2020
1584 Clouds 13 1018 54 10000 2.1 30 03:28 01.01.2020
1585 Clouds 13 1018 47 10000 2.1 10 02:59 01.01.2020
1586 Clouds 13 1018 47 10000 2.1 10 02:40 01.01.2020
1587 Clouds 13 1018 47 10000 2.1 10 02:21 01.01.2020
1588 Clouds 14 1018 47 10000 3.6 360 01:39 01.01.2020
1589 Clouds 14 1018 47 10000 3.6 360 01:39 01.01.2020
1590 Clouds 14 1018 47 10000 3.6 360 01:21 01.01.2020
1591 Clouds 14 1018 47 10000 3.6 360 00:44 01.01.2020
1592 Clouds 14 1018 47 10000 3.6 360 00:26 01.01.2020
1593 Clouds 16 1018 41 10000 4.6 360 23:42 31.12.2019
1594 Clouds 16 1018 41 10000 4.6 360 23:22 31.12.2019
1595 Clouds 16 1018 44 10000 2.6 350 22:59 31.12.2019
1596 Clouds 16 1018 44 10000 2.6 350 22:39 31.12.2019
1597 Clouds 16 1018 44 10000 2.6 350 22:20 31.12.2019
1598 Clouds 16 1018 44 10000 2.1 350 21:58 31.12.2019
1599 Clouds 16 1018 44 10000 2.1 350 21:40 31.12.2019
1600 Clouds 16 1018 44 10000 2.1 350 21:21 31.12.2019
1601 Clouds 17 1019 39 10000 3.6 350 20:56 31.12.2019
1602 Clouds 17 1019 39 10000 3.6 350 20:37 31.12.2019
1603 Clouds 17 1019 39 10000 3.6 350 20:19 31.12.2019
1604 Clouds 18 1018 36 10000 3.6 350 19:54 31.12.2019
1605 Clouds 18 1018 36 10000 3.6 350 19:36 31.12.2019
1606 Clouds 18 1018 36 10000 3.6 350 19:18 31.12.2019
1607 Clouds 19 1018 37 10000 3.6 10 18:54 31.12.2019
1608 Clouds 19 1018 37 10000 3.6 10 18:36 31.12.2019
1609 Clouds 19 1018 37 10000 3.6 10 18:18 31.12.2019
1610 Clouds 19 1018 37 10000 3.6 10 18:18 31.12.2019
1611 Clouds 21 1017 30 10000 4.6 10 17:54 31.12.2019
1612 Clouds 21 1017 30 10000 4.6 10 17:36 31.12.2019
1613 Clear 21 1017 30 10000 4.6 10 17:18 31.12.2019
1614 Clear 23 1016 35 10000 2.1 350 16:54 31.12.2019
1615 Clear 23 1016 35 10000 2.1 350 16:36 31.12.2019
1616 Clear 23 1016 35 10000 2.1 350 16:18 31.12.2019
1617 Clear 23 1016 35 10000 2.1 350 16:18 31.12.2019
1618 Clear 26 1016 27 10000 2.6 290 15:54 31.12.2019
1619 Clear 26 1016 27 10000 2.6 290 15:36 31.12.2019
1620 Clear 26 1016 27 10000 2.6 290 15:36 31.12.2019
1621 Clear 26 1016 27 10000 2.6 290 15:18 31.12.2019
1622 Clear 27 1015 24 10000 3.1 260 14:54 31.12.2019
1623 Clear 27 1015 24 10000 3.1 260 14:36 31.12.2019
1624 Clear 27 1015 24 10000 3.1 260 14:18 31.12.2019
1625 Clear 27 1015 26 10000 2.6 220 13:54 31.12.2019
1626 Clear 27 1015 26 10000 2.6 220 13:36 31.12.2019
1627 Clear 27 1015 26 10000 2.6 220 13:18 31.12.2019
1628 Clear 27 1016 26 10000 3.6 250 12:40 31.12.2019
1629 Clear 27 1016 26 10000 3.6 250 12:40 31.12.2019
1630 Clear 27 1016 26 10000 3.6 250 12:20 31.12.2019
1631 Clear 26 1016 26 10000 3.6 220 11:57 31.12.2019
1632 Clear 26 1016 26 10000 3.6 220 11:39 31.12.2019
1633 Clear 26 1016 26 10000 3.6 220 11:20 31.12.2019
1634 Clear 25 1018 25 10000 4.1 240 10:58 31.12.2019
1635 Clear 25 1018 25 10000 4.1 240 10:38 31.12.2019
1636 Clear 25 1018 25 10000 4.1 240 10:20 31.12.2019
1637 Clear 24 1019 27 9000 2.6 220 09:59 31.12.2019
1638 Clear 24 1019 27 9000 2.6 220 09:39 31.12.2019
1639 Clear 24 1019 27 9000 2.6 220 09:39 31.12.2019
1640 Clear 24 1019 27 9000 2.6 220 09:39 31.12.2019
1641 Clear 24 1019 27 9000 2.6 220 09:21 31.12.2019
1642 Clear 21 1020 37 9000 2.1 180 08:57 31.12.2019
1643 Clear 21 1020 37 9000 2.1 180 08:39 31.12.2019
1644 Clear 21 1020 37 9000 2.1 180 08:19 31.12.2019
1645 Clear 16 1020 48 10000 2.68 249 07:43 31.12.2019
1646 Clear 16 1020 48 10000 2.68 249 07:21 31.12.2019
1647 Clear 13 1020 58 10000 2.68 249 06:50 31.12.2019
1648 Clear 13 1019 54 10000 2.68 249 05:58 31.12.2019
1649 Clear 12 1019 58 10000 1.06 234 04:30 31.12.2019
1650 Clear 13 1018 50 10000 1.06 234 03:38 31.12.2019
1651 Clear 12 1018 58 10000 1.06 234 02:55 31.12.2019
1652 Clouds 12 1018 58 10000 0.64 206 02:19 31.12.2019
1653 Clouds 14 1018 47 10000 0.64 206 01:48 31.12.2019
1654 Clouds 14 1018 47 10000 0.64 206 01:27 31.12.2019
1655 Clear 14 1018 50 10000 1 160 00:46 31.12.2019
1656 Clear 14 1018 50 10000 1 160 00:22 31.12.2019
1657 Clear 15 1019 44 10000 1.5 140 23:56 30.12.2019
1658 Clear 15 1019 44 10000 1.5 140 23:38 30.12.2019
1659 Clear 15 1019 44 10000 1.5 140 23:20 30.12.2019
1660 Clear 15 1019 44 10000 2.1 130 22:57 30.12.2019
1661 Clear 15 1019 44 10000 2.1 130 22:38 30.12.2019
1662 Clear 15 1019 44 10000 2.1 130 22:20 30.12.2019
1663 Clear 16 1019 38 10000 2.6 160 21:56 30.12.2019
1664 Clear 16 1019 38 10000 2.6 160 21:38 30.12.2019
1665 Clear 16 1019 38 10000 2.6 160 21:38 30.12.2019
1666 Clear 16 1019 38 10000 2.6 160 21:18 30.12.2019
1667 Clear 16 1020 41 10000 1.5 150 20:56 30.12.2019
1668 Clear 16 1020 41 10000 1.5 150 20:56 30.12.2019
1669 Clear 16 1020 41 10000 1.5 150 20:38 30.12.2019
1670 Clouds 16 1020 41 10000 1.5 150 20:20 30.12.2019
1671 Clouds 16 1020 41 10000 1.5 130 19:57 30.12.2019
1672 Clouds 16 1020 41 10000 1.5 130 19:37 30.12.2019
1673 Clouds 16 1020 41 10000 1.5 130 19:19 30.12.2019
1674 Clouds 18 1020 36 10000 1.5 130 18:56 30.12.2019
1675 Clouds 18 1020 36 10000 1.5 130 18:38 30.12.2019
1676 Clouds 18 1020 36 10000 1.5 130 18:20 30.12.2019
1677 Clouds 19 1019 34 10000 1.5 140 17:55 30.12.2019
1678 Clouds 19 1019 34 10000 1.5 140 17:36 30.12.2019
1679 Clouds 19 1019 34 10000 1.5 140 17:36 30.12.2019
1680 Clouds 19 1019 34 10000 1.5 140 17:18 30.12.2019
1681 Clouds 21 1018 28 10000 2.1 130 16:55 30.12.2019
1682 Clouds 21 1018 28 10000 2.1 130 16:55 30.12.2019
1683 Clouds 21 1018 28 10000 2.1 130 16:36 30.12.2019
1684 Clouds 21 1018 28 10000 2.1 130 16:18 30.12.2019
1685 Clouds 23 1018 28 10000 2.1 160 15:54 30.12.2019
1686 Clouds 23 1018 28 10000 2.1 160 15:36 30.12.2019
1687 Clouds 23 1018 28 10000 2.1 160 15:18 30.12.2019
1688 Clouds 24 1018 23 10000 2.6 160 14:42 30.12.2019
1689 Clouds 24 1018 23 10000 2.6 160 14:42 30.12.2019
1690 Clouds 24 1018 23 10000 2.6 160 14:19 30.12.2019
1691 Clouds 25 1018 20 10000 3.1 180 13:55 30.12.2019
1692 Clouds 25 1018 20 10000 3.1 180 13:37 30.12.2019
1693 Clouds 25 1018 20 10000 3.1 180 13:18 30.12.2019
1694 Clouds 24 1018 22 10000 3.6 170 12:42 30.12.2019
1695 Clouds 24 1018 22 10000 3.6 170 12:20 30.12.2019
1696 Clouds 24 1018 22 10000 3.6 190 11:58 30.12.2019
1697 Clouds 24 1018 22 10000 3.6 190 11:40 30.12.2019
1698 Clear 24 1018 22 10000 3.6 190 11:19 30.12.2019
1699 Clear 22 1019 24 10000 4.6 180 10:44 30.12.2019
1700 Clear 22 1019 24 10000 4.6 180 10:21 30.12.2019
1701 Clear 21 1021 26 10000 5.1 170 09:58 30.12.2019
1702 Clear 21 1021 26 10000 5.1 170 09:39 30.12.2019
1703 Clear 21 1021 26 10000 5.1 170 09:19 30.12.2019
1704 Clear 19 1022 29 10000 5.7 170 08:50 30.12.2019
1705 Clear 19 1022 29 10000 5.7 170 08:50 30.12.2019
1706 Clear 19 1022 29 10000 5.7 170 08:23 30.12.2019
1707 Clear 18 1022 34 10000 4.6 170 07:55 30.12.2019
1708 Clear 18 1022 34 10000 4.6 170 07:34 30.12.2019
1709 Clear 14 1021 47 10000 2.1 160 06:52 30.12.2019
1710 Clear 11 1020 53 10000 1.5 140 04:57 30.12.2019
1711 Clear 12 1020 50 10000 1.5 160 03:55 30.12.2019
1712 Clear 14 1019 41 10000 2.1 170 02:56 30.12.2019
1713 Clear 14 1019 41 10000 2.1 170 02:37 30.12.2019
1714 Clear 13 1019 32 10000 2.1 160 01:50 30.12.2019
1715 Clear 13 1019 33 10000 2.1 160 01:21 30.12.2019
1716 Clear 14 1020 41 10000 3.1 170 00:44 30.12.2019
1717 Clear 14 1020 41 10000 3.1 170 00:18 30.12.2019
1718 Clear 15 1020 33 10000 4.1 170 23:39 29.12.2019
1719 Clear 15 1020 33 10000 4.1 170 23:39 29.12.2019
1720 Clear 15 1020 30 10000 4.1 170 23:21 29.12.2019
1721 Clear 15 1020 41 10000 1.5 160 22:43 29.12.2019
1722 Clear 15 1020 41 10000 1.5 160 22:24 29.12.2019
1723 Clear 15 1020 30 10000 2.1 150 21:59 29.12.2019
1724 Clear 15 1020 30 10000 2.1 150 21:41 29.12.2019
1725 Clear 15 1020 30 10000 2.1 150 21:20 29.12.2019
1726 Clear 16 1020 38 10000 1.5 160 20:57 29.12.2019
1727 Clear 16 1020 38 10000 1.5 160 20:39 29.12.2019
1728 Clear 16 1020 38 10000 1.5 160 20:20 29.12.2019
1729 Clear 17 1020 27 10000 2.1 150 19:58 29.12.2019
1730 Clear 17 1020 27 10000 2.1 150 19:39 29.12.2019
1731 Clear 17 1020 27 10000 2.1 150 19:20 29.12.2019
1732 Clear 18 1019 27 10000 2.1 150 18:57 29.12.2019
1733 Clear 18 1019 27 10000 2.1 150 18:38 29.12.2019
1734 Clear 18 1019 27 10000 2.1 150 18:38 29.12.2019
1735 Clear 18 1019 27 10000 2.1 150 18:19 29.12.2019
1736 Clear 19 1019 27 10000 2.1 140 17:57 29.12.2019
1737 Clear 19 1019 27 10000 2.1 140 17:39 29.12.2019
1738 Clear 19 1019 24 10000 2.1 140 17:20 29.12.2019
1739 Clear 20 1019 28 10000 2.1 150 16:56 29.12.2019
1740 Clear 20 1019 28 10000 2.1 150 16:37 29.12.2019
1741 Clear 20 1019 28 10000 2.1 150 16:19 29.12.2019
1742 Clear 22 1018 21 10000 3.1 150 15:57 29.12.2019
1743 Clear 22 1018 21 10000 3.1 150 15:38 29.12.2019
1744 Clear 22 1018 21 10000 3.1 150 15:19 29.12.2019
1745 Clear 23 1018 24 10000 4.1 150 14:56 29.12.2019
1746 Clear 23 1018 24 10000 4.1 150 14:38 29.12.2019
1747 Clear 23 1018 19 10000 4.1 150 14:18 29.12.2019
1748 Clear 24 1018 22 10000 4.1 160 13:57 29.12.2019
1749 Clear 24 1018 22 10000 4.1 160 13:37 29.12.2019
1750 Clear 24 1018 22 10000 4.1 160 13:37 29.12.2019
1751 Clear 24 1018 22 10000 4.1 160 13:19 29.12.2019
1752 Clear 23 1018 19 10000 4.1 170 12:45 29.12.2019
1753 Clear 23 1018 19 10000 4.1 170 12:26 29.12.2019
1754 Clear 23 1018 19 10000 5.1 170 11:57 29.12.2019
1755 Clear 23 1018 19 10000 5.1 170 11:38 29.12.2019
1756 Clear 23 1018 21 10000 5.1 170 11:20 29.12.2019
1757 Clear 22 1020 24 10000 4.6 170 10:43 29.12.2019
1758 Clear 22 1020 24 10000 4.6 170 10:24 29.12.2019
1759 Clear 20 1021 30 10000 4.1 160 09:58 29.12.2019
1760 Clear 20 1021 30 10000 4.1 160 09:39 29.12.2019
1761 Clear 20 1021 30 10000 4.1 160 09:21 29.12.2019
1762 Clear 18 1021 42 10000 3.1 140 08:47 29.12.2019
1763 Clear 18 1021 42 10000 3.1 140 08:27 29.12.2019
1764 Clear 15 1022 54 10000 3.1 120 07:55 29.12.2019
1765 Clear 15 1022 54 10000 3.1 120 07:28 29.12.2019
1766 Clear 13 1021 62 10000 1.5 130 06:56 29.12.2019
1767 Clear 13 1021 62 10000 1.5 130 06:26 29.12.2019
1768 Clear 11 1020 66 10000 2.1 80 05:52 29.12.2019
1769 Clear 11 1020 66 10000 1.5 80 04:36 29.12.2019
1770 Clear 11 1019 66 10000 1.5 120 03:54 29.12.2019
1771 Clear 11 1019 66 10000 1.5 120 03:20 29.12.2019
1772 Clear 12 1019 62 10000 1.5 140 02:20 29.12.2019
1773 Clear 13 1019 54 10000 2.1 140 01:31 29.12.2019
1774 Clear 13 1019 54 10000 2.1 140 01:31 29.12.2019
1775 Clear 12 1019 62 10000 1.5 150 00:58 29.12.2019
1776 Clear 12 1019 62 10000 1.5 150 00:40 29.12.2019
1777 Clear 12 1019 62 10000 1.5 150 00:21 29.12.2019
1778 Clear 12 1019 58 10000 4.64 123 23:43 28.12.2019
1779 Clear 12 1019 58 10000 4.79 135 23:18 28.12.2019
1780 Clear 14 1019 54 10000 4.79 135 22:39 28.12.2019
1781 Clear 14 1019 54 10000 4.79 135 22:20 28.12.2019
1782 Clear 15 1019 44 10000 3.1 110 21:58 28.12.2019
1783 Clear 15 1019 44 10000 3.1 110 21:39 28.12.2019
1784 Clear 15 1019 44 10000 3.1 110 21:21 28.12.2019
1785 Clear 16 1019 41 10000 3.6 110 20:57 28.12.2019
1786 Clear 16 1019 41 10000 3.6 110 20:37 28.12.2019
1787 Clear 16 1019 41 10000 3.6 110 20:19 28.12.2019
1788 Clear 17 1019 39 10000 2.6 100 19:56 28.12.2019
1789 Clear 17 1019 39 10000 2.6 100 19:38 28.12.2019
1790 Clear 17 1019 39 10000 2.6 100 19:19 28.12.2019
1791 Clear 18 1018 36 10000 2.1 90 18:56 28.12.2019
1792 Clear 18 1018 36 10000 2.1 90 18:56 28.12.2019
1793 Clear 18 1018 36 10000 2.1 90 18:38 28.12.2019
1794 Clear 18 1018 36 10000 2.1 90 18:18 28.12.2019
1795 Clear 19 1018 34 10000 1.5 110 17:43 28.12.2019
1796 Clear 19 1018 34 10000 1.5 110 17:22 28.12.2019
1797 Clear 21 1017 30 10000 2.1 140 16:59 28.12.2019
1798 Clear 21 1017 30 10000 2.1 140 16:41 28.12.2019
1799 Clear 21 1017 30 10000 2.1 140 16:23 28.12.2019
1800 Clear 23 1016 33 10000 1 140 15:43 28.12.2019
1801 Clear 23 1016 33 10000 1 140 15:23 28.12.2019
1802 Clear 24 1016 31 10000 1 140 14:56 28.12.2019
1803 Clear 24 1016 31 10000 1 140 14:37 28.12.2019
1804 Clear 24 1016 31 10000 1 140 14:19 28.12.2019
1805 Clear 23 1016 28 10000 2.6 90 13:42 28.12.2019
1806 Clear 23 1016 28 10000 2.6 90 13:21 28.12.2019
1807 Clear 23 1016 28 10000 2.6 90 13:21 28.12.2019
1808 Clear 23 1016 28 10000 3.1 60 12:58 28.12.2019
1809 Clear 23 1016 28 10000 3.1 60 12:40 28.12.2019
1810 Clear 12 1017 66 10000 2.6 30 12:21 28.12.2019
1811 Clear 12 1017 66 10000 2.6 30 11:40 28.12.2019
1812 Clear 12 1017 66 10000 2.6 30 11:22 28.12.2019
1813 Clear 20 1018 24 10000 2.6 60 10:59 28.12.2019
1814 Clear 20 1018 24 10000 2.6 60 10:41 28.12.2019
1815 Clear 20 1018 24 10000 2.6 60 10:20 28.12.2019
1816 Clear 19 1019 34 10000 3.6 60 09:55 28.12.2019
1817 Clear 19 1019 34 10000 3.6 60 09:36 28.12.2019
1818 Clear 19 1019 34 10000 3.6 60 09:18 28.12.2019
1819 Clear 17 1019 36 10000 3.6 60 08:43 28.12.2019
1820 Clear 17 1019 36 10000 3.6 60 08:24 28.12.2019
1821 Clear 15 1020 41 10000 4.1 20 07:48 28.12.2019
1822 Clear 15 1020 41 10000 4.1 20 07:23 28.12.2019
1823 Clear 11 1018 34 10000 3.1 320 05:51 28.12.2019
1824 Clear 11 1016 53 10000 1 310 03:48 28.12.2019
1825 Clear 12 1016 54 10000 2.1 290 02:51 28.12.2019
1826 Clear 12 1016 54 10000 2.1 290 02:20 28.12.2019
1827 Clear 13 1016 54 10000 1.5 280 01:56 28.12.2019
1828 Clear 13 1016 54 10000 1.5 280 01:23 28.12.2019
1829 Clear 14 1016 54 10000 0.9 318 00:48 28.12.2019
1830 Clear 14 1016 54 10000 0.9 318 00:30 28.12.2019
1831 Clear 16 1016 44 10000 1.5 250 23:58 27.12.2019
1832 Clear 16 1016 44 10000 1.5 250 23:58 27.12.2019
1833 Clear 16 1016 44 10000 1.5 250 23:38 27.12.2019
1834 Clear 16 1016 44 10000 1.5 250 23:18 27.12.2019
1835 Clear 17 1016 39 10000 2.6 140 22:55 27.12.2019
1836 Clear 17 1016 39 10000 2.6 140 22:37 27.12.2019
1837 Clear 17 1016 39 10000 2.6 140 22:19 27.12.2019
1838 Clear 17 1016 45 10000 1.5 150 21:43 27.12.2019
1839 Clear 17 1016 45 10000 1.5 150 21:24 27.12.2019
1840 Clear 18 1017 42 10000 1.5 140 20:45 27.12.2019
1841 Clear 18 1017 42 10000 1.5 140 20:26 27.12.2019
1842 Clear 19 1016 39 10000 1.5 150 19:59 27.12.2019
1843 Clear 19 1016 39 10000 1.5 150 19:41 27.12.2019
1844 Clear 19 1016 39 10000 1.5 150 19:20 27.12.2019
1845 Clear 19 1016 39 10000 1.5 150 19:20 27.12.2019
1846 Clear 20 1016 40 10000 1.5 160 18:56 27.12.2019
1847 Clear 20 1016 40 10000 1.5 160 18:37 27.12.2019
1848 Clear 20 1016 40 10000 1.5 160 18:18 27.12.2019
1849 Clear 21 1016 32 10000 2.1 170 17:55 27.12.2019
1850 Clear 21 1016 32 10000 2.1 170 17:37 27.12.2019
1851 Clear 21 1016 32 10000 2.1 170 17:18 27.12.2019
1852 Clear 21 1015 40 10000 3.11 185 16:43 27.12.2019
1853 Clear 21 1015 40 10000 3.11 185 16:23 27.12.2019
1854 Clear 25 1015 29 10000 1 230 15:58 27.12.2019
1855 Clear 25 1015 29 10000 1 230 15:37 27.12.2019
1856 Clear 25 1015 29 10000 1 230 15:19 27.12.2019
1857 Clear 26 1014 24 10000 2.6 250 14:56 27.12.2019
1858 Clear 26 1014 24 10000 2.6 250 14:38 27.12.2019
1859 Clear 26 1014 24 10000 2.6 250 14:19 27.12.2019
1860 Clear 27 1014 24 10000 3.1 180 13:47 27.12.2019
1861 Clear 27 1014 24 10000 3.1 180 13:24 27.12.2019
1862 Clear 26 1014 24 10000 3.1 170 12:56 27.12.2019
1863 Clear 26 1014 24 10000 3.1 170 12:37 27.12.2019
1864 Clear 26 1014 24 10000 3.1 170 12:18 27.12.2019
1865 Clear 26 1015 24 10000 3.6 180 11:42 27.12.2019
1866 Clear 26 1015 24 10000 3.6 180 11:22 27.12.2019
1867 Clear 24 1016 29 10000 3.1 170 10:54 27.12.2019
1868 Clear 24 1016 29 10000 3.1 170 10:36 27.12.2019
1869 Clear 24 1016 29 10000 3.1 170 10:18 27.12.2019
1870 Clear 22 1017 33 10000 2.6 160 09:39 27.12.2019
1871 Clear 22 1017 33 10000 2.6 160 09:21 27.12.2019
1872 Clear 19 1018 39 10000 2.1 140 08:54 27.12.2019
1873 Clear 19 1018 39 10000 2.1 140 08:34 27.12.2019
1874 Clear 17 1018 45 10000 1.5 160 07:49 27.12.2019
1875 Clear 17 1018 45 10000 1.5 160 07:28 27.12.2019
1876 Clear 13 1018 58 10000 1 150 06:36 27.12.2019
1877 Clear 11 1017 62 10000 1.5 140 04:58 27.12.2019
1878 Clear 12 1016 62 10000 1 220 02:49 27.12.2019
1879 Clear 12 1017 62 10000 0.94 151 01:56 27.12.2019
1880 Clear 12 1017 62 10000 0.95 149 01:23 27.12.2019
1881 Clear 13 1017 58 10000 0.95 149 00:53 27.12.2019
1882 Clear 13 1017 58 10000 0.95 149 00:34 27.12.2019
1883 Clear 14 1017 50 10000 1.5 160 23:59 26.12.2019
1884 Clear 14 1017 50 10000 1.5 160 23:40 26.12.2019
1885 Clear 14 1017 50 10000 1.5 160 23:21 26.12.2019
1886 Clear 15 1017 51 10000 1 230 22:43 26.12.2019
1887 Clear 15 1017 51 10000 1 230 22:21 26.12.2019
1888 Clear 14 1018 58 10000 1.61 112 21:56 26.12.2019
1889 Clear 14 1018 58 10000 1.61 112 21:37 26.12.2019
1890 Clear 14 1018 58 10000 1.61 112 21:19 26.12.2019
1891 Clear 16 1018 48 10000 1 150 20:45 26.12.2019
1892 Clear 16 1018 48 10000 1 150 20:22 26.12.2019
1893 Clear 15 1018 54 10000 0.92 82 19:58 26.12.2019
1894 Clear 15 1018 54 10000 0.92 82 19:39 26.12.2019
1895 Clear 15 1018 54 10000 0.92 82 19:20 26.12.2019
1896 Clear 18 1018 45 10000 0.92 82 18:57 26.12.2019
1897 Clear 18 1018 45 10000 0.92 82 18:38 26.12.2019
1898 Clear 18 1018 45 10000 0.92 82 18:19 26.12.2019
1899 Clear 18 1018 45 10000 1 70 17:42 26.12.2019
1900 Clear 18 1018 45 10000 1 70 17:22 26.12.2019
1901 Clear 20 1017 42 10000 2.35 188 16:58 26.12.2019
1902 Clear 20 1017 42 10000 2.35 188 16:39 26.12.2019
1903 Clear 20 1017 42 10000 2.35 188 16:20 26.12.2019
1904 Clear 24 1017 33 10000 1 310 15:41 26.12.2019
1905 Clear 24 1017 33 10000 1 310 15:21 26.12.2019
1906 Clear 25 1017 29 10000 1.5 270 14:58 26.12.2019
1907 Clear 25 1017 29 10000 1.5 270 14:38 26.12.2019
1908 Clear 25 1017 29 10000 1.5 270 14:20 26.12.2019
1909 Clear 25 1016 25 10000 4.1 280 13:43 26.12.2019
1910 Clear 25 1016 25 10000 4.1 280 13:20 26.12.2019
1911 Clear 24 1016 23 10000 4.1 270 12:56 26.12.2019
1912 Clear 24 1016 23 10000 4.1 270 12:56 26.12.2019
1913 Clear 24 1016 23 10000 4.1 270 12:37 26.12.2019
1914 Clear 24 1016 23 10000 4.1 270 12:19 26.12.2019
1915 Clear 24 1017 25 10000 3.6 270 11:56 26.12.2019
1916 Clear 24 1017 25 10000 3.6 270 11:37 26.12.2019
1917 Clear 24 1017 25 10000 3.6 270 11:37 26.12.2019
1918 Clear 24 1017 25 10000 3.6 270 11:19 26.12.2019
1919 Clear 23 1018 23 10000 4.6 240 10:41 26.12.2019
1920 Clear 23 1018 23 10000 4.6 240 10:41 26.12.2019
1921 Clear 23 1018 23 10000 4.6 240 10:18 26.12.2019
1922 Clear 21 1019 32 10000 2.6 180 09:43 26.12.2019
1923 Clear 21 1019 32 10000 2.6 180 09:25 26.12.2019
1924 Clear 19 1020 34 10000 2.1 180 08:42 26.12.2019
1925 Clear 19 1020 34 10000 2.1 180 08:24 26.12.2019
1926 Clear 16 1020 41 10000 3.1 160 07:53 26.12.2019
1927 Clear 16 1020 41 10000 3.1 160 07:26 26.12.2019
1928 Clear 14 1020 50 10000 2.1 160 06:52 26.12.2019
1929 Clear 11 1019 57 10000 1.5 150 06:31 26.12.2019
1930 Clear 11 1019 57 10000 1.5 150 05:45 26.12.2019
1931 Clear 11 1018 57 10000 2.1 150 04:55 26.12.2019
1932 Clear 11 1018 57 10000 2.1 150 04:29 26.12.2019
1933 Clear 12 1017 54 10000 2.1 150 02:54 26.12.2019
1934 Clear 12 1017 54 10000 2.1 150 02:34 26.12.2019
1935 Clear 12 1018 54 10000 2.1 160 01:46 26.12.2019
1936 Clear 12 1018 54 10000 2.1 160 01:27 26.12.2019
1937 Clear 12 1018 54 10000 1.5 150 00:48 26.12.2019
1938 Clear 12 1018 54 10000 1.5 150 00:25 26.12.2019
1939 Clear 14 1018 44 10000 2.1 150 23:58 25.12.2019
1940 Clear 14 1018 44 10000 2.1 150 23:38 25.12.2019
1941 Clear 14 1018 44 10000 2.1 150 23:20 25.12.2019
1942 Clear 14 1018 44 10000 2.1 150 22:58 25.12.2019
1943 Clear 14 1018 44 10000 2.1 150 22:38 25.12.2019
1944 Clear 14 1018 44 10000 2.1 150 22:19 25.12.2019
1945 Clear 14 1019 50 10000 1.5 140 21:57 25.12.2019
1946 Clear 14 1019 50 10000 1.5 140 21:39 25.12.2019
1947 Clear 14 1019 50 10000 1.5 140 21:19 25.12.2019
1948 Clear 15 1019 41 10000 1.5 150 20:41 25.12.2019
1949 Clear 15 1019 41 10000 1.5 150 20:23 25.12.2019
1950 -273 0 0 0 0 0 20:22 25.12.2019
1951 Clear 15 1019 44 10000 1.5 150 19:59 25.12.2019
1952 Clear 15 1019 44 10000 1.5 150 19:41 25.12.2019
1953 Clear 15 1019 44 10000 1.5 150 19:22 25.12.2019
1954 Clear 16 1019 44 10000 1.5 150 18:54 25.12.2019
1955 Clear 16 1019 44 10000 1.5 150 18:36 25.12.2019
1956 Clear 16 1019 44 10000 1.5 150 18:18 25.12.2019
1957 Clear 18 1018 36 10000 2.1 150 17:40 25.12.2019
1958 Clear 18 1018 36 10000 2.1 150 17:40 25.12.2019
1959 Clear 18 1018 36 10000 2.1 150 17:18 25.12.2019
1960 Clear 19 1018 34 10000 2.1 140 16:56 25.12.2019
1961 Clear 19 1018 34 10000 2.1 140 16:37 25.12.2019
1962 Clear 19 1018 34 10000 2.1 140 16:18 25.12.2019
1963 Clear 21 1017 30 10000 2.6 140 15:56 25.12.2019
1964 Clear 21 1017 30 10000 2.6 140 15:37 25.12.2019
1965 Clear 21 1017 30 10000 2.6 140 15:18 25.12.2019
1966 Clear 23 1018 27 10000 3.1 160 14:56 25.12.2019
1967 Clear 23 1018 27 10000 3.1 160 14:37 25.12.2019
1968 Clear 23 1018 27 10000 3.1 160 14:18 25.12.2019
1969 Clear 23 1018 23 10000 3.6 170 13:42 25.12.2019
1970 Clear 23 1018 23 10000 3.6 170 13:21 25.12.2019
1971 Clear 23 1018 25 10000 3.1 170 12:55 25.12.2019
1972 Clear 23 1018 25 10000 3.1 170 12:36 25.12.2019
1973 Clear 23 1018 25 10000 3.1 170 12:18 25.12.2019
1974 Clear 22 1018 26 10000 3.1 160 11:42 25.12.2019
1975 Clear 22 1018 26 10000 3.1 160 11:22 25.12.2019
1976 Clear 21 1020 30 10000 3.1 170 10:41 25.12.2019
1977 Clear 21 1020 30 10000 3.1 170 10:22 25.12.2019
1978 Clear 19 1021 34 10000 2.6 180 09:59 25.12.2019
1979 Clear 19 1021 34 10000 2.6 180 09:41 25.12.2019
1980 Clear 19 1021 34 10000 2.6 180 09:23 25.12.2019
1981 Clear 17 1021 36 10000 2.6 160 08:44 25.12.2019
1982 Clear 17 1021 36 10000 2.6 160 08:25 25.12.2019
1983 Clear 15 1021 41 10000 3.1 160 07:45 25.12.2019
1984 Clear 15 1021 41 10000 3.1 160 07:23 25.12.2019
1985 Clear 13 1021 47 10000 2.1 170 06:41 25.12.2019
1986 Clear 13 1021 47 10000 2.1 170 06:21 25.12.2019
1987 Clear 10 1020 53 10000 2.6 170 04:47 25.12.2019
1988 Clear 10 1020 53 10000 2.6 170 04:25 25.12.2019
1989 Clear 10 1019 57 10000 1.5 160 03:52 25.12.2019
1990 Clear 10 1019 57 10000 1.5 160 03:32 25.12.2019
1991 Clear 10 1019 57 10000 1.5 150 02:32 25.12.2019
1992 Clear 10 1019 57 10000 1.5 150 01:54 25.12.2019
1993 Clear 10 1019 57 10000 1.5 150 01:24 25.12.2019
1994 Clear 11 1020 53 10000 2.1 150 00:45 25.12.2019
1995 Clear 11 1020 53 10000 2.1 150 00:26 25.12.2019
1996 Clear 11 1020 53 10000 2.1 140 23:40 24.12.2019
1997 Clear 11 1020 53 10000 2.1 140 23:21 24.12.2019
1998 Clear 13 1020 47 10000 2.1 140 22:58 24.12.2019
1999 Clear 13 1020 47 10000 2.1 140 22:37 24.12.2019
2000 Clear 13 1020 47 10000 2.1 140 22:19 24.12.2019
2001 Clear 13 1020 47 10000 1.5 140 21:41 24.12.2019
2002 Clear 13 1020 47 10000 1.5 140 21:22 24.12.2019
2003 Clear 13 1020 43 10000 1.5 150 20:43 24.12.2019
2004 Clear 13 1020 43 10000 1.5 150 20:24 24.12.2019
2005 Clear 15 1020 41 10000 1 160 19:57 24.12.2019
2006 Clear 15 1020 41 10000 1 160 19:38 24.12.2019
2007 Clear 15 1020 41 10000 1 160 19:18 24.12.2019
2008 Clear 15 1020 41 10000 1 160 18:42 24.12.2019
2009 Clear 15 1020 41 10000 1 160 18:19 24.12.2019
2010 Clear 17 1020 36 10000 1.5 150 17:45 24.12.2019
2011 Clear 17 1020 36 10000 1.5 150 17:23 24.12.2019
2012 Clear 18 1020 34 8000 1 130 16:58 24.12.2019
2013 Clear 18 1020 34 8000 1 130 16:58 24.12.2019
2014 Clear 18 1020 34 8000 1 130 16:40 24.12.2019
2015 Clear 18 1020 34 8000 1 130 16:22 24.12.2019
2016 Clear 21 1019 30 8000 1.5 110 15:58 24.12.2019
2017 Clear 21 1019 30 8000 1.5 110 15:38 24.12.2019
2018 Clear 21 1019 30 8000 1.5 110 15:19 24.12.2019
2019 Clear 22 1019 28 10000 1.5 90 14:58 24.12.2019
2020 Clear 22 1019 28 10000 1.5 90 14:40 24.12.2019
2021 Clear 22 1019 28 10000 1.5 90 14:22 24.12.2019
2022 Clear 22 1019 28 10000 1.5 90 13:56 24.12.2019
2023 Clear 22 1019 28 10000 1.5 90 13:38 24.12.2019
2024 Clear 22 1019 28 10000 1.5 90 13:20 24.12.2019
2025 Clear 22 1019 26 10000 1.5 140 12:57 24.12.2019
2026 Clear 22 1019 26 10000 1.5 140 12:38 24.12.2019
2027 Clear 22 1019 26 10000 1.5 140 12:19 24.12.2019
2028 Clear 22 1020 28 10000 2.1 180 11:57 24.12.2019
2029 Clear 22 1020 28 10000 2.1 180 11:37 24.12.2019
2030 Clear 22 1020 28 10000 2.1 180 11:19 24.12.2019
2031 Clear 20 1021 30 10000 1 110 10:57 24.12.2019
2032 Clear 20 1021 30 10000 1 110 10:38 24.12.2019
2033 Clear 20 1021 30 10000 1 110 10:20 24.12.2019
2034 Clear 19 1022 32 10000 1.5 130 09:56 24.12.2019
2035 Clear 19 1022 32 10000 1.5 130 09:38 24.12.2019
2036 Clear 19 1022 32 10000 1.5 130 09:20 24.12.2019
2037 Clear 16 1023 38 10000 1 130 08:47 24.12.2019
2038 Clear 16 1023 38 10000 1 130 08:24 24.12.2019
2039 Clear 13 1023 50 10000 1.42 121 07:55 24.12.2019
2040 Clear 13 1023 50 10000 1.42 121 07:37 24.12.2019
2041 Clear 13 1023 50 10000 1.42 121 07:18 24.12.2019
2042 Clear 11 1022 53 10000 1.42 121 06:39 24.12.2019
2043 Clear 11 1022 53 10000 1.42 121 06:19 24.12.2019
2044 Clear 7 1021 65 10000 1.42 121 05:50 24.12.2019
2045 Clear 7 1021 65 10000 2.48 115 05:19 24.12.2019
2046 Clear 7 1021 65 10000 2.48 115 04:21 24.12.2019
2047 Clear 7 1020 70 10000 2.48 115 03:45 24.12.2019
2048 Clear 7 1020 65 10000 2.48 115 02:28 24.12.2019
2049 Clear 8 1020 61 10000 2.74 114 01:54 24.12.2019
2050 Clear 8 1020 61 10000 2.8 115 01:25 24.12.2019
2051 Clear 10 1020 30 10000 1.5 140 00:56 24.12.2019
2052 Clear 10 1020 30 10000 1.5 140 00:37 24.12.2019
2053 Clear 10 1020 30 10000 1.5 140 00:19 24.12.2019
2054 Clear 11 1020 50 10000 1 120 23:42 23.12.2019
2055 Clear 11 1020 50 10000 1 120 23:23 23.12.2019
2056 Clear 11 1020 50 10000 1.5 130 22:57 23.12.2019
2057 Clear 11 1020 50 10000 1.5 130 22:38 23.12.2019
2058 Clear 11 1020 50 10000 1.5 130 22:19 23.12.2019
2059 Clear 11 1021 28 10000 1 120 21:56 23.12.2019
2060 Clear 11 1021 28 10000 1 120 21:36 23.12.2019
2061 Clear 11 1021 28 10000 1 120 21:18 23.12.2019
2062 Clear 11 1021 28 10000 1.5 90 20:57 23.12.2019
2063 Clear 11 1021 28 10000 1.5 90 20:39 23.12.2019
2064 Clouds 11 1021 24 10000 1.5 90 20:18 23.12.2019
2065 Clouds 13 1021 24 10000 1.5 50 19:56 23.12.2019
2066 Clouds 13 1021 24 10000 1.5 50 19:38 23.12.2019
2067 Clouds 13 1021 24 10000 1.5 50 19:19 23.12.2019
2068 Clouds 14 1021 24 10000 1.5 50 18:58 23.12.2019
2069 Clouds 14 1021 24 10000 1.5 50 18:39 23.12.2019
2070 Clouds 14 1021 24 10000 1.5 50 18:20 23.12.2019
2071 Clouds 13 1020 24 10000 1 50 17:57 23.12.2019
2072 Clouds 13 1020 24 10000 1 50 17:39 23.12.2019
2073 Clouds 13 1020 23 10000 1 50 17:19 23.12.2019
2074 Clouds 17 1020 23 10000 1.5 80 16:55 23.12.2019
2075 Clouds 17 1020 23 10000 1.5 80 16:37 23.12.2019
2076 Clouds 17 1020 23 10000 1.5 80 16:18 23.12.2019
2077 Clouds 18 1019 31 10000 1.5 90 15:55 23.12.2019
2078 Clouds 18 1019 31 10000 1.5 90 15:36 23.12.2019
2079 Clouds 18 1019 31 10000 1.5 90 15:18 23.12.2019
2080 Clouds 20 1019 23 10000 1.5 40 14:45 23.12.2019
2081 Clouds 20 1019 15 10000 1.5 40 14:26 23.12.2019
2082 Clouds 20 1019 23 10000 1.5 40 14:26 23.12.2019
2083 Clouds 20 1019 22 10000 2.1 130 13:59 23.12.2019
2084 Clouds 20 1019 22 10000 2.1 130 13:41 23.12.2019
2085 Clouds 20 1019 22 10000 2.1 130 13:22 23.12.2019
2086 Clouds 20 1020 15 10000 1.5 230 12:59 23.12.2019
2087 Clouds 20 1020 15 10000 1.5 230 12:40 23.12.2019
2088 Clouds 20 1020 15 10000 1.5 230 12:21 23.12.2019
2089 Clouds 20 1020 15 10000 1.5 230 12:21 23.12.2019
2090 Clouds 19 1020 24 10000 2.1 230 11:55 23.12.2019
2091 Clouds 19 1020 24 10000 2.1 230 11:37 23.12.2019
2092 Clouds 19 1020 24 10000 2.1 230 11:18 23.12.2019
2093 Clouds 19 1021 25 10000 2.1 160 10:54 23.12.2019
2094 Clouds 19 1021 25 10000 2.1 160 10:36 23.12.2019
2095 Clouds 19 1021 25 10000 2.1 160 10:18 23.12.2019
2096 Clouds 17 1023 36 10000 2.1 160 09:40 23.12.2019
2097 Clouds 17 1023 36 10000 2.1 160 09:22 23.12.2019
2098 Clouds 15 1023 44 10000 1 90 08:59 23.12.2019
2099 Clear 15 1023 44 10000 1 90 08:40 23.12.2019
2100 Clouds 15 1023 44 10000 1 90 08:22 23.12.2019
2101 Clouds 13 1024 47 10000 1.14 110 07:48 23.12.2019
2102 Clouds 13 1024 47 10000 1.14 110 07:21 23.12.2019
2103 Clouds 9 1023 57 10000 1.14 110 06:57 23.12.2019
2104 Clouds 9 1023 57 10000 1.14 110 06:27 23.12.2019
2105 Clouds 4 1022 25 10000 1.14 110 05:56 23.12.2019
2106 Clouds 4 1022 25 10000 1.14 110 05:30 23.12.2019
2107 Clouds 4 1022 69 10000 1.54 122 04:39 23.12.2019
2108 Clouds 5 1022 65 10000 1.54 122 03:28 23.12.2019
2109 Clouds 6 1022 36 10000 1.54 122 02:43 23.12.2019
2110 Clear 6 1022 32 10000 2 107 02:19 23.12.2019
2111 Clear 6 1022 32 10000 2 107 01:44 23.12.2019
2112 Clear 6 1022 32 10000 2 107 01:26 23.12.2019
2113 Clear 6 1022 60 10000 1 280 00:44 23.12.2019
2114 Clear 6 1022 60 10000 1 280 00:24 23.12.2019
2115 Clear 7 1023 33 10000 2 110 23:40 22.12.2019
2116 Clear 7 1023 29 10000 1.98 120 23:22 22.12.2019
2117 Clear 7 1023 65 10000 1.98 120 22:58 22.12.2019
2118 Clear 7 1023 65 10000 1.98 120 22:40 22.12.2019
2119 Clear 7 1023 65 10000 1.98 120 22:22 22.12.2019
2120 Clear 8 1023 29 10000 1.98 120 21:59 22.12.2019
2121 Clear 8 1023 29 10000 1.98 120 21:40 22.12.2019
2122 Clear 8 1023 29 10000 1.98 120 21:21 22.12.2019
2123 Clear 8 1023 29 10000 1.98 120 21:21 22.12.2019
2124 Clear 9 1023 29 10000 1.98 120 20:59 22.12.2019
2125 Clear 9 1023 29 10000 2.09 120 20:39 22.12.2019
2126 Clear 9 1023 28 10000 1.84 110 20:19 22.12.2019
2127 Clear 10 1023 28 10000 1.84 110 19:57 22.12.2019
2128 Clear 10 1023 28 10000 1.84 110 19:39 22.12.2019
2129 Clear 10 1023 28 10000 1.84 110 19:19 22.12.2019
2130 Clear 13 1023 37 10000 1.5 70 18:42 22.12.2019
2131 Clear 13 1023 37 10000 1.5 70 18:24 22.12.2019
2132 Clear 14 1022 28 10000 2.1 40 17:56 22.12.2019
2133 Clear 14 1022 28 10000 2.1 40 17:56 22.12.2019
2134 Clear 14 1022 28 10000 2.1 40 17:38 22.12.2019
2135 Clear 14 1022 24 10000 2.1 40 17:19 22.12.2019
2136 Clear 15 1022 33 10000 2.6 50 16:57 22.12.2019
2137 Clear 15 1022 33 10000 2.6 50 16:38 22.12.2019
2138 Clear 15 1022 33 10000 2.6 50 16:20 22.12.2019
2139 Clear 17 1021 29 10000 2.6 30 15:56 22.12.2019
2140 Clear 17 1021 29 10000 2.6 30 15:56 22.12.2019
2141 Clear 17 1021 29 10000 2.6 30 15:38 22.12.2019
2142 Clear 17 1021 29 10000 2.6 30 15:19 22.12.2019
2143 Clear 18 1021 31 10000 1.5 50 14:55 22.12.2019
2144 Clear 18 1021 31 10000 1.5 50 14:37 22.12.2019
2145 Clear 18 1021 31 10000 1.5 50 14:18 22.12.2019
2146 Clear 19 1021 29 10000 2.1 60 13:55 22.12.2019
2147 Clear 19 1021 29 10000 2.1 60 13:36 22.12.2019
2148 Clear 19 1021 29 10000 2.1 60 13:18 22.12.2019
2149 Clear 18 1021 31 10000 1.5 50 12:55 22.12.2019
2150 Clear 18 1021 31 10000 1.5 50 12:55 22.12.2019
2151 Clear 18 1021 31 10000 1.5 50 12:37 22.12.2019
2152 Clear 18 1021 31 10000 1.5 50 12:18 22.12.2019
2153 Clear 18 1021 31 10000 1.5 50 12:18 22.12.2019
2154 Clear 18 1022 31 10000 1 40 11:55 22.12.2019
2155 Clear 18 1022 31 10000 1 40 11:36 22.12.2019
2156 Clear 18 1022 31 10000 1 40 11:18 22.12.2019
2157 Clear 17 1023 39 10000 1.5 130 10:54 22.12.2019
2158 Clear 17 1023 39 10000 1.5 130 10:36 22.12.2019
2159 Clear 17 1023 39 10000 1.5 130 10:18 22.12.2019
2160 Clear 17 1024 39 10000 0.57 145 09:41 22.12.2019
2161 Clear 17 1024 39 10000 0.57 145 09:22 22.12.2019
2162 Clear 15 1025 38 10000 0.57 145 08:59 22.12.2019
2163 Clear 15 1025 38 10000 0.77 130 08:38 22.12.2019
2164 Clear 15 1025 38 10000 1.32 131 08:20 22.12.2019
2165 Clear 12 1025 40 10000 1.32 131 07:39 22.12.2019
2166 Clear 12 1025 40 10000 1.32 131 07:20 22.12.2019
2167 Clear 7 1025 56 10000 1 290 06:41 22.12.2019
2168 Clear 5 1025 28 10000 1 280 05:54 22.12.2019
2169 Clear 5 1025 41 10000 1 280 05:23 22.12.2019
2170 Clear 4 1024 69 10000 1 330 04:29 22.12.2019
2171 Clear 5 1024 65 10000 1 280 03:53 22.12.2019
2172 Clear 6 1023 60 10000 1.5 310 02:40 22.12.2019
2173 Clear 6 1023 39 10000 0.88 101 01:47 22.12.2019
2174 Clear 6 1023 39 10000 0.88 101 01:28 22.12.2019
2175 Clear 7 1023 39 10000 1 280 00:47 22.12.2019
2176 Clear 7 1023 39 10000 1 280 00:23 22.12.2019
2177 Clear 8 1023 61 10000 1.08 101 23:56 21.12.2019
2178 Clear 8 1023 61 10000 1.08 101 23:38 21.12.2019
2179 Clear 8 1023 61 10000 1.55 61 23:19 21.12.2019
2180 Clear 9 1024 57 10000 1.55 61 22:41 21.12.2019
2181 Clear 9 1024 57 10000 1.55 61 22:19 21.12.2019
2182 Clear 9 1024 57 10000 1.55 61 21:57 21.12.2019
2183 Clear 9 1024 57 10000 1.55 61 21:38 21.12.2019
2184 Clear 9 1024 57 10000 1.55 61 21:19 21.12.2019
2185 Clear 9 1024 57 10000 1.55 61 20:59 21.12.2019
2186 Clear 9 1024 57 10000 1.55 61 20:39 21.12.2019
2187 Clear 9 1024 57 10000 1.8 43 20:21 21.12.2019
2188 Clear 9 1024 57 10000 1.8 43 19:58 21.12.2019
2189 Clear 9 1024 57 10000 1.8 43 19:40 21.12.2019
2190 Clear 9 1024 57 10000 1.8 43 19:19 21.12.2019
2191 Clear 11 1024 50 10000 1.8 43 18:45 21.12.2019
2192 Clear 11 1024 50 10000 1.8 43 18:24 21.12.2019
2193 Clear 14 1024 41 10000 1.5 290 17:57 21.12.2019
2194 Clear 14 1024 41 10000 1.5 290 17:57 21.12.2019
2195 Clear 14 1024 41 10000 1.5 290 17:39 21.12.2019
2196 Clear 14 1024 41 10000 1.5 290 17:21 21.12.2019
2197 Clear 14 1023 41 10000 2.1 310 16:59 21.12.2019
2198 Clear 14 1023 41 10000 2.1 310 16:41 21.12.2019
2199 Clear 14 1023 41 10000 2.1 310 16:19 21.12.2019
2200 Clear 17 1023 33 10000 2.1 350 15:57 21.12.2019
2201 Clear 17 1023 33 10000 2.1 350 15:38 21.12.2019
2202 Clear 17 1023 33 10000 2.1 350 15:19 21.12.2019
2203 Clear 18 1023 31 10000 2.1 350 14:56 21.12.2019
2204 Clear 18 1023 31 10000 2.1 350 14:37 21.12.2019
2205 Clear 18 1023 31 10000 2.1 350 14:18 21.12.2019
2206 Clear 19 1023 20 10000 2.6 340 13:55 21.12.2019
2207 Clear 19 1023 20 10000 2.6 340 13:37 21.12.2019
2208 Clear 19 1023 20 10000 2.6 340 13:18 21.12.2019
2209 Clear 17 1023 29 10000 2.6 30 12:54 21.12.2019
2210 Clear 17 1023 29 10000 2.6 30 12:36 21.12.2019
2211 Clear 17 1023 29 10000 2.6 30 12:18 21.12.2019
2212 Clear 18 1024 20 10000 2.6 350 11:41 21.12.2019
2213 Clear 18 1024 24 10000 2.6 350 11:23 21.12.2019
2214 Clear 17 1025 23 10000 2.6 350 10:54 21.12.2019
2215 Clear 17 1025 23 10000 2.6 350 10:36 21.12.2019
2216 Clear 17 1025 23 10000 2.6 350 10:18 21.12.2019
2217 Clear 17 1026 27 10000 1.5 320 09:42 21.12.2019
2218 Clear 17 1026 27 10000 1.5 320 09:20 21.12.2019
2219 Clear 15 1027 33 10000 2.1 320 08:56 21.12.2019
2220 Clear 15 1027 33 10000 2.1 320 08:37 21.12.2019
2221 Clear 15 1027 33 10000 2.1 320 08:18 21.12.2019
2222 Clear 13 1027 35 10000 2.6 320 07:41 21.12.2019
2223 Clear 13 1027 35 10000 2.6 320 07:21 21.12.2019
2224 Clear 9 1026 57 10000 1.5 310 06:43 21.12.2019
2225 Clear 9 1026 57 10000 1.5 310 06:25 21.12.2019
2226 Clear 5 1026 35 10000 1.23 14 05:47 21.12.2019
2227 Clear 5 1026 35 10000 1.23 14 05:47 21.12.2019
2228 Clear 5 1025 75 10000 1 290 04:58 21.12.2019
2229 Clear 5 1025 49 10000 1 310 03:57 21.12.2019
2230 Clear 6 1024 49 10000 1.5 310 02:51 21.12.2019
2231 Clear 7 1024 49 10000 1.5 310 01:57 21.12.2019
2232 Clear 7 1024 48 10000 1.5 310 01:27 21.12.2019
2233 -273 0 0 0 0 0 00:52 21.12.2019
2234 Clear 8 1025 48 10000 2.1 290 00:32 21.12.2019
2235 Clear 9 1025 57 10000 2.1 280 23:57 20.12.2019
2236 Clear 9 1025 57 10000 2.1 280 23:37 20.12.2019
2237 Clear 9 1025 57 10000 2.1 280 23:18 20.12.2019
2238 Clear 9 1025 57 10000 1.5 300 22:40 20.12.2019
2239 Clear 9 1025 57 10000 1.5 300 22:21 20.12.2019
2240 Clear 10 1025 61 10000 1 320 21:57 20.12.2019
2241 Clear 10 1025 61 10000 1 320 21:39 20.12.2019
2242 Clear 10 1025 61 10000 1 320 21:19 20.12.2019
2243 Clear 10 1026 53 10000 1.5 360 20:39 20.12.2019
2244 Clear 10 1026 53 10000 1.5 360 20:19 20.12.2019
2245 Clear 11 1026 50 10000 1 330 19:58 20.12.2019
2246 Clear 11 1026 50 10000 1 330 19:40 20.12.2019
2247 Clear 11 1026 50 10000 1 330 19:40 20.12.2019
2248 Clear 11 1026 50 10000 1 330 19:19 20.12.2019
2249 Clear 13 1026 43 10000 1.5 360 18:42 20.12.2019
2250 Clear 13 1026 43 10000 1.5 360 18:24 20.12.2019
2251 Clear 14 1025 40 10000 2.6 20 17:59 20.12.2019
2252 Clear 14 1025 40 10000 2.6 20 17:41 20.12.2019
2253 Clear 14 1025 33 10000 2.6 20 17:21 20.12.2019
2254 Clear 15 1025 33 10000 2.1 30 16:59 20.12.2019
2255 Clear 15 1025 33 10000 2.1 30 16:39 20.12.2019
2256 Clear 15 1025 33 10000 2.1 30 16:20 20.12.2019
2257 Clear 17 1024 29 10000 4.1 360 15:56 20.12.2019
2258 Clear 17 1024 29 10000 4.1 360 15:38 20.12.2019
2259 Clear 17 1024 29 10000 4.1 360 15:19 20.12.2019
2260 Clear 17 1024 29 10000 4.1 360 15:19 20.12.2019
2261 Clear 18 1024 25 10000 5.1 10 14:54 20.12.2019
2262 Clear 18 1024 25 10000 5.1 10 14:36 20.12.2019
2263 Clear 18 1024 25 10000 5.1 10 14:18 20.12.2019
2264 Clear 18 1024 27 10000 5.1 10 13:41 20.12.2019
2265 Clear 18 1024 27 10000 5.1 10 13:20 20.12.2019
2266 Clear 18 1024 25 10000 4.1 350 12:57 20.12.2019
2267 Clear 18 1024 25 10000 4.1 350 12:38 20.12.2019
2268 Clear 18 1024 25 10000 4.1 350 12:19 20.12.2019
2269 Clear 18 1025 31 10000 4.6 340 11:58 20.12.2019
2270 Clear 18 1025 31 10000 4.6 340 11:39 20.12.2019
2271 Clear 18 1025 31 10000 4.6 340 11:19 20.12.2019
2272 Clear 17 1026 33 10000 5.1 350 10:57 20.12.2019
2273 Clear 17 1026 33 10000 5.1 350 10:57 20.12.2019
2274 Clear 17 1026 33 10000 5.1 350 10:38 20.12.2019
2275 Clear 17 1026 33 10000 5.1 350 10:20 20.12.2019
2276 Clear 16 1027 38 10000 4.1 350 09:44 20.12.2019
2277 Clear 16 1027 38 10000 4.1 350 09:22 20.12.2019
2278 Clear 15 1028 44 10000 3.6 340 08:59 20.12.2019
2279 Clear 15 1028 44 10000 3.6 340 08:41 20.12.2019
2280 Clear 15 1028 44 10000 3.6 340 08:21 20.12.2019
2281 Clear 13 1028 50 10000 4.6 320 07:58 20.12.2019
2282 Clear 13 1028 50 10000 4.6 320 07:39 20.12.2019
2283 Clear 13 1028 50 10000 4.6 320 07:18 20.12.2019
2284 Clear 10 1027 66 10000 2.6 300 06:48 20.12.2019
2285 Clear 10 1027 66 10000 2.6 300 06:30 20.12.2019
2286 Clear 7 1027 75 10000 3.1 300 05:49 20.12.2019
2287 Clear 7 1027 75 10000 3.1 300 05:21 20.12.2019
2288 Clear 8 1026 75 10000 3.1 280 03:50 20.12.2019
2289 Clear 8 1026 75 10000 3.1 280 03:28 20.12.2019
2290 Clear 8 1025 75 10000 2.6 300 02:33 20.12.2019
2291 Clear 9 1026 70 10000 2.6 290 01:36 20.12.2019
2292 Clear 9 1026 70 10000 2.6 290 00:58 20.12.2019
2293 Clear 9 1026 70 10000 2.6 290 00:39 20.12.2019
2294 Clear 10 1026 66 10000 2.6 290 23:59 19.12.2019
2295 Clear 10 1026 66 10000 2.6 290 23:40 19.12.2019
2296 Clear 10 1026 66 10000 2.6 290 23:21 19.12.2019
2297 Clear 10 1026 66 10000 2.6 300 22:40 19.12.2019
2298 Clear 10 1026 66 10000 2.6 300 22:22 19.12.2019
2299 Clear 11 1026 66 10000 2.6 320 21:59 19.12.2019
2300 Clear 11 1026 66 10000 2.6 320 21:41 19.12.2019
2301 Clear 11 1026 66 10000 2.6 320 21:20 19.12.2019
2302 Clear 11 1027 62 10000 2.6 350 20:58 19.12.2019
2303 Clear 11 1027 62 10000 2.6 350 20:38 19.12.2019
2304 Clear 11 1027 62 10000 2.6 350 20:20 19.12.2019
2305 Clear 12 1027 58 10000 2.6 350 19:58 19.12.2019
2306 Clear 12 1027 58 10000 2.6 350 19:40 19.12.2019
2307 Clear 12 1027 58 10000 2.6 350 19:40 19.12.2019
2308 Clear 13 1027 58 10000 2.1 360 19:20 19.12.2019
2309 Clear 12 1027 58 10000 2.6 350 19:20 19.12.2019
2310 Clear 12 1027 58 10000 2.6 350 19:20 19.12.2019
2311 Clear 13 1027 58 10000 2.1 360 19:20 19.12.2019
2312 Clear 13 1027 58 10000 2.1 360 18:58 19.12.2019
2313 Clear 13 1027 58 10000 2.1 360 18:40 19.12.2019
2314 Clear 13 1027 58 10000 2.1 360 18:20 19.12.2019
2315 Clear 14 1027 50 10000 4.1 350 17:56 19.12.2019
2316 Clear 14 1027 50 10000 4.1 350 17:38 19.12.2019
2317 Clear 14 1027 50 10000 4.1 350 17:18 19.12.2019
2318 Clear 15 1026 44 10000 4.6 350 16:56 19.12.2019
2319 Clear 15 1026 44 10000 4.6 350 16:37 19.12.2019
2320 Clear 15 1026 44 10000 4.6 350 16:19 19.12.2019
2321 Clear 17 1025 36 10000 5.1 340 15:57 19.12.2019
2322 Clear 17 1025 36 10000 5.1 340 15:57 19.12.2019
2323 Clear 17 1025 36 10000 5.1 340 15:37 19.12.2019
2324 Clear 17 1025 36 10000 5.1 340 15:37 19.12.2019
2325 Clear 17 1025 36 10000 5.1 340 15:19 19.12.2019
2326 Clear 17 1025 36 10000 5.1 340 15:19 19.12.2019
2327 Clear 17 1025 36 10000 5.1 340 15:19 19.12.2019
2328 Clear 18 1025 31 10000 5.7 350 14:44 19.12.2019
2329 Clear 18 1025 31 10000 5.7 350 14:20 19.12.2019
2330 Clear 18 1025 34 10000 6.2 350 13:59 19.12.2019
2331 Clear 18 1025 34 10000 6.2 350 13:38 19.12.2019
2332 Clear 18 1025 34 10000 6.2 350 13:20 19.12.2019
2333 Clear 18 1025 34 10000 5.7 340 12:57 19.12.2019
2334 Clear 18 1025 34 10000 5.7 340 12:39 19.12.2019
2335 Clear 18 1025 34 10000 5.7 340 12:19 19.12.2019
2336 Clear 18 1026 34 10000 6.2 350 11:58 19.12.2019
2337 Clear 18 1026 34 10000 6.2 350 11:40 19.12.2019
2338 Clear 18 1026 34 10000 6.2 350 11:18 19.12.2019
2339 Clear 17 1027 39 10000 6.2 340 10:58 19.12.2019
2340 Clear 17 1027 39 10000 6.2 340 10:38 19.12.2019
2341 Clear 17 1027 39 10000 6.2 340 10:20 19.12.2019
2342 Clear 16 1028 44 10000 5.7 350 09:55 19.12.2019
2343 Clear 16 1028 44 10000 5.7 350 09:37 19.12.2019
2344 Clear 16 1028 44 10000 5.7 350 09:18 19.12.2019
2345 Clear 15 1028 47 10000 4.6 320 08:42 19.12.2019
2346 Clouds 15 1028 47 10000 4.6 320 08:20 19.12.2019
2347 Clouds 15 1028 47 10000 4.6 320 08:20 19.12.2019
2348 Clouds 15 1028 47 10000 4.6 320 08:20 19.12.2019
2349 Clouds 13 1028 54 10000 3.6 320 07:59 19.12.2019
2350 Clouds 13 1028 54 10000 3.6 320 07:38 19.12.2019
2351 Clouds 13 1028 54 10000 3.6 320 07:38 19.12.2019
2352 Clouds 13 1028 54 10000 3.6 320 07:20 19.12.2019
2353 Clouds 10 1028 61 10000 3.1 310 06:52 19.12.2019
2354 Clouds 10 1028 61 10000 3.1 310 06:32 19.12.2019
2355 Clouds 8 1027 70 10000 4.6 320 05:57 19.12.2019
2356 Clouds 8 1027 70 10000 4.6 320 05:39 19.12.2019
2357 Clouds 8 1027 70 10000 3.1 310 04:56 19.12.2019
2358 Clouds 8 1026 70 10000 3.6 310 03:45 19.12.2019
2359 Clouds 9 1026 70 10000 2.1 300 02:24 19.12.2019
2360 Clouds 9 1026 70 10000 2.6 290 01:23 19.12.2019
2361 Clouds 10 1026 66 10000 2.6 300 00:44 19.12.2019
2362 Clouds 10 1026 66 10000 2.6 300 00:24 19.12.2019
2363 Clouds 10 1026 71 10000 2.1 280 23:57 18.12.2019
2364 Clouds 10 1026 71 10000 2.1 280 23:38 18.12.2019
2365 Clouds 10 1026 71 10000 2.1 280 23:18 18.12.2019
2366 Clouds 11 1026 66 10000 2.1 300 22:55 18.12.2019
2367 Clouds 11 1026 66 10000 2.1 300 22:37 18.12.2019
2368 Clouds 11 1026 66 10000 2.1 300 22:19 18.12.2019
2369 Clouds 12 1026 58 10000 2.6 360 21:56 18.12.2019
2370 Clouds 12 1026 58 10000 2.6 360 21:56 18.12.2019
2371 Clouds 12 1026 58 10000 2.6 360 21:37 18.12.2019
2372 Clouds 12 1026 58 10000 2.6 360 21:19 18.12.2019
2373 Clouds 13 1026 54 10000 2.6 360 20:55 18.12.2019
2374 Clouds 13 1026 54 10000 2.6 360 20:55 18.12.2019
2375 Clouds 13 1026 54 10000 2.6 360 20:37 18.12.2019
2376 Clouds 13 1026 54 10000 2.6 360 20:19 18.12.2019
2377 Clouds 13 1026 54 10000 3.1 360 19:55 18.12.2019
2378 Clouds 13 1026 54 10000 3.1 360 19:37 18.12.2019
2379 Clouds 13 1026 54 10000 3.1 360 19:18 18.12.2019
2380 Clouds 13 1026 54 10000 3.1 360 19:18 18.12.2019
2381 Clouds 14 1026 50 10000 2.6 10 18:43 18.12.2019
2382 Clouds 14 1026 50 10000 2.6 10 18:25 18.12.2019
2383 Clouds 14 1026 50 10000 2.6 10 18:25 18.12.2019
2384 Clouds 15 1025 47 10000 2.1 10 17:57 18.12.2019
2385 Clouds 15 1025 47 10000 2.1 10 17:38 18.12.2019
2386 Clouds 15 1025 47 10000 2.1 10 17:19 18.12.2019
2387 Clouds 16 1025 38 10000 3.1 330 16:54 18.12.2019
2388 Clouds 16 1025 38 10000 3.1 330 16:36 18.12.2019
2389 Clouds 16 1025 38 10000 3.1 330 16:18 18.12.2019
2390 Clouds 17 1024 33 10000 5.1 330 15:55 18.12.2019
2391 Clouds 17 1024 33 10000 5.1 330 15:36 18.12.2019
2392 Clouds 17 1024 33 10000 5.1 330 15:18 18.12.2019
2393 Clouds 18 1024 34 10000 4.1 340 14:40 18.12.2019
2394 Clouds 18 1024 34 10000 4.1 340 14:20 18.12.2019
2395 Clouds 18 1023 36 10000 4.6 330 13:57 18.12.2019
2396 Clouds 18 1023 36 10000 4.6 330 13:57 18.12.2019
2397 Clouds 18 1023 36 10000 4.6 330 13:37 18.12.2019
2398 Clouds 18 1023 36 10000 4.6 330 13:19 18.12.2019
2399 Clouds 19 1023 34 10000 4.1 340 12:57 18.12.2019
2400 Clouds 19 1023 34 10000 4.1 340 12:38 18.12.2019
2401 Clouds 19 1023 34 10000 4.1 340 12:19 18.12.2019
2402 Clouds 18 1024 36 10000 4.1 360 11:55 18.12.2019
2403 Clouds 18 1024 36 10000 4.1 360 11:37 18.12.2019
2404 Clouds 18 1024 36 10000 4.1 360 11:37 18.12.2019
2405 Clouds 18 1024 36 10000 4.1 360 11:18 18.12.2019
2406 Clouds 17 1025 36 10000 5.7 350 10:55 18.12.2019
2407 Clouds 17 1025 36 10000 5.7 350 10:37 18.12.2019
2408 Clouds 17 1025 36 10000 5.7 350 10:37 18.12.2019
2409 Clouds 17 1025 36 10000 5.7 350 10:18 18.12.2019
2410 Clouds 16 1026 48 10000 3.6 310 09:43 18.12.2019
2411 Clouds 16 1026 48 10000 3.6 310 09:18 18.12.2019
2412 Clouds 16 1026 48 10000 3.6 310 09:18 18.12.2019
2413 Clouds 15 1026 51 10000 3.6 330 08:40 18.12.2019
2414 Clouds 15 1026 51 10000 3.6 330 08:21 18.12.2019
2415 Clouds 14 1027 58 10000 3.6 330 07:43 18.12.2019
2416 Clouds 14 1027 58 10000 3.6 330 07:22 18.12.2019
2417 Clouds 11 1026 71 10000 2.1 310 06:55 18.12.2019
2418 Clouds 11 1026 71 10000 2.1 310 06:27 18.12.2019
2419 Clouds 10 1026 76 10000 1.5 300 05:44 18.12.2019
2420 Clouds 10 1025 76 10000 2.1 270 04:46 18.12.2019
2421 Clouds 10 1024 81 10000 2.6 310 02:51 18.12.2019
2422 Clouds 10 1024 81 10000 2.6 310 02:31 18.12.2019
2423 Clouds 10 1024 81 10000 2.1 300 01:57 18.12.2019
2424 Clouds 10 1024 81 10000 2.1 300 01:37 18.12.2019
2425 Clouds 10 1024 81 10000 2.1 300 01:19 18.12.2019
2426 Clouds 11 1024 76 10000 2.1 310 00:40 18.12.2019
2427 Clouds 11 1024 76 10000 2.1 310 00:21 18.12.2019
2428 Clouds 12 1024 71 10000 3.1 360 23:54 17.12.2019
2429 Clouds 12 1024 71 10000 3.1 360 23:36 17.12.2019
2430 Clouds 12 1024 71 10000 3.1 360 23:18 17.12.2019
2431 Clouds 12 1024 71 10000 2.6 360 22:54 17.12.2019
2432 Clouds 12 1024 71 10000 2.6 360 22:36 17.12.2019
2433 Clouds 12 1024 71 10000 2.6 360 22:18 17.12.2019
2434 Clouds 13 1024 71 10000 2.6 10 21:55 17.12.2019
2435 Clouds 13 1024 71 10000 2.6 10 21:36 17.12.2019
2436 Clouds 13 1024 71 10000 2.6 10 21:18 17.12.2019
2437 Clouds 13 1024 71 10000 2.6 350 20:55 17.12.2019
2438 Clouds 13 1024 71 10000 2.6 350 20:36 17.12.2019
2439 Clouds 13 1024 71 10000 2.6 350 20:18 17.12.2019
2440 Clouds 13 1024 71 10000 2.1 20 19:41 17.12.2019
2441 Clouds 13 1024 71 10000 2.1 20 19:41 17.12.2019
2442 Clouds 13 1024 71 10000 2.1 20 19:20 17.12.2019
2443 Clouds 14 1024 62 10000 2.6 20 18:58 17.12.2019
2444 Clouds 14 1024 62 10000 2.6 20 18:40 17.12.2019
2445 Clouds 14 1024 62 10000 2.6 20 18:21 17.12.2019
2446 Clouds 15 1023 58 10000 3.6 20 17:56 17.12.2019
2447 Clouds 15 1023 58 10000 3.6 20 17:38 17.12.2019
2448 Clouds 15 1023 58 10000 3.6 20 17:18 17.12.2019
2449 Clouds 15 1022 54 10000 5.1 10 16:56 17.12.2019
2450 Clouds 15 1022 54 10000 5.1 10 16:37 17.12.2019
2451 Clouds 15 1022 54 10000 5.1 10 16:37 17.12.2019
2452 Clouds 15 1022 54 10000 5.1 10 16:18 17.12.2019
2453 Clouds 16 1021 55 10000 5.7 360 15:54 17.12.2019
2454 Clouds 16 1021 55 10000 5.7 360 15:36 17.12.2019
2455 Clouds 16 1021 55 10000 5.7 360 15:18 17.12.2019
2456 Clouds 17 1020 51 10000 5.7 360 14:54 17.12.2019
2457 Clouds 17 1020 51 10000 5.7 360 14:36 17.12.2019
2458 Clouds 17 1020 51 10000 5.7 360 14:18 17.12.2019
2459 Clouds 17 1020 51 10000 6.2 350 13:41 17.12.2019
2460 Clouds 17 1020 51 10000 6.2 350 13:19 17.12.2019
2461 Clouds 17 1020 55 10000 6.2 350 12:59 17.12.2019
2462 Clouds 17 1020 55 10000 6.2 350 12:59 17.12.2019
2463 Clouds 17 1020 55 10000 6.2 350 12:39 17.12.2019
2464 Clouds 17 1020 55 10000 6.2 350 12:18 17.12.2019
2465 Clouds 17 1020 55 10000 6.2 350 12:18 17.12.2019
2466 Clouds 16 1020 59 10000 5.7 350 11:58 17.12.2019
2467 Clouds 16 1020 59 10000 5.7 350 11:37 17.12.2019
2468 Clouds 16 1020 59 10000 5.7 350 11:18 17.12.2019
2469 Clouds 15 1021 62 8000 5.7 350 10:57 17.12.2019
2470 Clouds 15 1021 62 8000 5.7 350 10:39 17.12.2019
2471 Clouds 15 1021 62 8000 5.7 350 10:39 17.12.2019
2472 Clouds 15 1021 62 8000 5.7 350 10:19 17.12.2019
2473 Clouds 14 1021 67 7000 6.7 350 09:56 17.12.2019
2474 Clouds 14 1021 67 7000 6.7 350 09:38 17.12.2019
2475 Clouds 14 1021 67 7000 6.7 350 09:38 17.12.2019
2476 Clouds 14 1021 67 7000 6.7 350 09:18 17.12.2019
2477 Clouds 12 1022 76 6000 6.2 350 08:54 17.12.2019
2478 Clouds 12 1022 76 6000 6.2 350 08:36 17.12.2019
2479 Clouds 12 1022 76 6000 6.2 350 08:18 17.12.2019
2480 Clouds 12 1022 76 6000 5.7 340 07:42 17.12.2019
2481 Clouds 12 1022 76 6000 5.7 340 07:22 17.12.2019
2482 Clouds 12 1021 81 6000 5.7 350 06:50 17.12.2019
2483 Clouds 12 1021 81 6000 5.7 350 06:32 17.12.2019
2484 Clouds 12 1020 81 6000 6.2 340 05:50 17.12.2019
2485 Clouds 12 1020 81 6000 6.2 340 05:31 17.12.2019
2486 Clouds 12 1019 87 7000 4.6 340 03:59 17.12.2019
2487 Clouds 12 1018 87 6000 5.1 330 02:26 17.12.2019
2488 Mist 13 1018 82 4000 4.1 340 01:22 17.12.2019
2489 Mist 14 1018 82 3000 4.1 360 00:47 17.12.2019
2490 Mist 14 1018 82 3000 4.1 360 00:22 17.12.2019
2491 Dust 14 1018 82 2500 6.7 360 23:58 16.12.2019
2492 Dust 14 1018 82 2500 6.7 360 23:40 16.12.2019
2493 Dust 14 1018 82 2500 6.7 360 23:18 16.12.2019
2494 Dust 14 1017 87 2500 6.2 20 22:54 16.12.2019
2495 Dust 14 1017 87 2500 6.2 20 22:36 16.12.2019
2496 Dust 14 1017 87 2500 6.2 20 22:18 16.12.2019
2497 Dust 15 1017 77 3000 7.2 10 21:54 16.12.2019
2498 Thunderstorm 17 1016 59 10000 3.6 300 21:36 16.12.2019
2499 Thunderstorm 17 1016 59 10000 3.6 300 21:18 16.12.2019
2500 Clouds 17 1016 59 10000 3.1 310 20:55 16.12.2019
2501 Clouds 18 1016 55 7000 3.6 310 20:37 16.12.2019
2502 Clouds 18 1016 55 7000 3.6 310 20:18 16.12.2019
2503 Clouds 19 1016 68 7000 2.1 350 19:54 16.12.2019
2504 Clouds 19 1016 68 7000 2.1 350 19:36 16.12.2019
2505 Clouds 19 1016 68 7000 2.1 350 19:18 16.12.2019
2506 Clouds 20 1016 82 7000 2.6 30 18:42 16.12.2019
2507 Clouds 20 1016 82 7000 2.6 30 18:20 16.12.2019
2508 Clouds 20 1015 82 7000 5.33 313 17:59 16.12.2019
2509 Clouds 20 1015 82 7000 5.33 313 17:41 16.12.2019
2510 Clouds 20 1015 82 7000 3.95 288 17:22 16.12.2019
2511 Clouds 21 1014 77 6000 1.5 110 16:58 16.12.2019
2512 Clouds 21 1014 77 6000 1.5 110 16:39 16.12.2019
2513 Clouds 21 1014 77 6000 1.5 110 16:20 16.12.2019
2514 Haze 22 1014 73 5000 2.1 150 15:59 16.12.2019
2515 Haze 22 1014 73 5000 2.1 150 15:39 16.12.2019
2516 Haze 22 1014 73 5000 2.1 150 15:39 16.12.2019
2517 Haze 22 1014 73 5000 2.1 150 15:21 16.12.2019
2518 Haze 22 1013 73 5000 3.1 160 14:57 16.12.2019
2519 Haze 22 1013 73 5000 3.1 160 14:38 16.12.2019
2520 Haze 22 1013 73 5000 3.1 160 14:19 16.12.2019
2521 Clouds 23 1013 64 7000 3.1 130 13:57 16.12.2019
2522 Clouds 23 1013 64 7000 3.1 130 13:38 16.12.2019
2523 Clouds 23 1013 64 7000 3.1 130 13:19 16.12.2019
2524 Clouds 23 1013 64 7000 2.6 150 12:58 16.12.2019
2525 Clouds 23 1013 64 7000 2.6 150 12:39 16.12.2019
2526 Clouds 23 1013 64 7000 2.6 150 12:19 16.12.2019
2527 Clouds 23 1014 64 6000 3.1 170 11:58 16.12.2019
2528 Clouds 23 1014 64 6000 3.1 170 11:40 16.12.2019
2529 Clouds 23 1014 64 6000 3.1 170 11:20 16.12.2019
2530 Haze 22 1015 73 5000 2.6 160 10:57 16.12.2019
2531 Haze 22 1015 73 5000 2.6 160 10:39 16.12.2019
2532 Haze 22 1015 73 5000 2.6 160 10:39 16.12.2019
2533 Haze 22 1015 73 5000 2.6 160 10:19 16.12.2019
2534 Mist 19 1016 88 4500 2.1 130 09:45 16.12.2019
2535 Mist 19 1016 88 4500 2.1 130 09:27 16.12.2019
2536 Mist 19 1016 88 4500 2.1 130 09:27 16.12.2019
2537 Rain 19 1018 82 3500 3.1 210 08:56 16.12.2019
2538 Rain 19 1018 82 3500 3.1 210 08:37 16.12.2019
2539 Rain 19 1018 82 3500 3.1 210 08:18 16.12.2019
2540 Rain 19 1018 82 3500 3.1 210 08:18 16.12.2019
2541 Mist 19 1016 82 4500 4.6 170 07:44 16.12.2019
2542 Mist 19 1016 82 4500 4.6 170 07:22 16.12.2019
2543 Mist 18 1015 88 4000 4.6 160 06:45 16.12.2019
2544 Mist 18 1015 88 4000 4.6 160 06:25 16.12.2019
2545 Clouds 18 1015 88 6000 4.6 160 05:50 16.12.2019
2546 Clouds 18 1015 88 6000 4.6 160 05:31 16.12.2019
2547 Clouds 18 1014 88 7000 2.6 140 04:22 16.12.2019
2548 Clouds 18 1014 82 7000 4.1 140 02:19 16.12.2019
2549 Clouds 18 1015 88 7000 3.1 140 01:44 16.12.2019
2550 Clouds 18 1016 88 7000 3.1 140 00:42 16.12.2019
2551 Clouds 18 1016 88 7000 3.1 140 00:24 16.12.2019
2552 Clouds 18 1016 88 7000 2.6 150 23:58 15.12.2019
2553 Clouds 18 1016 88 7000 2.6 150 23:38 15.12.2019
2554 Clouds 18 1016 88 7000 2.6 150 23:20 15.12.2019
2555 Clouds 18 1016 88 7000 4.6 130 22:56 15.12.2019
2556 Clouds 18 1016 88 7000 4.6 130 22:37 15.12.2019
2557 Clouds 18 1016 88 7000 4.6 130 22:18 15.12.2019
2558 Clouds 18 1016 88 7000 4.6 130 22:18 15.12.2019
2559 Mist 18 1016 88 5000 3.1 140 21:55 15.12.2019
2560 Mist 18 1016 88 5000 3.1 140 21:37 15.12.2019
2561 Mist 18 1016 88 5000 3.1 140 21:19 15.12.2019
2562 Thunderstorm 18 1016 88 5000 2.6 130 20:55 15.12.2019
2563 Thunderstorm 18 1016 88 5000 2.6 130 20:55 15.12.2019
2564 Thunderstorm 18 1016 88 5000 2.6 130 20:37 15.12.2019
2565 Thunderstorm 18 1016 88 5000 2.6 130 20:18 15.12.2019
2566 Thunderstorm 18 1016 88 5000 3.6 130 19:56 15.12.2019
2567 Thunderstorm 18 1016 88 5000 3.6 130 19:38 15.12.2019
2568 Thunderstorm 18 1017 88 7000 2.1 130 19:18 15.12.2019
2569 Thunderstorm 18 1016 88 7000 3.6 120 18:55 15.12.2019
2570 Thunderstorm 18 1016 88 7000 3.6 120 18:37 15.12.2019
2571 Thunderstorm 18 1016 88 7000 3.6 120 18:18 15.12.2019
2572 Clouds 19 1016 77 10000 2.6 130 17:56 15.12.2019
2573 Clouds 19 1016 77 10000 2.6 130 17:36 15.12.2019
2574 Clouds 19 1016 77 10000 2.6 130 17:18 15.12.2019
2575 Clouds 19 1016 77 10000 2.6 130 17:18 15.12.2019
2576 Clouds 19 1016 77 10000 2.6 130 17:18 15.12.2019
2577 Clouds 20 1016 72 9000 3.1 120 16:43 15.12.2019
2578 Clouds 20 1016 72 9000 3.1 120 16:23 15.12.2019
2579 Clouds 20 1015 72 9000 4.1 130 15:58 15.12.2019
2580 Clouds 20 1015 72 9000 4.1 130 15:39 15.12.2019
2581 Clouds 20 1015 72 9000 4.1 130 15:20 15.12.2019
2582 Clouds 21 1016 68 9000 3.1 120 14:56 15.12.2019
2583 Clouds 21 1016 68 9000 3.1 120 14:38 15.12.2019
2584 Clouds 21 1016 68 9000 3.1 120 14:19 15.12.2019
2585 Clouds 21 1016 64 8000 3.6 120 13:59 15.12.2019
2586 Clouds 21 1016 64 8000 3.6 120 13:39 15.12.2019
2587 Clouds 21 1016 64 8000 3.6 120 13:20 15.12.2019
2588 Clouds 21 1016 64 8000 2.6 130 12:57 15.12.2019
2589 Clouds 21 1016 64 8000 2.6 130 12:39 15.12.2019
2590 Clouds 21 1016 64 8000 2.6 130 12:21 15.12.2019
2591 Rain 19 1016 77 4000 1.5 120 11:59 15.12.2019
2592 Rain 19 1016 77 4000 1.5 120 11:38 15.12.2019
2593 Rain 19 1016 77 4000 1.5 120 11:19 15.12.2019
2594 Rain 19 1016 77 4000 1.5 120 11:19 15.12.2019
2595 Rain 19 1016 77 4000 1.5 120 11:19 15.12.2019
2596 Rain 20 1017 68 4000 3.6 140 10:55 15.12.2019
2597 Drizzle 21 1018 60 7000 3.1 150 10:37 15.12.2019
2598 Drizzle 21 1018 60 7000 3.1 150 10:19 15.12.2019
2599 Clouds 22 1018 53 9000 5.1 160 09:56 15.12.2019
2600 Clouds 22 1018 53 9000 5.1 160 09:37 15.12.2019
2601 Clouds 22 1018 53 9000 5.1 160 09:18 15.12.2019
2602 Drizzle 20 1018 64 6000 5.1 170 08:41 15.12.2019
2603 Clouds 21 1018 52 9000 5.1 170 08:22 15.12.2019
2604 Clouds 19 1019 59 9000 3.1 160 07:57 15.12.2019
2605 Clouds 19 1019 59 9000 3.1 160 07:37 15.12.2019
2606 Clouds 17 1019 63 8000 2.6 160 06:57 15.12.2019
2607 Clouds 17 1019 63 8000 2.6 160 06:23 15.12.2019
2608 Clouds 16 1018 67 8000 2.1 140 05:39 15.12.2019
2609 Clouds 16 1018 67 8000 2.1 140 05:19 15.12.2019
2610 Clouds 16 1017 59 10000 2.1 140 03:56 15.12.2019
2611 Clouds 16 1017 59 10000 2.6 150 02:35 15.12.2019
2612 Clouds 17 1018 48 10000 3.6 150 01:55 15.12.2019
2613 Clouds 17 1018 48 10000 3.6 150 01:37 15.12.2019
2614 Clouds 17 1018 48 10000 3.6 150 01:18 15.12.2019
2615 Clouds 17 1018 48 10000 3.1 130 00:42 15.12.2019
2616 Clouds 17 1018 48 10000 3.1 130 00:23 15.12.2019
2617 Clouds 17 1019 48 10000 3.1 130 23:40 14.12.2019
2618 Clouds 17 1019 48 10000 3.1 130 23:21 14.12.2019
2619 Thunderstorm 18 1019 39 8000 3.6 110 22:58 14.12.2019
2620 Thunderstorm 18 1019 39 8000 3.6 110 22:40 14.12.2019
2621 Thunderstorm 18 1019 39 8000 3.6 110 22:21 14.12.2019
2622 Thunderstorm 18 1019 39 10000 2.6 140 21:56 14.12.2019
2623 Thunderstorm 18 1019 39 10000 2.6 140 21:38 14.12.2019
2624 Clouds 18 1019 39 10000 3.6 130 21:19 14.12.2019
2625 Clouds 18 1019 39 10000 3.6 130 21:19 14.12.2019
2626 Clouds 18 1019 39 10000 3.6 130 21:19 14.12.2019
2627 Clouds 18 1019 39 10000 3.1 130 20:56 14.12.2019
2628 Clouds 18 1019 39 10000 3.1 130 20:56 14.12.2019
2629 Clouds 18 1019 39 10000 3.1 130 20:38 14.12.2019
2630 Clouds 18 1019 39 10000 3.1 130 20:19 14.12.2019
2631 Clouds 19 1019 39 10000 2.6 130 19:55 14.12.2019
2632 Clouds 19 1019 39 10000 2.6 130 19:36 14.12.2019
2633 Clouds 19 1019 39 10000 2.6 130 19:18 14.12.2019
2634 Clouds 20 1020 32 10000 4.1 120 18:55 14.12.2019
2635 Clouds 20 1020 32 10000 4.1 120 18:36 14.12.2019
2636 Clouds 20 1020 32 10000 4.1 120 18:18 14.12.2019
2637 Clouds 20 1020 34 10000 4.1 110 17:42 14.12.2019
2638 Clouds 20 1020 34 10000 4.1 110 17:22 14.12.2019
2639 Clouds 21 1018 32 10000 3.6 100 16:55 14.12.2019
2640 Clouds 21 1018 32 10000 3.6 100 16:37 14.12.2019
2641 Clouds 21 1018 32 10000 3.6 100 16:18 14.12.2019
2642 Clouds 22 1018 33 10000 2.6 120 15:41 14.12.2019
2643 Clouds 22 1018 33 10000 2.6 120 15:20 14.12.2019
2644 Clouds 22 1018 33 10000 3.6 130 14:57 14.12.2019
2645 Clouds 22 1018 33 10000 3.6 130 14:38 14.12.2019
2646 Clouds 22 1018 33 10000 3.6 130 14:19 14.12.2019
2647 Clouds 23 1018 31 10000 3.6 140 13:45 14.12.2019
2648 Clouds 23 1018 31 10000 3.6 140 13:20 14.12.2019
2649 Clouds 23 1018 27 10000 3.1 130 12:59 14.12.2019
2650 Clouds 23 1018 27 10000 3.1 130 12:40 14.12.2019
2651 Clouds 23 1018 23 10000 3.6 140 12:21 14.12.2019
2652 Clouds 23 1018 23 10000 3.6 140 12:21 14.12.2019
2653 Clouds 23 1018 23 10000 3.6 140 12:21 14.12.2019
2654 Clouds 23 1018 23 10000 3.6 140 11:59 14.12.2019
2655 Clouds 23 1018 23 10000 3.6 140 11:39 14.12.2019
2656 Clear 23 1018 23 10000 3.6 140 11:20 14.12.2019
2657 Clear 23 1020 33 10000 3.1 130 10:57 14.12.2019
2658 Clear 23 1020 34 10000 3.1 130 10:39 14.12.2019
2659 Clear 23 1020 33 10000 3.1 130 10:21 14.12.2019
2660 Clouds 21 1021 30 10000 2.1 110 09:57 14.12.2019
2661 Clouds 21 1021 30 10000 2.1 110 09:38 14.12.2019
2662 Clouds 21 1021 30 10000 2.1 110 09:18 14.12.2019
2663 Clouds 18 1022 39 10000 2.1 80 08:42 14.12.2019
2664 Clouds 18 1022 39 10000 2.1 80 08:19 14.12.2019
2665 Clouds 17 1022 39 10000 1.5 60 07:44 14.12.2019
2666 Clouds 17 1022 39 10000 1.5 60 07:23 14.12.2019
2667 Clouds 16 1021 44 10000 1 60 06:56 14.12.2019
2668 Clouds 16 1021 44 10000 1 60 06:37 14.12.2019
2669 Clouds 15 1021 51 10000 1 50 05:57 14.12.2019
2670 Clear 16 1020 44 10000 1 40 04:47 14.12.2019
2671 Clear 15 1019 51 10000 2.97 81 02:31 14.12.2019
2672 Clear 16 1019 44 10000 1 10 01:49 14.12.2019
2673 Clear 16 1019 44 10000 1 10 01:31 14.12.2019
2674 Clear 16 1019 41 10000 2.6 20 00:45 14.12.2019
2675 Clear 16 1019 41 10000 2.6 20 00:27 14.12.2019
2676 Clear 16 1019 44 10000 2.6 30 23:54 13.12.2019
2677 Clear 16 1019 44 10000 2.6 30 23:36 13.12.2019
2678 Clear 16 1019 44 10000 2.6 30 23:18 13.12.2019
2679 Clear 17 1019 45 10000 2.1 20 22:40 13.12.2019
2680 Clear 17 1019 45 10000 2.1 20 22:19 13.12.2019
2681 Clear 17 1019 45 10000 2.1 20 22:19 13.12.2019
2682 Clear 17 1019 51 10000 1 40 21:56 13.12.2019
2683 Clear 17 1019 51 10000 1 40 21:37 13.12.2019
2684 Clear 17 1019 51 10000 1 40 21:19 13.12.2019
2685 Clear 18 1019 45 7000 1.5 360 20:41 13.12.2019
2686 Dust 19 1018 39 5000 2.1 10 20:21 13.12.2019
2687 Dust 19 1018 39 5000 2.1 10 19:58 13.12.2019
2688 Dust 19 1018 39 5000 2.1 10 19:40 13.12.2019
2689 Dust 19 1018 39 5000 2.1 10 19:21 13.12.2019
2690 Dust 20 1018 37 5000 3.1 30 18:58 13.12.2019
2691 Dust 20 1018 37 5000 3.1 30 18:40 13.12.2019
2692 Dust 20 1018 37 5000 3.1 30 18:19 13.12.2019
2693 Dust 20 1018 37 5000 3.1 30 18:19 13.12.2019
2694 Dust 22 1017 33 5000 3.6 20 17:42 13.12.2019
2695 Dust 22 1017 33 5000 3.6 20 17:20 13.12.2019
2696 Dust 23 1016 31 5000 4.6 350 16:59 13.12.2019
2697 Dust 23 1016 31 5000 4.6 350 16:39 13.12.2019
2698 Dust 23 1016 31 5000 4.6 350 16:20 13.12.2019
2699 Dust 23 1016 31 5000 4.6 350 16:20 13.12.2019
2700 Dust 24 1015 29 5000 5.7 340 15:43 13.12.2019
2701 Dust 24 1015 29 5000 5.7 340 15:23 13.12.2019
2702 Dust 25 1014 38 5000 6.7 340 14:58 13.12.2019
2703 Dust 25 1014 38 5000 6.7 340 14:40 13.12.2019
2704 Dust 25 1014 38 5000 6.7 340 14:20 13.12.2019
2705 Dust 26 1014 39 4000 6.7 340 13:56 13.12.2019
2706 Dust 26 1014 39 4000 6.7 340 13:37 13.12.2019
2707 Dust 26 1014 39 4000 6.7 340 13:19 13.12.2019
2708 Sand 26 1014 41 2000 9.3 340 12:42 13.12.2019
2709 Sand 26 1014 41 2000 9.3 340 12:20 13.12.2019
2710 Clouds 27 1014 39 10000 5.1 260 11:57 13.12.2019
2711 Clouds 27 1014 39 10000 5.1 260 11:57 13.12.2019
2712 Clouds 27 1014 39 10000 5.1 260 11:39 13.12.2019
2713 Clouds 27 1014 39 10000 5.1 260 11:20 13.12.2019
2714 Clouds 26 1014 50 10000 4.1 250 10:42 13.12.2019
2715 Clouds 26 1014 50 10000 4.1 250 10:42 13.12.2019
2716 Clouds 26 1014 50 10000 4.1 250 10:23 13.12.2019
2717 Clouds 25 1015 50 10000 5.7 240 09:55 13.12.2019
2718 Clouds 25 1015 50 10000 5.7 240 09:36 13.12.2019
2719 Clouds 25 1015 50 10000 5.7 240 09:18 13.12.2019
2720 Clouds 23 1016 53 10000 5.1 240 08:41 13.12.2019
2721 Clouds 23 1016 53 10000 5.1 240 08:23 13.12.2019
2722 Clouds 21 1016 52 10000 2.1 170 07:44 13.12.2019
2723 Clouds 21 1016 52 10000 2.1 170 07:21 13.12.2019
2724 Clouds 21 1016 52 10000 2.1 170 07:21 13.12.2019
2725 Clouds 17 1015 59 8000 1.5 150 06:51 13.12.2019
2726 Clouds 17 1015 59 8000 1.5 150 06:28 13.12.2019
2727 Clouds 17 1015 59 8000 1.5 170 05:45 13.12.2019
2728 Clouds 17 1015 59 8000 1.5 170 05:24 13.12.2019
2729 Rain 17 1014 51 10000 4.1 170 04:35 13.12.2019
2730 Rain 16 1014 63 10000 1.5 160 03:31 13.12.2019
2731 Rain 17 1013 51 10000 3.1 180 02:32 13.12.2019
2732 Rain 18 1013 45 10000 4.1 180 01:42 13.12.2019
2733 Rain 18 1014 48 10000 3.6 170 00:53 13.12.2019
2734 Rain 18 1014 48 10000 3.6 170 00:34 13.12.2019
2735 Rain 18 1014 45 10000 4.6 160 23:57 12.12.2019
2736 Rain 18 1014 45 10000 4.6 160 23:37 12.12.2019
2737 Clouds 18 1014 45 10000 4.6 160 23:19 12.12.2019
2738 Clouds 18 1014 45 10000 4.1 160 22:42 12.12.2019
2739 Clouds 18 1014 45 10000 4.1 160 22:23 12.12.2019
2740 Clouds 18 1015 52 10000 1.5 150 21:57 12.12.2019
2741 Clouds 18 1015 52 10000 1.5 150 21:39 12.12.2019
2742 Clouds 18 1015 48 10000 2.6 130 21:20 12.12.2019
2743 Clouds 18 1015 48 10000 2.6 130 20:59 12.12.2019
2744 Clouds 18 1015 48 10000 2.6 130 20:41 12.12.2019
2745 Clear 18 1015 48 10000 2.6 130 20:23 12.12.2019
2746 Clear 19 1015 42 10000 3.6 140 19:59 12.12.2019
2747 Clear 19 1015 42 10000 3.6 140 19:41 12.12.2019
2748 Clear 19 1015 42 10000 3.6 140 19:21 12.12.2019
2749 Clear 20 1015 40 10000 3.1 160 18:58 12.12.2019
2750 Clear 20 1015 40 10000 3.1 160 18:39 12.12.2019
2751 Clear 20 1015 40 10000 3.1 160 18:20 12.12.2019
2752 Clear 20 1016 42 10000 3.6 160 17:57 12.12.2019
2753 Clear 20 1016 42 10000 3.6 160 17:57 12.12.2019
2754 Clear 20 1016 42 10000 3.6 160 17:39 12.12.2019
2755 Clear 20 1016 42 10000 3.6 160 17:20 12.12.2019
2756 Clear 20 1016 42 10000 3.6 160 17:20 12.12.2019
2757 Clear 21 1015 40 10000 3.6 150 16:57 12.12.2019
2758 Clear 21 1015 40 10000 3.6 150 16:38 12.12.2019
2759 Clear 21 1015 40 10000 3.6 150 16:20 12.12.2019
2760 Clear 21 1015 40 10000 3.1 140 15:56 12.12.2019
2761 Clear 21 1015 40 10000 3.1 140 15:37 12.12.2019
2762 Clear 21 1015 40 10000 3.1 140 15:18 12.12.2019
2763 Clear 22 1015 37 10000 3.6 150 14:38 12.12.2019
2764 Clear 22 1015 37 10000 3.6 150 14:20 12.12.2019
2765 Clear 23 1015 35 10000 4.1 150 13:58 12.12.2019
2766 Clear 23 1015 35 10000 4.1 150 13:39 12.12.2019
2767 Clear 23 1015 35 10000 4.1 150 13:21 12.12.2019
2768 Clear 23 1015 35 10000 4.1 150 13:21 12.12.2019
2769 Clear 22 1016 35 10000 4.6 150 12:58 12.12.2019
2770 Clear 22 1016 35 10000 4.6 150 12:40 12.12.2019
2771 Clear 22 1016 35 10000 4.6 150 12:21 12.12.2019
2772 Clear 22 1017 37 10000 4.1 160 11:56 12.12.2019
2773 Clear 22 1017 37 10000 4.1 160 11:38 12.12.2019
2774 Clear 22 1017 37 10000 4.1 160 11:19 12.12.2019
2775 Clear 20 1018 49 10000 4.1 140 10:55 12.12.2019
2776 Clear 20 1018 49 10000 4.1 140 10:37 12.12.2019
2777 Clear 20 1018 49 10000 4.1 140 10:19 12.12.2019
2778 Clear 19 1019 59 10000 3.1 140 09:42 12.12.2019
2779 Clear 19 1019 59 10000 3.1 140 09:24 12.12.2019
2780 Clear 17 1020 67 10000 4.1 150 08:59 12.12.2019
2781 Clear 17 1020 67 10000 4.1 150 08:40 12.12.2019
2782 Clouds 17 1020 67 10000 4.1 150 08:22 12.12.2019
2783 Clouds 16 1020 72 10000 3.1 130 07:47 12.12.2019
2784 Clouds 16 1020 72 10000 3.1 130 07:25 12.12.2019
2785 Clouds 14 1020 82 7000 1.5 140 06:54 12.12.2019
2786 Clouds 14 1020 82 7000 1.5 140 06:34 12.12.2019
2787 Clouds 12 1019 87 7000 1.5 130 05:41 12.12.2019
2788 Clear 12 1018 87 10000 1 130 04:54 12.12.2019
2789 Clear 12 1018 81 10000 3.07 99 03:37 12.12.2019
2790 Clear 12 1018 87 10000 3.07 99 02:39 12.12.2019
2791 Clouds 12 1018 87 10000 2.9 101 02:20 12.12.2019
2792 Clouds 13 1018 82 10000 2.9 101 01:40 12.12.2019
2793 Clouds 13 1018 82 10000 2.9 101 01:22 12.12.2019
2794 Clouds 13 1018 82 10000 2.95 100 00:46 12.12.2019
2795 Clouds 13 1018 82 10000 2.95 100 00:20 12.12.2019
2796 Clouds 14 1019 82 10000 1 60 23:44 11.12.2019
2797 Clouds 14 1019 82 10000 1 60 23:21 11.12.2019
2798 Clouds 15 1019 77 10000 1.5 60 22:58 11.12.2019
2799 Clouds 15 1019 77 10000 1.5 60 22:39 11.12.2019
2800 Clouds 15 1019 77 10000 1.5 60 22:20 11.12.2019
2801 Clouds 15 1019 77 10000 1.5 60 21:57 11.12.2019
2802 Clouds 15 1019 77 10000 1.5 60 21:38 11.12.2019
2803 Clouds 15 1019 77 10000 1.5 60 21:20 11.12.2019
2804 Clouds 16 1019 77 10000 1 70 20:56 11.12.2019
2805 Clouds 16 1019 77 10000 1 70 20:37 11.12.2019
2806 Clouds 16 1019 77 10000 1 70 20:37 11.12.2019
2807 Clear 16 1019 77 10000 1 70 20:19 11.12.2019
2808 Clear 17 1019 72 10000 1.5 70 19:58 11.12.2019
2809 Clear 17 1019 72 10000 1.5 70 19:39 11.12.2019
2810 Clear 17 1019 72 10000 1.5 70 19:19 11.12.2019
2811 Clear 18 1019 68 10000 2.6 50 18:42 11.12.2019
2812 Clear 18 1019 68 10000 2.6 50 18:22 11.12.2019
2813 Clear 19 1018 59 10000 2.1 70 17:57 11.12.2019
2814 Clear 19 1018 59 10000 2.1 70 17:39 11.12.2019
2815 Clear 19 1018 59 10000 2.1 70 17:19 11.12.2019
2816 Clear 20 1018 60 10000 2.1 60 16:58 11.12.2019
2817 Clear 20 1018 60 10000 2.1 60 16:39 11.12.2019
2818 Clear 20 1018 60 10000 2.1 60 16:21 11.12.2019
2819 Clear 21 1017 52 10000 2.1 40 15:59 11.12.2019
2820 Clear 21 1017 52 10000 2.1 40 15:40 11.12.2019
2821 Clear 21 1017 52 10000 2.1 40 15:22 11.12.2019
2822 Clear 21 1017 52 10000 2.1 40 15:22 11.12.2019
2823 Clear 22 1017 46 10000 2.6 40 14:56 11.12.2019
2824 Clear 22 1017 46 10000 2.6 40 14:38 11.12.2019
2825 Clear 22 1017 46 10000 2.6 40 14:19 11.12.2019
2826 Clear 22 1017 46 10000 2.1 20 13:55 11.12.2019
2827 Clear 22 1017 46 10000 2.1 20 13:36 11.12.2019
2828 Clear 22 1017 46 10000 2.1 20 13:18 11.12.2019
2829 Clear 22 1017 49 10000 3.1 10 12:55 11.12.2019
2830 Clear 22 1017 49 10000 3.1 10 12:37 11.12.2019
2831 Clear 22 1017 49 10000 3.1 10 12:18 11.12.2019
2832 Clear 21 1018 52 10000 3.1 40 11:56 11.12.2019
2833 Clear 21 1018 52 10000 3.1 40 11:37 11.12.2019
2834 Clear 21 1018 52 10000 3.1 40 11:37 11.12.2019
2835 Clouds 21 1019 56 10000 2.1 20 11:18 11.12.2019
2836 Clouds 21 1019 56 10000 2.1 20 10:44 11.12.2019
2837 Clouds 21 1019 56 10000 2.1 20 10:25 11.12.2019
2838 Clouds 19 1020 63 10000 3.1 50 09:58 11.12.2019
2839 Clouds 19 1020 63 10000 3.1 50 09:38 11.12.2019
2840 Clouds 19 1020 63 10000 3.1 50 09:38 11.12.2019
2841 Clouds 19 1020 63 10000 3.1 50 09:20 11.12.2019
2842 Clouds 18 1020 68 10000 4.1 40 08:57 11.12.2019
2843 Clouds 18 1020 68 10000 4.1 40 08:37 11.12.2019
2844 Clouds 18 1020 68 10000 4.1 40 08:18 11.12.2019
2845 Clouds 18 1021 72 10000 2.6 50 07:45 11.12.2019
2846 Clouds 18 1021 72 10000 2.6 50 07:25 11.12.2019
2847 Clouds 17 1019 82 6000 1 70 06:47 11.12.2019
2848 Clouds 17 1019 82 6000 1 70 06:25 11.12.2019
2849 Mist 17 1019 82 3000 2.1 50 05:58 11.12.2019
2850 Mist 17 1019 82 3000 2.1 50 05:37 11.12.2019
2851 Mist 17 1018 88 3000 2.1 40 04:57 11.12.2019
2852 Mist 17 1017 93 1500 1.5 30 03:49 11.12.2019
2853 Fog 17 1017 93 50 3.1 30 02:40 11.12.2019
2854 Mist 18 1017 88 1500 1.5 20 01:23 11.12.2019
2855 Mist 17 1017 93 3000 1.64 354 00:46 11.12.2019
2856 Mist 17 1017 93 3000 1.64 354 00:21 11.12.2019
2857 Mist 19 1017 88 4000 1.64 354 23:46 10.12.2019
2858 Mist 19 1017 88 4000 1.64 354 23:28 10.12.2019
2859 Mist 19 1017 88 4000 1 160 22:57 10.12.2019
2860 Mist 19 1017 88 4000 1 160 22:39 10.12.2019
2861 Mist 19 1017 88 4000 1 160 22:21 10.12.2019
2862 Mist 20 1017 82 4000 1.5 180 21:55 10.12.2019
2863 Mist 20 1017 82 4000 1.5 180 21:37 10.12.2019
2864 Mist 20 1017 82 4000 1.5 180 21:18 10.12.2019
2865 Mist 19 1016 88 4000 2.1 160 20:56 10.12.2019
2866 Mist 19 1016 88 4000 2.1 160 20:37 10.12.2019
2867 Mist 19 1016 88 4000 2.1 160 20:37 10.12.2019
2868 Mist 19 1016 88 4000 2.1 160 20:19 10.12.2019
2869 Mist 19 1016 88 4000 2.6 160 19:54 10.12.2019
2870 Mist 19 1016 88 4000 2.6 160 19:36 10.12.2019
2871 Mist 19 1016 88 4000 2.6 160 19:18 10.12.2019
2872 Mist 20 1016 82 4000 3.1 160 18:40 10.12.2019
2873 Haze 20 1016 82 4000 2.6 150 18:20 10.12.2019
2874 Haze 20 1016 82 4000 2.6 150 17:57 10.12.2019
2875 Haze 20 1016 82 4000 2.6 150 17:39 10.12.2019
2876 Haze 20 1016 82 4000 2.6 150 17:20 10.12.2019
2877 Haze 20 1015 82 4000 2.6 140 16:43 10.12.2019
2878 Haze 20 1015 82 4000 2.6 140 16:21 10.12.2019
2879 Haze 20 1014 82 5000 2.6 140 15:59 10.12.2019
2880 Haze 20 1014 82 5000 2.6 140 15:37 10.12.2019
2881 Haze 20 1014 82 5000 2.6 140 15:18 10.12.2019
2882 Haze 20 1014 82 5000 2.6 150 14:55 10.12.2019
2883 Haze 20 1014 82 5000 2.6 150 14:37 10.12.2019
2884 Haze 20 1014 82 5000 2.6 150 14:19 10.12.2019
2885 Clouds 22 1014 73 6000 3.6 160 13:56 10.12.2019
2886 Clouds 22 1014 73 6000 3.6 160 13:38 10.12.2019
2887 Clouds 22 1014 73 6000 3.6 160 13:18 10.12.2019
2888 Clouds 21 1015 73 6000 3.1 170 12:40 10.12.2019
2889 Clouds 21 1015 73 6000 3.1 170 12:22 10.12.2019
2890 Clouds 21 1015 73 7000 3.1 160 11:44 10.12.2019
2891 Clouds 21 1015 73 7000 3.1 160 11:25 10.12.2019
2892 Clouds 20 1017 77 6000 3.1 160 10:57 10.12.2019
2893 Clouds 20 1017 77 6000 3.1 160 10:38 10.12.2019
2894 Clouds 20 1017 77 6000 3.1 160 10:38 10.12.2019
2895 Clouds 20 1017 77 6000 3.1 160 10:20 10.12.2019
2896 Mist 19 1018 82 5000 2.6 150 09:56 10.12.2019
2897 Mist 19 1018 82 5000 2.6 150 09:56 10.12.2019
2898 Mist 19 1018 82 5000 2.6 150 09:56 10.12.2019
2899 Mist 19 1018 82 5000 2.6 150 09:38 10.12.2019
2900 Mist 19 1018 82 5000 2.6 150 09:38 10.12.2019
2901 Mist 19 1018 82 5000 2.6 150 09:38 10.12.2019
2902 Mist 19 1018 82 5000 2.6 150 09:19 10.12.2019
2903 Mist 18 1019 82 4000 2.6 150 08:55 10.12.2019
2904 Mist 18 1019 82 4000 2.6 150 08:37 10.12.2019
2905 Mist 18 1019 82 4000 2.6 150 08:18 10.12.2019
2906 Mist 17 1019 88 2000 3.6 130 07:44 10.12.2019
2907 Mist 17 1019 88 2000 3.6 130 07:25 10.12.2019
2908 Mist 17 1019 88 4000 2.6 130 06:48 10.12.2019
2909 Mist 17 1019 88 4000 2.6 130 06:22 10.12.2019
2910 Mist 17 1018 82 4000 2.6 130 05:55 10.12.2019
2911 Mist 17 1017 82 4000 2.6 120 04:56 10.12.2019
2912 Clouds 17 1017 88 8000 3.6 130 03:40 10.12.2019
2913 Clouds 17 1017 88 8000 3.6 130 02:47 10.12.2019
2914 Clouds 17 1017 88 8000 3.1 130 01:50 10.12.2019
2915 Clouds 17 1017 88 8000 3.1 130 01:25 10.12.2019
2916 Clouds 17 1017 82 8000 2.6 130 00:43 10.12.2019
2917 Clouds 17 1017 82 8000 2.6 130 00:24 10.12.2019
2918 Clouds 17 1017 82 10000 2.6 130 23:43 09.12.2019
2919 Clouds 17 1017 82 10000 2.6 130 23:24 09.12.2019
2920 Clouds 17 1018 82 10000 2.6 120 22:58 09.12.2019
2921 Clouds 17 1018 82 10000 2.6 120 22:40 09.12.2019
2922 Clouds 17 1018 82 10000 2.6 120 22:21 09.12.2019
2923 Clouds 17 1018 77 10000 3.6 130 21:57 09.12.2019
2924 Clouds 17 1018 77 10000 3.6 130 21:39 09.12.2019
2925 Clouds 17 1018 77 10000 3.6 130 21:19 09.12.2019
2926 Clouds 17 1018 72 10000 2.1 110 20:57 09.12.2019
2927 Clouds 17 1018 72 10000 2.1 110 20:57 09.12.2019
2928 Clouds 17 1018 72 10000 2.1 110 20:39 09.12.2019
2929 Clouds 17 1018 72 10000 2.1 110 20:20 09.12.2019
2930 Clouds 18 1018 68 10000 3.1 110 19:56 09.12.2019
2931 Clouds 18 1018 68 10000 3.1 110 19:38 09.12.2019
2932 Clouds 18 1018 68 10000 3.1 110 19:19 09.12.2019
2933 Clouds 18 1018 68 10000 3.1 110 19:19 09.12.2019
2934 Clouds 18 1018 68 10000 3.6 120 18:58 09.12.2019
2935 Clouds 18 1018 68 10000 3.6 120 18:39 09.12.2019
2936 Clouds 18 1018 68 10000 3.6 120 18:20 09.12.2019
2937 Clouds 18 1018 68 10000 3.6 120 17:59 09.12.2019
2938 Clouds 18 1018 68 10000 3.6 120 17:40 09.12.2019
2939 Clouds 18 1018 68 10000 3.6 120 17:21 09.12.2019
2940 Clouds 18 1017 68 10000 4.1 110 16:56 09.12.2019
2941 Clouds 18 1017 68 10000 4.1 110 16:38 09.12.2019
2942 Clouds 18 1017 68 10000 4.1 110 16:20 09.12.2019
2943 Clouds 18 1017 68 10000 4.6 120 15:56 09.12.2019
2944 Clouds 18 1017 68 10000 4.6 120 15:37 09.12.2019
2945 Clouds 18 1017 68 10000 4.6 120 15:19 09.12.2019
2946 Clouds 18 1017 72 10000 4.1 120 14:58 09.12.2019
2947 Clouds 18 1017 72 10000 4.1 120 14:39 09.12.2019
2948 Clouds 18 1017 72 10000 4.1 120 14:18 09.12.2019
2949 Clouds 19 1017 59 10000 3.6 140 13:55 09.12.2019
2950 Clouds 19 1017 59 10000 3.6 140 13:36 09.12.2019
2951 Clouds 19 1017 59 10000 3.6 140 13:18 09.12.2019
2952 Clouds 19 1017 59 10000 4.1 130 12:54 09.12.2019
2953 Clouds 19 1017 59 10000 4.1 130 12:36 09.12.2019
2954 Clouds 19 1017 59 10000 4.1 130 12:18 09.12.2019
2955 Clouds 19 1018 59 10000 4.1 140 11:40 09.12.2019
2956 Clouds 19 1018 59 10000 4.1 140 11:21 09.12.2019
2957 Clouds 19 1019 55 10000 3.1 130 10:57 09.12.2019
2958 Clouds 19 1019 55 10000 3.1 130 10:38 09.12.2019
2959 Clouds 19 1019 55 10000 3.1 130 10:19 09.12.2019
2960 Clouds 19 1019 55 10000 3.1 130 10:19 09.12.2019
2961 Clouds 17 1020 55 10000 2.6 130 09:43 09.12.2019
2962 Clouds 17 1020 55 10000 2.6 130 09:24 09.12.2019
2963 Clouds 16 1020 59 10000 3.1 130 08:57 09.12.2019
2964 Clouds 16 1020 59 10000 3.1 130 08:38 09.12.2019
2965 Clouds 16 1020 59 10000 3.1 130 08:20 09.12.2019
2966 Clear 15 1021 62 10000 1.5 140 07:48 09.12.2019
2967 Clear 15 1021 62 10000 1.5 140 07:30 09.12.2019
2968 Clear 13 1020 71 10000 1 190 06:55 09.12.2019
2969 Clear 13 1020 71 10000 1 190 06:29 09.12.2019
2970 Clear 11 1020 76 10000 5.85 107 05:31 09.12.2019
2971 Clear 10 1020 76 10000 4.12 99 04:58 09.12.2019
2972 Clear 10 1020 76 10000 4.12 99 04:25 09.12.2019
2973 Clear 11 1019 76 10000 4.12 99 02:28 09.12.2019
2974 Clear 12 1019 71 10000 2.1 100 01:46 09.12.2019
2975 Clear 12 1019 71 10000 1 60 00:57 09.12.2019
2976 Clear 12 1019 71 10000 1 60 00:32 09.12.2019
2977 Clear 12 1019 71 10000 1.5 80 23:54 08.12.2019
2978 Clear 12 1019 71 10000 1.5 80 23:36 08.12.2019
2979 Clear 12 1019 71 10000 1.5 80 23:18 08.12.2019
2980 Clear 13 1019 71 10000 1.5 70 22:56 08.12.2019
2981 Clear 13 1019 71 10000 1.5 70 22:37 08.12.2019
2982 Clear 13 1019 71 10000 1.5 70 22:18 08.12.2019
2983 Clear 13 1020 71 10000 1 60 21:55 08.12.2019
2984 Clear 13 1020 71 10000 1 60 21:36 08.12.2019
2985 Clear 13 1020 71 10000 1 60 21:18 08.12.2019
2986 Clear 14 1019 62 10000 2.1 60 20:55 08.12.2019
2987 Clear 14 1019 62 10000 2.1 60 20:36 08.12.2019
2988 Clear 14 1019 62 10000 2.1 60 20:18 08.12.2019
2989 Clear 15 1019 62 10000 2.1 70 19:54 08.12.2019
2990 Clear 15 1019 62 10000 2.1 70 19:36 08.12.2019
2991 Clear 15 1019 62 10000 2.1 70 19:18 08.12.2019
2992 Clear 16 1019 59 10000 2.6 80 18:54 08.12.2019
2993 Clear 16 1019 59 10000 2.6 80 18:36 08.12.2019
2994 Clear 16 1019 59 10000 2.6 80 18:18 08.12.2019
2995 Clear 17 1019 59 10000 3.1 60 17:54 08.12.2019
2996 Clear 17 1019 59 10000 3.1 60 17:36 08.12.2019
2997 Clear 17 1019 59 10000 3.1 60 17:18 08.12.2019
2998 Clear 17 1018 63 10000 3.6 40 16:42 08.12.2019
2999 Clear 17 1018 63 10000 3.6 40 16:23 08.12.2019
3000 Clear 19 1017 55 10000 3.1 50 15:59 08.12.2019
3001 Clear 19 1017 55 10000 3.1 50 15:37 08.12.2019
3002 Clear 19 1017 55 10000 3.1 50 15:18 08.12.2019
3003 Clear 19 1017 55 10000 3.1 80 14:46 08.12.2019
3004 Clear 19 1017 55 10000 3.1 80 14:25 08.12.2019
3005 Clear 19 1017 55 10000 3.1 50 13:59 08.12.2019
3006 Clear 19 1017 55 10000 3.1 50 13:41 08.12.2019
3007 Clear 19 1017 55 10000 3.1 50 13:22 08.12.2019
3008 Clouds 19 1017 59 10000 3.1 350 12:59 08.12.2019
3009 Clouds 19 1017 59 10000 3.1 350 12:40 08.12.2019
3010 Clouds 19 1017 59 10000 3.1 350 12:19 08.12.2019
3011 Clouds 19 1017 59 10000 3.1 350 12:19 08.12.2019
3012 Clouds 18 1017 63 10000 3.35 59 11:58 08.12.2019
3013 Clouds 18 1017 63 10000 3.35 59 11:37 08.12.2019
3014 Clouds 18 1017 63 10000 3.82 56 11:19 08.12.2019
3015 Clouds 18 1018 63 10000 3.6 10 10:55 08.12.2019
3016 Clouds 18 1018 63 10000 3.6 10 10:37 08.12.2019
3017 Clouds 18 1018 63 10000 3.6 10 10:18 08.12.2019
3018 Clouds 18 1019 63 10000 4.1 10 09:55 08.12.2019
3019 Clouds 18 1019 63 10000 4.1 10 09:36 08.12.2019
3020 Clouds 18 1019 63 10000 4.1 10 09:18 08.12.2019
3021 Clear 16 1020 77 10000 4.6 20 08:41 08.12.2019
3022 Clouds 16 1020 77 10000 4.6 20 08:23 08.12.2019
3023 Clouds 16 1020 67 10000 4.1 350 07:49 08.12.2019
3024 Clouds 16 1020 67 10000 4.1 350 07:21 08.12.2019
3025 Clouds 15 1019 72 10000 3.6 320 06:59 08.12.2019
3026 Clouds 15 1019 72 10000 3.6 320 06:39 08.12.2019
3027 Clouds 15 1019 72 10000 3.6 320 06:19 08.12.2019
3028 Clouds 13 1019 87 10000 3.1 310 05:23 08.12.2019
3029 Clouds 14 1018 82 10000 3.6 320 04:23 08.12.2019
3030 Clouds 14 1017 87 10000 3.27 22 03:38 08.12.2019
3031 Clouds 15 1017 87 10000 1 40 02:42 08.12.2019
3032 Clouds 16 1017 82 10000 1.5 360 02:20 08.12.2019
3033 Clouds 16 1017 82 10000 1.5 360 01:35 08.12.2019
3034 Clouds 16 1017 77 10000 2.1 20 00:52 08.12.2019
3035 Clouds 16 1017 77 10000 2.1 20 00:23 08.12.2019
3036 Clouds 17 1017 72 10000 3.1 330 23:57 07.12.2019
3037 Clouds 17 1017 72 10000 3.1 330 23:37 07.12.2019
3038 Clouds 17 1017 72 10000 3.1 330 23:18 07.12.2019
3039 Clouds 16 1017 93 8000 3.38 351 22:55 07.12.2019
3040 Clouds 16 1017 93 8000 3.38 351 22:36 07.12.2019
3041 Clouds 16 1017 93 8000 3.38 351 22:18 07.12.2019
3042 Clouds 17 1016 88 10000 1 140 21:55 07.12.2019
3043 Clouds 17 1016 88 10000 1 140 21:37 07.12.2019
3044 Clouds 17 1016 88 10000 1 140 21:18 07.12.2019
3045 Thunderstorm 17 1016 82 5000 2.1 20 20:38 07.12.2019
3046 Thunderstorm 17 1016 82 5000 2.1 20 20:20 07.12.2019
3047 Thunderstorm 18 1017 77 5000 3.1 270 19:57 07.12.2019
3048 Thunderstorm 18 1017 77 5000 3.1 270 19:39 07.12.2019
3049 Thunderstorm 18 1017 77 5000 3.1 270 19:21 07.12.2019
3050 Thunderstorm 18 1016 82 8000 1 20 18:58 07.12.2019
3051 Thunderstorm 18 1016 82 8000 1 20 18:58 07.12.2019
3052 Thunderstorm 18 1016 82 8000 1 20 18:39 07.12.2019
3053 Thunderstorm 18 1016 82 8000 1 20 18:18 07.12.2019
3054 Thunderstorm 19 1015 68 5000 2.6 70 17:55 07.12.2019
3055 Thunderstorm 19 1015 68 5000 2.6 70 17:37 07.12.2019
3056 Thunderstorm 19 1015 68 5000 2.6 70 17:18 07.12.2019
3057 Clouds 20 1015 56 5000 3.6 340 16:55 07.12.2019
3058 Clouds 20 1015 56 5000 3.6 340 16:36 07.12.2019
3059 Clouds 20 1015 56 5000 3.6 340 16:18 07.12.2019
3060 Thunderstorm 21 1013 64 5000 2.1 340 15:41 07.12.2019
3061 Thunderstorm 21 1013 64 5000 2.1 340 15:22 07.12.2019
3062 Clouds 26 1012 21 10000 3.1 180 14:43 07.12.2019
3063 Clouds 26 1012 21 10000 3.1 180 14:20 07.12.2019
3064 Clouds 27 1012 18 10000 4.1 180 13:59 07.12.2019
3065 Clouds 27 1012 18 10000 4.1 180 13:40 07.12.2019
3066 Clouds 27 1012 18 10000 4.1 180 13:20 07.12.2019
3067 Clouds 26 1013 19 10000 5.1 160 12:55 07.12.2019
3068 Clouds 26 1013 19 10000 5.1 160 12:37 07.12.2019
3069 Clouds 26 1013 19 10000 5.1 160 12:18 07.12.2019
3070 Clouds 26 1014 21 10000 4.6 190 11:42 07.12.2019
3071 Clouds 26 1014 21 10000 4.6 190 11:23 07.12.2019
3072 Clouds 24 1015 23 10000 5.7 180 10:58 07.12.2019
3073 Clouds 24 1015 23 10000 5.7 180 10:37 07.12.2019
3074 Clouds 24 1015 23 10000 5.7 180 10:18 07.12.2019
3075 Clouds 23 1016 27 10000 6.2 170 09:40 07.12.2019
3076 Clouds 23 1016 27 10000 6.2 170 09:21 07.12.2019
3077 Clouds 23 1016 27 10000 6.2 170 09:21 07.12.2019
3078 Clouds 21 1017 28 10000 6.2 170 08:46 07.12.2019
3079 Clouds 21 1017 28 10000 6.2 170 08:25 07.12.2019
3080 Clouds 20 1017 32 10000 6.7 170 07:53 07.12.2019
3081 Clouds 20 1017 32 10000 6.7 170 07:53 07.12.2019
3082 Clouds 20 1017 32 10000 6.7 170 07:29 07.12.2019
3083 Clouds 18 1017 39 10000 5.1 170 06:53 07.12.2019
3084 Clouds 18 1017 39 10000 5.1 170 06:27 07.12.2019
3085 Clouds 17 1017 42 10000 4.6 170 05:49 07.12.2019
3086 Clear 17 1016 39 10000 4.1 170 04:48 07.12.2019
3087 Clear 17 1016 39 10000 4.1 170 04:48 07.12.2019
3088 Clear 16 1016 44 10000 2.6 160 03:51 07.12.2019
3089 Clear 16 1016 41 10000 3.1 160 02:23 07.12.2019
3090 Clear 17 1017 42 10000 3.1 170 01:51 07.12.2019
3091 Clear 17 1017 42 10000 3.1 170 01:25 07.12.2019
3092 Clear 17 1017 39 10000 4.1 170 00:36 07.12.2019
3093 Clear 17 1017 39 10000 4.1 170 00:18 07.12.2019
3094 Clear 17 1017 39 10000 4.1 170 00:18 07.12.2019
3095 Clear 18 1018 39 10000 3.6 170 23:42 06.12.2019
3096 Clear 18 1018 39 10000 3.6 170 23:20 06.12.2019
3097 Clear 18 1018 36 10000 3.6 170 22:39 06.12.2019
3098 Clear 18 1018 36 10000 3.6 170 22:39 06.12.2019
3099 Clear 18 1018 36 10000 3.6 170 22:21 06.12.2019
3100 Clear 19 1019 34 10000 3.6 170 21:59 06.12.2019
3101 Clear 19 1019 34 10000 3.6 170 21:41 06.12.2019
3102 Clear 19 1019 34 10000 3.6 170 21:21 06.12.2019
3103 Clear 19 1019 34 10000 3.1 160 20:59 06.12.2019
3104 Clear 19 1019 34 10000 3.1 160 20:41 06.12.2019
3105 Clear 19 1019 34 10000 3.1 160 20:20 06.12.2019
3106 Clear 20 1019 32 10000 3.6 170 19:43 06.12.2019
3107 Clear 20 1019 32 10000 3.6 170 19:24 06.12.2019
3108 Clear 20 1019 32 10000 3.1 160 18:59 06.12.2019
3109 Clear 20 1019 32 10000 3.1 160 18:40 06.12.2019
3110 Clear 20 1019 32 10000 3.1 160 18:21 06.12.2019
3111 Clear 21 1019 30 10000 4.1 170 17:58 06.12.2019
3112 Clear 21 1019 30 10000 4.1 170 17:40 06.12.2019
3113 Clear 21 1019 30 10000 4.1 170 17:22 06.12.2019
3114 Clear 22 1018 30 10000 3.6 160 16:58 06.12.2019
3115 Clear 22 1018 30 10000 3.6 160 16:38 06.12.2019
3116 Clear 22 1018 30 10000 3.6 160 16:19 06.12.2019
3117 Clear 23 1018 27 10000 4.1 160 15:41 06.12.2019
3118 Clear 23 1018 27 10000 4.1 160 15:22 06.12.2019
3119 Clear 25 1017 23 10000 4.6 180 14:58 06.12.2019
3120 Clear 25 1017 23 10000 4.6 180 14:40 06.12.2019
3121 Clear 25 1017 23 10000 4.6 180 14:20 06.12.2019
3122 Clear 25 1018 22 10000 3.6 180 13:46 06.12.2019
3123 Clear 25 1018 22 10000 3.6 180 13:27 06.12.2019
3124 Clear 25 1018 23 10000 5.1 170 12:58 06.12.2019
3125 Clear 25 1018 23 10000 5.1 170 12:39 06.12.2019
3126 Clear 25 1018 23 10000 5.1 170 12:21 06.12.2019
3127 Clear 25 1019 25 10000 4.6 170 11:42 06.12.2019
3128 Clear 25 1019 25 10000 4.6 170 11:23 06.12.2019
3129 Clear 24 1020 27 10000 6.2 190 10:57 06.12.2019
3130 Clear 24 1020 27 10000 6.2 190 10:38 06.12.2019
3131 Clear 24 1020 27 10000 6.2 190 10:20 06.12.2019
3132 Clear 23 1021 33 10000 6.2 190 09:56 06.12.2019
3133 Clear 23 1021 33 10000 6.2 190 09:37 06.12.2019
3134 Clear 23 1021 33 10000 6.2 190 09:19 06.12.2019
3135 Clear 21 1022 37 10000 5.7 180 08:43 06.12.2019
3136 Clear 21 1022 37 10000 5.7 180 08:25 06.12.2019
3137 Clear 20 1022 45 10000 4.6 180 07:42 06.12.2019
3138 Clear 20 1022 45 10000 4.6 180 07:22 06.12.2019
3139 Clear 17 1022 55 10000 2.6 160 06:48 06.12.2019
3140 Clear 17 1022 55 10000 2.6 160 06:25 06.12.2019
3141 Clear 15 1022 62 10000 2.1 160 05:49 06.12.2019
3142 Clear 17 1021 51 10000 3.6 180 03:50 06.12.2019
3143 Clear 17 1020 51 10000 3.6 170 01:46 06.12.2019
3144 Clear 17 1021 51 10000 3.6 170 00:56 06.12.2019
3145 Clear 17 1021 51 10000 3.6 170 00:24 06.12.2019
3146 Clear 17 1021 51 10000 3.6 160 23:52 05.12.2019
3147 Clear 17 1021 51 10000 3.6 160 23:21 05.12.2019
3148 Clear 17 1021 48 10000 3.1 160 22:59 05.12.2019
3149 Clear 17 1021 48 10000 3.1 160 22:39 05.12.2019
3150 Clear 17 1021 48 10000 3.1 160 22:39 05.12.2019
3151 Clear 17 1021 48 10000 3.1 160 22:20 05.12.2019
3152 Clear 17 1022 48 10000 2.1 150 21:58 05.12.2019
3153 Clear 17 1022 48 10000 2.1 150 21:40 05.12.2019
3154 Clear 17 1022 48 10000 2.1 150 21:22 05.12.2019
3155 Clear 18 1022 45 10000 3.1 150 20:58 05.12.2019
3156 Clear 18 1022 45 10000 3.1 150 20:39 05.12.2019
3157 Clear 18 1022 45 10000 3.1 150 20:19 05.12.2019
3158 Clear 18 1022 48 10000 2.1 140 19:43 05.12.2019
3159 Clear 18 1022 48 10000 2.1 140 19:25 05.12.2019
3160 Clear 18 1022 45 10000 2.1 140 18:59 05.12.2019
3161 Clear 18 1022 45 10000 2.1 140 18:39 05.12.2019
3162 Clear 18 1022 45 10000 2.1 140 18:20 05.12.2019
3163 Clear 18 1022 45 10000 2.1 140 18:20 05.12.2019
3164 Clear 19 1021 45 10000 1.5 150 17:57 05.12.2019
3165 Clear 19 1021 45 10000 1.5 150 17:38 05.12.2019
3166 Clear 19 1021 45 10000 1.5 150 17:18 05.12.2019
3167 Clear 20 1021 40 10000 2.6 140 16:54 05.12.2019
3168 Clear 20 1021 40 10000 2.6 140 16:36 05.12.2019
3169 Clear 20 1021 40 10000 2.6 140 16:18 05.12.2019
3170 Clear 22 1021 33 10000 3.1 140 15:40 05.12.2019
3171 Clear 22 1021 33 10000 3.1 140 15:21 05.12.2019
3172 Clear 23 1020 35 10000 2.6 140 14:57 05.12.2019
3173 Clear 23 1020 35 10000 2.6 140 14:39 05.12.2019
3174 Clear 23 1020 35 10000 2.6 140 14:20 05.12.2019
3175 Clear 23 1020 33 10000 3.1 160 13:59 05.12.2019
3176 Clear 23 1020 33 10000 3.1 160 13:40 05.12.2019
3177 Clear 23 1020 33 10000 3.1 160 13:21 05.12.2019
3178 Clear 22 1020 35 10000 3.1 150 12:59 05.12.2019
3179 Clear 22 1020 35 10000 3.1 150 12:40 05.12.2019
3180 Clear 22 1020 35 10000 3.1 150 12:22 05.12.2019
3181 Clear 22 1021 35 10000 4.6 170 11:56 05.12.2019
3182 Clear 22 1021 35 10000 4.6 170 11:37 05.12.2019
3183 Clear 22 1021 35 10000 4.6 170 11:18 05.12.2019
3184 Clear 21 1022 37 10000 3.6 170 10:54 05.12.2019
3185 Clear 21 1022 37 10000 3.6 170 10:54 05.12.2019
3186 Clear 21 1022 37 10000 3.6 170 10:36 05.12.2019
3187 Clear 21 1022 37 10000 3.6 170 10:18 05.12.2019
3188 Clear 20 1023 37 10000 3.1 160 09:42 05.12.2019
3189 Clear 20 1023 37 10000 3.1 160 09:20 05.12.2019
3190 Clear 18 1024 42 10000 3.1 160 08:57 05.12.2019
3191 Clear 16 1024 51 10000 2.1 130 08:37 05.12.2019
3192 Clear 16 1024 51 10000 2.1 130 08:19 05.12.2019
3193 Clear 16 1024 51 10000 2.1 130 07:49 05.12.2019
3194 Clear 16 1024 51 10000 2.1 130 07:31 05.12.2019
3195 Clear 14 1023 62 10000 1.5 80 06:56 05.12.2019
3196 Clear 14 1023 62 10000 1.5 80 06:37 05.12.2019
3197 Clear 14 1023 62 10000 1.5 80 06:18 05.12.2019
3198 Clear 12 1022 71 10000 1.5 130 05:44 05.12.2019
3199 Clear 12 1022 71 10000 1.5 130 05:19 05.12.2019
3200 Clear 13 1021 62 10000 1 120 03:43 05.12.2019
3201 Clear 13 1021 62 10000 1.5 150 02:42 05.12.2019
3202 Clear 13 1021 62 10000 1.5 150 02:23 05.12.2019
3203 Clear 13 1021 62 10000 1.5 120 01:51 05.12.2019
3204 Clear 13 1021 62 10000 1.5 120 01:24 05.12.2019
3205 Clear 14 1021 58 10000 1 160 00:46 05.12.2019
3206 Clear 14 1021 58 10000 1 160 00:22 05.12.2019
3207 Clear 14 1021 58 10000 1.5 140 23:56 04.12.2019
3208 Clear 14 1021 58 10000 1.5 140 23:37 04.12.2019
3209 Clear 14 1021 58 10000 1.5 140 23:18 04.12.2019
3210 Clear 15 1021 51 10000 2.1 130 22:39 04.12.2019
3211 Clear 15 1021 51 10000 2.1 130 22:20 04.12.2019
3212 Clear 15 1021 54 10000 1.5 130 21:58 04.12.2019
3213 Clear 15 1021 54 10000 1.5 130 21:39 04.12.2019
3214 Clear 15 1021 54 10000 1.5 130 21:20 04.12.2019
3215 Clear 16 1021 55 10000 1.5 130 20:58 04.12.2019
3216 Clear 16 1021 55 10000 1.5 130 20:40 04.12.2019
3217 Clear 16 1021 55 10000 1.5 130 20:21 04.12.2019
3218 Clear 18 1022 45 10000 2.6 120 19:58 04.12.2019
3219 Clear 18 1022 45 10000 2.6 120 19:38 04.12.2019
3220 Clear 18 1022 45 10000 2.6 120 19:20 04.12.2019
3221 Clear 18 1021 48 10000 2.1 120 18:42 04.12.2019
3222 Clear 18 1021 48 10000 2.1 120 18:24 04.12.2019
3223 Clear 19 1021 39 10000 3.1 100 17:59 04.12.2019
3224 Clear 19 1021 39 10000 3.1 100 17:39 04.12.2019
3225 Clear 19 1021 39 10000 3.1 100 17:39 04.12.2019
3226 Clear 19 1021 39 10000 3.1 100 17:21 04.12.2019
3227 Clear 20 1020 40 10000 3.1 100 16:57 04.12.2019
3228 Clear 20 1020 40 10000 3.1 100 16:39 04.12.2019
3229 Clear 20 1020 40 10000 3.1 100 16:19 04.12.2019
3230 Clear 21 1019 37 10000 2.1 130 15:55 04.12.2019
3231 Clear 21 1019 37 10000 2.1 130 15:37 04.12.2019
3232 Clear 21 1019 37 10000 2.1 130 15:19 04.12.2019
3233 Clear 22 1019 35 10000 2.1 130 14:44 04.12.2019
3234 Clear 22 1019 35 10000 2.1 130 14:23 04.12.2019
3235 Clear 22 1019 35 10000 2.1 130 14:23 04.12.2019
3236 Clear 23 1019 35 10000 1.5 140 13:57 04.12.2019
3237 Clear 23 1019 35 10000 1.5 140 13:38 04.12.2019
3238 Clear 23 1019 35 10000 1.5 140 13:19 04.12.2019
3239 Clear 22 1019 33 10000 1.5 150 12:44 04.12.2019
3240 Clear 22 1019 33 10000 1.5 150 12:24 04.12.2019
3241 Clear 21 1019 35 10000 2.6 190 11:55 04.12.2019
3242 Clear 21 1019 35 10000 2.6 190 11:37 04.12.2019
3243 Clear 21 1019 35 10000 2.6 190 11:19 04.12.2019
3244 Clear 20 1020 40 10000 1.5 110 10:43 04.12.2019
3245 Clear 20 1020 40 10000 1.5 110 10:23 04.12.2019
3246 Clear 19 1021 37 10000 2.1 120 09:55 04.12.2019
3247 Clear 19 1021 37 10000 2.1 120 09:55 04.12.2019
3248 Clear 19 1021 37 10000 2.1 120 09:37 04.12.2019
3249 Clear 17 1022 42 10000 2.1 80 09:18 04.12.2019
3250 Clear 17 1022 42 10000 2.1 80 08:39 04.12.2019
3251 Clear 17 1022 42 10000 2.1 80 08:20 04.12.2019
3252 Clear 15 1023 47 10000 2.1 40 07:48 04.12.2019
3253 Clear 15 1023 47 10000 2.1 40 07:30 04.12.2019
3254 Clear 15 1022 51 10000 4.08 86 06:34 04.12.2019
3255 Clear 11 1021 66 10000 4.08 86 05:48 04.12.2019
3256 Clear 11 1021 62 10000 1 310 04:58 04.12.2019
3257 Clear 12 1020 62 10000 2.8 61 03:56 04.12.2019
3258 Clear 13 1020 58 10000 2.1 350 02:38 04.12.2019
3259 Clear 14 1020 54 10000 1.5 20 00:51 04.12.2019
3260 Clear 14 1020 54 10000 1.5 20 00:25 04.12.2019
3261 Clear 14 1020 58 10000 2.89 61 23:57 03.12.2019
3262 Clear 14 1020 58 10000 2.89 61 23:38 03.12.2019
3263 Clear 14 1020 58 10000 2.94 54 23:19 03.12.2019
3264 Clear 15 1020 54 10000 1.5 30 22:40 03.12.2019
3265 Clear 15 1020 54 10000 1.5 30 22:19 03.12.2019
3266 Clear 16 1020 51 10000 2.1 30 21:58 03.12.2019
3267 Clear 16 1020 51 10000 2.1 30 21:38 03.12.2019
3268 Clear 16 1020 51 10000 2.1 30 21:38 03.12.2019
3269 Clear 16 1020 51 10000 2.1 30 21:19 03.12.2019
3270 Clear 17 1020 45 10000 2.1 30 20:57 03.12.2019
3271 Clear 17 1020 45 10000 2.1 30 20:39 03.12.2019
3272 Clear 17 1020 45 10000 2.1 30 20:18 03.12.2019
3273 Clear 18 1019 42 10000 4.1 30 19:55 03.12.2019
3274 Clear 18 1019 42 10000 4.1 30 19:37 03.12.2019
3275 Clear 18 1019 42 10000 4.1 30 19:18 03.12.2019
3276 Clear 18 1019 42 10000 4.1 30 19:18 03.12.2019
3277 Clear 19 1019 39 10000 3.1 360 18:55 03.12.2019
3278 Clear 19 1019 39 10000 3.1 360 18:37 03.12.2019
3279 Clear 19 1019 39 10000 3.1 360 18:19 03.12.2019
3280 Clear 20 1018 37 10000 3.1 360 17:54 03.12.2019
3281 Clear 20 1018 37 10000 3.1 360 17:36 03.12.2019
3282 Clear 20 1018 37 10000 3.1 360 17:36 03.12.2019
3283 Clear 20 1018 37 10000 3.1 360 17:18 03.12.2019
3284 Clear 21 1018 35 10000 3.1 320 16:40 03.12.2019
3285 Clear 21 1018 35 10000 3.1 320 16:21 03.12.2019
3286 Clear 22 1017 35 10000 2.6 330 15:59 03.12.2019
3287 Clear 22 1017 35 10000 2.6 330 15:40 03.12.2019
3288 Clear 22 1017 35 10000 2.6 330 15:20 03.12.2019
3289 Clear 22 1017 35 10000 2.6 330 15:20 03.12.2019
3290 Clear 24 1017 27 10000 2.6 320 14:58 03.12.2019
3291 Clear 24 1017 27 10000 2.6 320 14:40 03.12.2019
3292 Clear 24 1017 27 10000 2.6 320 14:19 03.12.2019
3293 Clear 24 1017 27 10000 2.6 350 13:39 03.12.2019
3294 Clear 24 1017 27 10000 2.6 350 13:20 03.12.2019
3295 Clear 24 1017 27 10000 2.6 350 13:20 03.12.2019
3296 Clear 24 1017 27 10000 2.6 320 12:58 03.12.2019
3297 Clear 24 1017 27 10000 2.6 320 12:38 03.12.2019
3298 Clear 24 1017 27 10000 2.6 320 12:18 03.12.2019
3299 Clear 22 1017 40 10000 2.6 270 11:58 03.12.2019
3300 Clear 22 1017 40 10000 2.6 270 11:38 03.12.2019
3301 Clear 22 1017 40 10000 2.6 270 11:19 03.12.2019
3302 Clear 22 1019 37 10000 3.6 360 10:56 03.12.2019
3303 Clear 22 1019 37 10000 3.6 360 10:38 03.12.2019
3304 Clear 22 1019 37 10000 3.6 360 10:19 03.12.2019
3305 Clear 21 1020 43 10000 3.6 350 09:42 03.12.2019
3306 Clear 21 1020 43 10000 3.6 350 09:24 03.12.2019
3307 Clouds 20 1020 45 10000 4.1 350 08:56 03.12.2019
3308 Clouds 20 1020 45 10000 4.1 350 08:38 03.12.2019
3309 Clouds 20 1020 45 10000 4.1 350 08:20 03.12.2019
3310 Clouds 19 1020 52 10000 4.1 350 07:51 03.12.2019
3311 -273 0 0 0 0 0 07:25 03.12.2019
3312 Clouds 19 1020 52 10000 4.1 350 07:25 03.12.2019
3313 Clouds 17 1020 59 10000 3.6 330 06:38 03.12.2019
3314 Clouds 17 1020 59 10000 3.6 330 06:19 03.12.2019
3315 Clear 15 1018 62 10000 3.1 320 04:56 03.12.2019
3316 Clear 16 1017 55 10000 3.1 330 03:42 03.12.2019
3317 Clear 16 1017 55 10000 3.1 330 03:20 03.12.2019
3318 Clear 16 1017 51 10000 3.6 320 02:51 03.12.2019
3319 Clear 16 1017 51 10000 3.6 320 02:32 03.12.2019
3320 Clear 16 1016 55 10000 1.54 296 01:56 03.12.2019
3321 Clear 16 1016 55 10000 1.54 296 01:37 03.12.2019
3322 Clear 18 1016 42 10000 4.1 320 00:59 03.12.2019
3323 Clear 18 1016 42 10000 4.1 320 00:40 03.12.2019
3324 Clear 18 1016 42 10000 4.1 320 00:40 03.12.2019
3325 Clear 18 1016 42 10000 4.1 320 00:21 03.12.2019
3326 Clear 19 1016 39 10000 2.6 160 23:43 02.12.2019
3327 Clear 19 1016 39 10000 2.6 160 23:21 02.12.2019
3328 Clear 21 1016 35 10000 2.6 170 22:43 02.12.2019
3329 Clear 21 1016 35 10000 2.6 170 22:23 02.12.2019
3330 Clouds 21 1016 35 10000 2.6 170 21:59 02.12.2019
3331 Clouds 21 1016 35 10000 2.6 170 21:39 02.12.2019
3332 Clouds 21 1016 35 10000 2.6 170 21:39 02.12.2019
3333 Clouds 21 1016 35 10000 2.6 170 21:20 02.12.2019
3334 Clouds 21 1016 35 10000 3.1 160 20:57 02.12.2019
3335 Clouds 21 1016 35 10000 3.1 160 20:38 02.12.2019
3336 Clouds 21 1016 35 10000 3.1 160 20:20 02.12.2019
3337 Clouds 22 1016 33 10000 3.6 170 19:55 02.12.2019
3338 Clouds 22 1016 33 10000 3.6 170 19:37 02.12.2019
3339 Clouds 22 1016 33 10000 3.6 170 19:19 02.12.2019
3340 Clouds 23 1016 33 10000 2.6 160 18:44 02.12.2019
3341 Clouds 23 1016 33 10000 2.6 160 18:20 02.12.2019
3342 Clouds 22 1016 37 10000 1.5 150 17:58 02.12.2019
3343 Clouds 22 1016 37 10000 1.5 150 17:40 02.12.2019
3344 Clouds 22 1016 37 10000 1.5 150 17:40 02.12.2019
3345 Clouds 22 1016 37 10000 1.5 150 17:20 02.12.2019
3346 Clouds 24 1016 33 10000 1 200 16:54 02.12.2019
3347 Clouds 24 1016 33 10000 1 200 16:36 02.12.2019
3348 Clouds 24 1016 33 10000 1 200 16:18 02.12.2019
3349 Clouds 26 1015 24 10000 3.1 200 15:55 02.12.2019
3350 Clouds 26 1015 24 10000 3.1 200 15:36 02.12.2019
3351 Clouds 26 1015 24 10000 3.1 200 15:18 02.12.2019
3352 Clouds 27 1014 22 10000 3.6 210 14:39 02.12.2019
3353 Clouds 27 1014 22 10000 3.6 210 14:20 02.12.2019
3354 Clouds 27 1014 22 10000 3.6 210 14:20 02.12.2019
3355 Clouds 27 1014 22 10000 4.6 210 13:58 02.12.2019
3356 Clouds 27 1014 22 10000 4.6 210 13:39 02.12.2019
3357 Clouds 27 1014 22 10000 4.6 210 13:20 02.12.2019
3358 Clear 27 1015 24 10000 4.1 200 12:57 02.12.2019
3359 Clear 27 1015 24 10000 4.1 200 12:37 02.12.2019
3360 Clear 27 1015 24 10000 4.1 200 12:19 02.12.2019
3361 Clear 26 1016 26 10000 4.6 200 11:55 02.12.2019
3362 Clear 26 1016 26 10000 4.6 200 11:36 02.12.2019
3363 Clear 26 1016 26 10000 4.6 200 11:18 02.12.2019
3364 Clear 25 1017 27 10000 5.7 180 10:54 02.12.2019
3365 Clear 25 1017 27 10000 5.7 180 10:36 02.12.2019
3366 Clear 25 1017 27 10000 5.7 180 10:18 02.12.2019
3367 Clouds 24 1018 31 10000 5.7 180 09:39 02.12.2019
3368 Clouds 24 1018 31 10000 5.7 180 09:19 02.12.2019
3369 Clouds 24 1018 31 10000 5.7 180 09:19 02.12.2019
3370 Clouds 24 1018 31 10000 5.7 180 09:19 02.12.2019
3371 Clear 23 1019 33 10000 6.2 170 08:55 02.12.2019
3372 Clear 23 1019 33 10000 6.2 170 08:55 02.12.2019
3373 Clear 23 1019 33 10000 6.2 170 08:37 02.12.2019
3374 Clear 23 1019 33 10000 6.2 170 08:37 02.12.2019
3375 Clear 23 1019 33 10000 6.2 170 08:19 02.12.2019
3376 Clear 22 1019 35 10000 4.1 170 07:42 02.12.2019
3377 Clear 22 1019 35 10000 4.1 170 07:20 02.12.2019
3378 Clear 18 1019 55 10000 5.85 171 06:52 02.12.2019
3379 Clear 18 1019 55 10000 5.85 171 06:34 02.12.2019
3380 Clear 15 1018 62 10000 3.79 157 05:24 02.12.2019
3381 Clear 15 1017 58 10000 1.5 130 04:20 02.12.2019
3382 Clear 17 1017 55 10000 1.5 170 02:51 02.12.2019
3383 Clear 17 1017 55 10000 1.5 170 02:23 02.12.2019
3384 Clear 19 1017 45 10000 3.1 180 01:23 02.12.2019
3385 Clear 18 1017 48 10000 2.1 170 00:45 02.12.2019
3386 Clear 18 1017 48 10000 2.1 170 00:23 02.12.2019
3387 Clear 19 1018 45 10000 2.6 160 23:45 01.12.2019
3388 Clear 19 1018 45 10000 2.6 160 23:23 01.12.2019
3389 Clear 20 1018 40 10000 2.1 180 22:58 01.12.2019
3390 Clear 20 1018 40 10000 2.1 180 22:39 01.12.2019
3391 Clear 20 1018 40 10000 2.1 180 22:20 01.12.2019
3392 Clear 19 1019 45 10000 1.5 160 21:58 01.12.2019
3393 Clear 19 1019 45 10000 1.5 160 21:40 01.12.2019
3394 Clear 19 1019 45 10000 1.5 160 21:22 01.12.2019
3395 Clear 19 1019 48 10000 1 150 20:59 01.12.2019
3396 Clear 19 1019 48 10000 1 150 20:41 01.12.2019
3397 Clear 19 1019 48 10000 1 150 20:22 01.12.2019
3398 Clear 20 1018 45 10000 1.5 140 19:59 01.12.2019
3399 Clear 20 1018 45 10000 1.5 140 19:39 01.12.2019
3400 Clear 20 1018 45 10000 1.5 140 19:21 01.12.2019
3401 Clear 20 1018 45 10000 1.5 140 19:21 01.12.2019
3402 Clear 21 1019 43 10000 1 120 18:57 01.12.2019
3403 Clear 21 1019 43 10000 1 120 18:38 01.12.2019
3404 Clear 21 1019 43 10000 1 120 18:19 01.12.2019
3405 Clear 22 1019 40 10000 1.5 120 17:57 01.12.2019
3406 Clear 22 1019 40 10000 1.5 120 17:39 01.12.2019
3407 Clear 22 1019 40 10000 1.5 120 17:20 01.12.2019
3408 Clear 23 1018 38 10000 1.5 150 16:55 01.12.2019
3409 Clear 23 1018 38 10000 1.5 150 16:37 01.12.2019
3410 Clear 23 1018 38 10000 1.5 150 16:37 01.12.2019
3411 Clear 23 1018 38 10000 1.5 150 16:18 01.12.2019
3412 Clear 25 1017 27 10000 3.1 160 15:44 01.12.2019
3413 Clear 25 1017 27 10000 3.1 160 15:26 01.12.2019
3414 Clear 25 1017 27 10000 3.1 160 15:26 01.12.2019
3415 Clear 26 1017 26 10000 3.6 170 14:41 01.12.2019
3416 Clear 26 1017 26 10000 3.6 170 14:41 01.12.2019
3417 Clear 26 1017 26 10000 3.6 170 14:41 01.12.2019
3418 Clear 26 1017 26 10000 3.6 170 14:41 01.12.2019
3419 Clear 26 1017 26 10000 3.6 170 14:19 01.12.2019
3420 Clear 27 1017 28 10000 3.1 160 13:56 01.12.2019
3421 Clear 27 1017 28 10000 3.1 160 13:37 01.12.2019
3422 Clear 27 1017 28 10000 3.1 160 13:19 01.12.2019
3423 Clear 27 1017 28 10000 3.1 160 13:19 01.12.2019
3424 Clear 26 1017 31 10000 1.5 140 12:41 01.12.2019
3425 Clear 26 1018 29 10000 3.1 160 11:55 01.12.2019
3426 Clear 26 1018 29 10000 3.1 160 11:37 01.12.2019
3427 Clear 26 1018 29 10000 3.1 160 11:18 01.12.2019
3428 Clear 26 1020 31 10000 3.6 160 10:43 01.12.2019
3429 Clear 26 1020 31 10000 3.6 160 10:20 01.12.2019
3430 Clear 25 1020 36 10000 3.6 170 09:42 01.12.2019
3431 Clear 25 1020 36 10000 3.6 170 09:23 01.12.2019
3432 Clear 23 1021 43 10000 3.1 170 08:57 01.12.2019
3433 Clear 23 1021 43 10000 3.1 170 08:37 01.12.2019
3434 Clear 23 1021 43 10000 3.1 170 08:19 01.12.2019
3435 Clear 23 1021 43 10000 3.1 170 08:19 01.12.2019
3436 Clear 20 1022 60 9000 2.6 160 07:48 01.12.2019
3437 Clear 20 1022 60 9000 2.6 160 07:28 01.12.2019
3438 Clear 18 1021 72 7000 1 150 06:52 01.12.2019
3439 Mist 15 1021 82 5000 1 170 05:58 01.12.2019
3440 Mist 15 1021 82 5000 1 170 05:34 01.12.2019
3441 Clear 14 1021 87 8000 1 140 04:29 01.12.2019
3442 Clear 15 1021 82 10000 1.77 116 02:46 01.12.2019
3443 Clear 15 1021 82 10000 1.77 116 02:27 01.12.2019
3444 Clear 15 1021 82 10000 2.12 94 01:54 01.12.2019
3445 Clear 15 1021 82 10000 2.27 88 01:31 01.12.2019
3446 Clear 15 1021 82 10000 2.12 94 01:31 01.12.2019
3447 Clear 16 1021 77 10000 1 50 00:50 01.12.2019
3448 Clear 16 1021 77 10000 1 50 00:27 01.12.2019
3449 Clear 18 1021 68 10000 1 60 23:57 30.11.2019
3450 Clear 18 1021 68 10000 1 60 23:37 30.11.2019
3451 Clear 18 1021 68 10000 1 60 23:19 30.11.2019
3452 Clear 18 1021 72 10000 3.94 72 22:42 30.11.2019
3453 Clear 18 1021 72 10000 3.94 72 22:23 30.11.2019
3454 Clear 19 1021 63 10000 2.1 80 21:48 30.11.2019
3455 Clear 19 1021 63 10000 2.1 80 21:29 30.11.2019
3456 Clear 20 1021 60 10000 1.5 40 20:58 30.11.2019
3457 Clear 20 1021 60 10000 1.5 40 20:40 30.11.2019
3458 Clear 20 1021 60 10000 1.5 40 20:20 30.11.2019
3459 Clear 21 1021 52 10000 2.1 70 19:57 30.11.2019
3460 Clear 21 1021 52 10000 2.1 70 19:39 30.11.2019
3461 Clear 21 1021 52 10000 2.1 70 19:21 30.11.2019
3462 Clear 22 1021 49 10000 2.1 80 18:59 30.11.2019
3463 Clear 22 1021 49 10000 2.1 80 18:39 30.11.2019
3464 Clear 22 1021 49 10000 2.1 80 18:21 30.11.2019
3465 Clear 23 1021 40 10000 1.25 112 17:59 30.11.2019
3466 Clear 23 1021 40 10000 1.25 112 17:41 30.11.2019
3467 Clear 23 1021 40 10000 2.56 38 17:22 30.11.2019
3468 Clear 23 1020 43 10000 2.56 38 16:59 30.11.2019
3469 Clear 23 1020 43 10000 2.56 38 16:59 30.11.2019
3470 Clear 23 1020 43 10000 2.56 38 16:40 30.11.2019
3471 Clear 23 1020 43 10000 2.56 38 16:21 30.11.2019
3472 Clear 26 1020 34 10000 1 60 15:54 30.11.2019
3473 Clear 26 1020 34 10000 1 60 15:36 30.11.2019
3474 Clear 26 1020 34 10000 1 60 15:18 30.11.2019
3475 Clear 27 1019 34 10000 2.56 38 14:54 30.11.2019
3476 Clear 27 1019 34 10000 2.56 38 14:36 30.11.2019
3477 Clear 27 1019 34 10000 1.05 10 14:18 30.11.2019
3478 Clouds 29 1019 28 10000 2.1 330 13:42 30.11.2019
3479 Clouds 29 1019 28 10000 2.1 330 13:24 30.11.2019
3480 Clear 29 1020 30 10000 1 350 12:47 30.11.2019
3481 Clear 29 1020 30 10000 1 350 12:29 30.11.2019
3482 Clear 28 1020 34 10000 1.5 150 11:59 30.11.2019
3483 Clear 28 1020 34 10000 1.5 150 11:41 30.11.2019
3484 Clear 28 1020 34 10000 1.5 150 11:19 30.11.2019
3485 Clear 26 1021 39 10000 2.1 230 10:54 30.11.2019
3486 Clear 26 1021 39 10000 2.1 230 10:36 30.11.2019
3487 Clear 26 1021 39 10000 2.1 230 10:18 30.11.2019
3488 Clear 26 1022 41 10000 1 300 09:42 30.11.2019
3489 Clear 26 1022 41 10000 1 300 09:20 30.11.2019
3490 Clear 22 1023 53 10000 2.1 320 08:42 30.11.2019
3491 Clear 22 1023 53 10000 2.1 320 08:19 30.11.2019
3492 Clear 19 1023 68 10000 2.6 280 07:44 30.11.2019
3493 Clear 19 1023 68 10000 2.6 280 07:26 30.11.2019
3494 Clear 19 1023 63 10000 1 340 06:49 30.11.2019
3495 Clear 19 1023 63 10000 1 340 06:28 30.11.2019
3496 Clouds 16 1023 72 8000 2.1 310 05:30 30.11.2019
3497 Clear 16 1021 72 10000 1 340 03:40 30.11.2019
3498 Clear 16 1021 72 10000 1.27 129 02:39 30.11.2019
3499 Clear 16 1021 72 10000 2.29 137 02:20 30.11.2019
3500 Clear 16 1021 72 10000 2.29 137 01:25 30.11.2019
3501 Clear 17 1020 67 10000 1 130 00:47 30.11.2019
3502 Clear 17 1020 67 10000 1 130 00:28 30.11.2019
3503 Clear 18 1020 63 10000 1 130 23:55 29.11.2019
3504 Clear 18 1020 63 10000 1 130 23:37 29.11.2019
3505 Clear 18 1020 63 10000 1 130 23:18 29.11.2019
3506 Clear 18 1020 63 10000 1 130 22:39 29.11.2019
3507 Clear 18 1020 63 10000 1 130 22:21 29.11.2019
3508 Clear 20 1020 56 10000 2.39 134 21:42 29.11.2019
3509 Clear 20 1020 56 10000 2.39 134 21:22 29.11.2019
3510 Clear 20 1021 56 10000 1.5 150 20:57 29.11.2019
3511 Clear 20 1021 56 10000 1.5 150 20:37 29.11.2019
3512 Clear 20 1021 56 10000 1.5 150 20:18 29.11.2019
3513 Clear 21 1021 52 10000 1.5 120 19:55 29.11.2019
3514 Clear 21 1021 52 10000 1.5 120 19:37 29.11.2019
3515 Clear 21 1021 52 10000 1.5 120 19:37 29.11.2019
3516 Clear 21 1021 52 10000 1.5 120 19:19 29.11.2019
3517 Clear 22 1020 49 10000 1.5 130 18:42 29.11.2019
3518 Clear 22 1020 49 10000 1.5 130 18:24 29.11.2019
3519 Clear 23 1020 46 10000 1.5 130 17:58 29.11.2019
3520 Clear 23 1020 46 10000 1.5 130 17:58 29.11.2019
3521 Clear 23 1020 46 10000 1.5 130 17:40 29.11.2019
3522 Clear 23 1020 46 10000 1.5 130 17:21 29.11.2019
3523 Clear 24 1020 38 10000 2.1 100 16:43 29.11.2019
3524 Clear 24 1020 38 10000 2.1 100 16:21 29.11.2019
3525 Clear 26 1019 39 10000 1.5 100 15:57 29.11.2019
3526 Clear 26 1019 39 10000 1.5 100 15:39 29.11.2019
3527 Clear 26 1019 39 10000 1.5 100 15:20 29.11.2019
3528 Clear 28 1019 37 10000 1 330 14:40 29.11.2019
3529 Clouds 28 1019 37 10000 1 330 14:22 29.11.2019
3530 Clouds 28 1019 34 10000 2.1 320 13:57 29.11.2019
3531 Clouds 28 1019 34 10000 2.1 320 13:38 29.11.2019
3532 Clear 28 1019 34 10000 2.1 320 13:19 29.11.2019
3533 Clear 28 1019 37 10000 1 10 12:43 29.11.2019
3534 Clear 28 1019 37 10000 1 10 12:25 29.11.2019
3535 Clear 27 1020 36 10000 1 140 11:57 29.11.2019
3536 Clear 27 1020 36 10000 1 140 11:38 29.11.2019
3537 Clear 27 1020 36 10000 1 140 11:19 29.11.2019
3538 Clear 26 1021 39 10000 2.1 200 10:58 29.11.2019
3539 Clear 26 1021 39 10000 2.1 200 10:39 29.11.2019
3540 Clear 26 1021 39 10000 2.1 200 10:20 29.11.2019
3541 Clear 24 1021 41 10000 2.1 260 09:58 29.11.2019
3542 Clear 24 1021 41 10000 2.1 260 09:39 29.11.2019
3543 Clear 24 1021 41 10000 2.1 260 09:20 29.11.2019
3544 Clear 23 1022 46 10000 2.1 200 08:55 29.11.2019
3545 Clear 23 1022 46 10000 2.1 200 08:37 29.11.2019
3546 Clouds 23 1022 46 10000 2.1 200 08:18 29.11.2019
3547 Clouds 22 1022 53 10000 2.1 160 07:41 29.11.2019
3548 Clouds 22 1022 53 10000 2.1 160 07:23 29.11.2019
3549 Clouds 20 1021 64 10000 1 140 06:47 29.11.2019
3550 Clouds 20 1021 64 10000 1 140 06:28 29.11.2019
3551 Clouds 18 1021 68 10000 1 170 05:32 29.11.2019
3552 Clouds 18 1021 68 10000 1 170 05:32 29.11.2019
3553 Clouds 18 1020 63 10000 2.1 160 04:56 29.11.2019
3554 Clouds 18 1019 63 10000 3.1 170 03:41 29.11.2019
3555 Clouds 18 1019 63 10000 3.1 170 03:18 29.11.2019
3556 Clouds 19 1019 59 10000 3.1 160 02:24 29.11.2019
3557 Clouds 20 1019 56 10000 4.1 170 01:40 29.11.2019
3558 Clouds 20 1019 56 10000 4.1 170 01:20 29.11.2019
3559 Clouds 20 1019 56 10000 5.7 170 00:26 29.11.2019
3560 Drizzle 20 1019 56 10000 5.1 170 23:59 28.11.2019
3561 Drizzle 20 1019 56 10000 5.1 170 23:41 28.11.2019
3562 Drizzle 20 1019 56 10000 5.1 170 23:21 28.11.2019
3563 Clouds 21 1019 52 10000 3.1 170 22:56 28.11.2019
3564 Clouds 21 1019 52 10000 3.1 170 22:37 28.11.2019
3565 Clouds 21 1019 52 10000 3.1 170 22:19 28.11.2019
3566 Clouds 21 1020 52 10000 2.1 160 21:54 28.11.2019
3567 Clouds 21 1020 52 10000 2.1 160 21:36 28.11.2019
3568 Clouds 21 1020 52 10000 2.1 160 21:18 28.11.2019
3569 Clouds 21 1020 49 10000 2.6 150 20:41 28.11.2019
3570 Clouds 21 1020 49 10000 2.6 150 20:22 28.11.2019
3571 Clouds 21 1019 49 10000 3.1 140 19:57 28.11.2019
3572 Clouds 21 1019 49 10000 3.1 140 19:38 28.11.2019
3573 Clouds 21 1019 49 10000 3.1 140 19:19 28.11.2019
3574 Clouds 22 1019 46 10000 2.6 140 18:57 28.11.2019
3575 Clouds 22 1019 46 10000 2.6 140 18:39 28.11.2019
3576 Clouds 22 1019 46 10000 2.6 140 18:39 28.11.2019
3577 Clouds 22 1019 46 10000 2.6 140 18:18 28.11.2019
3578 Clouds 22 1019 46 10000 2.1 140 17:56 28.11.2019
3579 Clouds 22 1019 46 10000 2.1 140 17:38 28.11.2019
3580 Clouds 22 1019 46 10000 2.1 140 17:20 28.11.2019
3581 Clouds 23 1018 43 10000 2.6 140 16:40 28.11.2019
3582 Clouds 23 1018 43 10000 2.6 140 16:19 28.11.2019
3583 Clouds 25 1018 38 10000 3.1 130 15:58 28.11.2019
3584 Clouds 25 1018 38 10000 3.1 130 15:39 28.11.2019
3585 Clouds 25 1018 38 10000 3.1 130 15:19 28.11.2019
3586 -273 0 0 0 0 0 14:58 28.11.2019
3587 Clouds 26 1017 41 10000 2.1 160 14:39 28.11.2019
3588 Clouds 26 1017 41 10000 2.1 160 14:19 28.11.2019
3589 Clouds 26 1017 41 10000 2.1 160 14:19 28.11.2019
3590 Clouds 26 1017 36 10000 3.1 180 13:42 28.11.2019
3591 Clouds 26 1017 36 10000 3.1 180 13:23 28.11.2019
3592 Clouds 26 1018 39 10000 2.1 180 12:56 28.11.2019
3593 Clouds 26 1018 39 10000 2.1 180 12:38 28.11.2019
3594 Clouds 26 1018 39 10000 2.1 180 12:20 28.11.2019
3595 Clouds 26 1018 39 10000 4.1 200 11:55 28.11.2019
3596 Clouds 26 1018 39 10000 4.1 200 11:37 28.11.2019
3597 Clouds 26 1018 39 10000 4.1 200 11:18 28.11.2019
3598 Clouds 24 1019 44 10000 3.1 180 10:42 28.11.2019
3599 Clouds 24 1019 44 10000 3.1 180 10:21 28.11.2019
3600 Clouds 24 1020 44 10000 4.6 180 09:56 28.11.2019
3601 Clouds 24 1020 44 10000 4.6 180 09:56 28.11.2019
3602 Clouds 24 1020 44 10000 4.6 180 09:38 28.11.2019
3603 Clouds 24 1020 44 10000 4.6 180 09:18 28.11.2019
3604 Clouds 23 1021 46 10000 3.6 170 08:40 28.11.2019
3605 Clear 23 1021 46 10000 3.6 170 08:21 28.11.2019
3606 Clouds 21 1021 56 10000 2.6 160 07:55 28.11.2019
3607 Clouds 21 1021 56 10000 2.6 160 07:36 28.11.2019
3608 Clouds 21 1021 56 10000 2.6 160 07:18 28.11.2019
3609 Clouds 18 1021 72 10000 1.5 140 06:37 28.11.2019
3610 Clouds 15 1020 82 10000 4.5 174 05:53 28.11.2019
3611 Clouds 15 1020 82 10000 4.5 174 05:33 28.11.2019
3612 Clouds 15 1019 77 10000 1.5 140 03:49 28.11.2019
3613 Clouds 16 1019 77 10000 1.5 150 02:30 28.11.2019
3614 Clear 17 1018 72 10000 1.5 140 01:21 28.11.2019
3615 Clear 16 1018 72 10000 2.1 130 00:37 28.11.2019
3616 Clear 16 1018 72 10000 2.1 130 00:18 28.11.2019
3617 Clear 18 1018 63 10000 2.1 130 23:38 27.11.2019
3618 Clear 18 1018 63 10000 2.1 130 23:20 27.11.2019
3619 Clear 18 1019 63 10000 1.5 140 22:55 27.11.2019
3620 Clear 18 1019 63 10000 1.5 140 22:36 27.11.2019
3621 Clear 18 1019 63 10000 1.5 140 22:18 27.11.2019
3622 Clear 18 1019 63 10000 1.5 140 21:55 27.11.2019
3623 Clear 18 1019 63 10000 1.5 140 21:36 27.11.2019
3624 Clear 18 1019 63 10000 1.5 140 21:18 27.11.2019
3625 Clear 18 1019 63 10000 1.5 140 21:18 27.11.2019
3626 Clear 19 1019 59 10000 1.5 150 20:55 27.11.2019
3627 Clear 19 1019 59 10000 1.5 150 20:55 27.11.2019
3628 Clear 19 1019 59 10000 1.5 150 20:36 27.11.2019
3629 Clouds 19 1019 59 10000 1.5 150 20:18 27.11.2019
3630 Clouds 20 1019 56 10000 1.5 150 19:54 27.11.2019
3631 Clouds 20 1019 56 10000 1.5 150 19:36 27.11.2019
3632 Clouds 20 1019 56 10000 1.5 150 19:18 27.11.2019
3633 Clouds 21 1020 52 10000 2.1 130 18:38 27.11.2019
3634 Clouds 21 1020 52 10000 2.1 130 18:20 27.11.2019
3635 Clouds 21 1019 49 10000 1 100 17:59 27.11.2019
3636 Clouds 21 1019 49 10000 1 100 17:41 27.11.2019
3637 Clouds 21 1019 49 10000 1 100 17:23 27.11.2019
3638 Clouds 23 1019 43 10000 2.1 50 16:58 27.11.2019
3639 Clouds 23 1019 43 10000 2.1 50 16:58 27.11.2019
3640 -273 0 0 0 0 0 16:39 27.11.2019
3641 Clouds 23 1019 43 10000 2.1 50 16:21 27.11.2019
3642 Clouds 24 1018 41 10000 2.1 60 15:57 27.11.2019
3643 Clouds 24 1018 41 10000 2.1 60 15:39 27.11.2019
3644 Clouds 24 1018 41 10000 2.1 60 15:21 27.11.2019
3645 Clouds 26 1018 36 10000 2.1 60 14:58 27.11.2019
3646 Clouds 26 1018 36 10000 2.1 60 14:39 27.11.2019
3647 Clouds 26 1018 36 10000 2.1 60 14:39 27.11.2019
3648 Clouds 26 1018 36 10000 2.1 60 14:39 27.11.2019
3649 Clouds 26 1018 36 10000 2.1 60 14:39 27.11.2019
3650 Clouds 26 1018 36 10000 2.1 60 14:21 27.11.2019
3651 Clouds 26 1018 39 10000 1.5 120 13:58 27.11.2019
3652 Clouds 26 1018 39 10000 1.5 120 13:39 27.11.2019
3653 Clouds 26 1018 39 10000 1.5 120 13:19 27.11.2019
3654 Clouds 26 1018 41 10000 1.5 50 12:57 27.11.2019
3655 Clouds 26 1018 41 10000 1.5 50 12:39 27.11.2019
3656 Clouds 26 1018 41 10000 1.5 50 12:19 27.11.2019
3657 Clouds 25 1019 44 10000 1.5 20 11:38 27.11.2019
3658 Clouds 25 1019 44 10000 1.5 20 11:19 27.11.2019
3659 Clouds 25 1020 50 10000 1.5 140 10:58 27.11.2019
3660 Clouds 25 1020 50 10000 1.5 140 10:40 27.11.2019
3661 Clouds 25 1020 50 10000 1.5 140 10:22 27.11.2019
3662 Clouds 23 1021 56 10000 2.1 120 09:44 27.11.2019
3663 Clouds 23 1021 56 10000 2.1 120 09:26 27.11.2019
3664 Clouds 21 1022 64 10000 1 120 08:57 27.11.2019
3665 Clouds 21 1022 64 10000 1 120 08:38 27.11.2019
3666 Clouds 21 1022 64 10000 1 120 08:19 27.11.2019
3667 Clouds 19 1022 72 9000 2.83 129 07:45 27.11.2019
3668 Clouds 19 1022 72 9000 2.83 129 07:27 27.11.2019
3669 Clouds 17 1022 77 9000 2.83 129 06:47 27.11.2019
3670 Clouds 17 1022 77 9000 2.83 129 06:29 27.11.2019
3671 Clouds 14 1021 87 10000 2.83 129 05:27 27.11.2019
3672 Clouds 13 1021 93 10000 0.93 69 04:59 27.11.2019
3673 Clouds 13 1021 93 10000 0.93 69 04:40 27.11.2019
3674 Clouds 14 1020 87 10000 1.5 310 03:53 27.11.2019
3675 Clouds 14 1020 87 10000 1.5 310 03:22 27.11.2019
3676 Clouds 15 1020 82 10000 1 310 02:54 27.11.2019
3677 Clouds 16 1020 82 10000 1 30 01:35 27.11.2019
3678 Clouds 16 1021 82 10000 1 340 00:44 27.11.2019
3679 Clouds 16 1021 82 10000 1 340 00:25 27.11.2019
3680 Clouds 17 1021 77 10000 1.5 360 23:48 26.11.2019
3681 Clouds 17 1021 77 10000 1.5 360 23:26 26.11.2019
3682 Clouds 18 1021 72 10000 2.6 360 22:58 26.11.2019
3683 Clouds 18 1021 72 10000 2.6 360 22:38 26.11.2019
3684 Clouds 18 1021 72 10000 2.6 360 22:19 26.11.2019
3685 Clouds 18 1021 72 10000 2.6 360 21:58 26.11.2019
3686 Clouds 18 1021 72 10000 2.6 360 21:37 26.11.2019
3687 Clouds 18 1021 72 10000 2.6 360 21:19 26.11.2019
3688 Clouds 19 1021 68 10000 2.6 350 20:54 26.11.2019
3689 Clouds 19 1021 68 10000 2.6 350 20:36 26.11.2019
3690 Clouds 19 1021 68 10000 2.6 350 20:18 26.11.2019
3691 Clouds 19 1021 72 10000 2.1 310 19:54 26.11.2019
3692 Clouds 19 1021 72 10000 2.1 310 19:36 26.11.2019
3693 Clouds 19 1021 72 10000 2.1 310 19:18 26.11.2019
3694 Clouds 19 1020 72 10000 4.01 23 18:56 26.11.2019
3695 Clouds 19 1020 72 10000 4.01 23 18:37 26.11.2019
3696 Clouds 19 1020 72 10000 4.01 23 18:19 26.11.2019
3697 Clouds 22 1020 56 10000 1.5 40 17:43 26.11.2019
3698 Clouds 22 1020 56 10000 1.5 40 17:24 26.11.2019
3699 Clouds 23 1019 49 10000 2.1 360 16:58 26.11.2019
3700 Clouds 23 1019 49 10000 2.1 360 16:38 26.11.2019
3701 Clouds 23 1019 49 10000 2.1 360 16:20 26.11.2019
3702 Clouds 24 1019 47 10000 3.6 10 16:00 26.11.2019
3703 Clouds 24 1019 47 10000 3.6 10 15:39 26.11.2019
3704 Clouds 24 1019 47 10000 3.6 10 15:21 26.11.2019
3705 Clouds 25 1018 47 10000 1.5 30 15:00 26.11.2019
3706 Clouds 25 1018 47 10000 1.5 30 14:41 26.11.2019
3707 Clouds 25 1018 47 10000 1.5 30 14:23 26.11.2019
3708 Clouds 25 1018 47 10000 1.5 70 13:43 26.11.2019
3709 Clouds 25 1018 47 10000 1.5 70 13:24 26.11.2019
3710 Clouds 26 1018 44 10000 1.5 180 12:56 26.11.2019
3711 Clouds 26 1018 44 10000 1.5 180 12:36 26.11.2019
3712 Clouds 26 1018 44 10000 1.5 180 12:18 26.11.2019
3713 Clouds 25 1019 47 10000 1.5 240 11:55 26.11.2019
3714 Clouds 25 1019 47 10000 1.5 240 11:36 26.11.2019
3715 Clouds 25 1019 47 10000 1.5 240 11:18 26.11.2019
3716 Clouds 24 1020 53 10000 2.6 170 10:54 26.11.2019
3717 Clouds 24 1020 53 10000 2.6 170 10:36 26.11.2019
3718 Clouds 24 1020 53 10000 2.6 170 10:18 26.11.2019
3719 Clouds 22 1021 56 10000 2.1 140 09:42 26.11.2019
3720 Clouds 22 1021 56 10000 2.1 140 09:23 26.11.2019
3721 Clouds 20 1022 68 10000 2.1 130 08:47 26.11.2019
3722 Clouds 20 1022 68 10000 2.1 130 08:28 26.11.2019
3723 Clouds 18 1022 72 10000 2.1 130 07:57 26.11.2019
3724 Clouds 18 1022 72 10000 2.1 130 07:38 26.11.2019
3725 Clouds 18 1022 72 10000 2.1 130 07:19 26.11.2019
3726 Clouds 16 1021 82 10000 1.5 130 06:46 26.11.2019
3727 Clouds 14 1020 87 10000 2.1 160 05:58 26.11.2019
3728 Clear 14 1020 87 10000 2.1 160 05:19 26.11.2019
3729 Clear 13 1019 87 10000 0.84 358 03:21 26.11.2019
3730 Clear 13 1019 87 10000 0.84 358 03:21 26.11.2019
3731 Clear 15 1019 82 10000 1 150 01:37 26.11.2019
3732 Clear 15 1019 82 10000 1 150 01:19 26.11.2019
3733 Clear 15 1019 82 10000 0.52 68 00:41 26.11.2019
3734 Clear 16 1019 77 10000 1 130 23:59 25.11.2019
3735 Clear 16 1019 77 10000 1 130 23:59 25.11.2019
3736 Clear 16 1019 77 10000 1 130 23:38 25.11.2019
3737 Clear 16 1019 77 10000 1 130 23:19 25.11.2019
3738 Clear 16 1019 77 10000 1 120 22:40 25.11.2019
3739 Clear 16 1019 77 10000 1 120 22:19 25.11.2019
3740 Clear 17 1019 72 10000 1.5 130 21:59 25.11.2019
3741 Clear 17 1019 72 10000 1.5 130 21:59 25.11.2019
3742 Clear 17 1019 72 10000 1.5 130 21:41 25.11.2019
3743 Clear 17 1019 72 10000 2.1 100 21:23 25.11.2019
3744 Clear 17 1019 72 10000 2.1 100 20:58 25.11.2019
3745 Clear 17 1019 72 10000 2.1 100 20:40 25.11.2019
3746 Clear 17 1019 72 10000 2.1 100 20:20 25.11.2019
3747 Clear 17 1019 77 10000 2.1 90 19:57 25.11.2019
3748 Clear 17 1019 77 10000 2.1 90 19:39 25.11.2019
3749 Clear 17 1019 77 10000 2.1 90 19:20 25.11.2019
3750 Clear 19 1019 68 10000 2.1 160 18:58 25.11.2019
3751 Clear 19 1019 68 10000 2.1 160 18:58 25.11.2019
3752 Clear 19 1019 68 10000 2.1 160 18:40 25.11.2019
3753 Clear 19 1019 68 10000 2.1 160 18:22 25.11.2019
3754 Clear 19 1018 68 10000 2.1 170 17:58 25.11.2019
3755 Clear 19 1018 68 10000 2.1 170 17:40 25.11.2019
3756 Clear 19 1018 68 10000 2.1 170 17:21 25.11.2019
3757 Clear 20 1018 64 10000 1 170 16:59 25.11.2019
3758 Clear 20 1018 64 10000 1 170 16:40 25.11.2019
3759 Clear 20 1018 64 10000 1 170 16:22 25.11.2019
3760 Clear 22 1017 56 10000 1 170 15:56 25.11.2019
3761 Clear 22 1017 56 10000 1 170 15:37 25.11.2019
3762 Clear 22 1017 56 10000 1 170 15:19 25.11.2019
3763 Clear 23 1017 49 10000 2.6 160 14:43 25.11.2019
3764 Clear 23 1017 49 10000 2.6 160 14:25 25.11.2019
3765 Clouds 22 1017 53 10000 2.1 150 13:57 25.11.2019
3766 Clouds 22 1017 53 10000 2.1 150 13:57 25.11.2019
3767 Clouds 22 1017 53 10000 2.1 150 13:37 25.11.2019
3768 Clouds 22 1017 53 10000 2.1 150 13:18 25.11.2019
3769 Clouds 22 1017 56 10000 3.6 170 12:58 25.11.2019
3770 Clouds 22 1017 56 10000 3.6 170 12:39 25.11.2019
3771 Clouds 22 1017 56 10000 3.6 170 12:19 25.11.2019
3772 Clouds 21 1018 60 10000 2.6 150 11:40 25.11.2019
3773 Clouds 21 1018 60 10000 2.6 150 11:21 25.11.2019
3774 Clouds 20 1019 64 10000 2.1 160 10:59 25.11.2019
3775 Clouds 20 1019 64 10000 2.1 160 10:41 25.11.2019
3776 Clouds 20 1019 64 10000 2.1 160 10:19 25.11.2019
3777 Haze 18 1020 72 5000 2.1 150 09:44 25.11.2019
3778 Haze 18 1020 72 5000 2.1 150 09:26 25.11.2019
3779 Mist 16 1021 82 3000 2.6 140 08:57 25.11.2019
3780 Mist 16 1021 82 3000 2.6 140 08:38 25.11.2019
3781 Mist 16 1021 82 3000 2.6 140 08:18 25.11.2019
3782 Mist 15 1021 87 1500 1.5 40 07:39 25.11.2019
3783 Mist 15 1021 87 1500 1.5 40 07:18 25.11.2019
3784 Clouds 17 1020 67 7000 2.1 160 06:38 25.11.2019
3785 Clouds 16 1019 72 7000 2.6 160 06:18 25.11.2019
3786 Clouds 16 1019 72 7000 2.6 160 05:32 25.11.2019
3787 Clouds 15 1018 82 7000 2.6 160 04:49 25.11.2019
3788 Clouds 14 1018 87 7000 2.1 170 02:36 25.11.2019
3789 Clouds 14 1017 87 7000 2.6 140 01:44 25.11.2019
3790 Clouds 14 1017 87 7000 2.6 140 01:24 25.11.2019
3791 Clouds 15 1018 82 10000 2.1 150 00:59 25.11.2019
3792 Clouds 15 1018 82 10000 2.1 150 00:20 25.11.2019
3793 Clouds 15 1018 77 10000 2.6 150 23:45 24.11.2019
3794 Clouds 15 1018 77 10000 2.6 150 23:21 24.11.2019
3795 Clouds 16 1018 77 10000 3.6 160 22:58 24.11.2019
3796 Clouds 16 1018 77 10000 3.6 160 22:39 24.11.2019
3797 Clouds 16 1018 77 10000 3.6 160 22:19 24.11.2019
3798 Clouds 17 1019 72 10000 3.6 160 21:57 24.11.2019
3799 Clouds 17 1019 72 10000 3.6 160 21:38 24.11.2019
3800 Clouds 17 1019 72 10000 3.6 160 21:20 24.11.2019
3801 Clouds 17 1019 67 10000 3.1 160 20:57 24.11.2019
3802 Clouds 17 1019 67 10000 3.1 160 20:37 24.11.2019
3803 Clouds 17 1019 67 10000 3.1 160 20:18 24.11.2019
3804 Clouds 18 1019 59 10000 2.1 150 19:56 24.11.2019
3805 Clouds 18 1019 59 10000 2.1 150 19:38 24.11.2019
3806 Clouds 18 1019 59 10000 2.1 150 19:19 24.11.2019
3807 Clouds 18 1018 59 10000 2.6 140 18:57 24.11.2019
3808 Clouds 18 1018 59 10000 2.6 140 18:37 24.11.2019
3809 Clouds 18 1018 59 10000 2.6 140 18:19 24.11.2019
3810 Clouds 18 1018 59 10000 2.1 130 17:55 24.11.2019
3811 Clouds 18 1018 59 10000 2.1 130 17:37 24.11.2019
3812 Clouds 18 1018 59 10000 2.1 130 17:37 24.11.2019
3813 Clouds 18 1018 59 10000 2.1 130 17:19 24.11.2019
3814 Clouds 19 1018 55 10000 3.1 160 16:56 24.11.2019
3815 Clouds 19 1018 55 10000 3.1 160 16:38 24.11.2019
3816 Clouds 19 1018 55 10000 3.1 160 16:19 24.11.2019
3817 Clouds 19 1018 55 10000 3.1 160 16:19 24.11.2019
3818 Clouds 20 1017 52 10000 3.1 150 15:43 24.11.2019
3819 Clouds 20 1017 52 10000 3.1 150 15:25 24.11.2019
3820 Clouds 21 1017 46 10000 3.6 150 14:57 24.11.2019
3821 Clouds 21 1017 46 10000 3.6 150 14:57 24.11.2019
3822 Clouds 21 1017 46 10000 3.6 150 14:38 24.11.2019
3823 Clouds 21 1017 46 10000 3.6 150 14:38 24.11.2019
3824 Clear 21 1017 46 10000 3.6 150 14:18 24.11.2019
3825 Clear 22 1017 40 10000 3.6 150 13:41 24.11.2019
3826 Clear 22 1017 40 10000 3.6 150 13:22 24.11.2019
3827 Clear 22 1017 37 10000 3.1 180 12:59 24.11.2019
3828 Clear 22 1017 37 10000 3.1 180 12:40 24.11.2019
3829 Clear 22 1017 37 10000 3.1 180 12:18 24.11.2019
3830 Clear 22 1018 33 10000 6.2 170 11:56 24.11.2019
3831 Clear 22 1018 33 10000 6.2 170 11:36 24.11.2019
3832 Clear 22 1018 33 10000 6.2 170 11:18 24.11.2019
3833 Clear 21 1019 37 10000 4.6 180 10:46 24.11.2019
3834 Clear 21 1019 37 10000 4.6 180 10:28 24.11.2019
3835 Clouds 21 1020 40 10000 5.1 170 09:55 24.11.2019
3836 Clouds 21 1020 40 10000 5.1 170 09:37 24.11.2019
3837 Clouds 21 1020 40 10000 5.1 170 09:18 24.11.2019
3838 Clear 19 1021 52 10000 5.1 180 08:44 24.11.2019
3839 Clouds 19 1021 52 10000 5.1 180 08:22 24.11.2019
3840 Clouds 20 1021 37 10000 5.1 180 07:57 24.11.2019
3841 Clouds 20 1021 37 10000 5.1 180 07:37 24.11.2019
3842 Clouds 20 1021 37 10000 5.1 180 07:18 24.11.2019
3843 Clouds 18 1020 42 8000 3.1 170 06:19 24.11.2019
3844 Clouds 18 1020 42 8000 3.1 170 06:19 24.11.2019
3845 Clouds 16 1019 51 10000 1.5 160 04:48 24.11.2019
3846 Clouds 17 1019 42 10000 2.1 170 03:32 24.11.2019
3847 Clouds 17 1019 42 10000 2.6 160 01:59 24.11.2019
3848 Clouds 17 1019 42 10000 2.6 160 01:39 24.11.2019
3849 Clouds 17 1019 42 10000 2.6 160 01:20 24.11.2019
3850 Clouds 17 1019 36 10000 3.1 170 00:47 24.11.2019
3851 Clouds 17 1019 36 10000 3.1 170 00:23 24.11.2019
3852 Clouds 17 1019 36 10000 3.1 170 23:45 23.11.2019
3853 Clouds 17 1019 36 10000 3.1 170 23:22 23.11.2019
3854 Clouds 17 1019 36 10000 3.6 170 22:59 23.11.2019
3855 Clouds 17 1019 36 10000 3.6 170 22:40 23.11.2019
3856 Clouds 17 1019 36 10000 3.6 170 22:22 23.11.2019
3857 Clouds 16 1019 44 10000 1.5 150 21:58 23.11.2019
3858 Clouds 16 1019 44 10000 1.5 150 21:40 23.11.2019
3859 Clouds 16 1019 44 10000 1.5 150 21:21 23.11.2019
3860 Clouds 17 1020 39 10000 2.1 140 20:55 23.11.2019
3861 Clear 17 1020 39 10000 2.1 140 20:36 23.11.2019
3862 Clear 17 1020 39 10000 2.1 140 20:18 23.11.2019
3863 Clear 18 1020 39 10000 2.6 150 19:54 23.11.2019
3864 Clear 18 1020 39 10000 2.6 150 19:36 23.11.2019
3865 Clear 18 1020 39 10000 2.6 150 19:18 23.11.2019
3866 Clear 18 1020 36 10000 2.6 150 18:39 23.11.2019
3867 Clear 18 1020 36 10000 2.6 150 18:20 23.11.2019
3868 Clear 19 1019 37 10000 2.1 140 17:54 23.11.2019
3869 Clear 19 1019 37 10000 2.1 140 17:36 23.11.2019
3870 Clouds 19 1019 37 10000 2.1 140 17:18 23.11.2019
3871 Clouds 20 1019 34 10000 3.1 150 16:54 23.11.2019
3872 Clouds 20 1019 34 10000 3.1 150 16:36 23.11.2019
3873 Clouds 20 1019 34 10000 3.1 150 16:18 23.11.2019
3874 Clouds 21 1018 28 10000 3.1 160 15:40 23.11.2019
3875 Clouds 21 1018 28 10000 3.1 160 15:19 23.11.2019
3876 Clouds 21 1018 28 10000 3.1 160 15:19 23.11.2019
3877 Clouds 22 1018 26 10000 4.6 170 14:58 23.11.2019
3878 Clouds 22 1018 26 10000 4.6 170 14:40 23.11.2019
3879 Clouds 22 1018 26 10000 4.6 170 14:21 23.11.2019
3880 Clouds 22 1018 21 10000 4.1 170 13:56 23.11.2019
3881 Clouds 22 1018 21 10000 4.1 170 13:38 23.11.2019
3882 Clouds 22 1018 21 10000 4.1 170 13:18 23.11.2019
3883 Clouds 22 1018 18 10000 4.1 170 12:42 23.11.2019
3884 Clouds 22 1018 18 10000 4.1 170 12:24 23.11.2019
3885 Clouds 22 1019 19 10000 4.6 160 11:45 23.11.2019
3886 Clouds 22 1019 19 10000 4.6 160 11:23 23.11.2019
3887 Clouds 21 1020 26 10000 4.6 160 10:46 23.11.2019
3888 Clouds 21 1020 26 10000 4.6 160 10:23 23.11.2019
3889 Clouds 20 1022 28 10000 4.1 160 09:59 23.11.2019
3890 Clouds 20 1022 28 10000 4.1 160 09:40 23.11.2019
3891 Clouds 20 1022 28 10000 4.1 160 09:18 23.11.2019
3892 Clouds 19 1022 35 10000 4.6 170 08:41 23.11.2019
3893 Clouds 19 1022 26 10000 4.6 170 08:19 23.11.2019
3894 Clouds 16 1023 44 10000 1.5 90 07:42 23.11.2019
3895 Clouds 13 1022 58 10000 1.5 130 06:58 23.11.2019
3896 Clouds 13 1022 58 10000 1.5 130 06:38 23.11.2019
3897 Clouds 13 1022 58 10000 1.5 130 06:19 23.11.2019
3898 Clouds 12 1022 62 10000 1.5 140 05:32 23.11.2019
3899 Clouds 12 1022 62 10000 1 120 04:58 23.11.2019
3900 Clouds 12 1022 62 10000 1 120 04:34 23.11.2019
3901 Clouds 12 1021 58 10000 1.5 130 03:27 23.11.2019
3902 Clouds 11 1021 62 10000 1.5 150 02:39 23.11.2019
3903 Clouds 10 1021 66 10000 1 130 01:40 23.11.2019
3904 Clouds 12 1021 58 10000 1 120 00:48 23.11.2019
3905 Clouds 12 1021 58 10000 1 120 00:20 23.11.2019
3906 Clouds 12 1021 54 10000 1.5 130 23:56 22.11.2019
3907 Clouds 12 1021 54 10000 1.5 130 23:37 22.11.2019
3908 Clouds 12 1021 54 10000 1.5 130 23:37 22.11.2019
3909 Clouds 12 1021 54 10000 1.5 130 23:18 22.11.2019
3910 Clouds 11 1022 62 10000 3.51 120 22:55 22.11.2019
3911 Clouds 11 1022 62 10000 3.51 120 22:37 22.11.2019
3912 Clouds 11 1022 62 10000 3.51 120 22:18 22.11.2019
3913 Clouds 11 1022 62 10000 3.51 120 22:18 22.11.2019
3914 Clouds 11 1022 62 10000 3.51 120 22:18 22.11.2019
3915 Clouds 13 1022 50 10000 1.5 130 21:40 22.11.2019
3916 Clouds 13 1022 50 10000 1.5 130 21:21 22.11.2019
3917 Clouds 14 1022 47 10000 2.1 130 20:55 22.11.2019
3918 Clouds 14 1022 47 10000 2.1 130 20:37 22.11.2019
3919 Clouds 14 1022 47 10000 2.1 130 20:19 22.11.2019
3920 Clouds 14 1022 16 10000 3.1 110 19:39 22.11.2019
3921 Clouds 14 1022 16 10000 3.1 110 19:20 22.11.2019
3922 Clouds 14 1022 41 10000 1.5 130 18:59 22.11.2019
3923 Clouds 14 1022 41 10000 1.5 130 18:38 22.11.2019
3924 Clouds 14 1022 41 10000 1.5 130 18:20 22.11.2019
3925 Clouds 15 1022 38 10000 2.1 130 17:42 22.11.2019
3926 Clouds 15 1022 38 10000 2.1 130 17:22 22.11.2019
3927 Clouds 16 1022 15 10000 1.5 140 16:48 22.11.2019
3928 Clouds 16 1022 15 10000 1.5 140 16:30 22.11.2019
3929 Clouds 18 1021 23 10000 2.6 130 15:58 22.11.2019
3930 Clouds 18 1021 23 10000 2.6 130 15:38 22.11.2019
3931 Clouds 18 1021 23 10000 2.6 130 15:20 22.11.2019
3932 Clouds 19 1021 15 10000 1.5 130 14:54 22.11.2019
3933 Clouds 19 1021 15 10000 1.5 130 14:36 22.11.2019
3934 Clouds 19 1021 13 10000 1.5 130 14:18 22.11.2019
3935 Clouds 19 1021 13 10000 1.5 130 13:39 22.11.2019
3936 Clouds 19 1021 13 10000 1.5 130 13:19 22.11.2019
3937 Clouds 19 1021 25 10000 2.1 130 12:58 22.11.2019
3938 Clouds 19 1021 25 10000 2.1 130 12:58 22.11.2019
3939 Clouds 19 1021 25 10000 2.1 130 12:40 22.11.2019
3940 Clouds 19 1021 25 10000 2.1 130 12:19 22.11.2019
3941 Clouds 18 1021 25 10000 2.1 100 11:57 22.11.2019
3942 Clouds 18 1021 25 10000 2.1 100 11:37 22.11.2019
3943 Clouds 18 1021 25 10000 2.1 100 11:18 22.11.2019
3944 Clouds 18 1021 25 10000 2.1 100 11:18 22.11.2019
3945 Clouds 18 1021 25 10000 2.1 100 11:18 22.11.2019
3946 Clouds 18 1022 34 10000 1 130 10:54 22.11.2019
3947 Clouds 18 1022 34 10000 1 130 10:36 22.11.2019
3948 Clouds 18 1022 34 10000 1 130 10:18 22.11.2019
3949 Clouds 16 1023 38 10000 1.5 100 09:41 22.11.2019
3950 Clouds 16 1023 38 10000 1.5 100 09:21 22.11.2019
3951 Clouds 15 1024 41 10000 1 160 08:57 22.11.2019
3952 Clouds 15 1024 41 10000 1 160 08:38 22.11.2019
3953 Clear 15 1024 41 10000 1 160 08:20 22.11.2019
3954 Clear 14 1025 54 10000 2.62 122 07:42 22.11.2019
3955 Clear 14 1025 54 10000 2.62 122 07:20 22.11.2019
3956 Clear 10 1024 66 10000 2.62 122 06:47 22.11.2019
3957 Clear 10 1024 66 10000 2.62 122 06:27 22.11.2019
3958 Clear 6 1024 75 10000 1 300 05:33 22.11.2019
3959 Clear 6 1023 75 10000 1.4 114 03:26 22.11.2019
3960 Clear 6 1022 75 10000 1 290 02:39 22.11.2019
3961 Clear 6 1022 75 10000 1 290 02:20 22.11.2019
3962 Clear 7 1022 70 10000 1 270 01:43 22.11.2019
3963 Clear 7 1022 70 10000 1 270 01:18 22.11.2019
3964 Clear 8 1022 70 10000 1.41 91 00:40 22.11.2019
3965 Clear 8 1022 70 10000 1.41 91 00:19 22.11.2019
3966 Clear 8 1023 70 10000 1.41 91 23:43 21.11.2019
3967 Clear 8 1023 70 10000 1.78 85 23:24 21.11.2019
3968 Clear 9 1023 61 10000 1.78 85 22:56 21.11.2019
3969 Clear 9 1023 61 10000 1.78 85 22:37 21.11.2019
3970 Clear 9 1023 61 10000 1.78 85 22:19 21.11.2019
3971 Clear 9 1023 66 10000 1.78 85 21:54 21.11.2019
3972 Clear 9 1023 66 10000 1.78 85 21:36 21.11.2019
3973 Clear 9 1023 66 10000 1.78 85 21:18 21.11.2019
3974 Clear 10 1023 61 10000 1.78 85 20:57 21.11.2019
3975 Clear 10 1023 61 10000 1.78 85 20:57 21.11.2019
3976 Clear 10 1023 61 10000 1.78 85 20:37 21.11.2019
3977 Clear 10 1023 61 10000 2.99 50 20:18 21.11.2019
3978 Clear 12 1023 54 10000 2.99 50 19:55 21.11.2019
3979 Clear 12 1023 54 10000 2.99 50 19:55 21.11.2019
3980 Clear 12 1023 54 10000 2.99 50 19:36 21.11.2019
3981 Clear 12 1023 54 10000 2.99 50 19:18 21.11.2019
3982 Clear 13 1022 47 10000 1.5 60 18:41 21.11.2019
3983 Clear 13 1022 47 10000 1.5 60 18:21 21.11.2019
3984 Clear 14 1022 44 10000 1.5 50 17:58 21.11.2019
3985 Clear 14 1022 44 10000 1.5 50 17:39 21.11.2019
3986 Clear 14 1022 44 10000 1.5 50 17:39 21.11.2019
3987 Clear 14 1022 44 10000 1.5 50 17:21 21.11.2019
3988 Clear 16 1021 31 10000 3.1 30 16:57 21.11.2019
3989 Clear 16 1021 31 10000 3.1 30 16:39 21.11.2019
3990 Clear 16 1021 31 10000 3.1 30 16:20 21.11.2019
3991 Clear 17 1021 27 10000 3.6 10 15:44 21.11.2019
3992 Clear 17 1021 27 10000 3.6 10 15:21 21.11.2019
3993 Clear 19 1020 24 10000 2.6 350 14:59 21.11.2019
3994 Clear 19 1020 24 10000 2.6 350 14:38 21.11.2019
3995 Clear 19 1020 24 10000 2.6 350 14:20 21.11.2019
3996 Clear 19 1020 24 10000 3.1 350 13:59 21.11.2019
3997 Clear 19 1020 24 10000 3.1 350 13:37 21.11.2019
3998 Clear 19 1020 24 10000 3.1 350 13:19 21.11.2019
3999 Clear 18 1020 22 10000 4.1 340 12:42 21.11.2019
4000 Clear 18 1020 22 10000 4.1 340 12:24 21.11.2019
4001 Clear 17 1021 29 10000 4.6 350 11:56 21.11.2019
4002 Clear 17 1021 29 10000 4.6 350 11:37 21.11.2019
4003 Clear 17 1021 29 10000 4.6 350 11:37 21.11.2019
4004 Clear 17 1021 29 10000 4.6 350 11:19 21.11.2019
4005 Clear 17 1022 27 10000 5.1 330 10:43 21.11.2019
4006 Clear 17 1022 27 10000 5.1 330 10:24 21.11.2019
4007 Clear 16 1022 31 10000 4.6 330 09:59 21.11.2019
4008 Clear 16 1022 31 10000 4.6 330 09:41 21.11.2019
4009 Clear 16 1022 31 10000 4.6 330 09:22 21.11.2019
4010 Clear 14 1023 41 10000 2.6 310 08:54 21.11.2019
4011 Clear 14 1023 41 10000 2.6 310 08:36 21.11.2019
4012 Clear 14 1023 41 10000 2.6 310 08:18 21.11.2019
4013 Clear 11 1023 50 10000 3.6 290 07:37 21.11.2019
4014 Clear 11 1023 50 10000 3.6 290 07:18 21.11.2019
4015 Clear 9 1022 57 10000 3.6 300 06:42 21.11.2019
4016 Clear 9 1022 57 10000 3.6 300 06:24 21.11.2019
4017 Clear 6 1021 70 10000 3.6 280 04:55 21.11.2019
4018 Clear 8 1020 61 10000 3.1 300 02:53 21.11.2019
4019 Clear 8 1020 61 10000 3.1 300 02:33 21.11.2019
4020 Clear 8 1020 65 10000 2.6 300 01:52 21.11.2019
4021 Clear 8 1020 65 10000 2.6 300 01:21 21.11.2019
4022 Clear 9 1019 61 10000 3.6 310 00:41 21.11.2019
4023 Clear 9 1019 61 10000 3.6 310 00:20 21.11.2019
4024 Clear 9 1020 57 10000 3.1 300 23:51 20.11.2019
4025 Clear 9 1020 57 10000 3.1 300 23:22 20.11.2019
4026 Clear 11 1020 50 10000 3.1 290 22:58 20.11.2019
4027 Clear 11 1020 50 10000 3.1 290 22:40 20.11.2019
4028 Clear 11 1020 50 10000 3.1 290 22:20 20.11.2019
4029 Clear 11 1020 50 10000 2.6 310 21:58 20.11.2019
4030 Clear 11 1020 50 10000 2.6 310 21:39 20.11.2019
4031 Clear 11 1020 50 10000 2.6 310 21:21 20.11.2019
4032 Clear 12 1020 50 10000 2.1 280 20:57 20.11.2019
4033 Clear 12 1020 50 10000 2.1 280 20:39 20.11.2019
4034 Clear 12 1020 50 10000 2.1 280 20:21 20.11.2019
4035 Clear 12 1020 46 10000 2.6 350 19:57 20.11.2019
4036 Clear 12 1020 46 10000 2.6 350 19:37 20.11.2019
4037 Clear 12 1020 46 10000 2.6 350 19:19 20.11.2019
4038 Clear 13 1020 47 10000 3.6 360 18:59 20.11.2019
4039 Clear 13 1020 47 10000 3.6 360 18:39 20.11.2019
4040 Clear 13 1020 47 10000 3.6 360 18:21 20.11.2019
4041 Clear 14 1020 41 10000 2.6 10 17:57 20.11.2019
4042 Clear 14 1020 41 10000 2.6 10 17:39 20.11.2019
4043 Clear 14 1020 41 10000 2.6 10 17:20 20.11.2019
4044 Clear 15 1019 33 10000 4.1 10 16:57 20.11.2019
4045 Clear 15 1019 33 10000 4.1 10 16:38 20.11.2019
4046 Clear 15 1019 33 10000 4.1 10 16:18 20.11.2019
4047 Clear 17 1018 27 10000 4.1 360 15:42 20.11.2019
4048 Clear 17 1018 27 10000 4.1 360 15:22 20.11.2019
4049 Clear 18 1018 20 10000 4.6 350 14:59 20.11.2019
4050 Clear 18 1018 20 10000 4.6 350 14:40 20.11.2019
4051 Clouds 18 1018 20 10000 4.6 350 14:22 20.11.2019
4052 Clouds 18 1018 22 10000 4.6 10 13:58 20.11.2019
4053 Clouds 18 1018 22 10000 4.6 10 13:58 20.11.2019
4054 Clouds 18 1018 22 10000 4.6 10 13:39 20.11.2019
4055 Clouds 18 1018 22 10000 4.6 10 13:20 20.11.2019
4056 Clouds 19 1018 20 10000 5.1 360 12:55 20.11.2019
4057 Clouds 19 1018 20 10000 5.1 360 12:36 20.11.2019
4058 Clouds 19 1018 20 10000 5.1 360 12:18 20.11.2019
4059 Clouds 18 1018 23 10000 5.7 350 11:41 20.11.2019
4060 Clouds 18 1018 23 10000 5.7 350 11:22 20.11.2019
4061 Clouds 17 1019 29 10000 6.2 350 10:56 20.11.2019
4062 Clouds 17 1019 29 10000 6.2 350 10:37 20.11.2019
4063 Clouds 17 1019 29 10000 6.2 350 10:19 20.11.2019
4064 Clouds 16 1020 36 10000 5.7 360 09:43 20.11.2019
4065 Clouds 16 1020 36 10000 5.7 360 09:21 20.11.2019
4066 Clouds 15 1020 44 10000 5.7 350 08:56 20.11.2019
4067 Clouds 15 1020 44 10000 5.7 350 08:38 20.11.2019
4068 Clouds 15 1020 44 10000 5.7 350 08:20 20.11.2019
4069 Clouds 14 1021 50 10000 5.1 350 07:45 20.11.2019
4070 Clouds 14 1021 50 10000 5.1 350 07:25 20.11.2019
4071 Clouds 14 1020 58 10000 3.6 330 06:49 20.11.2019
4072 Clouds 14 1020 58 10000 3.6 330 06:22 20.11.2019
4073 Clouds 12 1020 71 9000 3.1 330 05:26 20.11.2019
4074 Clouds 13 1018 76 6000 4.1 340 03:36 20.11.2019
4075 Clouds 13 1019 76 6000 4.1 350 02:21 20.11.2019
4076 Clouds 13 1019 82 6000 3.1 310 01:33 20.11.2019
4077 Clouds 13 1019 82 6000 3.1 310 00:41 20.11.2019
4078 Haze 13 1019 76 5000 2.6 330 23:55 19.11.2019
4079 Haze 13 1019 76 5000 2.6 330 23:26 19.11.2019
4080 Haze 13 1019 82 4000 2.1 330 22:58 19.11.2019
4081 Haze 13 1019 82 4000 2.1 330 22:40 19.11.2019
4082 Haze 13 1019 82 4000 2.1 330 22:19 19.11.2019
4083 Mist 13 1020 82 4000 1.5 320 21:56 19.11.2019
4084 Mist 13 1020 82 4000 1.5 320 21:37 19.11.2019
4085 Mist 13 1020 82 4000 1.5 320 21:19 19.11.2019
4086 Mist 14 1020 76 4000 1.5 320 20:56 19.11.2019
4087 Mist 14 1020 76 4000 1.5 320 20:38 19.11.2019
4088 Mist 14 1020 76 4000 1.5 320 20:19 19.11.2019
4089 Mist 13 1020 82 4000 3.6 360 19:55 19.11.2019
4090 Mist 13 1020 82 4000 3.6 360 19:37 19.11.2019
4091 Mist 13 1020 82 4000 3.6 360 19:18 19.11.2019
4092 Mist 13 1020 82 4000 4.1 360 18:54 19.11.2019
4093 Mist 13 1020 82 4000 4.1 360 18:36 19.11.2019
4094 Mist 13 1020 82 4000 4.1 360 18:18 19.11.2019
4095 Mist 13 1019 87 4000 4.6 10 17:55 19.11.2019
4096 Mist 13 1019 87 4000 4.6 10 17:55 19.11.2019
4097 Mist 13 1019 87 4000 4.6 10 17:36 19.11.2019
4098 Mist 13 1019 87 4000 4.6 10 17:18 19.11.2019
4099 Mist 14 1018 82 3000 6.2 10 16:42 19.11.2019
4100 Mist 14 1018 82 3000 6.2 10 16:22 19.11.2019
4101 Mist 14 1018 82 4000 6.2 10 15:54 19.11.2019
4102 Mist 14 1018 82 4000 6.2 10 15:36 19.11.2019
4103 Mist 14 1018 82 4000 6.2 10 15:36 19.11.2019
4104 Mist 14 1018 82 4000 6.2 10 15:18 19.11.2019
4105 Mist 14 1018 87 3000 5.7 20 14:54 19.11.2019
4106 Mist 14 1018 87 3000 5.7 20 14:36 19.11.2019
4107 Mist 14 1018 87 3000 5.7 20 14:36 19.11.2019
4108 Mist 14 1018 87 3000 5.7 20 14:18 19.11.2019
4109 Mist 15 1018 87 3000 6.7 200 13:40 19.11.2019
4110 Mist 15 1018 87 3000 6.7 200 13:19 19.11.2019
4111 Mist 16 1017 87 5000 6.2 300 12:40 19.11.2019
4112 Mist 16 1017 87 5000 6.2 300 12:21 19.11.2019
4113 Drizzle 15 1018 93 1500 5.1 30 11:57 19.11.2019
4114 Drizzle 15 1018 93 1500 5.1 30 11:38 19.11.2019
4115 Drizzle 15 1018 93 1500 5.1 30 11:19 19.11.2019
4116 Drizzle 15 1018 93 1500 5.1 30 11:19 19.11.2019
4117 Drizzle 15 1018 93 1500 5.1 30 11:19 19.11.2019
4118 Rain 16 1019 93 800 4.6 60 10:47 19.11.2019
4119 Rain 16 1019 93 800 4.6 60 10:22 19.11.2019
4120 Mist 19 1019 82 5000 3.1 70 09:58 19.11.2019
4121 Mist 19 1019 82 5000 3.1 70 09:40 19.11.2019
4122 Mist 19 1019 82 5000 3.1 70 09:18 19.11.2019
4123 Mist 18 1020 88 5000 2.6 70 08:41 19.11.2019
4124 Mist 18 1020 88 5000 2.6 70 08:22 19.11.2019
4125 Mist 18 1020 82 5000 3.1 40 07:57 19.11.2019
4126 Mist 18 1020 82 5000 3.1 40 07:38 19.11.2019
4127 Mist 18 1020 82 5000 3.1 40 07:20 19.11.2019
4128 Mist 17 1020 93 5000 2.6 20 06:49 19.11.2019
4129 Mist 17 1020 93 5000 2.6 20 06:29 19.11.2019
4130 Thunderstorm 17 1019 88 5000 5.89 69 05:24 19.11.2019
4131 Thunderstorm 16 1018 93 10000 1 80 03:47 19.11.2019
4132 Thunderstorm 16 1018 93 10000 1 80 03:29 19.11.2019
4133 Thunderstorm 17 1018 88 10000 1 120 02:53 19.11.2019
4134 Thunderstorm 17 1017 88 10000 1.5 10 01:58 19.11.2019
4135 Thunderstorm 17 1017 88 10000 1.5 10 01:27 19.11.2019
4136 Thunderstorm 17 1017 88 10000 2.6 50 00:21 19.11.2019
4137 Thunderstorm 18 1017 82 10000 1.5 360 23:56 18.11.2019
4138 Thunderstorm 18 1017 82 10000 1.5 360 23:37 18.11.2019
4139 Thunderstorm 18 1017 82 10000 1.5 360 23:18 18.11.2019
4140 Clouds 18 1017 82 10000 1 80 22:42 18.11.2019
4141 Clouds 18 1017 82 10000 1 80 22:23 18.11.2019
4142 Rain 19 1018 77 9000 1.5 70 21:55 18.11.2019
4143 Rain 19 1018 77 9000 1.5 70 21:36 18.11.2019
4144 Rain 19 1018 77 9000 1.5 70 21:18 18.11.2019
4145 Clouds 20 1018 72 10000 2.1 100 20:42 18.11.2019
4146 Clouds 20 1018 72 10000 2.1 100 20:20 18.11.2019
4147 Clouds 20 1018 77 10000 1.5 80 19:58 18.11.2019
4148 Clouds 20 1018 77 10000 1.5 80 19:58 18.11.2019
4149 Clouds 20 1018 77 10000 1.5 80 19:39 18.11.2019
4150 Clouds 20 1018 77 10000 1.5 80 19:21 18.11.2019
4151 Clouds 20 1018 77 10000 1.5 110 18:57 18.11.2019
4152 Clouds 20 1018 77 10000 1.5 110 18:38 18.11.2019
4153 Clouds 20 1018 77 10000 1.5 110 18:19 18.11.2019
4154 Thunderstorm 21 1017 73 10000 2.1 70 17:59 18.11.2019
4155 Thunderstorm 21 1017 73 10000 2.1 70 17:38 18.11.2019
4156 Thunderstorm 21 1017 73 10000 2.1 70 17:19 18.11.2019
4157 Clouds 21 1016 73 10000 1.5 70 16:43 18.11.2019
4158 Clouds 21 1016 73 10000 1.5 70 16:25 18.11.2019
4159 Clouds 22 1016 64 10000 1.5 110 15:59 18.11.2019
4160 Clouds 22 1016 64 10000 1.5 110 15:41 18.11.2019
4161 Clouds 22 1016 64 10000 1.5 110 15:22 18.11.2019
4162 Clouds 24 1016 50 10000 2.1 160 14:59 18.11.2019
4163 Clouds 24 1016 50 10000 2.1 160 14:41 18.11.2019
4164 Clouds 24 1016 50 10000 2.1 160 14:22 18.11.2019
4165 Clouds 24 1015 44 10000 5.7 170 13:45 18.11.2019
4166 Clouds 24 1015 44 10000 5.7 170 13:27 18.11.2019
4167 Clouds 24 1015 44 10000 5.7 170 12:57 18.11.2019
4168 Clouds 24 1015 44 10000 5.7 170 12:37 18.11.2019
4169 Clouds 24 1015 44 10000 5.7 170 12:18 18.11.2019
4170 Clouds 23 1016 53 10000 4.1 170 11:43 18.11.2019
4171 Clouds 23 1016 53 10000 4.1 170 11:25 18.11.2019
4172 Clouds 22 1017 64 10000 3.1 170 10:45 18.11.2019
4173 Clouds 22 1017 64 10000 3.1 170 10:26 18.11.2019
4174 Clouds 21 1018 64 10000 4.1 170 09:59 18.11.2019
4175 Clouds 21 1018 64 10000 4.1 170 09:39 18.11.2019
4176 Clouds 21 1018 64 10000 4.1 170 09:21 18.11.2019
4177 Clouds 19 1018 72 10000 3.6 160 08:58 18.11.2019
4178 Clouds 19 1018 72 10000 3.6 160 08:40 18.11.2019
4179 Clouds 19 1018 72 10000 3.6 160 08:19 18.11.2019
4180 Clouds 18 1018 82 10000 2.1 150 07:45 18.11.2019
4181 Clouds 18 1018 82 10000 2.1 150 07:26 18.11.2019
4182 Clouds 17 1018 82 10000 2.1 150 06:49 18.11.2019
4183 Clouds 17 1018 82 10000 2.1 150 06:28 18.11.2019
4184 Clouds 16 1017 87 10000 3.1 150 05:46 18.11.2019
4185 Rain 16 1017 87 5000 4.1 140 04:35 18.11.2019
4186 Clouds 16 1017 93 10000 1 90 01:49 18.11.2019
4187 Clouds 16 1017 93 10000 1 90 01:30 18.11.2019
4188 Rain 17 1017 88 5000 2.6 340 00:21 18.11.2019
4189 Clouds 19 1016 68 10000 1 10 23:41 17.11.2019
4190 Clouds 19 1016 68 10000 1 10 23:23 17.11.2019
4191 Clouds 19 1016 63 10000 4.6 140 22:58 17.11.2019
4192 Clouds 19 1016 63 10000 4.6 140 22:39 17.11.2019
4193 Clouds 19 1016 63 10000 4.6 140 22:21 17.11.2019
4194 Clouds 19 1016 59 10000 3.1 100 21:57 17.11.2019
4195 Clouds 19 1016 59 10000 3.1 100 21:39 17.11.2019
4196 Clouds 19 1016 59 10000 3.1 100 21:18 17.11.2019
4197 Clouds 19 1017 63 10000 4.6 300 20:55 17.11.2019
4198 Clouds 19 1017 63 10000 4.6 300 20:55 17.11.2019
4199 Clouds 19 1017 63 10000 4.6 300 20:37 17.11.2019
4200 Clouds 19 1017 63 10000 4.6 300 20:19 17.11.2019
4201 Clouds 19 1017 68 10000 2.98 122 19:55 17.11.2019
4202 Clouds 19 1017 68 10000 2.98 122 19:37 17.11.2019
4203 Clouds 19 1017 68 10000 2.98 122 19:19 17.11.2019
4204 Clouds 19 1017 63 10000 3.1 120 18:54 17.11.2019
4205 Clouds 19 1017 63 10000 3.1 120 18:36 17.11.2019
4206 Clouds 19 1017 63 10000 3.1 120 18:36 17.11.2019
4207 Clouds 19 1017 63 10000 3.1 120 18:18 17.11.2019
4208 Clouds 19 1017 59 10000 2.1 160 17:57 17.11.2019
4209 Clouds 19 1017 59 10000 2.1 160 17:38 17.11.2019
4210 Clouds 19 1017 59 10000 2.1 160 17:19 17.11.2019
4211 Clouds 19 1017 59 10000 2.1 160 17:19 17.11.2019
4212 Clouds 21 1017 40 10000 4.6 170 16:55 17.11.2019
4213 Clouds 21 1017 40 10000 4.6 170 16:37 17.11.2019
4214 Clouds 21 1017 40 10000 4.6 170 16:37 17.11.2019
4215 Clouds 21 1017 40 10000 4.6 170 16:19 17.11.2019
4216 Clouds 22 1016 33 8000 5.7 170 15:41 17.11.2019
4217 Clouds 22 1016 33 8000 5.7 170 15:41 17.11.2019
4218 Clouds 22 1016 33 8000 5.7 170 15:41 17.11.2019
4219 Clouds 22 1016 33 8000 5.7 170 15:19 17.11.2019
4220 Clouds 24 1015 27 8000 6.2 180 14:58 17.11.2019
4221 Clouds 24 1015 27 8000 6.2 180 14:58 17.11.2019
4222 Clouds 24 1015 27 8000 6.2 180 14:40 17.11.2019
4223 Clouds 24 1015 27 8000 6.2 180 14:21 17.11.2019
4224 Dust 25 1015 23 5000 5.7 180 13:59 17.11.2019
4225 Dust 25 1015 23 5000 5.7 180 13:40 17.11.2019
4226 Dust 25 1015 23 5000 5.7 180 13:20 17.11.2019
4227 Dust 25 1015 18 5000 3.6 170 12:45 17.11.2019
4228 Dust 25 1015 18 5000 3.6 170 12:25 17.11.2019
4229 Clouds 25 1016 16 10000 4.1 160 11:59 17.11.2019
4230 Clouds 25 1016 16 10000 4.1 160 11:41 17.11.2019
4231 Clouds 25 1016 16 10000 4.1 160 11:21 17.11.2019
4232 Clouds 25 1016 16 10000 4.1 160 11:21 17.11.2019
4233 Clouds 25 1016 17 10000 5.7 160 10:59 17.11.2019
4234 Clouds 25 1016 17 10000 5.7 160 10:40 17.11.2019
4235 Clouds 25 1016 17 10000 5.7 160 10:21 17.11.2019
4236 Clouds 25 1016 17 10000 5.7 160 10:21 17.11.2019
4237 Clouds 22 1017 30 10000 1.5 130 09:42 17.11.2019
4238 Clouds 22 1017 30 10000 1.5 130 09:24 17.11.2019
4239 Clouds 21 1018 37 10000 1 300 08:44 17.11.2019
4240 Clouds 21 1018 37 10000 1 300 08:26 17.11.2019
4241 Clouds 20 1018 34 10000 3.1 170 07:58 17.11.2019
4242 Clouds 20 1018 34 10000 3.1 170 07:58 17.11.2019
4243 Clouds 20 1018 34 10000 3.1 170 07:40 17.11.2019
4244 Clouds 20 1018 34 10000 3.1 170 07:20 17.11.2019
4245 Clouds 18 1017 48 10000 2.1 150 06:53 17.11.2019
4246 Clouds 18 1017 48 10000 2.1 150 06:29 17.11.2019
4247 Clouds 15 1016 54 10000 2.1 140 04:57 17.11.2019
4248 Clouds 15 1015 58 10000 1.5 140 04:00 17.11.2019
4249 Clouds 15 1015 58 10000 1.5 140 03:37 17.11.2019
4250 Clouds 15 1015 58 10000 1.5 140 03:19 17.11.2019
4251 Clouds 15 1015 58 10000 1.5 130 01:54 17.11.2019
4252 Clouds 16 1015 55 10000 1.5 140 00:59 17.11.2019
4253 Clouds 16 1015 55 10000 1.5 140 00:38 17.11.2019
4254 Clouds 16 1015 55 10000 1.5 140 00:19 17.11.2019
4255 Clouds 16 1015 55 10000 1.5 150 23:42 16.11.2019
4256 Clouds 16 1015 55 10000 1.5 150 23:42 16.11.2019
4257 Clouds 16 1015 55 10000 1.5 150 23:19 16.11.2019
4258 Clouds 16 1015 55 10000 1.5 150 23:19 16.11.2019
4259 Clouds 16 1015 55 10000 2.1 150 22:42 16.11.2019
4260 Clouds 16 1015 55 10000 2.1 150 22:20 16.11.2019
4261 Clouds 18 1016 45 10000 2.6 150 21:59 16.11.2019
4262 Clouds 18 1016 45 10000 2.6 150 21:40 16.11.2019
4263 Clouds 18 1016 45 10000 2.6 150 21:21 16.11.2019
4264 Clouds 18 1016 48 10000 2.1 150 20:58 16.11.2019
4265 Clouds 18 1016 48 10000 2.1 150 20:39 16.11.2019
4266 Clouds 18 1016 48 10000 2.1 150 20:19 16.11.2019
4267 Clouds 18 1016 48 10000 2.6 140 19:41 16.11.2019
4268 Clouds 18 1016 48 10000 2.6 140 19:22 16.11.2019
4269 Clouds 18 1016 52 10000 2.1 150 18:59 16.11.2019
4270 Clouds 18 1016 52 10000 2.1 150 18:39 16.11.2019
4271 Clouds 18 1016 52 10000 2.1 150 18:20 16.11.2019
4272 Clouds 19 1016 48 10000 2.6 130 17:55 16.11.2019
4273 Clouds 19 1016 48 10000 2.6 130 17:36 16.11.2019
4274 Clouds 19 1016 48 10000 2.6 130 17:18 16.11.2019
4275 Clouds 21 1015 40 10000 2.1 130 16:44 16.11.2019
4276 Clouds 21 1015 40 10000 2.1 130 16:26 16.11.2019
4277 Clouds 22 1015 35 9000 4.1 160 15:54 16.11.2019
4278 Clouds 22 1015 35 9000 4.1 160 15:36 16.11.2019
4279 Clouds 22 1015 35 9000 4.1 160 15:18 16.11.2019
4280 Clouds 23 1014 31 9000 4.6 160 14:40 16.11.2019
4281 Clouds 23 1014 31 9000 4.6 160 14:40 16.11.2019
4282 Clouds 23 1014 31 9000 4.6 160 14:21 16.11.2019
4283 Clouds 23 1014 31 9000 6.2 170 13:57 16.11.2019
4284 Clouds 23 1014 31 9000 6.2 170 13:38 16.11.2019
4285 Clouds 23 1014 31 9000 6.2 170 13:19 16.11.2019
4286 Clouds 23 1015 31 9000 6.2 160 12:58 16.11.2019
4287 Clouds 23 1015 31 9000 6.2 160 12:40 16.11.2019
4288 Clouds 23 1015 31 9000 6.2 160 12:20 16.11.2019
4289 Clouds 22 1015 37 9000 5.1 180 11:45 16.11.2019
4290 Clouds 22 1015 37 9000 5.1 180 11:26 16.11.2019
4291 Clouds 21 1016 43 7000 4.1 160 10:57 16.11.2019
4292 Clouds 21 1016 43 7000 4.1 160 10:39 16.11.2019
4293 Clouds 21 1016 43 7000 4.1 160 10:21 16.11.2019
4294 Clouds 19 1017 52 8000 6.2 170 09:43 16.11.2019
4295 Clouds 19 1017 52 8000 6.2 170 09:21 16.11.2019
4296 Clouds 19 1017 55 8000 4.6 170 08:58 16.11.2019
4297 Clouds 19 1017 55 8000 4.6 170 08:38 16.11.2019
4298 Clouds 19 1017 55 8000 4.6 170 08:19 16.11.2019
4299 Clouds 19 1018 52 8000 3.1 150 07:42 16.11.2019
4300 Clouds 19 1018 52 8000 3.1 150 07:20 16.11.2019
4301 Clouds 18 1018 59 8000 2.1 140 06:51 16.11.2019
4302 Clouds 18 1018 59 8000 2.1 140 06:33 16.11.2019
4303 Clouds 18 1017 59 8000 1.5 120 05:30 16.11.2019
4304 Clouds 17 1016 67 10000 1 60 03:44 16.11.2019
4305 Clouds 17 1016 67 10000 1 60 03:25 16.11.2019
4306 Clouds 17 1016 63 10000 1 150 01:47 16.11.2019
4307 Clouds 17 1016 63 10000 1 150 01:20 16.11.2019
4308 Clouds 17 1016 59 10000 2.1 160 00:44 16.11.2019
4309 Clouds 17 1016 59 10000 2.1 160 00:25 16.11.2019
4310 Clouds 17 1016 63 10000 1.5 150 23:40 15.11.2019
4311 Clouds 17 1016 63 10000 1.5 150 23:21 15.11.2019
4312 -273 0 0 0 0 0 22:55 15.11.2019
4313 Clouds 18 1016 59 10000 2.1 130 22:37 15.11.2019
4314 Clouds 18 1016 59 10000 2.1 130 22:18 15.11.2019
4315 Clouds 18 1017 63 10000 3.76 118 21:42 15.11.2019
4316 Clouds 18 1017 63 10000 3.76 118 21:21 15.11.2019
4317 Clouds 17 1017 67 10000 3.76 118 20:59 15.11.2019
4318 Clouds 17 1017 67 10000 3.76 118 20:40 15.11.2019
4319 Clouds 17 1017 67 10000 3.8 94 20:22 15.11.2019
4320 Clouds 18 1017 63 10000 3.8 94 19:59 15.11.2019
4321 Clouds 18 1017 63 10000 3.8 94 19:40 15.11.2019
4322 Clouds 18 1017 63 10000 3.8 94 19:21 15.11.2019
4323 Clouds 19 1018 63 10000 3.8 94 18:58 15.11.2019
4324 Clouds 19 1018 63 10000 3.8 94 18:40 15.11.2019
4325 Clouds 19 1018 63 10000 3.8 94 18:21 15.11.2019
4326 Clouds 19 1017 63 10000 3.8 94 17:43 15.11.2019
4327 Clouds 19 1017 63 10000 2.66 80 17:25 15.11.2019
4328 Clouds 19 1017 63 10000 2.66 80 17:25 15.11.2019
4329 Clouds 19 1017 63 10000 2.1 50 16:58 15.11.2019
4330 Clouds 19 1017 63 10000 2.1 50 16:58 15.11.2019
4331 Clouds 19 1017 63 10000 2.1 50 16:39 15.11.2019
4332 Clouds 19 1017 63 10000 2.1 50 16:20 15.11.2019
4333 Clouds 20 1017 60 10000 2.1 90 15:39 15.11.2019
4334 Clouds 20 1017 60 10000 2.1 90 15:21 15.11.2019
4335 Clouds 20 1017 60 10000 2.6 70 14:58 15.11.2019
4336 Clouds 20 1017 60 10000 2.6 70 14:40 15.11.2019
4337 Clouds 20 1017 60 10000 2.6 70 14:21 15.11.2019
4338 Clouds 19 1017 63 10000 3.1 40 13:59 15.11.2019
4339 Clouds 19 1017 63 10000 3.1 40 13:59 15.11.2019
4340 Clouds 19 1017 63 10000 3.1 40 13:40 15.11.2019
4341 Clouds 19 1017 63 10000 3.1 40 13:21 15.11.2019
4342 Drizzle 20 1018 52 10000 5.7 20 12:59 15.11.2019
4343 Drizzle 20 1018 52 10000 5.7 20 12:40 15.11.2019
4344 Drizzle 20 1018 52 10000 5.7 20 12:21 15.11.2019
4345 Clouds 21 1018 40 10000 5.1 350 11:59 15.11.2019
4346 Clouds 21 1018 40 10000 5.1 350 11:39 15.11.2019
4347 Clouds 21 1018 40 10000 5.1 350 11:21 15.11.2019
4348 Clouds 23 1019 40 10000 3.1 340 10:57 15.11.2019
4349 Clouds 23 1019 40 10000 3.1 340 10:39 15.11.2019
4350 Clouds 23 1019 40 10000 3.1 340 10:19 15.11.2019
4351 Clouds 23 1020 40 10000 1.5 270 09:41 15.11.2019
4352 Clouds 23 1020 40 10000 1.5 270 09:20 15.11.2019
4353 Clouds 24 1021 33 10000 3.6 210 08:45 15.11.2019
4354 Clouds 24 1021 33 10000 3.6 210 08:25 15.11.2019
4355 Clouds 22 1021 37 10000 2.6 160 07:49 15.11.2019
4356 Clouds 22 1021 37 10000 2.6 160 07:29 15.11.2019
4357 Clouds 20 1020 45 10000 1 130 06:59 15.11.2019
4358 Clouds 20 1020 45 10000 1 130 06:34 15.11.2019
4359 Clouds 19 1020 42 10000 2.1 170 05:50 15.11.2019
4360 Clouds 19 1020 42 10000 2.1 170 05:28 15.11.2019
4361 Clouds 17 1019 55 10000 2.1 160 04:40 15.11.2019
4362 Clouds 17 1018 55 10000 1.5 140 03:32 15.11.2019
4363 Clear 18 1018 48 10000 2.1 160 02:23 15.11.2019
4364 Clear 18 1018 48 10000 2.6 140 01:46 15.11.2019
4365 Clear 18 1018 48 10000 2.6 140 01:24 15.11.2019
4366 Clear 19 1018 45 10000 2.6 140 00:35 15.11.2019
4367 Clear 19 1019 48 10000 2.1 150 23:57 14.11.2019
4368 Clear 19 1019 48 10000 2.1 150 23:38 14.11.2019
4369 Clear 19 1019 48 10000 2.1 150 23:19 14.11.2019
4370 Clear 19 1019 52 10000 1 150 22:40 14.11.2019
4371 Clear 19 1019 52 10000 1 150 22:21 14.11.2019
4372 Clear 20 1019 49 10000 2.1 130 21:57 14.11.2019
4373 Clear 20 1019 49 10000 2.1 130 21:39 14.11.2019
4374 Clear 20 1019 49 10000 2.1 130 21:21 14.11.2019
4375 Clear 20 1019 45 10000 1.5 140 20:42 14.11.2019
4376 Clear 20 1019 45 10000 1.5 140 20:24 14.11.2019
4377 Clear 21 1019 46 10000 1.5 100 19:59 14.11.2019
4378 Clear 21 1019 46 10000 1.5 100 19:59 14.11.2019
4379 Clear 21 1019 46 10000 1.5 100 19:41 14.11.2019
4380 Clear 21 1019 46 10000 1.5 100 19:19 14.11.2019
4381 Clear 22 1019 43 10000 1 120 18:57 14.11.2019
4382 Clear 21 1018 34 0 2.95 130 18:38 14.11.2019
4383 Clear 22 1019 46 10000 1 120 18:20 14.11.2019
4384 Clear 22 1019 46 10000 1 120 17:56 14.11.2019
4385 Clear 22 1019 46 10000 1 120 17:37 14.11.2019
4386 Clear 22 1019 46 10000 1 120 17:19 14.11.2019
4387 Clear 24 1018 38 10000 1.5 80 16:57 14.11.2019
4388 Clear 24 1018 38 10000 1.5 80 16:36 14.11.2019
4389 Clear 24 1018 38 10000 1.5 80 16:18 14.11.2019
4390 Clear 25 1018 41 10000 1 90 15:56 14.11.2019
4391 Clear 25 1018 41 10000 1 90 15:38 14.11.2019
4392 Clear 25 1018 41 10000 1 90 15:19 14.11.2019
4393 Clear 26 1018 39 10000 1.5 160 14:44 14.11.2019
4394 Clear 26 1018 39 10000 1.5 160 14:22 14.11.2019
4395 Clear 26 1018 36 10000 1.5 240 13:57 14.11.2019
4396 Clear 26 1018 36 10000 1.5 240 13:38 14.11.2019
4397 Clear 26 1018 36 10000 1.5 240 13:19 14.11.2019
4398 Clear 27 1018 34 10000 1.5 170 12:55 14.11.2019
4399 Clear 27 1018 34 10000 1.5 170 12:36 14.11.2019
4400 Clear 27 1018 34 10000 1.5 170 12:18 14.11.2019
4401 Clear 26 1019 31 10000 3.1 210 11:39 14.11.2019
4402 Clear 26 1019 31 10000 3.1 210 11:20 14.11.2019
4403 Clear 26 1019 31 10000 3.1 210 11:20 14.11.2019
4404 Clear 26 1019 31 10000 3.1 210 11:20 14.11.2019
4405 Clear 25 1020 27 10000 2.6 180 10:58 14.11.2019
4406 Clear 25 1020 27 10000 2.6 180 10:40 14.11.2019
4407 Clear 25 1020 27 10000 2.6 180 10:20 14.11.2019
4408 Clear 25 1021 25 10000 3.1 170 09:56 14.11.2019
4409 Clear 24 1018 28 0 1.86 145 09:38 14.11.2019
4410 Clear 23 1022 28 10000 3.6 170 09:19 14.11.2019
4411 Clear 23 1022 28 10000 3.6 170 08:47 14.11.2019
4412 Clear 23 1022 28 10000 3.6 170 08:25 14.11.2019
4413 Clear 21 1022 37 10000 3.1 130 07:56 14.11.2019
4414 Clear 21 1022 37 10000 3.1 130 07:37 14.11.2019
4415 Clear 21 1022 37 10000 3.1 130 07:19 14.11.2019
4416 Clear 19 1021 59 10000 1 120 06:41 14.11.2019
4417 Clear 19 1021 59 10000 1 120 06:18 14.11.2019
4418 Clouds 15 1020 87 7000 1.92 81 04:41 14.11.2019
4419 Clouds 16 1019 87 10000 1.92 81 04:19 14.11.2019
4420 Clouds 17 1019 82 10000 1.92 81 02:45 14.11.2019
4421 Clouds 17 1019 82 10000 1 30 01:44 14.11.2019
4422 Clouds 17 1019 82 10000 1 30 01:26 14.11.2019
4423 Clouds 18 1019 77 10000 1.29 87 00:49 14.11.2019
4424 Clouds 18 1019 77 10000 1.29 87 00:29 14.11.2019
4425 Clouds 17 1020 82 10000 1.29 87 23:41 13.11.2019
4426 Clouds 17 1020 82 10000 1.72 117 23:21 13.11.2019
4427 Clouds 18 1020 72 10000 2.1 50 22:56 13.11.2019
4428 Clouds 18 1020 72 10000 2.1 50 22:38 13.11.2019
4429 Clouds 18 1020 72 10000 2.1 50 22:38 13.11.2019
4430 Clouds 18 1020 72 10000 2.1 50 22:20 13.11.2019
4431 Clouds 18 1020 77 10000 1.72 117 21:55 13.11.2019
4432 Clouds 18 1020 77 10000 1.72 117 21:55 13.11.2019
4433 Clouds 18 1020 77 10000 1.72 117 21:37 13.11.2019
4434 Clouds 18 1020 77 10000 1.72 117 21:19 13.11.2019
4435 Drizzle 18 1020 77 10000 1.5 250 20:56 13.11.2019
4436 Drizzle 18 1020 77 10000 1.5 250 20:37 13.11.2019
4437 Drizzle 18 1020 77 10000 1.5 250 20:37 13.11.2019
4438 Drizzle 18 1020 77 10000 1.5 250 20:19 13.11.2019
4439 Drizzle 18 1021 72 10000 2.1 290 19:44 13.11.2019
4440 Drizzle 18 1021 72 10000 2.1 290 19:21 13.11.2019
4441 Drizzle 20 1020 60 10000 2.34 182 18:58 13.11.2019
4442 Drizzle 20 1020 60 10000 2.34 182 18:39 13.11.2019
4443 Drizzle 20 1020 60 10000 2.34 182 18:21 13.11.2019
4444 Clouds 21 1020 46 10000 2.6 320 17:59 13.11.2019
4445 Clouds 21 1020 46 10000 2.6 320 17:40 13.11.2019
4446 Clouds 21 1020 46 10000 2.6 320 17:22 13.11.2019
4447 Clouds 21 1019 46 10000 1 60 16:59 13.11.2019
4448 Clouds 21 1019 46 10000 1 60 16:59 13.11.2019
4449 Clouds 21 1019 46 10000 1 60 16:59 13.11.2019
4450 Clouds 21 1019 46 10000 1 60 16:40 13.11.2019
4451 Clouds 21 1019 46 10000 1 60 16:40 13.11.2019
4452 Clouds 21 1019 46 10000 1 60 16:21 13.11.2019
4453 Clouds 21 1019 43 10000 1.5 80 15:58 13.11.2019
4454 Clouds 21 1019 43 10000 1.5 80 15:40 13.11.2019
4455 Clouds 21 1019 43 10000 1.5 80 15:21 13.11.2019
4456 Clouds 22 1019 33 10000 2.6 70 14:43 13.11.2019
4457 Clouds 22 1019 33 10000 2.6 70 14:23 13.11.2019
4458 Rain 22 1019 30 10000 3.1 40 13:59 13.11.2019
4459 Rain 22 1019 30 10000 3.1 40 13:37 13.11.2019
4460 Rain 22 1019 30 10000 3.1 40 13:19 13.11.2019
4461 Rain 23 1019 28 10000 2.1 80 12:57 13.11.2019
4462 Rain 23 1019 28 10000 2.1 80 12:38 13.11.2019
4463 Rain 23 1019 28 10000 2.1 80 12:19 13.11.2019
4464 Clouds 24 1019 23 10000 1.5 130 11:41 13.11.2019
4465 Clouds 24 1019 23 10000 1.5 130 11:21 13.11.2019
4466 Clouds 24 1020 31 10000 1.5 110 10:59 13.11.2019
4467 Clouds 24 1020 31 10000 1.5 110 10:41 13.11.2019
4468 Clouds 24 1020 31 10000 1.5 110 10:41 13.11.2019
4469 Clouds 24 1020 31 10000 1.5 110 10:20 13.11.2019
4470 Clouds 24 1020 27 9000 2.1 140 09:57 13.11.2019
4471 Clouds 24 1020 27 9000 2.1 140 09:39 13.11.2019
4472 Clouds 24 1020 27 9000 2.1 140 09:20 13.11.2019
4473 Clouds 22 1021 35 8000 1.5 130 08:39 13.11.2019
4474 Clouds 22 1021 35 8000 1.5 130 08:21 13.11.2019
4475 Clouds 21 1021 43 8000 3.55 135 07:43 13.11.2019
4476 Clouds 21 1021 43 8000 3.55 135 07:21 13.11.2019
4477 Clouds 18 1021 52 7000 1 230 06:47 13.11.2019
4478 Clouds 18 1021 52 7000 1 230 06:19 13.11.2019
4479 Clouds 18 1021 52 7000 1 230 06:19 13.11.2019
4480 Clouds 18 1021 52 7000 1 230 06:19 13.11.2019
4481 Clouds 16 1020 55 8000 3.55 135 05:57 13.11.2019
4482 Clouds 16 1020 55 8000 3.55 135 05:38 13.11.2019
4483 Clouds 15 1020 54 10000 1 290 04:44 13.11.2019
4484 Clouds 15 1019 62 10000 2.07 120 03:23 13.11.2019
4485 Clear 16 1019 59 10000 1.86 104 01:46 13.11.2019
4486 Clear 16 1019 59 10000 1.83 118 01:18 13.11.2019
4487 Clear 17 1019 55 10000 1.83 118 00:37 13.11.2019
4488 Clear 17 1019 51 10000 1.83 118 23:54 12.11.2019
4489 Clear 17 1019 51 10000 1.83 118 23:36 12.11.2019
4490 Clear 17 1019 51 10000 2.4 119 23:18 12.11.2019
4491 Clear 18 1019 52 10000 2.4 119 22:40 12.11.2019
4492 Clear 18 1019 52 10000 2.4 119 22:18 12.11.2019
4493 Clear 18 1020 55 10000 2.4 119 21:45 12.11.2019
4494 Clear 18 1020 55 10000 2.4 119 21:26 12.11.2019
4495 Clear 19 1020 52 10000 2.4 119 20:59 12.11.2019
4496 Clear 19 1020 52 10000 2.02 98 20:38 12.11.2019
4497 Clouds 19 1020 52 10000 3.74 64 20:19 12.11.2019
4498 Clouds 21 1020 46 10000 3.74 64 19:58 12.11.2019
4499 Clouds 21 1020 46 10000 3.74 64 19:40 12.11.2019
4500 Clouds 21 1020 46 10000 3.74 64 19:20 12.11.2019
4501 Clouds 22 1020 40 10000 1 100 18:59 12.11.2019
4502 Clouds 22 1020 40 10000 1 100 18:41 12.11.2019
4503 Clouds 22 1020 40 10000 1 100 18:23 12.11.2019
4504 Clouds 23 1019 38 10000 1 70 17:58 12.11.2019
4505 Clouds 23 1019 38 10000 1 70 17:40 12.11.2019
4506 Clouds 23 1019 38 10000 1 70 17:21 12.11.2019
4507 Clouds 23 1019 31 10000 3.1 70 16:59 12.11.2019
4508 Clouds 23 1019 31 10000 3.1 70 16:39 12.11.2019
4509 Clouds 23 1019 31 10000 3.1 70 16:21 12.11.2019
4510 Clouds 24 1018 27 10000 4.6 60 15:42 12.11.2019
4511 Clouds 24 1018 27 10000 4.6 60 15:42 12.11.2019
4512 Clouds 24 1018 27 10000 4.6 60 15:22 12.11.2019
4513 Clouds 25 1018 27 10000 2.1 60 14:57 12.11.2019
4514 Clouds 25 1018 27 10000 2.1 60 14:38 12.11.2019
4515 Clouds 25 1018 27 10000 2.1 60 14:19 12.11.2019
4516 Clouds 26 1018 34 10000 1 70 13:57 12.11.2019
4517 Clouds 26 1018 34 10000 1 70 13:38 12.11.2019
4518 Clouds 26 1018 34 10000 1 70 13:19 12.11.2019
4519 Clouds 26 1018 29 10000 2.6 90 12:43 12.11.2019
4520 Clouds 26 1018 29 10000 2.6 90 12:20 12.11.2019
4521 Clouds 27 1019 32 10000 4.1 80 11:59 12.11.2019
4522 Clouds 27 1019 32 10000 4.1 80 11:41 12.11.2019
4523 Clouds 27 1019 32 10000 4.1 80 11:22 12.11.2019
4524 Clouds 25 1019 36 10000 2.1 120 10:56 12.11.2019
4525 Clouds 25 1019 36 10000 2.1 120 10:38 12.11.2019
4526 Clouds 25 1019 36 10000 2.1 120 10:19 12.11.2019
4527 Clouds 25 1020 47 10000 1.5 170 09:42 12.11.2019
4528 Clouds 25 1020 47 10000 1.5 170 09:23 12.11.2019
4529 Clear 24 1021 50 9000 3.1 140 08:57 12.11.2019
4530 Clear 25 1017 27 0 3.23 103 08:39 12.11.2019
4531 Clouds 22 1021 53 8000 3.1 140 08:19 12.11.2019
4532 Clouds 22 1021 53 8000 3.1 140 07:40 12.11.2019
4533 Clouds 22 1021 53 8000 3.1 140 07:40 12.11.2019
4534 Clouds 22 1021 53 8000 3.1 140 07:22 12.11.2019
4535 Clouds 19 1020 68 8000 1 170 06:45 12.11.2019
4536 Clouds 19 1020 68 8000 1 170 06:23 12.11.2019
4537 Clouds 16 1020 77 8000 3.28 117 05:46 12.11.2019
4538 Clouds 16 1019 77 10000 2.24 108 04:50 12.11.2019
4539 Clouds 16 1019 77 10000 2.24 108 04:50 12.11.2019
4540 Clouds 17 1018 72 10000 2.24 108 03:48 12.11.2019
4541 Clear 18 1018 63 10000 1 150 01:47 12.11.2019
4542 Clouds 18 1018 63 10000 1 150 01:22 12.11.2019
4543 Clouds 18 1018 63 10000 1 150 00:47 12.11.2019
4544 Clouds 18 1018 63 10000 1 150 00:29 12.11.2019
4545 Clouds 19 1018 55 10000 1 40 23:45 11.11.2019
4546 Clouds 19 1018 55 10000 1 40 23:23 11.11.2019
4547 Clouds 18 1018 63 10000 2.35 94 22:58 11.11.2019
4548 Clouds 18 1018 63 10000 2.35 94 22:36 11.11.2019
4549 Clouds 18 1018 63 10000 2.35 94 22:18 11.11.2019
4550 Clouds 19 1019 59 10000 2.35 94 21:57 11.11.2019
4551 Clouds 19 1019 59 10000 2.35 94 21:38 11.11.2019
4552 Clouds 19 1019 59 10000 2.35 94 21:19 11.11.2019
4553 Clouds 20 1019 52 10000 2.1 70 20:42 11.11.2019
4554 Rain 20 1019 52 10000 2.1 70 20:20 11.11.2019
4555 Clouds 21 1019 56 10000 3.21 86 19:58 11.11.2019
4556 Clouds 21 1019 56 10000 3.21 86 19:40 11.11.2019
4557 Clouds 21 1019 56 10000 3.21 86 19:18 11.11.2019
4558 Clouds 21 1019 52 10000 1.5 80 18:55 11.11.2019
4559 Clouds 21 1019 52 10000 1.5 80 18:37 11.11.2019
4560 Clouds 21 1019 52 10000 1.5 80 18:19 11.11.2019
4561 Clouds 22 1019 53 10000 1.5 80 17:42 11.11.2019
4562 Clouds 22 1019 53 10000 1.5 80 17:24 11.11.2019
4563 Rain 22 1018 49 10000 2.1 50 16:42 11.11.2019
4564 Rain 22 1018 49 10000 2.1 50 16:22 11.11.2019
4565 Clouds 22 1018 49 10000 4.1 60 15:58 11.11.2019
4566 Clouds 22 1018 49 10000 4.1 60 15:40 11.11.2019
4567 Clouds 22 1018 49 10000 4.1 60 15:19 11.11.2019
4568 Clouds 24 1018 41 10000 4.1 60 14:44 11.11.2019
4569 Clouds 24 1018 41 10000 4.1 60 14:25 11.11.2019
4570 Clouds 24 1018 41 9000 6.7 50 13:58 11.11.2019
4571 Clouds 24 1018 41 9000 6.7 50 13:38 11.11.2019
4572 Clouds 24 1018 41 9000 6.7 50 13:19 11.11.2019
4573 Clouds 24 1018 41 9000 6.7 50 13:19 11.11.2019
4574 Clouds 25 1018 33 9000 4.6 80 12:57 11.11.2019
4575 Clouds 25 1018 33 9000 4.6 80 12:39 11.11.2019
4576 Clouds 25 1018 33 9000 4.6 80 12:39 11.11.2019
4577 Clouds 25 1018 33 9000 4.6 80 12:21 11.11.2019
4578 Clouds 24 1019 41 6000 6.7 50 11:42 11.11.2019
4579 Clouds 24 1019 41 6000 6.7 50 11:22 11.11.2019
4580 Clouds 25 1020 31 6000 6.2 70 10:57 11.11.2019
4581 Clouds 25 1020 31 6000 6.2 70 10:38 11.11.2019
4582 Clouds 25 1020 31 6000 6.2 70 10:18 11.11.2019
4583 Clouds 24 1020 38 7000 5.7 80 09:43 11.11.2019
4584 Clouds 24 1020 38 7000 5.7 80 09:43 11.11.2019
4585 Clouds 24 1020 38 7000 5.7 80 09:21 11.11.2019
4586 Clouds 25 1021 36 8000 5.1 80 08:59 11.11.2019
4587 Clouds 25 1021 36 8000 5.1 80 08:37 11.11.2019
4588 Clouds 25 1021 36 8000 5.1 80 08:18 11.11.2019
4589 Clouds 23 1021 46 7000 3.6 80 07:54 11.11.2019
4590 Clouds 23 1021 46 7000 3.6 80 07:36 11.11.2019
4591 Clouds 23 1021 46 7000 3.6 80 07:18 11.11.2019
4592 Clouds 23 1020 60 7000 1.5 130 06:40 11.11.2019
4593 Clouds 23 1020 60 7000 1.5 130 06:20 11.11.2019
4594 Clouds 21 1019 60 7000 1 150 05:49 11.11.2019
4595 Haze 22 1018 53 5000 1.5 110 03:56 11.11.2019
4596 Haze 22 1018 64 5000 1.5 130 02:55 11.11.2019
4597 Haze 22 1018 64 5000 1.5 130 02:18 11.11.2019
4598 Haze 22 1018 60 5000 2.6 130 01:37 11.11.2019
4599 Haze 23 1018 56 5000 2.1 140 00:58 11.11.2019
4600 Haze 23 1018 56 5000 2.1 140 00:40 11.11.2019
4601 Dust 23 1018 56 5000 2.6 150 23:58 10.11.2019
4602 Dust 23 1018 56 5000 2.6 150 23:38 10.11.2019
4603 Dust 23 1018 56 5000 2.6 150 23:19 10.11.2019
4604 Dust 23 1018 56 5000 4.6 140 22:56 10.11.2019
4605 Dust 23 1018 56 5000 4.6 140 22:38 10.11.2019
4606 Dust 23 1018 56 5000 4.6 140 22:19 10.11.2019
4607 Dust 24 1018 50 5000 5.1 120 21:55 10.11.2019
4608 Dust 24 1018 50 5000 5.1 120 21:37 10.11.2019
4609 Dust 24 1018 50 5000 5.1 120 21:19 10.11.2019
4610 Dust 25 1018 44 5000 5.1 80 20:41 10.11.2019
4611 Dust 25 1018 44 5000 5.1 80 20:22 10.11.2019
4612 Dust 25 1018 44 5000 5.1 90 19:56 10.11.2019
4613 Dust 25 1018 44 5000 5.1 90 19:56 10.11.2019
4614 Dust 25 1018 44 5000 5.1 90 19:38 10.11.2019
4615 Dust 25 1018 44 5000 5.1 90 19:19 10.11.2019
4616 Clouds 27 1018 39 6000 5.7 90 18:58 10.11.2019
4617 Clouds 27 1018 39 6000 5.7 90 18:39 10.11.2019
4618 Clouds 27 1018 39 6000 5.7 90 18:19 10.11.2019
4619 Clouds 27 1017 34 8000 3.6 90 17:56 10.11.2019
4620 Clouds 27 1017 34 8000 3.6 90 17:38 10.11.2019
4621 Clouds 27 1017 34 8000 3.6 90 17:38 10.11.2019
4622 Clouds 27 1017 34 8000 3.6 90 17:20 10.11.2019
4623 Clouds 28 1017 28 8000 3.6 90 16:58 10.11.2019
4624 Clouds 28 1017 28 8000 3.6 90 16:39 10.11.2019
4625 Clouds 28 1017 28 8000 3.6 90 16:39 10.11.2019
4626 Clouds 28 1017 28 8000 3.6 90 16:20 10.11.2019
4627 Clouds 29 1016 26 9000 2.6 110 15:55 10.11.2019
4628 Clouds 29 1016 26 9000 2.6 110 15:36 10.11.2019
4629 Clouds 29 1016 26 9000 2.6 110 15:18 10.11.2019
4630 Clouds 30 1016 25 9000 3.6 110 14:41 10.11.2019
4631 Clouds 30 1016 25 9000 3.6 110 14:23 10.11.2019
4632 Clouds 30 1016 25 9000 3.1 130 13:58 10.11.2019
4633 Clouds 30 1016 25 9000 3.1 130 13:40 10.11.2019
4634 Clouds 30 1016 25 9000 3.1 130 13:20 10.11.2019
4635 Clouds 31 1016 25 9000 3.6 110 12:44 10.11.2019
4636 Clouds 31 1016 25 9000 3.6 110 12:21 10.11.2019
4637 Clouds 30 1016 25 9000 3.1 130 11:57 10.11.2019
4638 Clouds 30 1016 25 9000 3.1 130 11:57 10.11.2019
4639 Clouds 30 1016 25 9000 3.1 130 11:39 10.11.2019
4640 Clouds 30 1016 25 9000 3.1 130 11:20 10.11.2019
4641 Clouds 29 1017 30 9000 2.1 100 10:59 10.11.2019
4642 Clouds 29 1017 30 9000 2.1 100 10:40 10.11.2019
4643 Clouds 29 1017 30 9000 2.1 100 10:20 10.11.2019
4644 Clouds 28 1018 34 8000 2.1 130 09:43 10.11.2019
4645 Clouds 28 1018 34 8000 2.1 130 09:43 10.11.2019
4646 Clouds 28 1018 34 8000 2.1 130 09:23 10.11.2019
4647 Clouds 26 1019 39 8000 2.6 120 08:43 10.11.2019
4648 Clouds 26 1019 39 8000 2.6 120 08:21 10.11.2019
4649 Clouds 23 1019 43 10000 3.1 100 07:58 10.11.2019
4650 Clouds 23 1019 43 10000 3.1 100 07:40 10.11.2019
4651 Clouds 23 1019 43 10000 3.1 100 07:21 10.11.2019
4652 Clouds 21 1018 43 9000 2.1 70 06:26 10.11.2019
4653 Clouds 18 1017 55 10000 2.11 102 04:46 10.11.2019
4654 Clouds 18 1016 59 10000 2.11 102 03:19 10.11.2019
4655 Clouds 21 1016 46 10000 1 140 01:44 10.11.2019
4656 Clouds 21 1016 46 10000 1 140 01:19 10.11.2019
4657 Clouds 22 1016 46 10000 1 130 00:39 10.11.2019
4658 Clouds 23 1016 40 10000 2.6 140 23:43 09.11.2019
4659 Clouds 23 1016 40 10000 2.6 140 23:21 09.11.2019
4660 Clouds 24 1016 36 10000 2.6 140 22:59 09.11.2019
4661 Clouds 24 1016 36 10000 2.6 140 22:40 09.11.2019
4662 Clouds 24 1016 36 10000 2.6 140 22:19 09.11.2019
4663 Clouds 25 1017 36 10000 2.6 120 21:55 09.11.2019
4664 Clouds 25 1017 36 10000 2.6 120 21:37 09.11.2019
4665 Clouds 25 1017 36 10000 2.6 120 21:19 09.11.2019
4666 Clouds 26 1017 29 10000 5.1 110 20:41 09.11.2019
4667 Clouds 26 1017 29 10000 5.1 110 20:41 09.11.2019
4668 Clouds 26 1017 29 10000 5.1 110 20:22 09.11.2019
4669 Clouds 26 1017 26 10000 3.1 90 19:57 09.11.2019
4670 Clouds 26 1017 26 10000 3.1 90 19:37 09.11.2019
4671 Clouds 26 1017 26 10000 3.1 90 19:18 09.11.2019
4672 Clouds 27 1017 24 10000 3.1 90 18:40 09.11.2019
4673 Clouds 27 1017 24 10000 3.1 90 18:19 09.11.2019
4674 Clouds 27 1017 24 10000 3.1 90 18:19 09.11.2019
4675 Clouds 29 1016 20 10000 3.6 80 17:58 09.11.2019
4676 Clouds 29 1016 20 10000 3.6 80 17:40 09.11.2019
4677 Clouds 29 1016 20 10000 3.6 80 17:21 09.11.2019
4678 Clouds 30 1015 19 10000 2.1 120 16:42 09.11.2019
4679 Clouds 30 1015 19 10000 2.1 120 16:21 09.11.2019
4680 Clouds 31 1015 23 10000 2.1 120 15:57 09.11.2019
4681 Clouds 31 1015 23 10000 2.1 120 15:39 09.11.2019
4682 Clouds 31 1015 23 10000 2.1 120 15:20 09.11.2019
4683 Clouds 32 1015 14 10000 2.1 70 14:42 09.11.2019
4684 Clouds 32 1015 14 10000 2.1 70 14:22 09.11.2019
4685 Clouds 33 1015 13 10000 1.5 180 13:57 09.11.2019
4686 Clouds 33 1015 13 10000 1.5 180 13:37 09.11.2019
4687 Clouds 33 1015 13 10000 1.5 180 13:19 09.11.2019
4688 Clouds 33 1015 18 10000 2.6 160 12:50 09.11.2019
4689 Clouds 33 1015 18 10000 2.6 160 12:29 09.11.2019
4690 Clouds 33 1015 17 10000 2.1 250 11:57 09.11.2019
4691 Clouds 33 1015 17 10000 2.1 250 11:39 09.11.2019
4692 Clouds 33 1015 17 10000 2.1 250 11:19 09.11.2019
4693 Clouds 33 1016 17 10000 2.6 180 10:42 09.11.2019
4694 Clouds 33 1016 17 10000 2.6 180 10:20 09.11.2019
4695 Clouds 32 1017 18 10000 2.6 210 09:59 09.11.2019
4696 Clouds 32 1017 18 10000 2.6 210 09:59 09.11.2019
4697 Clouds 32 1017 18 10000 2.6 210 09:59 09.11.2019
4698 Clouds 32 1017 18 10000 2.6 210 09:40 09.11.2019
4699 Clouds 32 1017 18 10000 2.6 210 09:19 09.11.2019
4700 Clouds 30 1018 22 10000 2.1 180 08:43 09.11.2019
4701 Clear 30 1018 22 10000 2.1 180 08:24 09.11.2019
4702 Clear 28 1018 28 9000 1.5 160 07:49 09.11.2019
4703 Clear 28 1018 28 9000 1.5 160 07:25 09.11.2019
4704 Clear 23 1018 35 8000 1.5 130 06:57 09.11.2019
4705 Clear 23 1018 35 8000 1.5 130 06:39 09.11.2019
4706 Clear 23 1018 35 8000 1.5 130 06:20 09.11.2019
4707 Clear 21 1017 40 10000 1.5 150 05:38 09.11.2019
4708 Clear 20 1016 42 10000 1.58 218 03:57 09.11.2019
4709 Clear 21 1015 40 10000 1.58 218 02:46 09.11.2019
4710 Clouds 21 1015 40 10000 2.43 199 02:24 09.11.2019
4711 Clouds 21 1015 40 10000 2.43 199 02:24 09.11.2019
4712 Clouds 20 1016 45 10000 3.18 196 01:18 09.11.2019
4713 Clouds 21 1016 43 10000 3.18 196 00:39 09.11.2019
4714 Clouds 21 1016 43 10000 3.18 196 00:21 09.11.2019
4715 Clouds 24 1017 33 10000 1.5 180 23:40 08.11.2019
4716 Clouds 24 1017 33 10000 1.5 180 23:22 08.11.2019
4717 Clouds 25 1017 31 10000 1.5 200 22:56 08.11.2019
4718 Clouds 25 1017 31 10000 1.5 200 22:38 08.11.2019
4719 Clouds 25 1017 31 10000 1.5 200 22:19 08.11.2019
4720 Clouds 26 1017 29 10000 1.5 210 21:41 08.11.2019
4721 Clouds 26 1017 29 10000 1.5 210 21:23 08.11.2019
4722 Clouds 27 1017 30 10000 1.5 200 20:57 08.11.2019
4723 Clouds 27 1017 30 10000 1.5 200 20:38 08.11.2019
4724 Clear 27 1017 30 10000 1.5 200 20:18 08.11.2019
4725 Clear 28 1017 23 10000 2.1 200 19:40 08.11.2019
4726 Clear 28 1017 23 10000 2.1 200 19:19 08.11.2019
4727 Clear 29 1017 23 10000 2.6 190 18:57 08.11.2019
4728 Clear 29 1017 23 10000 2.6 190 18:57 08.11.2019
4729 Clear 29 1017 23 10000 2.6 190 18:39 08.11.2019
4730 Clear 29 1017 23 10000 2.6 190 18:20 08.11.2019
4731 Clear 28 1017 28 10000 1 150 17:56 08.11.2019
4732 Clear 28 1017 28 10000 1 150 17:38 08.11.2019
4733 Clear 28 1017 28 10000 1 150 17:20 08.11.2019
4734 Clear 29 1016 26 10000 1.5 130 16:59 08.11.2019
4735 Clear 29 1016 26 10000 1.5 130 16:40 08.11.2019
4736 Clear 29 1016 26 10000 1.5 130 16:20 08.11.2019
4737 Clear 31 1016 23 10000 1.5 150 15:59 08.11.2019
4738 Clear 31 1016 23 10000 1.5 150 15:40 08.11.2019
4739 Clear 31 1016 23 10000 1.5 150 15:22 08.11.2019
4740 Clear 33 1016 18 10000 2.6 180 14:56 08.11.2019
4741 Clear 33 1016 18 10000 2.6 180 14:37 08.11.2019
4742 Clouds 33 1016 18 10000 2.6 180 14:19 08.11.2019
4743 Clouds 33 1015 13 10000 3.6 200 13:57 08.11.2019
4744 Clouds 33 1015 13 10000 3.6 200 13:38 08.11.2019
4745 Clouds 33 1015 13 10000 3.6 200 13:19 08.11.2019
4746 Clouds 33 1015 14 10000 4.1 220 12:43 08.11.2019
4747 Clouds 33 1015 14 10000 4.1 220 12:24 08.11.2019
4748 Clouds 33 1015 14 10000 4.1 220 12:24 08.11.2019
4749 Clouds 33 1016 14 10000 3.6 210 11:57 08.11.2019
4750 Clouds 33 1016 14 10000 3.6 210 11:38 08.11.2019
4751 Clear 33 1016 14 10000 3.6 210 11:20 08.11.2019
4752 Clouds 33 1017 16 10000 4.1 210 10:56 08.11.2019
4753 Clouds 33 1017 16 10000 4.1 210 10:38 08.11.2019
4754 Clouds 33 1017 16 10000 4.1 210 10:20 08.11.2019
4755 Clear 32 1018 18 10000 4.1 210 09:41 08.11.2019
4756 Clear 32 1018 18 10000 4.1 210 09:20 08.11.2019
4757 Clear 30 1019 23 10000 2.1 180 08:59 08.11.2019
4758 Clear 30 1019 23 10000 2.1 180 08:37 08.11.2019
4759 Clouds 30 1019 23 10000 2.1 180 08:18 08.11.2019
4760 Clouds 27 1019 28 10000 3.1 170 07:41 08.11.2019
4761 Clouds 27 1019 28 10000 3.1 170 07:22 08.11.2019
4762 Clouds 24 1018 38 10000 2.1 160 06:41 08.11.2019
4763 Clouds 24 1018 38 10000 2.1 160 06:22 08.11.2019
4764 Clouds 22 1018 37 10000 1.5 140 05:55 08.11.2019
4765 Clouds 22 1018 37 10000 1.5 140 05:55 08.11.2019
4766 Clouds 22 1018 37 10000 1.5 140 05:22 08.11.2019
4767 Clouds 23 1017 31 10000 2.1 190 03:46 08.11.2019
4768 Clouds 23 1017 31 10000 2.1 190 03:24 08.11.2019
4769 Clouds 23 1017 28 10000 3.1 170 02:46 08.11.2019
4770 Clouds 23 1017 31 10000 2.1 170 01:48 08.11.2019
4771 Clear 23 1017 31 10000 2.1 170 01:30 08.11.2019
4772 Clear 24 1017 29 10000 3.1 170 00:24 08.11.2019
4773 Clear 23 1017 35 10000 1.5 150 23:59 07.11.2019
4774 Clear 23 1017 35 10000 1.5 150 23:59 07.11.2019
4775 Clear 23 1017 35 10000 1.5 150 23:41 07.11.2019
4776 Clear 23 1017 35 10000 1.5 150 23:22 07.11.2019
4777 Clear 23 1017 35 10000 1.5 160 22:43 07.11.2019
4778 Clear 23 1017 35 10000 1.5 160 22:22 07.11.2019
4779 Clear 24 1017 29 10000 2.1 150 21:58 07.11.2019
4780 Clear 24 1017 29 10000 2.1 150 21:38 07.11.2019
4781 Clear 24 1017 29 10000 2.1 150 21:19 07.11.2019
4782 Clear 25 1018 29 10000 2.6 130 20:58 07.11.2019
4783 Clear 25 1018 29 10000 2.6 130 20:39 07.11.2019
4784 Clear 25 1018 29 10000 2.6 130 20:21 07.11.2019
4785 Clear 26 1017 26 10000 3.6 110 19:56 07.11.2019
4786 Clear 26 1017 26 10000 3.6 110 19:37 07.11.2019
4787 Clear 26 1017 26 10000 3.6 110 19:18 07.11.2019
4788 Clear 26 1017 34 10000 1 110 18:55 07.11.2019
4789 Clear 26 1017 34 10000 1 110 18:37 07.11.2019
4790 Clear 26 1017 34 10000 1 110 18:37 07.11.2019
4791 Clear 26 1017 34 10000 1 110 18:19 07.11.2019
4792 Clear 27 1017 34 10000 2.64 160 17:40 07.11.2019
4793 Clear 28 1016 34 10000 3.08 132 17:22 07.11.2019
4794 Clear 28 1016 34 10000 3.08 132 16:58 07.11.2019
4795 Clear 28 1016 34 10000 3.08 132 16:40 07.11.2019
4796 Clear 28 1016 34 10000 3.08 132 16:20 07.11.2019
4797 Clear 32 1016 25 10000 1 120 15:58 07.11.2019
4798 Clear 32 1016 25 10000 1 120 15:39 07.11.2019
4799 Clear 32 1016 25 10000 1 120 15:19 07.11.2019
4800 Clear 33 1015 22 10000 1.5 210 14:45 07.11.2019
4801 Clear 33 1015 22 10000 1.5 210 14:27 07.11.2019
4802 Clouds 34 1015 18 10000 2.1 180 13:57 07.11.2019
4803 Clouds 34 1015 18 10000 2.1 180 13:39 07.11.2019
4804 Clouds 34 1015 18 10000 2.1 180 13:20 07.11.2019
4805 Clouds 33 1016 21 10000 2.1 230 12:58 07.11.2019
4806 Clouds 33 1016 21 10000 2.1 230 12:40 07.11.2019
4807 Clouds 33 1016 21 10000 2.1 230 12:21 07.11.2019
4808 Clouds 32 1016 24 10000 2.6 240 11:58 07.11.2019
4809 Clouds 32 1016 24 10000 2.6 240 11:39 07.11.2019
4810 Clouds 32 1016 24 10000 2.6 240 11:20 07.11.2019
4811 Clouds 31 1017 18 9000 3.1 230 10:40 07.11.2019
4812 Clouds 31 1017 18 9000 3.1 230 10:19 07.11.2019
4813 Clouds 30 1018 22 9000 3.1 200 09:44 07.11.2019
4814 Clouds 30 1018 22 9000 3.1 200 09:23 07.11.2019
4815 Clouds 30 1018 22 9000 3.1 200 09:23 07.11.2019
4816 Clouds 28 1019 21 9000 3.6 160 08:57 07.11.2019
4817 Clouds 28 1019 21 9000 3.6 160 08:56 07.11.2019
4818 Clouds 28 1019 21 9000 3.6 160 08:56 07.11.2019
4819 Clouds 28 1019 21 9000 3.6 160 08:37 07.11.2019
4820 Clouds 28 1019 21 9000 3.6 160 08:19 07.11.2019
4821 -273 0 0 0 0 0 07:41 07.11.2019
4822 Clouds 26 1019 29 9000 2.1 150 07:22 07.11.2019
4823 Clouds 22 1019 40 8000 1 130 06:49 07.11.2019
4824 Clouds 22 1019 40 8000 1 130 06:28 07.11.2019
4825 Clouds 19 1019 45 8000 1 90 05:57 07.11.2019
4826 Clouds 19 1019 45 8000 1 90 05:39 07.11.2019
4827 Clouds 18 1018 48 8000 2.89 126 05:20 07.11.2019
4828 Clouds 18 1018 48 8000 2.89 126 04:42 07.11.2019
4829 Clouds 20 1017 42 10000 2.89 126 02:59 07.11.2019
4830 -273 0 0 0 0 0 02:58 07.11.2019
4831 Clouds 22 1017 37 10000 1 170 00:57 07.11.2019
4832 Clouds 22 1017 37 10000 1 170 00:21 07.11.2019
4833 Clouds 21 1017 43 10000 1 150 23:47 06.11.2019
4834 Clouds 21 1017 43 10000 1 150 23:22 06.11.2019
4835 Clouds 22 1018 40 10000 1 110 22:57 06.11.2019
4836 Clouds 22 1018 40 10000 1 110 22:38 06.11.2019
4837 Clouds 22 1018 40 10000 1 110 22:18 06.11.2019
4838 Clouds 23 1018 35 10000 1.5 100 21:42 06.11.2019
4839 Clouds 23 1018 35 10000 1.5 100 21:21 06.11.2019
4840 Clouds 24 1018 36 10000 1.5 100 20:59 06.11.2019
4841 Clouds 24 1018 36 10000 1.5 100 20:40 06.11.2019
4842 Clouds 24 1018 36 10000 1.5 100 20:22 06.11.2019
4843 Clouds 25 1018 29 10000 2.6 90 19:59 06.11.2019
4844 Clouds 25 1018 29 10000 2.6 90 19:40 06.11.2019
4845 Clouds 25 1018 29 10000 2.6 90 19:21 06.11.2019
4846 Clouds 26 1018 31 10000 3.1 90 18:58 06.11.2019
4847 Clouds 26 1018 31 10000 3.1 90 18:39 06.11.2019
4848 Clouds 26 1018 31 10000 3.1 90 18:19 06.11.2019
4849 Clouds 27 1017 32 8000 2.6 90 17:56 06.11.2019
4850 Clouds 27 1017 32 8000 2.6 90 17:56 06.11.2019
4851 Clouds 27 1017 32 8000 2.6 90 17:37 06.11.2019
4852 Clouds 27 1017 32 8000 2.6 90 17:18 06.11.2019
4853 Clouds 28 1017 30 8000 2.1 100 16:54 06.11.2019
4854 Clouds 28 1017 30 8000 2.1 100 16:36 06.11.2019
4855 Clouds 28 1017 30 8000 2.1 100 16:18 06.11.2019
4856 Clouds 29 1016 30 8000 2.1 110 15:54 06.11.2019
4857 Clouds 29 1016 30 8000 2.1 110 15:36 06.11.2019
4858 Clouds 29 1016 30 8000 2.1 110 15:18 06.11.2019
4859 Clouds 30 1016 33 10000 1.5 100 14:55 06.11.2019
4860 Clouds 30 1016 33 10000 1.5 100 14:37 06.11.2019
4861 Clear 30 1016 33 10000 1.5 100 14:18 06.11.2019
4862 Clear 30 1016 33 10000 1.5 90 13:39 06.11.2019
4863 Clear 30 1016 33 10000 1.5 90 13:39 06.11.2019
4864 Clear 30 1016 33 10000 1.5 90 13:21 06.11.2019
4865 Clear 30 1017 28 10000 2.1 110 12:58 06.11.2019
4866 Clear 30 1017 28 10000 2.1 110 12:39 06.11.2019
4867 Clear 30 1017 28 10000 2.1 110 12:20 06.11.2019
4868 Clear 29 1017 28 10000 2.1 120 11:58 06.11.2019
4869 Clear 29 1017 28 10000 2.1 120 11:37 06.11.2019
4870 Clear 29 1017 28 10000 2.1 120 11:18 06.11.2019
4871 Clear 29 1018 28 10000 2.6 130 10:56 06.11.2019
4872 Clear 29 1018 28 10000 2.6 130 10:38 06.11.2019
4873 Clear 29 1018 28 10000 2.6 130 10:19 06.11.2019
4874 Clear 28 1019 28 10000 2.6 130 09:44 06.11.2019
4875 Clear 28 1019 28 10000 2.6 130 09:22 06.11.2019
4876 Clear 26 1020 29 10000 2.1 100 08:58 06.11.2019
4877 Clear 26 1020 29 10000 2.1 100 08:38 06.11.2019
4878 Clear 26 1020 29 10000 2.1 100 08:20 06.11.2019
4879 Clear 24 1020 36 10000 2.6 110 07:56 06.11.2019
4880 Clear 24 1020 36 10000 2.6 110 07:37 06.11.2019
4881 Clear 24 1020 36 10000 2.6 110 07:37 06.11.2019
4882 Clear 24 1020 36 10000 2.6 110 07:19 06.11.2019
4883 Clear 22 1020 53 10000 1 90 06:42 06.11.2019
4884 Clear 22 1020 53 10000 1 90 06:23 06.11.2019
4885 Clear 20 1018 64 10000 2.78 112 03:58 06.11.2019
4886 Clear 21 1018 60 10000 2.58 89 02:20 06.11.2019
4887 Clear 21 1018 60 10000 2.23 93 01:31 06.11.2019
4888 Clear 21 1018 60 10000 2.23 93 00:35 06.11.2019
4889 Clear 21 1018 60 10000 2.23 93 00:35 06.11.2019
4890 Clear 22 1018 53 10000 1.5 80 23:57 05.11.2019
4891 Clear 22 1018 53 10000 1.5 80 23:38 05.11.2019
4892 Clear 22 1018 53 10000 1.5 80 23:19 05.11.2019
4893 Clear 23 1019 49 10000 2.6 90 22:43 05.11.2019
4894 Clear 23 1019 49 10000 2.6 90 22:19 05.11.2019
4895 Clear 24 1019 50 10000 3.1 70 21:58 05.11.2019
4896 Clear 24 1019 50 10000 3.1 70 21:40 05.11.2019
4897 Clear 24 1019 50 10000 3.1 70 21:20 05.11.2019
4898 Clear 25 1019 50 10000 3.6 50 20:57 05.11.2019
4899 Clear 25 1019 50 10000 3.6 50 20:38 05.11.2019
4900 Clear 25 1019 50 10000 3.6 50 20:20 05.11.2019
4901 Clear 26 1019 47 10000 4.6 50 19:55 05.11.2019
4902 Clear 26 1019 47 10000 4.6 50 19:37 05.11.2019
4903 Clear 26 1019 47 10000 4.6 50 19:18 05.11.2019
4904 Clear 27 1018 42 10000 4.6 50 18:56 05.11.2019
4905 Clear 27 1018 42 10000 4.6 50 18:38 05.11.2019
4906 Clear 27 1018 42 10000 4.6 50 18:19 05.11.2019
4907 Clear 27 1018 42 10000 4.6 50 18:19 05.11.2019
4908 Clear 27 1018 42 10000 4.6 50 18:19 05.11.2019
4909 Clear 28 1018 32 10000 4.6 40 17:54 05.11.2019
4910 Clear 28 1018 32 10000 4.6 40 17:54 05.11.2019
4911 Clear 28 1018 32 10000 4.6 40 17:36 05.11.2019
4912 Clear 28 1018 32 10000 4.6 40 17:18 05.11.2019
4913 Clear 30 1017 25 10000 3.1 360 16:41 05.11.2019
4914 Clear 30 1017 25 10000 3.1 360 16:20 05.11.2019
4915 Clear 31 1017 22 10000 5.1 360 15:55 05.11.2019
4916 Clear 31 1017 22 10000 5.1 360 15:36 05.11.2019
4917 Clear 31 1017 22 10000 5.1 360 15:18 05.11.2019
4918 Clear 33 1016 21 10000 3.6 360 14:54 05.11.2019
4919 Clear 33 1016 21 10000 3.6 360 14:36 05.11.2019
4920 Clear 33 1016 21 10000 3.6 360 14:18 05.11.2019
4921 Clear 34 1016 21 10000 2.6 360 13:42 05.11.2019
4922 Clear 34 1016 21 10000 2.6 360 13:24 05.11.2019
4923 Clear 35 1017 20 10000 2.6 320 12:41 05.11.2019
4924 Clear 35 1017 20 10000 2.6 320 12:22 05.11.2019
4925 Clear 34 1017 26 10000 1.5 270 11:58 05.11.2019
4926 Clear 34 1017 26 10000 1.5 270 11:39 05.11.2019
4927 Clear 34 1017 26 10000 1.5 270 11:20 05.11.2019
4928 Clear 32 1018 29 10000 1.5 170 10:55 05.11.2019
4929 Clear 32 1018 29 10000 1.5 170 10:37 05.11.2019
4930 Clear 32 1018 29 10000 1.5 170 10:18 05.11.2019
4931 Clear 30 1019 37 10000 1 70 09:54 05.11.2019
4932 Clear 30 1019 37 10000 1 70 09:36 05.11.2019
4933 Clear 30 1019 37 10000 1 70 09:18 05.11.2019
4934 Clear 26 1020 47 8000 2.1 70 08:38 05.11.2019
4935 Clear 26 1020 47 8000 2.1 70 08:19 05.11.2019
4936 Clear 25 1020 41 8000 1.5 10 07:55 05.11.2019
4937 Clear 25 1020 41 8000 1.5 10 07:37 05.11.2019
4938 Clear 25 1020 41 8000 1.5 10 07:19 05.11.2019
4939 Clear 22 1020 46 8000 2.1 360 06:43 05.11.2019
4940 Clear 22 1020 46 8000 2.1 360 06:43 05.11.2019
4941 Clear 20 1020 45 7000 1.51 245 05:51 05.11.2019
4942 Clear 20 1020 45 7000 1.09 308 05:22 05.11.2019
4943 Clear 20 1018 42 7000 1.5 310 04:24 05.11.2019
4944 Clear 21 1017 37 10000 1.5 320 03:33 05.11.2019
4945 Clear 22 1017 37 10000 2.1 280 02:43 05.11.2019
4946 Clear 22 1017 40 10000 2.58 302 01:57 05.11.2019
4947 Clear 23 1017 38 10000 2.41 289 00:49 05.11.2019
4948 Clear 23 1017 38 10000 2.41 289 00:27 05.11.2019
4949 Clear 24 1017 38 10000 1 10 23:43 04.11.2019
4950 Clear 24 1017 38 10000 1 10 23:20 04.11.2019
4951 Clear 26 1017 34 10000 2.1 160 22:59 04.11.2019
4952 Clear 26 1017 34 10000 2.1 160 22:40 04.11.2019
4953 Clear 26 1017 34 10000 2.1 160 22:40 04.11.2019
4954 Clear 26 1017 34 10000 2.1 160 22:22 04.11.2019
4955 Clear 25 1017 31 10000 1 180 21:56 04.11.2019
4956 Clear 25 1017 31 10000 1 180 21:37 04.11.2019
4957 Clear 25 1017 31 10000 1 180 21:19 04.11.2019
4958 Clear 28 1017 28 10000 1.5 180 20:57 04.11.2019
4959 Clear 28 1017 28 10000 1.5 180 20:38 04.11.2019
4960 Clear 28 1017 28 10000 1.5 180 20:20 04.11.2019
4961 Clear 28 1017 28 10000 1.5 240 19:58 04.11.2019
4962 Clear 28 1017 28 10000 1.5 240 19:40 04.11.2019
4963 Clear 28 1017 28 10000 1.5 240 19:21 04.11.2019
4964 Clear 28 1017 28 10000 1.5 180 18:56 04.11.2019
4965 Clear 28 1017 28 10000 1.5 180 18:56 04.11.2019
4966 Clear 28 1017 28 10000 1.5 180 18:37 04.11.2019
4967 Clear 28 1017 28 10000 1.5 180 18:18 04.11.2019
4968 Clear 29 1017 28 10000 2.66 148 17:39 04.11.2019
4969 Clear 29 1017 28 10000 0.71 243 17:21 04.11.2019
4970 Clear 31 1017 25 10000 1.5 250 16:56 04.11.2019
4971 Clear 31 1017 25 10000 1.5 250 16:38 04.11.2019
4972 Clear 31 1017 25 10000 1.5 250 16:19 04.11.2019
4973 Clear 33 1016 18 10000 2.1 260 15:41 04.11.2019
4974 Clear 33 1016 18 10000 2.1 260 15:22 04.11.2019
4975 Clear 34 1016 17 10000 3.6 250 14:59 04.11.2019
4976 Clear 34 1016 17 10000 3.6 250 14:41 04.11.2019
4977 Clear 34 1016 17 10000 3.6 250 14:21 04.11.2019
4978 Clear 34 1016 17 10000 2.6 250 13:58 04.11.2019
4979 Clear 34 1016 17 10000 2.6 250 13:40 04.11.2019
4980 Clear 34 1016 17 10000 2.6 250 13:21 04.11.2019
4981 Clear 35 1017 15 10000 3.1 230 12:57 04.11.2019
4982 Clear 35 1017 15 10000 3.1 230 12:38 04.11.2019
4983 Clear 35 1017 15 10000 3.1 230 12:20 04.11.2019
4984 Clear 34 1017 17 10000 4.1 240 11:43 04.11.2019
4985 Clear 34 1017 17 10000 4.1 240 11:24 04.11.2019
4986 Clear 33 1018 17 10000 4.1 230 10:59 04.11.2019
4987 Clear 33 1018 17 10000 4.1 230 10:41 04.11.2019
4988 Clear 33 1018 17 10000 4.1 230 10:23 04.11.2019
4989 Clear 32 1019 21 10000 5.1 200 09:45 04.11.2019
4990 Clear 32 1019 21 10000 5.1 200 09:27 04.11.2019
4991 Clear 31 1020 23 10000 6.2 200 08:58 04.11.2019
4992 Clear 31 1020 23 10000 6.2 200 08:38 04.11.2019
4993 Clouds 31 1020 23 10000 6.2 200 08:19 04.11.2019
4994 Clouds 29 1020 32 10000 6.2 180 07:43 04.11.2019
4995 Clouds 29 1020 32 10000 6.2 180 07:21 04.11.2019
4996 Clouds 27 1020 36 10000 5.1 180 06:56 04.11.2019
4997 Clouds 27 1020 36 10000 5.1 180 06:18 04.11.2019
4998 Clouds 24 1019 47 10000 2.1 150 05:46 04.11.2019
4999 Clouds 23 1019 49 10000 1.5 150 04:43 04.11.2019
5000 Clouds 23 1019 49 10000 1.5 150 04:21 04.11.2019
5001 Clouds 22 1018 53 10000 2.1 150 02:32 04.11.2019
5002 Clouds 23 1018 46 10000 2.1 150 01:21 04.11.2019
5003 Clouds 24 1018 41 10000 2.6 150 00:40 04.11.2019
5004 Clouds 24 1018 41 10000 2.6 150 00:20 04.11.2019
5005 Clouds 24 1018 44 10000 1.5 150 23:41 03.11.2019
5006 Clouds 24 1018 44 10000 1.5 150 23:21 03.11.2019
5007 Clouds 25 1018 36 10000 2.1 140 22:59 03.11.2019
5008 Clouds 25 1018 36 10000 2.1 140 22:41 03.11.2019
5009 Clouds 25 1018 36 10000 2.1 140 22:20 03.11.2019
5010 Clouds 26 1018 36 10000 2.6 120 21:57 03.11.2019
5011 Clouds 26 1018 36 10000 2.6 120 21:57 03.11.2019
5012 Clouds 26 1018 36 10000 2.6 120 21:38 03.11.2019
5013 Clouds 26 1018 36 10000 2.6 120 21:20 03.11.2019
5014 Clouds 27 1018 32 10000 1.5 150 20:55 03.11.2019
5015 Clouds 27 1018 32 10000 1.5 150 20:36 03.11.2019
5016 Clear 27 1018 32 10000 1.5 150 20:18 03.11.2019
5017 Clear 30 1018 25 10000 2.1 180 19:55 03.11.2019
5018 Clear 30 1018 25 10000 2.1 180 19:37 03.11.2019
5019 Clear 30 1018 25 10000 2.1 180 19:18 03.11.2019
5020 Clear 29 1017 28 10000 2.1 200 18:38 03.11.2019
5021 Clear 29 1017 28 10000 2.1 200 18:38 03.11.2019
5022 Clear 29 1017 28 10000 2.1 200 18:18 03.11.2019
5023 Clear 29 1017 32 10000 2.4 160 17:58 03.11.2019
5024 Clear 29 1017 32 10000 2.4 160 17:39 03.11.2019
5025 Clear 29 1017 32 10000 2.55 277 17:18 03.11.2019
5026 Clear 31 1016 31 10000 2.55 277 16:54 03.11.2019
5027 Clear 31 1016 31 10000 2.55 277 16:54 03.11.2019
5028 Clear 31 1016 31 10000 2.55 277 16:36 03.11.2019
5029 Clear 31 1016 31 10000 2.55 277 16:18 03.11.2019
5030 Clear 33 1016 24 10000 1.5 220 15:45 03.11.2019
5031 Clear 33 1016 24 10000 1.5 220 15:25 03.11.2019
5032 Clear 34 1015 20 10000 3.1 240 14:58 03.11.2019
5033 Clear 34 1015 20 10000 3.1 240 14:39 03.11.2019
5034 Clear 34 1015 20 10000 3.1 240 14:18 03.11.2019
5035 Clear 35 1015 17 10000 3.1 200 13:54 03.11.2019
5036 Clear 35 1015 17 10000 3.1 200 13:54 03.11.2019
5037 Clear 35 1015 17 10000 3.1 200 13:36 03.11.2019
5038 Clear 35 1015 17 10000 3.1 200 13:18 03.11.2019
5039 Clear 35 1016 17 10000 3.6 200 12:38 03.11.2019
5040 Clear 35 1016 17 10000 3.6 200 12:19 03.11.2019
5041 Clear 35 1016 21 10000 3.1 180 11:55 03.11.2019
5042 Clear 35 1016 21 10000 3.1 180 11:37 03.11.2019
5043 Clear 35 1016 21 10000 3.1 180 11:19 03.11.2019
5044 Clear 33 1017 26 10000 3.1 190 10:40 03.11.2019
5045 Clear 33 1017 26 10000 3.1 190 10:22 03.11.2019
5046 Clear 33 1017 26 10000 3.1 190 10:22 03.11.2019
5047 Clear 33 1017 26 10000 3.1 190 10:22 03.11.2019
5048 Clear 33 1017 26 10000 3.1 190 10:22 03.11.2019
5049 Clear 31 1018 29 10000 4.6 190 09:57 03.11.2019
5050 Clear 31 1018 29 10000 4.6 190 09:39 03.11.2019
5051 Clear 31 1018 29 10000 4.6 190 09:21 03.11.2019
5052 Clear 29 1019 32 10000 5.1 180 08:41 03.11.2019
5053 Clear 29 1019 32 10000 5.1 180 08:22 03.11.2019
5054 Clear 28 1019 34 10000 5.1 160 07:46 03.11.2019
5055 Clear 28 1019 34 10000 5.1 160 07:28 03.11.2019
5056 Clear 25 1019 44 10000 4.1 160 06:52 03.11.2019
5057 Clear 25 1019 44 10000 4.1 160 06:33 03.11.2019
5058 Clear 23 1018 53 10000 1.5 150 05:40 03.11.2019
5059 Clear 22 1018 53 10000 2.1 150 04:58 03.11.2019
5060 Clear 22 1018 53 10000 2.1 150 04:37 03.11.2019
5061 Clear 22 1017 53 10000 2.6 160 03:35 03.11.2019
5062 Clear 22 1017 53 10000 1.5 150 02:42 03.11.2019
5063 Clear 22 1017 53 10000 1.5 150 02:20 03.11.2019
5064 Clear 22 1017 53 10000 1.5 150 02:20 03.11.2019
5065 Clear 23 1017 46 10000 2.6 140 01:39 03.11.2019
5066 Clear 23 1017 46 10000 2.6 140 01:20 03.11.2019
5067 Clear 23 1017 46 10000 2.6 140 00:45 03.11.2019
5068 Clear 23 1017 46 10000 2.6 140 00:26 03.11.2019
5069 Clear 24 1017 47 10000 2.6 130 23:58 02.11.2019
5070 Clear 24 1017 47 10000 2.6 130 23:38 02.11.2019
5071 Clear 24 1017 47 10000 2.6 130 23:19 02.11.2019
5072 Clear 24 1017 47 10000 2.6 130 23:19 02.11.2019
5073 Clear 25 1017 44 10000 3.1 140 22:55 02.11.2019
5074 Clear 25 1017 44 10000 3.1 140 22:37 02.11.2019
5075 Clear 25 1017 44 10000 3.1 140 22:18 02.11.2019
5076 Clear 26 1017 39 10000 3.1 150 21:56 02.11.2019
5077 Clear 26 1017 39 10000 3.1 150 21:37 02.11.2019
5078 Clear 26 1017 39 10000 3.1 150 21:37 02.11.2019
5079 Clear 26 1017 39 10000 3.1 150 21:18 02.11.2019
5080 Clear 26 1017 41 10000 3.1 140 20:58 02.11.2019
5081 Clear 26 1017 41 10000 3.1 140 20:39 02.11.2019
5082 Clear 26 1017 41 10000 3.1 140 20:39 02.11.2019
5083 Clear 26 1017 41 10000 3.1 140 20:19 02.11.2019
5084 Clear 27 1016 42 10000 2.6 140 19:41 02.11.2019
5085 Clear 27 1016 42 10000 2.6 140 19:23 02.11.2019
5086 Clear 27 1016 42 10000 2.6 130 18:57 02.11.2019
5087 Clear 27 1016 42 10000 2.6 130 18:38 02.11.2019
5088 Clear 27 1016 42 10000 2.6 130 18:38 02.11.2019
5089 Clear 27 1016 42 10000 2.6 130 18:20 02.11.2019
5090 Clear 27 1016 42 10000 2.6 130 18:20 02.11.2019
5091 Clear 28 1016 42 10000 3.1 130 17:57 02.11.2019
5092 Clear 28 1016 42 10000 3.1 130 17:38 02.11.2019
5093 Clear 28 1016 42 10000 3.1 130 17:20 02.11.2019
5094 Clear 28 1015 39 10000 2.6 140 16:57 02.11.2019
5095 Clear 28 1015 39 10000 2.6 140 16:36 02.11.2019
5096 Clear 28 1015 39 10000 2.6 140 16:18 02.11.2019
5097 Clear 28 1015 39 10000 2.6 140 16:18 02.11.2019
5098 Clear 29 1015 37 10000 2.6 140 15:41 02.11.2019
5099 Clear 29 1015 37 10000 2.6 140 15:20 02.11.2019
5100 Clear 30 1015 35 10000 3.6 130 14:43 02.11.2019
5101 Clear 30 1015 35 10000 3.6 130 14:23 02.11.2019
5102 Clear 31 1015 33 10000 3.1 160 13:58 02.11.2019
5103 Clear 31 1015 33 10000 3.1 160 13:38 02.11.2019
5104 Clear 31 1015 33 10000 3.1 160 13:19 02.11.2019
5105 Clear 30 1015 35 10000 3.1 170 12:41 02.11.2019
5106 Clear 30 1015 35 10000 3.1 170 12:23 02.11.2019
5107 Clear 29 1016 39 10000 3.6 170 11:58 02.11.2019
5108 Clear 29 1016 39 10000 3.6 170 11:39 02.11.2019
5109 Clear 29 1016 39 10000 3.6 170 11:21 02.11.2019
5110 Clear 28 1016 39 10000 4.1 170 10:50 02.11.2019
5111 Clear 28 1016 39 10000 4.1 170 10:28 02.11.2019
5112 Clear 27 1017 44 10000 3.1 150 09:58 02.11.2019
5113 Clear 27 1017 44 10000 3.1 150 09:39 02.11.2019
5114 Clear 27 1017 44 10000 3.1 150 09:19 02.11.2019
5115 Clear 26 1018 44 10000 3.6 150 08:45 02.11.2019
5116 Clear 26 1018 44 10000 3.6 150 08:45 02.11.2019
5117 Clear 26 1018 44 10000 3.6 150 08:22 02.11.2019
5118 Clear 24 1018 44 10000 3.6 160 07:48 02.11.2019
5119 Clear 24 1018 44 10000 3.6 160 07:29 02.11.2019
5120 Clear 22 1018 40 10000 3.1 140 06:55 02.11.2019
5121 Clear 22 1018 40 10000 3.1 140 06:30 02.11.2019
5122 Clear 20 1018 45 10000 2.1 140 05:56 02.11.2019
5123 Clear 20 1018 45 10000 2.1 140 05:20 02.11.2019
5124 Clear 19 1017 52 10000 1.5 140 04:21 02.11.2019
5125 Clear 19 1017 52 10000 1.5 140 04:21 02.11.2019
5126 Clear 19 1017 52 10000 1.5 140 03:49 02.11.2019
5127 Clear 20 1016 49 10000 1.5 130 02:40 02.11.2019
5128 Clear 21 1016 43 10000 2.6 120 01:43 02.11.2019
5129 Clear 21 1016 43 10000 2.6 120 01:21 02.11.2019
5130 Clear 21 1016 46 10000 1 130 00:48 02.11.2019
5131 Clear 21 1016 46 10000 1 130 00:26 02.11.2019
5132 Clear 22 1016 43 10000 2.1 130 23:46 01.11.2019
5133 Clear 22 1016 43 10000 2.1 130 23:22 01.11.2019
5134 Clear 22 1016 40 10000 2.1 120 22:57 01.11.2019
5135 Clear 22 1016 40 10000 2.1 120 22:39 01.11.2019
5136 Clear 22 1016 40 10000 2.1 120 22:20 01.11.2019
5137 Clear 23 1016 38 10000 2.6 110 21:41 01.11.2019
5138 Clear 23 1016 38 10000 2.6 110 21:23 01.11.2019
5139 Clear 24 1016 33 10000 3.1 110 20:57 01.11.2019
5140 Clear 24 1016 33 10000 3.1 110 20:39 01.11.2019
5141 Clear 24 1016 33 10000 3.1 110 20:19 01.11.2019
5142 Clear 24 1016 36 10000 3.6 100 19:55 01.11.2019
5143 Clear 24 1016 36 10000 3.6 100 19:36 01.11.2019
5144 Clear 24 1016 36 10000 3.6 100 19:18 01.11.2019
5145 Clear 25 1016 33 10000 3.6 90 18:39 01.11.2019
5146 Clear 25 1016 33 10000 3.6 90 18:20 01.11.2019
5147 Clear 26 1016 31 10000 3.6 100 17:55 01.11.2019
5148 Clear 26 1016 31 10000 3.6 100 17:37 01.11.2019
5149 Clear 26 1016 31 10000 3.6 100 17:18 01.11.2019
5150 Clear 27 1015 30 10000 4.1 90 16:38 01.11.2019
5151 Clear 27 1015 30 10000 4.1 90 16:19 01.11.2019
5152 Clear 28 1015 30 10000 4.1 80 15:41 01.11.2019
5153 Clear 28 1015 30 10000 4.1 80 15:23 01.11.2019
5154 Clear 29 1015 25 10000 3.6 90 14:58 01.11.2019
5155 Clear 29 1015 25 10000 3.6 90 14:40 01.11.2019
5156 Clear 29 1015 25 10000 3.6 90 14:22 01.11.2019
5157 Clear 29 1015 26 10000 3.1 120 13:56 01.11.2019
5158 Clear 29 1015 26 10000 3.1 120 13:37 01.11.2019
5159 Clear 29 1015 26 10000 3.1 120 13:19 01.11.2019
5160 Clear 29 1015 35 10000 2.1 130 12:43 01.11.2019
5161 Clear 29 1015 35 10000 2.1 130 12:25 01.11.2019
5162 Clear 28 1016 37 10000 2.1 110 11:44 01.11.2019
5163 Clear 28 1016 37 10000 2.1 110 11:25 01.11.2019
5164 Clear 27 1014 35 0 3.69 131 10:59 01.11.2019
5165 Clear 27 1014 35 0 3.69 131 10:40 01.11.2019
5166 Clear 27 1014 35 0 3.69 131 10:21 01.11.2019
5167 Clear 27 1014 35 0 3.69 131 09:56 01.11.2019
5168 Clear 27 1014 35 0 3.69 131 09:36 01.11.2019
5169 Clear 27 1014 35 0 3.69 131 09:18 01.11.2019
5170 Clear 27 1014 35 0 3.69 131 08:42 01.11.2019
5171 Clear 23 1019 46 10000 3.6 70 08:21 01.11.2019
5172 Clear 23 1019 46 10000 3.6 70 07:53 01.11.2019
5173 Clear 23 1019 46 10000 3.6 70 07:26 01.11.2019
5174 Clear 21 1019 52 8000 2.1 70 06:56 01.11.2019
5175 Clear 21 1019 52 8000 2.1 70 06:37 01.11.2019
5176 Clear 21 1019 52 8000 2.1 70 06:18 01.11.2019
5177 Clear 20 1018 64 8000 1.5 60 05:43 01.11.2019
5178 Clear 20 1016 68 10000 2.1 70 03:33 01.11.2019
5179 Clear 21 1016 60 10000 2.1 60 01:52 01.11.2019
5180 Clear 21 1016 60 10000 2.1 60 01:28 01.11.2019
5181 Clear 22 1016 56 10000 1 50 00:21 01.11.2019
5182 Clear 23 1016 43 10000 2.6 60 23:56 31.10.2019
5183 Clear 23 1016 43 10000 2.6 60 23:38 31.10.2019
5184 Clear 23 1016 43 10000 2.6 60 23:19 31.10.2019
5185 Clear 24 1016 38 10000 2.6 40 22:42 31.10.2019
5186 Clear 24 1016 38 10000 2.6 40 22:24 31.10.2019
5187 Clear 24 1016 41 10000 2.6 70 21:58 31.10.2019
5188 Clear 24 1016 41 10000 2.6 70 21:40 31.10.2019
5189 Clear 24 1016 41 10000 2.6 70 21:18 31.10.2019
5190 Clear 25 1016 41 10000 3.1 60 20:41 31.10.2019
5191 Clear 25 1016 41 10000 3.1 60 20:23 31.10.2019
5192 Clear 26 1016 39 10000 3.1 60 19:58 31.10.2019
5193 Clear 26 1016 39 10000 3.1 60 19:38 31.10.2019
5194 Clear 26 1016 39 10000 3.1 60 19:19 31.10.2019
5195 Clear 27 1016 34 10000 3.6 70 18:44 31.10.2019
5196 Clear 27 1016 34 10000 3.6 70 18:25 31.10.2019
5197 Clear 28 1015 32 10000 3.6 60 17:58 31.10.2019
5198 Clear 28 1015 32 10000 3.6 60 17:40 31.10.2019
5199 Clear 28 1015 32 10000 3.6 60 17:20 31.10.2019
5200 Clear 29 1015 30 10000 3.6 60 16:55 31.10.2019
5201 Clear 29 1015 30 10000 3.6 60 16:37 31.10.2019
5202 Clear 29 1015 30 10000 3.6 60 16:18 31.10.2019
5203 Clear 30 1015 30 10000 3.1 60 15:40 31.10.2019
5204 Clear 30 1015 30 10000 3.1 60 15:40 31.10.2019
5205 Clear 30 1015 30 10000 3.1 60 15:21 31.10.2019
5206 Clear 31 1014 31 10000 3.1 50 14:58 31.10.2019
5207 Clear 31 1014 31 10000 3.1 50 14:40 31.10.2019
5208 Clear 31 1014 31 10000 3.1 50 14:22 31.10.2019
5209 Clear 31 1014 35 10000 2.1 70 13:59 31.10.2019
5210 Clear 31 1014 35 10000 2.1 70 13:38 31.10.2019
5211 Clear 31 1014 35 10000 2.1 70 13:19 31.10.2019
5212 Clear 31 1015 31 10000 2.1 90 12:55 31.10.2019
5213 Clear 31 1015 31 10000 2.1 90 12:37 31.10.2019
5214 Clear 31 1015 31 10000 2.1 90 12:18 31.10.2019
5215 Clear 30 1015 35 10000 2.1 50 11:45 31.10.2019
5216 Clear 30 1015 35 10000 2.1 50 11:21 31.10.2019
5217 Clear 30 1016 35 10000 3.6 50 10:58 31.10.2019
5218 Clear 30 1016 35 10000 3.6 50 10:58 31.10.2019
5219 Clear 30 1016 35 10000 3.6 50 10:39 31.10.2019
5220 Clear 30 1016 35 10000 3.6 50 10:20 31.10.2019
5221 Clear 28 1017 45 9000 2.6 50 09:46 31.10.2019
5222 Clear 28 1017 45 9000 2.6 50 09:20 31.10.2019
5223 Clear 26 1017 61 8000 3.1 10 08:58 31.10.2019
5224 Clear 26 1017 61 8000 3.1 10 08:39 31.10.2019
5225 Clear 26 1017 61 8000 3.1 10 08:39 31.10.2019
5226 Clouds 26 1017 61 8000 3.1 10 08:21 31.10.2019
5227 Clouds 24 1018 69 7000 3.1 60 07:46 31.10.2019
5228 Clouds 24 1018 69 7000 3.1 60 07:26 31.10.2019
5229 Clouds 23 1017 73 6000 1.5 30 06:52 31.10.2019
5230 Clouds 23 1017 73 6000 1.5 30 06:31 31.10.2019
5231 Mist 22 1017 83 5000 1 30 05:20 31.10.2019
5232 Mist 23 1015 78 3000 2.6 30 02:50 31.10.2019
5233 Mist 23 1015 78 3000 2.6 30 02:25 31.10.2019
5234 Mist 23 1015 78 3000 2.6 30 02:25 31.10.2019
5235 Mist 22 1015 83 3000 3.1 30 01:20 31.10.2019
5236 Mist 23 1015 78 3000 3.1 30 00:26 31.10.2019
5237 Mist 23 1015 83 3000 4.6 20 23:42 30.10.2019
5238 Mist 23 1015 83 3000 4.6 20 23:23 30.10.2019
5239 Mist 24 1015 83 3000 4.6 30 22:42 30.10.2019
5240 Mist 24 1015 83 3000 4.6 30 22:19 30.10.2019
5241 Mist 25 1015 83 1500 5.1 30 21:55 30.10.2019
5242 Mist 25 1015 83 1500 5.1 30 21:55 30.10.2019
5243 Mist 25 1015 83 1500 5.1 30 21:37 30.10.2019
5244 Mist 25 1015 83 1500 5.1 30 21:37 30.10.2019
5245 Mist 25 1015 83 1500 5.1 30 21:18 30.10.2019
5246 Clear 27 1015 42 8000 3.1 30 20:58 30.10.2019
5247 Clear 27 1015 42 8000 3.1 30 20:39 30.10.2019
5248 Clear 27 1015 42 8000 3.1 30 20:20 30.10.2019
5249 Clear 29 1014 28 8000 5.1 10 19:43 30.10.2019
5250 Clear 29 1014 28 8000 5.1 10 19:25 30.10.2019
5251 Clear 29 1014 17 9000 4.6 330 19:00 30.10.2019
5252 Clear 29 1014 17 9000 4.6 330 18:38 30.10.2019
5253 Clear 29 1014 17 9000 4.6 330 18:19 30.10.2019
5254 Clear 31 1013 22 9000 1.5 260 17:56 30.10.2019
5255 Clear 31 1013 22 9000 1.5 260 17:37 30.10.2019
5256 Clear 31 1013 22 9000 1.5 260 17:18 30.10.2019
5257 Clear 33 1012 19 9000 1.5 240 16:54 30.10.2019
5258 Clear 33 1012 19 9000 1.5 240 16:36 30.10.2019
5259 Clear 33 1012 19 9000 1.5 240 16:18 30.10.2019
5260 Clear 35 1012 14 9000 2.6 260 15:41 30.10.2019
5261 Clear 35 1012 14 9000 2.6 260 15:21 30.10.2019
5262 Clear 36 1012 13 9000 4.1 250 14:59 30.10.2019
5263 Clear 36 1012 13 9000 4.1 250 14:41 30.10.2019
5264 Clear 36 1012 13 9000 4.1 250 14:22 30.10.2019
5265 Clear 36 1012 13 9000 4.6 250 13:57 30.10.2019
5266 Clear 36 1012 13 9000 4.6 250 13:39 30.10.2019
5267 Clear 36 1012 13 9000 4.6 250 13:19 30.10.2019
5268 Clear 35 1012 13 9000 5.1 270 12:46 30.10.2019
5269 Clear 35 1012 13 9000 5.1 270 12:28 30.10.2019
5270 Clear 35 1012 13 9000 5.1 270 12:28 30.10.2019
5271 Clear 36 1013 12 9000 5.1 240 11:59 30.10.2019
5272 Clear 36 1013 12 9000 5.1 240 11:41 30.10.2019
5273 Clear 36 1013 12 9000 5.1 240 11:21 30.10.2019
5274 Clear 35 1014 11 7000 5.1 240 10:43 30.10.2019
5275 Clear 35 1014 11 7000 5.1 240 10:23 30.10.2019
5276 Dust 34 1014 12 5000 6.2 240 09:43 30.10.2019
5277 Dust 34 1014 12 5000 6.2 240 09:24 30.10.2019
5278 Clear 33 1015 14 10000 6.2 210 08:58 30.10.2019
5279 Clear 33 1015 14 10000 6.2 210 08:39 30.10.2019
5280 Clear 33 1015 14 10000 6.2 210 08:20 30.10.2019
5281 Clear 30 1016 15 10000 4.1 240 07:46 30.10.2019
5282 Clear 30 1016 15 10000 4.1 240 07:24 30.10.2019
5283 Clear 24 1015 25 8000 2.6 270 06:42 30.10.2019
5284 Clear 24 1015 25 8000 2.6 270 06:21 30.10.2019
5285 Clear 21 1014 37 8000 6.68 250 05:42 30.10.2019
5286 Clear 21 1014 37 8000 2.21 233 05:19 30.10.2019
5287 Clear 20 1013 40 10000 2.21 233 03:43 30.10.2019
5288 Clear 20 1013 42 10000 2.21 233 02:55 30.10.2019
5289 Clear 20 1013 42 10000 3.61 269 02:19 30.10.2019
5290 Clear 22 1013 35 10000 1 160 01:31 30.10.2019
5291 Clear 22 1013 35 10000 3.7 267 00:31 30.10.2019
5292 Clear 24 1013 31 10000 1 280 23:46 29.10.2019
5293 Clear 24 1013 31 10000 1 280 23:24 29.10.2019
5294 Clear 25 1014 25 10000 2.6 30 22:49 29.10.2019
5295 Clear 25 1014 25 10000 2.6 30 22:20 29.10.2019
5296 Clear 25 1014 33 10000 4.53 191 21:59 29.10.2019
5297 Clear 25 1014 33 10000 4.53 191 21:41 29.10.2019
5298 Clear 25 1014 33 10000 4.53 191 21:20 29.10.2019
5299 Clear 26 1014 29 10000 4.53 191 20:58 29.10.2019
5300 Clear 26 1014 29 10000 4.53 191 20:40 29.10.2019
5301 Clear 26 1014 29 10000 3.39 179 20:21 29.10.2019
5302 Clear 30 1014 23 10000 1.5 160 19:57 29.10.2019
5303 Clear 30 1014 23 10000 1.5 160 19:38 29.10.2019
5304 Clear 30 1014 23 10000 1.5 160 19:19 29.10.2019
5305 Clear 32 1014 17 10000 2.1 180 18:55 29.10.2019
5306 Clear 32 1014 17 10000 2.1 180 18:37 29.10.2019
5307 Clear 32 1014 17 10000 2.1 180 18:19 29.10.2019
5308 Clear 32 1013 18 10000 2.1 190 17:54 29.10.2019
5309 Clear 32 1013 18 10000 2.1 190 17:54 29.10.2019
5310 Clear 32 1013 18 10000 2.1 190 17:36 29.10.2019
5311 Clear 32 1013 18 10000 2.1 190 17:18 29.10.2019
5312 Clear 33 1013 17 10000 2.6 190 16:39 29.10.2019
5313 Clear 33 1013 17 10000 2.6 190 16:39 29.10.2019
5314 Clear 33 1013 17 10000 2.6 190 16:19 29.10.2019
5315 Clear 34 1012 16 10000 3.1 210 15:55 29.10.2019
5316 Clear 34 1012 16 10000 3.1 210 15:37 29.10.2019
5317 Clear 34 1012 16 10000 3.1 210 15:37 29.10.2019
5318 Clear 34 1012 16 10000 3.1 210 15:19 29.10.2019
5319 Clear 36 1012 13 10000 3.6 220 14:55 29.10.2019
5320 Clear 36 1012 13 10000 3.6 220 14:37 29.10.2019
5321 Clear 36 1012 13 10000 3.6 220 14:18 29.10.2019
5322 Clear 36 1012 11 10000 4.1 240 13:40 29.10.2019
5323 Clear 36 1012 11 10000 4.1 240 13:21 29.10.2019
5324 Clear 36 1012 11 10000 5.1 200 12:45 29.10.2019
5325 Clear 36 1012 11 10000 5.1 200 12:26 29.10.2019
5326 Clear 36 1013 12 10000 4.6 210 11:59 29.10.2019
5327 Clear 36 1013 12 10000 4.6 210 11:40 29.10.2019
5328 Clear 36 1013 12 10000 4.6 210 11:19 29.10.2019
5329 Clear 34 1014 17 9000 5.1 220 10:57 29.10.2019
5330 Clear 34 1014 17 9000 5.1 220 10:38 29.10.2019
5331 Clear 34 1014 17 9000 5.1 220 10:19 29.10.2019
5332 Clear 32 1015 31 7000 3.1 180 09:44 29.10.2019
5333 Clear 32 1015 31 7000 3.1 180 09:23 29.10.2019
5334 Clear 29 1015 39 7000 2.6 160 08:58 29.10.2019
5335 Clear 29 1015 39 7000 2.6 160 08:39 29.10.2019
5336 Clear 29 1015 39 7000 2.6 160 08:21 29.10.2019
5337 Clear 26 1016 54 8000 1 120 07:49 29.10.2019
5338 Clear 26 1016 54 8000 1 120 07:22 29.10.2019
5339 Clear 24 1015 64 10000 2.71 142 06:59 29.10.2019
5340 Clear 24 1015 64 10000 2.71 142 06:41 29.10.2019
5341 Clear 24 1015 64 10000 2.71 142 06:19 29.10.2019
5342 Clear 22 1015 68 10000 2.71 142 05:49 29.10.2019
5343 Clear 22 1015 68 10000 0.79 73 05:18 29.10.2019
5344 Clear 22 1013 64 10000 0.79 73 03:34 29.10.2019
5345 Clear 23 1013 60 10000 2.1 290 02:32 29.10.2019
5346 Clear 24 1013 60 10000 2.1 340 01:42 29.10.2019
5347 Clouds 25 1013 53 10000 3.1 360 00:56 29.10.2019
5348 Clouds 25 1013 53 10000 2.1 10 00:26 29.10.2019
5349 Clouds 25 1013 53 10000 2.1 10 23:40 28.10.2019
5350 Clouds 25 1013 53 10000 2.1 10 23:20 28.10.2019
5351 Clouds 26 1013 47 10000 3.1 360 22:57 28.10.2019
5352 Clouds 26 1013 47 10000 3.1 360 22:36 28.10.2019
5353 Clouds 26 1013 47 10000 3.1 360 22:18 28.10.2019
5354 Clouds 26 1013 44 10000 2.1 350 21:54 28.10.2019
5355 Clouds 26 1013 44 10000 2.1 350 21:36 28.10.2019
5356 Clouds 26 1013 44 10000 2.1 350 21:18 28.10.2019
5357 Clouds 26 1013 44 10000 2.1 10 20:41 28.10.2019
5358 Clouds 26 1013 44 10000 2.1 10 20:23 28.10.2019
5359 Clouds 28 1013 39 10000 3.1 60 19:55 28.10.2019
5360 Clouds 28 1013 39 10000 3.1 60 19:37 28.10.2019
5361 Clouds 28 1013 39 10000 3.1 60 19:18 28.10.2019
5362 Clouds 30 1012 27 8000 3.6 20 18:57 28.10.2019
5363 Clouds 30 1012 27 8000 3.6 20 18:38 28.10.2019
5364 Clouds 30 1012 27 8000 3.6 20 18:20 28.10.2019
5365 Clouds 30 1012 27 8000 3.6 20 18:20 28.10.2019
5366 Clouds 32 1011 21 8000 2.1 190 17:56 28.10.2019
5367 Clouds 32 1011 21 8000 2.1 190 17:37 28.10.2019
5368 Clear 32 1011 21 8000 2.1 190 17:18 28.10.2019
5369 Clear 33 1011 16 8000 3.1 170 16:55 28.10.2019
5370 Clear 33 1011 16 8000 3.1 170 16:36 28.10.2019
5371 Clear 33 1011 16 8000 3.1 170 16:18 28.10.2019
5372 Clear 35 1010 15 8000 3.1 200 15:55 28.10.2019
5373 Clear 35 1010 15 8000 3.1 200 15:37 28.10.2019
5374 Clear 35 1010 15 8000 3.1 200 15:18 28.10.2019
5375 Clear 36 1010 11 8000 4.6 220 14:54 28.10.2019
5376 Clear 36 1010 11 8000 4.6 220 14:36 28.10.2019
5377 Clear 36 1010 11 8000 4.6 220 14:18 28.10.2019
5378 Clear 36 1010 12 7000 4.6 250 13:41 28.10.2019
5379 Clear 36 1010 12 7000 4.6 250 13:18 28.10.2019
5380 Clear 36 1010 11 6000 6.7 210 12:59 28.10.2019
5381 Clear 36 1010 11 6000 6.7 210 12:40 28.10.2019
5382 Clear 36 1010 11 6000 6.7 210 12:19 28.10.2019
5383 Clear 36 1011 11 6000 7.7 220 11:38 28.10.2019
5384 Clear 36 1011 11 6000 7.7 220 11:20 28.10.2019
5385 Clear 35 1011 12 6000 6.7 200 10:42 28.10.2019
5386 Clear 35 1011 12 6000 6.7 200 10:24 28.10.2019
5387 Clear 34 1012 12 7000 7.2 210 09:58 28.10.2019
5388 Clear 34 1012 12 7000 7.2 210 09:39 28.10.2019
5389 Clear 34 1012 12 7000 7.2 210 09:20 28.10.2019
5390 Clear 33 1013 17 10000 3.6 200 08:58 28.10.2019
5391 Clear 33 1013 17 10000 3.6 200 08:39 28.10.2019
5392 Clouds 33 1013 17 10000 3.6 200 08:19 28.10.2019
5393 Clouds 31 1013 25 10000 1.5 140 07:59 28.10.2019
5394 Clouds 31 1013 25 10000 1.5 140 07:40 28.10.2019
5395 Clouds 31 1013 25 10000 1.5 140 07:20 28.10.2019
5396 Clouds 25 1013 41 10000 4.75 214 06:40 28.10.2019
5397 Clouds 25 1013 41 10000 4.75 214 06:19 28.10.2019
5398 Clouds 22 1012 43 10000 1.5 220 04:29 28.10.2019
5399 Clouds 23 1011 38 10000 2.1 250 03:41 28.10.2019
5400 Clouds 22 1011 35 10000 2.1 290 02:45 28.10.2019
5401 Clouds 23 1011 33 10000 2.1 300 01:27 28.10.2019
5402 Clouds 24 1011 33 10000 1.5 340 00:46 28.10.2019
5403 Clouds 24 1011 33 10000 1.5 340 00:22 28.10.2019
5404 Clouds 25 1011 31 10000 2.1 360 23:43 27.10.2019
5405 Clouds 25 1011 31 10000 2.1 360 23:20 27.10.2019
5406 Clouds 27 1011 26 10000 2.1 20 22:55 27.10.2019
5407 Clouds 27 1011 26 10000 2.1 20 22:36 27.10.2019
5408 Clouds 27 1011 26 10000 2.1 20 22:18 27.10.2019
5409 Clouds 29 1012 26 10000 2.31 329 21:40 27.10.2019
5410 Clouds 29 1012 26 10000 2.31 329 21:21 27.10.2019
5411 Clouds 26 1011 31 10000 2.36 329 20:58 27.10.2019
5412 Clouds 26 1011 31 10000 2.31 329 20:40 27.10.2019
5413 Clear 26 1011 31 10000 2.89 178 20:22 27.10.2019
5414 Clear 28 1011 20 10000 2.6 320 19:56 27.10.2019
5415 Clear 28 1011 20 10000 2.6 320 19:56 27.10.2019
5416 Clear 28 1011 20 10000 2.6 320 19:37 27.10.2019
5417 Clear 28 1011 20 10000 2.6 320 19:19 27.10.2019
5418 Clear 31 1011 18 10000 2.6 190 18:55 27.10.2019
5419 Clear 31 1011 18 10000 2.6 190 18:37 27.10.2019
5420 Clear 31 1011 18 10000 2.6 190 18:19 27.10.2019
5421 Clear 32 1010 21 10000 2.1 190 17:41 27.10.2019
5422 Clear 32 1010 21 10000 2.1 190 17:21 27.10.2019
5423 Clear 32 1010 21 10000 2.1 190 17:21 27.10.2019
5424 Clear 32 1010 22 10000 1.5 200 16:59 27.10.2019
5425 Clear 32 1010 22 10000 1.5 200 16:40 27.10.2019
5426 Clear 32 1010 22 10000 1.5 200 16:22 27.10.2019
5427 Clear 34 1010 14 10000 3.1 200 15:57 27.10.2019
5428 Clear 34 1010 14 10000 3.1 200 15:39 27.10.2019
5429 Clear 34 1010 14 10000 3.1 200 15:39 27.10.2019
5430 Clear 34 1010 14 10000 3.1 200 15:20 27.10.2019
5431 Clear 36 1010 11 10000 4.6 210 14:44 27.10.2019
5432 Clear 36 1010 11 10000 4.6 210 14:24 27.10.2019
5433 Clear 36 1010 11 10000 5.7 220 13:59 27.10.2019
5434 Clear 36 1010 11 10000 5.7 220 13:40 27.10.2019
5435 Clear 36 1010 11 10000 5.7 220 13:21 27.10.2019
5436 Clear 36 1010 11 10000 4.6 240 12:59 27.10.2019
5437 Clear 36 1010 11 10000 4.6 240 12:41 27.10.2019
5438 Clear 36 1010 11 10000 4.6 240 12:23 27.10.2019
5439 Clear 35 1011 11 10000 5.7 220 11:42 27.10.2019
5440 Clear 35 1011 11 10000 5.7 220 11:24 27.10.2019
5441 Clouds 34 1012 13 10000 5.7 220 10:56 27.10.2019
5442 Clouds 34 1012 13 10000 5.7 220 10:37 27.10.2019
5443 Clouds 34 1012 13 10000 5.7 220 10:18 27.10.2019
5444 Clouds 33 1013 14 10000 5.1 210 09:42 27.10.2019
5445 Clouds 33 1013 14 10000 5.1 210 09:19 27.10.2019
5446 Clouds 33 1013 14 10000 5.1 210 09:19 27.10.2019
5447 Clouds 32 1013 14 10000 4.1 230 08:57 27.10.2019
5448 Clouds 32 1013 14 10000 4.1 230 08:37 27.10.2019
5449 Clouds 32 1013 14 10000 4.1 230 08:19 27.10.2019
5450 Clouds 31 1013 18 10000 3.1 210 07:45 27.10.2019
5451 Clouds 31 1013 18 10000 3.1 210 07:26 27.10.2019
5452 Clouds 28 1013 26 10000 1.5 180 06:52 27.10.2019
5453 Clouds 28 1013 26 10000 1.5 180 06:29 27.10.2019
5454 Clouds 24 1012 31 10000 1.5 150 05:54 27.10.2019
5455 Clouds 24 1012 31 10000 1.5 150 05:34 27.10.2019
5456 Clear 23 1011 31 10000 1.5 130 03:35 27.10.2019
5457 Clouds 24 1011 31 10000 1.5 130 02:28 27.10.2019
5458 Clouds 24 1011 29 10000 1.5 140 01:25 27.10.2019
5459 Clouds 26 1012 24 10000 1.5 130 00:52 27.10.2019
5460 Clouds 26 1012 24 10000 1.5 130 00:52 27.10.2019
5461 Clouds 26 1012 24 10000 1.5 130 00:33 27.10.2019
5462 Clouds 26 1012 26 10000 2.1 140 23:57 26.10.2019
5463 Clouds 26 1012 26 10000 2.1 140 23:39 26.10.2019
5464 Clouds 26 1012 26 10000 2.1 140 23:21 26.10.2019
5465 Clouds 27 1012 28 10000 2.1 120 22:57 26.10.2019
5466 Clouds 27 1012 28 10000 2.1 120 22:38 26.10.2019
5467 Clouds 27 1012 28 10000 2.1 120 22:19 26.10.2019
5468 Clear 27 1013 30 10000 1 150 21:44 26.10.2019
5469 Clear 27 1013 30 10000 1 150 21:23 26.10.2019
5470 Clear 29 1013 25 10000 1.5 150 20:59 26.10.2019
5471 Clear 29 1013 25 10000 1.5 150 20:40 26.10.2019
5472 Clear 29 1013 25 10000 1.5 150 20:19 26.10.2019
5473 Clear 29 1013 23 10000 1.5 160 19:42 26.10.2019
5474 Clear 29 1013 23 10000 1.5 160 19:21 26.10.2019
5475 Clear 30 1012 22 10000 1.5 160 18:58 26.10.2019
5476 Clear 30 1012 22 10000 1.5 160 18:39 26.10.2019
5477 Clear 30 1012 22 10000 1.5 160 18:20 26.10.2019
5478 Clear 31 1012 20 10000 1.5 150 17:57 26.10.2019
5479 Clear 31 1012 20 10000 1.5 150 17:38 26.10.2019
5480 Clear 31 1012 20 10000 1.5 150 17:20 26.10.2019
5481 Clear 34 1011 15 10000 2.1 240 16:45 26.10.2019
5482 Clear 34 1011 15 10000 2.1 240 16:25 26.10.2019
5483 Clear 36 1011 14 10000 2.6 220 15:59 26.10.2019
5484 Clear 36 1011 14 10000 2.6 220 15:39 26.10.2019
5485 Clear 36 1011 14 10000 2.6 220 15:18 26.10.2019
5486 Clear 36 1011 18 10000 1.5 230 14:39 26.10.2019
5487 Clear 36 1011 18 10000 1.5 230 14:19 26.10.2019
5488 Clear 34 1008 10 0 4.5 230 13:56 26.10.2019
5489 Clear 34 1008 10 0 4.5 230 13:56 26.10.2019
5490 Clear 36 1012 12 10000 3.6 210 13:36 26.10.2019
5491 Clear 34 1008 10 0 4.5 230 13:18 26.10.2019
5492 Clear 36 1013 12 10000 3.1 210 12:42 26.10.2019
5493 Clear 35 1014 13 10000 3.6 220 12:19 26.10.2019
5494 Clear 35 1014 13 10000 3.6 220 11:47 26.10.2019
5495 Clear 35 1014 13 10000 3.6 220 11:25 26.10.2019
5496 Clear 34 1015 14 10000 3.6 190 10:47 26.10.2019
5497 Clear 34 1015 14 10000 3.6 190 10:26 26.10.2019
5498 Clear 33 1015 14 10000 4.6 180 09:49 26.10.2019
5499 Clear 33 1015 14 10000 4.6 180 09:30 26.10.2019
5500 Clear 29 1016 30 9000 3.67 230 08:55 26.10.2019
5501 Clear 29 1016 30 9000 3.67 230 08:36 26.10.2019
5502 Clear 29 1016 30 9000 3.67 230 08:18 26.10.2019
5503 Clear 25 1016 33 8000 3.67 230 07:42 26.10.2019
5504 Clear 25 1016 33 8000 3.67 230 07:22 26.10.2019
5505 Clear 22 1015 37 8000 3.67 230 06:40 26.10.2019
5506 Clear 21 1014 40 8000 1.28 175 05:56 26.10.2019
5507 Clear 21 1014 40 8000 1.28 175 05:19 26.10.2019
5508 Clear 23 1013 33 10000 1.5 150 03:45 26.10.2019
5509 Clear 23 1013 33 10000 1.5 160 02:29 26.10.2019
5510 Clear 24 1013 27 10000 2.1 140 01:46 26.10.2019
5511 Clear 24 1013 33 10000 2.6 140 00:51 26.10.2019
5512 Clear 22 1012 22 0 1.92 99 23:48 25.10.2019
5513 Clear 24 1014 22 8000 1.92 99 23:22 25.10.2019
5514 Clear 24 1014 22 8000 1.92 99 22:58 25.10.2019
5515 Clear 24 1014 22 8000 1.92 99 22:58 25.10.2019
5516 Clear 24 1014 22 8000 1.92 99 22:39 25.10.2019
5517 Clear 24 1014 22 8000 1.92 99 22:21 25.10.2019
5518 Clear 26 1014 21 10000 1.92 99 21:55 25.10.2019
5519 Clear 26 1014 21 10000 2.13 123 21:37 25.10.2019
5520 Clouds 26 1014 21 10000 1.55 112 21:18 25.10.2019
5521 Clouds 26 1014 24 10000 1.55 112 20:42 25.10.2019
5522 Clouds 26 1014 24 10000 1.55 112 20:19 25.10.2019
5523 Clouds 28 1014 18 10000 1.55 112 19:47 25.10.2019
5524 Clouds 28 1014 18 10000 1.55 112 19:27 25.10.2019
5525 Clouds 31 1013 12 10000 2.1 90 18:55 25.10.2019
5526 Clouds 31 1013 12 10000 2.1 90 18:37 25.10.2019
5527 Clouds 31 1013 12 10000 2.1 90 18:18 25.10.2019
5528 Clouds 30 1013 19 10000 0.65 181 17:39 25.10.2019
5529 Clouds 30 1013 19 10000 0.65 181 17:18 25.10.2019
5530 Clouds 33 1013 14 10000 0.65 181 16:46 25.10.2019
5531 Clouds 33 1013 14 10000 0.65 181 16:22 25.10.2019
5532 Clouds 35 1012 17 10000 1 260 15:56 25.10.2019
5533 Clouds 35 1012 17 10000 1 260 15:38 25.10.2019
5534 Clouds 35 1012 17 10000 1 260 15:19 25.10.2019
5535 Clouds 35 1012 16 10000 2.6 260 14:42 25.10.2019
5536 Clouds 35 1012 16 10000 2.6 260 14:23 25.10.2019
5537 Clouds 35 1013 16 10000 2.6 180 13:57 25.10.2019
5538 Clouds 35 1013 16 10000 2.6 180 13:38 25.10.2019
5539 Clouds 35 1013 16 10000 2.6 180 13:20 25.10.2019
5540 Clouds 35 1014 15 10000 3.1 190 12:42 25.10.2019
5541 Clouds 35 1014 15 10000 3.1 190 12:22 25.10.2019
5542 Clouds 35 1014 15 10000 4.1 190 11:58 25.10.2019
5543 Clouds 35 1014 15 10000 4.1 190 11:38 25.10.2019
5544 Clouds 35 1014 15 10000 4.1 190 11:19 25.10.2019
5545 Clouds 34 1015 16 10000 3.6 180 10:41 25.10.2019
5546 Clouds 34 1015 16 10000 3.6 180 10:41 25.10.2019
5547 Clouds 34 1015 16 10000 3.6 180 10:22 25.10.2019
5548 Clouds 33 1016 17 10000 3.6 210 09:58 25.10.2019
5549 Clouds 33 1016 17 10000 3.6 210 09:38 25.10.2019
5550 Clouds 33 1016 17 10000 3.6 210 09:19 25.10.2019
5551 Clouds 30 1016 27 10000 1.5 170 08:50 25.10.2019
5552 Clouds 30 1016 27 10000 1.5 170 08:32 25.10.2019
5553 Clouds 26 1016 31 10000 1 140 07:56 25.10.2019
5554 Clouds 26 1016 31 10000 1 140 07:34 25.10.2019
5555 Clouds 24 1015 33 10000 1 150 06:42 25.10.2019
5556 Clear 23 1015 35 10000 1.5 140 05:57 25.10.2019
5557 Clear 23 1015 35 10000 1.5 140 05:37 25.10.2019
5558 Clear 23 1014 35 10000 1.5 130 04:52 25.10.2019
5559 Clear 24 1014 33 10000 1.5 140 03:37 25.10.2019
5560 Clouds 24 1014 31 10000 1.5 150 01:54 25.10.2019
5561 Clouds 24 1014 31 10000 1.5 140 00:59 25.10.2019
5562 Clear 24 1014 31 10000 1.5 140 00:20 25.10.2019
5563 Clear 25 1014 25 10000 3.37 158 23:40 24.10.2019
5564 Clear 25 1014 25 10000 3.37 158 23:22 24.10.2019
5565 Clear 27 1015 15 10000 1.5 140 22:55 24.10.2019
5566 Clear 27 1015 15 10000 1.5 140 22:37 24.10.2019
5567 Clear 27 1015 15 10000 1.5 140 22:18 24.10.2019
5568 Clear 27 1015 15 10000 3.37 158 21:56 24.10.2019
5569 Clear 27 1015 15 10000 3.37 158 21:37 24.10.2019
5570 Clouds 27 1015 15 10000 2.6 138 21:19 24.10.2019
5571 Clouds 27 1015 20 10000 2.6 138 20:56 24.10.2019
5572 Clouds 27 1015 20 10000 2.6 138 20:56 24.10.2019
5573 Clouds 27 1015 20 10000 2.6 138 20:37 24.10.2019
5574 Clouds 27 1015 20 10000 2.6 138 20:19 24.10.2019
5575 Clouds 29 1015 20 10000 2.1 120 19:43 24.10.2019
5576 Clouds 29 1015 20 10000 2.1 120 19:23 24.10.2019
5577 Clouds 31 1014 15 10000 2.1 110 18:58 24.10.2019
5578 Clouds 31 1014 15 10000 2.1 110 18:39 24.10.2019
5579 Clouds 31 1014 15 10000 2.1 110 18:21 24.10.2019
5580 Clouds 32 1014 17 10000 2.6 80 17:57 24.10.2019
5581 Clouds 32 1014 17 10000 2.6 80 17:38 24.10.2019
5582 Clouds 32 1014 17 10000 2.6 80 17:38 24.10.2019
5583 Clouds 32 1014 17 10000 2.6 80 17:19 24.10.2019
5584 Clouds 32 1014 17 10000 2.6 80 17:19 24.10.2019
5585 Clouds 33 1014 18 10000 3.36 105 16:54 24.10.2019
5586 Clouds 33 1014 18 10000 3.36 105 16:36 24.10.2019
5587 Clouds 33 1014 18 10000 3.36 105 16:18 24.10.2019
5588 Clouds 33 1014 18 10000 3.36 105 16:18 24.10.2019
5589 Clouds 36 1013 22 10000 1 60 15:54 24.10.2019
5590 Clouds 36 1013 22 10000 1 60 15:36 24.10.2019
5591 Clouds 36 1013 22 10000 1 60 15:18 24.10.2019
5592 Clouds 35 1013 20 10000 1.5 120 14:41 24.10.2019
5593 Clouds 35 1013 20 10000 1.5 120 14:22 24.10.2019
5594 Clouds 36 1014 19 10000 2.1 130 13:57 24.10.2019
5595 Clouds 36 1014 19 10000 2.1 130 13:37 24.10.2019
5596 Clouds 36 1014 19 10000 2.1 130 13:18 24.10.2019
5597 Clouds 34 1014 15 10000 4.1 220 12:55 24.10.2019
5598 Clouds 34 1014 15 10000 4.1 220 12:37 24.10.2019
5599 Clouds 34 1014 15 10000 4.1 220 12:18 24.10.2019
5600 Clouds 34 1015 16 10000 5.1 190 11:54 24.10.2019
5601 Clouds 34 1015 16 10000 5.1 190 11:36 24.10.2019
5602 Clouds 34 1015 16 10000 5.1 190 11:18 24.10.2019
5603 Clouds 33 1016 17 10000 5.7 180 10:41 24.10.2019
5604 Clouds 33 1016 17 10000 5.7 180 10:23 24.10.2019
5605 Clouds 32 1017 17 8000 4.6 170 09:39 24.10.2019
5606 Clouds 32 1017 17 8000 4.6 170 09:39 24.10.2019
5607 Clouds 32 1017 17 8000 4.6 170 09:19 24.10.2019
5608 Clouds 30 1017 27 8000 1.5 150 08:57 24.10.2019
5609 Clouds 30 1017 27 8000 1.5 150 08:38 24.10.2019
5610 Clouds 30 1017 27 8000 1.5 150 08:18 24.10.2019
5611 Clouds 30 1017 27 8000 1.5 150 08:18 24.10.2019
5612 Clouds 26 1016 34 8000 5.67 165 07:46 24.10.2019
5613 Clouds 26 1016 34 8000 5.67 165 07:23 24.10.2019
5614 Clouds 23 1016 38 8000 5.67 165 06:50 24.10.2019
5615 Clouds 23 1016 38 8000 5.67 165 06:32 24.10.2019
5616 Clear 20 1015 40 8000 1 140 05:53 24.10.2019
5617 Clear 20 1015 40 8000 1 140 05:30 24.10.2019
5618 Clear 22 1014 35 10000 1 150 03:51 24.10.2019
5619 Clear 22 1014 35 10000 1 150 03:26 24.10.2019
5620 Clear 23 1014 33 10000 1 150 02:29 24.10.2019
5621 Clear 24 1014 31 10000 1 150 01:57 24.10.2019
5622 Clear 24 1014 31 10000 1 150 01:30 24.10.2019
5623 Clear 25 1014 31 10000 1.5 140 00:51 24.10.2019
5624 Clear 25 1014 31 10000 1.5 140 00:23 24.10.2019
5625 Clear 25 1015 29 10000 1.5 140 23:44 23.10.2019
5626 Clear 25 1015 29 10000 1.5 140 23:24 23.10.2019
5627 Clear 27 1015 24 10000 1.5 140 22:57 23.10.2019
5628 Clear 27 1015 24 10000 1.5 140 22:38 23.10.2019
5629 Clear 27 1015 24 10000 1.5 140 22:19 23.10.2019
5630 Clear 25 1015 17 10000 2.7 164 21:58 23.10.2019
5631 Clear 25 1015 17 10000 3.01 167 21:39 23.10.2019
5632 Clear 25 1015 17 10000 1.34 192 21:20 23.10.2019
5633 Clear 28 1015 15 10000 1.34 192 20:58 23.10.2019
5634 Clear 28 1015 15 10000 1.34 192 20:39 23.10.2019
5635 Clear 28 1015 15 10000 1.34 192 20:20 23.10.2019
5636 Clear 29 1014 24 10000 2.1 130 19:58 23.10.2019
5637 Clear 29 1014 24 10000 2.1 130 19:39 23.10.2019
5638 Clear 29 1014 24 10000 2.1 130 19:18 23.10.2019
5639 Clear 30 1014 13 10000 1.5 140 18:55 23.10.2019
5640 Clear 30 1014 13 10000 1.5 140 18:36 23.10.2019
5641 Clear 30 1014 13 10000 1.5 140 18:18 23.10.2019
5642 Clear 32 1013 11 10000 1.5 170 17:43 23.10.2019
5643 Clear 32 1013 11 10000 1.5 170 17:20 23.10.2019
5644 Clear 34 1013 12 10000 1.5 170 16:56 23.10.2019
5645 Clear 34 1013 12 10000 1.5 170 16:38 23.10.2019
5646 Clear 34 1013 12 10000 1.5 170 16:19 23.10.2019
5647 Clear 35 1013 13 10000 4.1 180 15:42 23.10.2019
5648 Clear 35 1013 13 10000 4.1 180 15:22 23.10.2019
5649 Clear 36 1013 18 10000 2.1 130 14:58 23.10.2019
5650 Clear 36 1013 18 10000 2.1 130 14:38 23.10.2019
5651 Clear 36 1013 18 10000 2.1 130 14:20 23.10.2019
5652 Clear 36 1013 18 10000 2.1 130 14:20 23.10.2019
5653 Clear 36 1013 14 10000 4.1 180 13:58 23.10.2019
5654 Clear 36 1013 14 10000 4.1 180 13:40 23.10.2019
5655 Clear 36 1013 14 10000 4.1 180 13:22 23.10.2019
5656 Clear 35 1014 14 10000 4.1 140 12:55 23.10.2019
5657 Clear 35 1014 14 10000 4.1 140 12:37 23.10.2019
5658 Clear 35 1014 14 10000 4.1 140 12:18 23.10.2019
5659 Clear 35 1015 13 10000 5.1 220 11:55 23.10.2019
5660 Clear 35 1015 13 10000 5.1 220 11:55 23.10.2019
5661 Clear 35 1015 13 10000 5.1 220 11:37 23.10.2019
5662 Clear 35 1015 13 10000 5.1 220 11:19 23.10.2019
5663 Clear 35 1015 14 10000 4.6 180 10:42 23.10.2019
5664 Clear 35 1015 14 10000 4.6 180 10:24 23.10.2019
5665 Clear 33 1016 15 10000 5.7 200 09:42 23.10.2019
5666 Clear 33 1016 15 10000 5.7 200 09:24 23.10.2019
5667 Clear 33 1016 15 10000 5.7 200 09:24 23.10.2019
5668 Clear 32 1017 22 10000 1 160 08:59 23.10.2019
5669 Clear 32 1017 22 10000 1 160 08:41 23.10.2019
5670 Clear 32 1017 22 10000 1 160 08:41 23.10.2019
5671 Clear 32 1017 22 10000 1 160 08:22 23.10.2019
5672 Clear 26 1016 31 10000 6.06 166 07:45 23.10.2019
5673 Clear 26 1016 31 10000 6.06 166 07:22 23.10.2019
5674 Clear 21 1016 37 10000 6.06 166 06:46 23.10.2019
5675 Clear 21 1016 37 10000 2.73 162 06:22 23.10.2019
5676 Clear 22 1015 33 10000 1 170 05:41 23.10.2019
5677 Clear 21 1014 32 10000 1.5 150 04:38 23.10.2019
5678 Clear 21 1014 37 10000 1 150 03:34 23.10.2019
5679 Clear 21 1014 37 9000 1 140 02:37 23.10.2019
5680 Clear 22 1014 35 9000 1 140 01:28 23.10.2019
5681 Clear 24 1014 29 10000 1.5 140 00:48 23.10.2019
5682 Clear 24 1014 29 10000 1.5 140 00:28 23.10.2019
5683 Clear 23 1015 35 10000 1.5 130 23:39 22.10.2019
5684 Clear 23 1015 35 10000 1.5 130 23:18 22.10.2019
5685 Clear 24 1015 33 10000 1.47 165 22:56 22.10.2019
5686 Clear 24 1015 33 10000 1.47 165 22:37 22.10.2019
5687 Clear 24 1015 33 10000 1.47 165 22:19 22.10.2019
5688 Clear 24 1015 33 10000 1.47 165 21:56 22.10.2019
5689 Clear 24 1015 33 10000 2.28 165 21:36 22.10.2019
5690 Clear 24 1015 33 10000 1.54 184 21:18 22.10.2019
5691 Clear 24 1015 31 10000 1 100 20:55 22.10.2019
5692 Clear 24 1015 31 10000 1 100 20:37 22.10.2019
5693 Clear 24 1015 31 10000 1 100 20:37 22.10.2019
5694 Clear 24 1015 31 10000 1 100 20:18 22.10.2019
5695 Clear 28 1015 24 10000 1 130 19:43 22.10.2019
5696 Clear 28 1015 24 10000 1 130 19:24 22.10.2019
5697 Clear 30 1014 23 10000 1.5 130 18:57 22.10.2019
5698 Clear 30 1014 23 10000 1.5 130 18:39 22.10.2019
5699 Clear 30 1014 23 10000 1.5 130 18:21 22.10.2019
5700 Clear 31 1014 22 10000 1.5 130 17:56 22.10.2019
5701 Clear 31 1014 22 10000 1.5 130 17:56 22.10.2019
5702 Clear 31 1014 22 10000 1.5 130 17:38 22.10.2019
5703 Clear 31 1014 22 10000 1.5 130 17:19 22.10.2019
5704 Clear 34 1013 18 10000 2.1 120 16:56 22.10.2019
5705 Clear 34 1013 18 10000 2.1 120 16:37 22.10.2019
5706 Clear 34 1013 18 10000 2.1 120 16:18 22.10.2019
5707 Clear 35 1013 14 10000 2.1 160 15:43 22.10.2019
5708 Clear 35 1013 14 10000 2.1 160 15:20 22.10.2019
5709 Clear 36 1013 13 10000 2.6 200 14:50 22.10.2019
5710 Clear 36 1013 13 10000 2.6 200 14:23 22.10.2019
5711 Clear 36 1013 14 10000 2.6 210 13:59 22.10.2019
5712 Clear 36 1013 14 10000 2.6 210 13:41 22.10.2019
5713 Clear 36 1013 14 10000 2.6 210 13:41 22.10.2019
5714 Clear 36 1013 14 10000 2.6 210 13:20 22.10.2019
5715 Clear 35 1014 15 10000 2.6 150 12:56 22.10.2019
5716 Clear 35 1014 15 10000 2.6 150 12:38 22.10.2019
5717 Clear 35 1014 15 10000 2.6 150 12:19 22.10.2019
5718 Clear 34 1015 14 10000 4.6 220 11:41 22.10.2019
5719 Clear 34 1015 14 10000 4.6 220 11:22 22.10.2019
5720 Clear 34 1016 13 9000 6.7 210 10:59 22.10.2019
5721 Clear 34 1016 13 9000 6.7 210 10:38 22.10.2019
5722 Clear 34 1016 13 9000 6.7 210 10:19 22.10.2019
5723 Clear 34 1016 13 9000 6.7 210 10:19 22.10.2019
5724 Clear 34 1016 13 9000 6.7 210 10:19 22.10.2019
5725 Clear 33 1016 15 9000 5.7 180 09:58 22.10.2019
5726 Clear 33 1016 15 9000 5.7 180 09:40 22.10.2019
5727 Clear 33 1016 15 9000 5.7 180 09:40 22.10.2019
5728 Clear 33 1016 15 9000 5.7 180 09:21 22.10.2019
5729 Clear 32 1016 14 10000 5.1 210 08:55 22.10.2019
5730 Clear 32 1016 14 10000 5.1 210 08:36 22.10.2019
5731 Clear 32 1016 14 10000 5.1 210 08:18 22.10.2019
5732 Clear 32 1016 14 10000 5.1 210 08:18 22.10.2019
5733 Clear 27 1016 24 10000 2.1 220 07:41 22.10.2019
5734 Clear 27 1016 24 10000 2.1 220 07:22 22.10.2019
5735 Clear 23 1015 33 10000 1 140 06:40 22.10.2019
5736 Clear 23 1015 33 10000 1 140 06:20 22.10.2019
5737 Clear 20 1015 40 10000 0.79 211 05:27 22.10.2019
5738 Clear 21 1014 37 10000 1 180 04:19 22.10.2019
5739 Clear 23 1014 31 10000 1.5 150 02:30 22.10.2019
5740 Clear 24 1014 31 10000 1.5 130 01:37 22.10.2019
5741 Clear 24 1014 31 10000 1.5 130 01:18 22.10.2019
5742 Clear 24 1014 31 10000 1.5 130 00:42 22.10.2019
5743 Clear 24 1014 31 10000 1.5 130 00:24 22.10.2019
5744 Clear 25 1015 29 10000 1.5 140 23:58 21.10.2019
5745 Clear 25 1015 29 10000 1.5 140 23:38 21.10.2019
5746 Clear 25 1015 29 10000 1.5 140 23:19 21.10.2019
5747 Clear 25 1015 29 10000 1.5 140 23:19 21.10.2019
5748 Clear 26 1015 27 10000 1.5 130 22:57 21.10.2019
5749 Clear 26 1015 27 10000 1.5 130 22:38 21.10.2019
5750 Clear 26 1015 27 10000 1.5 130 22:20 21.10.2019
5751 Clear 27 1015 28 10000 1.5 140 21:56 21.10.2019
5752 Clear 27 1015 28 10000 1.5 140 21:37 21.10.2019
5753 Clear 27 1015 28 10000 1.5 140 21:37 21.10.2019
5754 Clear 27 1015 28 10000 1.5 140 21:19 21.10.2019
5755 Clear 29 1015 25 10000 2.1 160 20:56 21.10.2019
5756 Clear 29 1015 25 10000 2.1 160 20:37 21.10.2019
5757 Clear 29 1015 25 10000 2.1 160 20:19 21.10.2019
5758 Clear 29 1015 23 10000 2.1 160 19:54 21.10.2019
5759 Clear 29 1015 23 10000 2.1 160 19:54 21.10.2019
5760 Clear 29 1015 23 10000 2.1 160 19:36 21.10.2019
5761 Clear 29 1015 23 10000 2.1 160 19:18 21.10.2019
5762 Clear 30 1015 23 10000 1.5 130 18:54 21.10.2019
5763 Clear 30 1015 23 10000 1.5 130 18:54 21.10.2019
5764 Clear 30 1015 23 10000 1.5 130 18:54 21.10.2019
5765 Clear 30 1015 23 10000 1.5 130 18:36 21.10.2019
5766 Clear 30 1015 23 10000 1.5 130 18:18 21.10.2019
5767 Clear 29 1015 30 10000 1 130 17:38 21.10.2019
5768 Clear 29 1015 30 10000 1 130 17:19 21.10.2019
5769 Clear 34 1014 23 10000 1 120 16:58 21.10.2019
5770 Clear 34 1014 23 10000 1 120 16:40 21.10.2019
5771 Clear 34 1014 23 10000 1 120 16:21 21.10.2019
5772 Clear 35 1014 15 10000 2.6 230 15:49 21.10.2019
5773 Clear 35 1014 15 10000 2.6 230 15:27 21.10.2019
5774 Clear 36 1014 19 10000 1.5 290 14:59 21.10.2019
5775 Clear 36 1014 19 10000 1.5 290 14:59 21.10.2019
5776 Clear 36 1014 19 10000 1.5 290 14:40 21.10.2019
5777 Clear 36 1014 19 10000 1.5 290 14:21 21.10.2019
5778 Clear 36 1014 19 10000 1.5 290 14:21 21.10.2019
5779 Clear 35 1015 14 10000 3.6 220 13:57 21.10.2019
5780 Clear 35 1015 14 10000 3.6 220 13:39 21.10.2019
5781 Clear 35 1015 14 10000 3.6 220 13:20 21.10.2019
5782 Clear 35 1015 16 10000 2.6 180 12:57 21.10.2019
5783 Clear 35 1015 16 10000 2.6 180 12:39 21.10.2019
5784 Clear 35 1015 16 10000 2.6 180 12:19 21.10.2019
5785 Clear 35 1016 16 10000 2.6 180 11:40 21.10.2019
5786 Clear 35 1016 16 10000 2.6 180 11:22 21.10.2019
5787 Clear 34 1017 16 10000 4.1 210 10:58 21.10.2019
5788 Clear 34 1017 16 10000 4.1 210 10:38 21.10.2019
5789 Clear 34 1017 16 10000 4.1 210 10:19 21.10.2019
5790 Clear 33 1018 18 9000 3.1 190 09:54 21.10.2019
5791 Clear 33 1018 18 9000 3.1 190 09:36 21.10.2019
5792 Clear 33 1018 18 9000 3.1 190 09:18 21.10.2019
5793 Clear 31 1018 25 9000 1.5 140 08:40 21.10.2019
5794 Clear 31 1018 25 9000 1.5 140 08:22 21.10.2019
5795 Clear 27 1018 36 10000 5.46 160.639 07:45 21.10.2019
5796 Clear 27 1018 36 10000 5.46 160.639 07:23 21.10.2019
5797 Clear 22 1018 40 10000 5.46 160.639 06:58 21.10.2019
5798 Clear 22 1018 40 10000 5.46 160.639 06:40 21.10.2019
5799 Clear 19 1017 45 10000 3.56 171.806 05:57 21.10.2019
5800 Clear 19 1017 45 10000 3.56 171.806 05:21 21.10.2019
5801 Clear 21 1016 40 10000 3.56 171.806 03:39 21.10.2019
5802 Clear 21 1016 40 10000 1 300 02:39 21.10.2019
5803 Clear 21 1016 40 10000 1 300 02:19 21.10.2019
5804 Clear 22 1016 40 10000 3.69 166.216 01:43 21.10.2019
5805 Clear 23 1016 38 10000 1 170 00:51 21.10.2019
5806 Clear 23 1016 38 10000 1 170 00:28 21.10.2019
5807 Clear 25 1017 36 10000 1 170 23:57 20.10.2019
5808 Clear 25 1017 36 10000 1 170 23:38 20.10.2019
5809 Clear 25 1017 36 10000 1 170 23:20 20.10.2019
5810 Clear 25 1017 36 10000 1 190 22:41 20.10.2019
5811 Clear 25 1017 36 10000 1 190 22:23 20.10.2019
5812 Clear 28 1017 28 10000 1 160 21:59 20.10.2019
5813 Clear 28 1017 28 10000 1 160 21:39 20.10.2019
5814 Clear 28 1017 28 10000 1 160 21:21 20.10.2019
5815 Clear 26 1017 36 10000 1 140 20:55 20.10.2019
5816 Clear 26 1017 36 10000 1 140 20:37 20.10.2019
5817 Clear 26 1017 36 10000 1 140 20:18 20.10.2019
5818 Clear 28 1017 32 10000 1 130 19:55 20.10.2019
5819 Clear 28 1017 32 10000 1 130 19:36 20.10.2019
5820 Clear 28 1017 32 10000 1 130 19:18 20.10.2019
5821 Clear 29 1017 30 10000 1 120 18:40 20.10.2019
5822 Clear 29 1017 30 10000 1 120 18:20 20.10.2019
5823 Clear 31 1016 25 10000 1 130 17:56 20.10.2019
5824 Clear 31 1016 25 10000 1 130 17:56 20.10.2019
5825 Clear 31 1016 25 10000 1 130 17:38 20.10.2019
5826 Clear 31 1016 25 10000 1 130 17:19 20.10.2019
5827 Clear 33 1016 18 10000 1.5 200 16:43 20.10.2019
5828 Clear 33 1016 18 10000 1.5 200 16:24 20.10.2019
5829 Clear 33 1016 18 10000 1.5 200 16:24 20.10.2019
5830 Clear 34 1016 17 10000 3.1 150 15:59 20.10.2019
5831 Clear 34 1016 17 10000 3.1 150 15:39 20.10.2019
5832 Clear 34 1016 17 10000 3.1 150 15:20 20.10.2019
5833 Clear 34 1016 18 10000 3.1 160 14:58 20.10.2019
5834 Clear 34 1016 18 10000 3.1 160 14:38 20.10.2019
5835 Clear 34 1016 18 10000 3.1 160 14:38 20.10.2019
5836 Clear 34 1016 18 10000 3.1 160 14:19 20.10.2019
5837 Clear 34 1016 18 10000 2.6 170 13:56 20.10.2019
5838 Clear 34 1016 18 10000 2.6 170 13:37 20.10.2019
5839 Clear 34 1016 18 10000 2.6 170 13:18 20.10.2019
5840 Clear 34 1017 17 10000 4.1 190 12:56 20.10.2019
5841 Clear 34 1017 17 10000 4.1 190 12:38 20.10.2019
5842 Clear 34 1017 17 10000 4.1 190 12:20 20.10.2019
5843 Clear 34 1018 18 10000 3.1 150 11:55 20.10.2019
5844 Clear 34 1018 18 10000 3.1 150 11:37 20.10.2019
5845 Clear 34 1018 18 10000 3.1 150 11:19 20.10.2019
5846 Clear 33 1019 19 10000 3.1 170 10:41 20.10.2019
5847 Clear 33 1019 19 10000 3.1 170 10:22 20.10.2019
5848 Clear 32 1019 22 10000 2.6 150 09:58 20.10.2019
5849 Clear 32 1019 22 10000 2.6 150 09:58 20.10.2019
5850 Clear 32 1019 22 10000 2.6 150 09:40 20.10.2019
5851 Clear 32 1019 22 10000 2.6 150 09:21 20.10.2019
5852 Clear 29 1020 30 10000 1.5 100 08:49 20.10.2019
5853 Clear 29 1020 30 10000 1.5 100 08:24 20.10.2019
5854 Clear 29 1020 30 10000 1.5 100 08:24 20.10.2019
5855 Clear 28 1019 32 10000 3.76 126.538 07:50 20.10.2019
5856 Clear 28 1019 32 10000 3.76 126.538 07:31 20.10.2019
5857 Clear 23 1019 38 10000 3.76 126.538 06:57 20.10.2019
5858 Clear 23 1019 38 10000 2.25 150.777 06:20 20.10.2019
5859 Clear 21 1018 40 10000 2.25 150.777 04:27 20.10.2019
5860 Clear 21 1018 37 10000 1 300 03:46 20.10.2019
5861 Clear 21 1018 37 10000 1 300 03:20 20.10.2019
5862 Clear 22 1017 33 10000 1.5 300 02:40 20.10.2019
5863 Clear 22 1017 37 10000 1 300 01:58 20.10.2019
5864 Clear 22 1017 37 10000 1 300 01:23 20.10.2019
5865 Clear 22 1017 40 10000 1.93 151.639 00:56 20.10.2019
5866 Clear 22 1017 40 10000 1.93 151.639 00:38 20.10.2019
5867 Clear 22 1017 40 10000 2.06 128.616 00:19 20.10.2019
5868 Clear 23 1018 40 10000 2.06 128.616 23:42 19.10.2019
5869 Clear 23 1018 40 10000 2.06 128.616 23:22 19.10.2019
5870 Clear 24 1018 38 10000 2.06 128.616 22:56 19.10.2019
5871 Clear 24 1018 38 10000 2.06 128.616 22:37 19.10.2019
5872 Clear 24 1018 38 10000 2.06 128.616 22:19 19.10.2019
5873 Clear 27 1018 30 10000 1.5 90 21:45 19.10.2019
5874 Clear 27 1018 30 10000 1.5 90 21:23 19.10.2019
5875 Clear 27 1018 30 10000 1.5 80 20:45 19.10.2019
5876 Clear 27 1018 30 10000 1.5 80 20:22 19.10.2019
5877 Clear 29 1018 26 10000 2.1 70 19:59 19.10.2019
5878 Clear 29 1018 26 10000 2.1 70 19:39 19.10.2019
5879 Clear 29 1018 26 10000 2.1 70 19:21 19.10.2019
5880 Clear 30 1017 25 10000 2.1 60 18:42 19.10.2019
5881 Clear 30 1017 25 10000 2.1 60 18:24 19.10.2019
5882 Clear 31 1017 23 10000 2.1 70 17:55 19.10.2019
5883 Clear 31 1017 23 10000 2.1 70 17:37 19.10.2019
5884 Clear 31 1017 23 10000 2.1 70 17:19 19.10.2019
5885 Clear 33 1016 17 10000 3.1 80 16:39 19.10.2019
5886 Clear 33 1016 17 10000 3.1 80 16:20 19.10.2019
5887 Clear 34 1016 15 10000 4.6 50 15:45 19.10.2019
5888 Clear 34 1016 15 10000 4.6 50 15:26 19.10.2019
5889 Clear 34 1016 16 10000 4.6 70 14:56 19.10.2019
5890 Clear 34 1016 16 10000 4.6 70 14:38 19.10.2019
5891 Clear 34 1016 16 10000 4.6 70 14:19 19.10.2019
5892 Clear 34 1016 16 10000 4.6 70 13:54 19.10.2019
5893 Clear 34 1016 16 10000 4.6 70 13:36 19.10.2019
5894 Clear 34 1016 16 10000 4.6 70 13:18 19.10.2019
5895 Clear 34 1017 15 10000 4.1 60 12:39 19.10.2019
5896 Clear 34 1017 15 10000 4.1 60 12:21 19.10.2019
5897 Clear 34 1017 15 10000 4.1 70 11:56 19.10.2019
5898 Clear 34 1017 15 10000 4.1 70 11:37 19.10.2019
5899 Clear 34 1017 15 10000 4.1 70 11:18 19.10.2019
5900 Clear 33 1018 16 10000 4.1 60 10:41 19.10.2019
5901 Clear 33 1018 16 10000 4.1 60 10:23 19.10.2019
5902 Clear 31 1019 20 10000 3.1 50 09:58 19.10.2019
5903 Clear 31 1019 20 10000 3.1 50 09:39 19.10.2019
5904 Clear 31 1019 20 10000 3.1 50 09:21 19.10.2019
5905 Clear 31 1019 25 10000 1.5 340 08:41 19.10.2019
5906 Clear 31 1019 25 10000 1.5 340 08:23 19.10.2019
5907 Clear 27 1019 26 10000 2.1 320 07:59 19.10.2019
5908 Clear 27 1019 26 10000 2.1 320 07:41 19.10.2019
5909 Clear 27 1019 26 10000 2.1 320 07:23 19.10.2019
5910 Clear 22 1018 37 10000 2.1 300 06:35 19.10.2019
5911 Clear 21 1018 37 8000 1.5 300 05:51 19.10.2019
5912 Clear 22 1017 33 10000 2.1 290 04:26 19.10.2019
5913 Clear 22 1017 33 10000 2.1 290 04:26 19.10.2019
5914 Clear 22 1017 33 10000 2.1 290 04:26 19.10.2019
5915 Clear 22 1017 33 10000 2.1 290 03:18 19.10.2019
5916 Clear 23 1017 31 10000 2.6 290 02:20 19.10.2019
5917 Clear 23 1017 35 10000 1 340 01:48 19.10.2019
5918 Clear 24 1017 36 10000 1.02 350.899 00:52 19.10.2019
5919 Clear 24 1017 36 10000 1.02 350.899 00:29 19.10.2019
5920 Clear 25 1017 31 10000 2.1 300 23:57 18.10.2019
5921 Clear 25 1017 31 10000 2.1 300 23:38 18.10.2019
5922 Clear 25 1017 31 10000 2.1 300 23:20 18.10.2019
5923 Clear 26 1017 29 10000 2.1 300 22:54 18.10.2019
5924 Clear 26 1017 29 10000 2.1 300 22:36 18.10.2019
5925 Clear 26 1017 29 10000 2.1 300 22:18 18.10.2019
5926 Clear 26 1017 29 10000 2.1 300 22:18 18.10.2019
5927 Clear 26 1018 29 10000 1.5 10 21:55 18.10.2019
5928 Clear 26 1018 29 10000 1.5 10 21:36 18.10.2019
5929 Clear 26 1018 29 10000 1.5 10 21:36 18.10.2019
5930 Clear 26 1018 29 10000 1.5 10 21:18 18.10.2019
5931 Clear 28 1017 26 10000 3.36 71.894 20:42 18.10.2019
5932 Clear 28 1017 26 10000 3.36 71.894 20:22 18.10.2019
5933 Clear 28 1017 26 10000 3.36 71.894 20:22 18.10.2019
5934 Clear 29 1017 21 10000 2.1 30 19:58 18.10.2019
5935 Clear 29 1017 21 10000 2.1 30 19:40 18.10.2019
5936 Clear 29 1017 21 10000 2.1 30 19:21 18.10.2019
5937 Clear 31 1017 19 10000 2.1 40 18:58 18.10.2019
5938 Clear 31 1017 19 10000 2.1 40 18:40 18.10.2019
5939 Clear 31 1017 19 10000 2.1 40 18:21 18.10.2019
5940 Clear 32 1016 18 10000 3.1 40 17:55 18.10.2019
5941 Clear 32 1016 18 10000 3.1 40 17:36 18.10.2019
5942 Clear 32 1016 18 10000 3.1 40 17:18 18.10.2019
5943 Clear 33 1016 16 10000 5.1 50 16:38 18.10.2019
5944 Clear 33 1016 16 10000 5.1 50 16:20 18.10.2019
5945 Clear 34 1016 15 10000 3.6 50 15:55 18.10.2019
5946 Clear 34 1016 15 10000 3.6 50 15:37 18.10.2019
5947 Clear 34 1016 15 10000 3.6 50 15:18 18.10.2019
5948 Clear 35 1016 11 10000 4.1 40 14:56 18.10.2019
5949 Clear 35 1016 11 10000 4.1 40 14:38 18.10.2019
5950 Clear 35 1016 11 10000 4.1 40 14:18 18.10.2019
5951 Clear 35 1016 11 10000 4.1 10 13:45 18.10.2019
5952 Clear 35 1016 11 10000 4.1 10 13:26 18.10.2019
5953 Clear 35 1017 8 10000 3.6 70 12:59 18.10.2019
5954 Clear 35 1017 8 10000 3.6 70 12:40 18.10.2019
5955 Clear 35 1017 8 10000 3.6 70 12:22 18.10.2019
5956 Clear 34 1018 12 10000 2.1 100 11:57 18.10.2019
5957 -273 0 0 0 0 0 11:39 18.10.2019
5958 Clear 34 1018 12 10000 2.1 100 11:20 18.10.2019
5959 Clear 33 1019 17 10000 2.6 70 10:57 18.10.2019
5960 Clear 33 1019 17 10000 2.6 70 10:38 18.10.2019
5961 Clear 33 1019 17 10000 2.6 70 10:19 18.10.2019
5962 Clear 32 1019 19 10000 2.1 30 09:55 18.10.2019
5963 Clear 32 1019 19 10000 2.1 30 09:55 18.10.2019
5964 Clear 32 1019 19 10000 2.1 30 09:54 18.10.2019
5965 -273 0 0 0 0 0 09:54 18.10.2019
5966 Clear 32 1019 19 10000 2.1 30 09:36 18.10.2019
5967 Clear 32 1019 19 10000 2.1 30 09:18 18.10.2019
5968 Clear 31 1020 18 10000 1.5 350 08:42 18.10.2019
5969 Clear 31 1020 18 10000 1.5 350 08:21 18.10.2019
5970 Clear 31 1020 18 10000 1.5 350 08:21 18.10.2019
5971 Clear 27 1019 30 10000 2.1 300 07:43 18.10.2019
5972 Clear 27 1019 30 10000 2.1 300 07:25 18.10.2019
5973 Clouds 23 1019 33 8000 2.1 300 06:40 18.10.2019
5974 Clouds 23 1019 33 8000 2.1 300 06:22 18.10.2019
5975 Clouds 22 1019 35 8000 1 300 05:56 18.10.2019
5976 Clouds 22 1019 35 8000 1 300 05:23 18.10.2019
5977 Clear 22 1018 35 10000 2.1 300 04:47 18.10.2019
5978 Clear 22 1018 33 10000 2.1 300 03:33 18.10.2019
5979 Clear 23 1018 33 10000 1 280 02:34 18.10.2019
5980 Clear 24 1018 31 10000 1.5 290 01:46 18.10.2019
5981 Clear 24 1018 31 10000 1.5 290 01:28 18.10.2019
5982 Clear 24 1018 31 10000 1.5 290 01:28 18.10.2019
5983 Clear 24 1018 31 10000 1.5 360 00:46 18.10.2019
5984 Clear 24 1018 31 10000 1.5 360 00:21 18.10.2019
5985 Clear 26 1018 24 10000 2.6 310 23:57 17.10.2019
5986 Clear 26 1018 24 10000 2.6 310 23:36 17.10.2019
5987 Clear 26 1018 24 10000 2.6 310 23:18 17.10.2019
5988 Clear 25 1019 33 10000 1 280 22:55 17.10.2019
5989 Clear 25 1019 33 10000 1 280 22:37 17.10.2019
5990 Clear 25 1019 33 10000 1 280 22:18 17.10.2019
5991 Clear 28 1019 26 10000 1 180 21:55 17.10.2019
5992 Clear 28 1019 26 10000 1 180 21:37 17.10.2019
5993 Clear 28 1019 26 10000 1 180 21:19 17.10.2019
5994 -273 0 0 0 0 0 20:56 17.10.2019
5995 Clear 28 1019 26 10000 1 160 20:37 17.10.2019
5996 Clear 28 1019 26 10000 1 160 20:18 17.10.2019
5997 Clear 27 1019 36 10000 2.01 119.692 19:42 17.10.2019
5998 Clear 27 1019 36 10000 2.01 119.692 19:42 17.10.2019
5999 Clear 27 1019 36 10000 2.01 119.692 19:20 17.10.2019
6000 Clear 29 1018 30 10000 1 130 18:59 17.10.2019
6001 Clear 29 1018 30 10000 1 130 18:39 17.10.2019
6002 Clear 29 1018 30 10000 1 130 18:21 17.10.2019
6003 Clouds 31 1018 25 10000 1.5 110 17:44 17.10.2019
6004 Clouds 31 1018 25 10000 1.5 110 17:25 17.10.2019
6005 Clouds 33 1018 17 10000 2.1 90 16:59 17.10.2019
6006 Clouds 33 1018 17 10000 2.1 90 16:41 17.10.2019
6007 Clouds 33 1018 17 10000 2.1 90 16:19 17.10.2019
6008 Clouds 34 1018 13 10000 1 50 15:57 17.10.2019
6009 Clouds 34 1018 13 10000 1 50 15:39 17.10.2019
6010 Clouds 34 1018 13 10000 1 50 15:20 17.10.2019
6011 Clouds 35 1018 12 10000 1.5 130 14:57 17.10.2019
6012 Clouds 35 1018 12 10000 1.5 130 14:38 17.10.2019
6013 Clouds 35 1018 12 10000 1.5 130 14:20 17.10.2019
6014 Clouds 34 1018 13 10000 2.6 90 13:41 17.10.2019
6015 Clouds 34 1018 13 10000 2.6 90 13:20 17.10.2019
6016 Clouds 34 1019 12 10000 2.1 140 12:58 17.10.2019
6017 Clouds 34 1019 12 10000 2.1 140 12:38 17.10.2019
6018 Clouds 34 1019 12 10000 2.1 140 12:19 17.10.2019
6019 Clouds 34 1019 14 10000 2.1 90 11:55 17.10.2019
6020 -273 0 0 0 0 0 11:55 17.10.2019
6021 Clouds 34 1019 14 10000 2.1 90 11:55 17.10.2019
6022 Clouds 34 1019 14 10000 2.1 90 11:37 17.10.2019
6023 Clouds 34 1019 14 10000 2.1 90 11:18 17.10.2019
6024 Clouds 34 1020 18 10000 2.1 160 10:41 17.10.2019
6025 Clouds 34 1020 18 10000 2.1 160 10:19 17.10.2019
6026 Clouds 32 1021 24 10000 3.1 280 09:57 17.10.2019
6027 Clouds 32 1021 24 10000 3.1 280 09:38 17.10.2019
6028 Clear 32 1021 24 10000 3.1 280 09:19 17.10.2019
6029 Clear 28 1021 23 10000 2.1 20 08:49 17.10.2019
6030 Clear 28 1021 23 10000 2.1 20 08:27 17.10.2019
6031 Clear 27 1020 32 10000 3.119 162 07:59 17.10.2019
6032 Clear 27 1020 32 10000 3.119 162 07:41 17.10.2019
6033 Clear 27 1020 32 10000 3.119 162 07:21 17.10.2019
6034 Clear 22 1020 35 10000 1.5 280 06:51 17.10.2019
6035 Clear 22 1020 35 10000 1.5 280 06:31 17.10.2019
6036 Clear 21 1019 40 8000 1 350 05:59 17.10.2019
6037 Clear 21 1019 40 8000 1 350 05:37 17.10.2019
6038 Clear 21 1019 40 8000 1 350 05:19 17.10.2019
6039 Clear 22 1019 35 10000 1.5 220 04:45 17.10.2019
6040 Clear 22 1018 37 10000 1 280 03:45 17.10.2019
6041 Clouds 24 1018 31 10000 1 280 01:57 17.10.2019
6042 Clouds 24 1018 31 10000 1 280 01:57 17.10.2019
6043 Clouds 24 1019 36 10000 0.225 130 00:42 17.10.2019
6044 Clouds 24 1019 36 10000 1.51 123 00:21 17.10.2019
6045 Clouds 24 1019 36 10000 1.5 350 23:59 16.10.2019
6046 Clouds 24 1019 36 10000 1.5 350 23:40 16.10.2019
6047 Clouds 24 1019 36 10000 1.5 350 23:18 16.10.2019
6048 Clouds 25 1019 33 10000 1 140 22:54 16.10.2019
6049 Clouds 25 1019 33 10000 1 140 22:36 16.10.2019
6050 Clouds 25 1019 33 10000 1 140 22:18 16.10.2019
6051 Clouds 26 1019 36 10000 1.51 123 21:54 16.10.2019
6052 Clouds 26 1019 36 10000 1.531 99 21:36 16.10.2019
6053 Clouds 26 1019 36 10000 2.065 117 21:18 16.10.2019
6054 Clouds 28 1019 28 10000 2.1 50 20:55 16.10.2019
6055 Clouds 28 1019 28 10000 2.1 50 20:55 16.10.2019
6056 Clouds 28 1019 28 10000 2.1 50 20:37 16.10.2019
6057 Clouds 28 1019 28 10000 2.1 50 20:37 16.10.2019
6058 Clouds 28 1019 28 10000 2.1 50 20:19 16.10.2019
6059 Clouds 30 1018 25 10000 2.1 50 19:40 16.10.2019
6060 Clouds 30 1018 25 10000 2.1 50 19:40 16.10.2019
6061 Clouds 30 1018 25 10000 2.1 50 19:21 16.10.2019
6062 Clouds 30 1018 25 10000 2.1 50 19:21 16.10.2019
6063 Clouds 31 1018 23 10000 1.5 80 18:58 16.10.2019
6064 Clouds 31 1018 23 10000 1.5 80 18:37 16.10.2019
6065 Clouds 31 1018 23 10000 1.5 80 18:18 16.10.2019
6066 Clouds 32 1017 22 10000 2.1 100 17:55 16.10.2019
6067 Clouds 32 1017 22 10000 2.1 100 17:37 16.10.2019
6068 -273 0 0 0 0 0 17:37 16.10.2019
6069 Clouds 32 1017 22 10000 2.1 100 17:19 16.10.2019
6070 Clouds 33 1017 22 10000 2.1 100 16:56 16.10.2019
6071 Clouds 33 1017 22 10000 2.1 100 16:37 16.10.2019
6072 Clouds 33 1017 22 10000 2.1 100 16:18 16.10.2019
6073 Clouds 34 1017 16 10000 3.1 90 15:40 16.10.2019
6074 -273 0 0 0 0 0 15:40 16.10.2019
6075 Clouds 34 1017 17 10000 2.1 80 15:19 16.10.2019
6076 Clouds 34 1017 17 10000 2.1 80 15:19 16.10.2019
6077 Clouds 34 1017 17 10000 2.1 80 14:58 16.10.2019
6078 Clouds 34 1017 17 10000 2.1 80 14:40 16.10.2019
6079 Clouds 34 1017 17 10000 2.1 80 14:21 16.10.2019
6080 Clouds 34 1017 17 10000 3.1 80 13:58 16.10.2019
6081 Clouds 34 1017 17 10000 3.1 80 13:39 16.10.2019
6082 Clouds 34 1017 17 10000 3.1 80 13:21 16.10.2019
6083 Clouds 35 1018 15 10000 2.6 170 12:43 16.10.2019
6084 Clouds 35 1018 15 10000 2.6 170 12:20 16.10.2019
6085 Clouds 34 1019 17 10000 2.6 170 11:55 16.10.2019
6086 Clouds 34 1019 17 10000 2.6 170 11:37 16.10.2019
6087 Clouds 34 1019 17 10000 2.6 170 11:18 16.10.2019
6088 Clouds 33 1020 18 10000 2.6 180 10:36 16.10.2019
6089 Clouds 33 1020 18 10000 2.6 180 10:18 16.10.2019
6090 Clouds 32 1020 22 10000 2.6 160 09:41 16.10.2019
6091 Clouds 32 1020 22 10000 2.6 160 09:40 16.10.2019
6092 Clouds 32 1020 22 10000 2.6 160 09:22 16.10.2019
6093 Clouds 30 1020 35 10000 2.1 160 08:57 16.10.2019
6094 Clouds 30 1020 35 10000 2.1 160 08:38 16.10.2019
6095 Clouds 30 1020 35 10000 2.1 160 08:19 16.10.2019
6096 Clouds 28 1020 48 10000 3.546 141 07:42 16.10.2019
6097 Clouds 28 1020 48 10000 3.546 141 07:23 16.10.2019
6098 Clouds 24 1019 57 10000 3.546 141 06:51 16.10.2019
6099 Clouds 24 1019 57 10000 3.546 141 06:30 16.10.2019
6100 Clouds 24 1018 57 10000 1 130 04:48 16.10.2019
6101 Clear 24 1018 57 10000 1.287 98 02:51 16.10.2019
6102 Clear 24 1018 53 10000 1.25 108 01:21 16.10.2019
6103 Clear 26 1018 47 10000 1 160 00:59 16.10.2019
6104 Clear 26 1018 47 10000 1 160 00:40 16.10.2019
6105 Clear 27 1019 39 10000 2.6 110 23:59 15.10.2019
6106 Clear 27 1019 39 10000 2.6 110 23:38 15.10.2019
6107 Clear 27 1019 39 10000 2.6 110 23:20 15.10.2019
6108 Clear 28 1019 34 10000 1.5 110 22:55 15.10.2019
6109 Clear 28 1019 34 10000 1.5 110 22:37 15.10.2019
6110 Clear 28 1019 34 10000 1.5 110 22:18 15.10.2019
6111 Clear 28 1019 34 10000 1.5 110 22:18 15.10.2019
6112 Clear 29 1019 25 10000 2.6 100 21:54 15.10.2019
6113 Clear 29 1019 25 10000 2.6 100 21:36 15.10.2019
6114 Clear 29 1019 25 10000 2.6 100 21:18 15.10.2019
6115 Clear 29 1018 25 10000 2.1 80 20:55 15.10.2019
6116 Clear 29 1018 25 10000 2.1 80 20:37 15.10.2019
6117 Clear 29 1018 25 10000 2.1 80 20:19 15.10.2019
6118 Clear 29 1018 25 10000 1.5 80 19:55 15.10.2019
6119 Clear 29 1018 25 10000 1.5 80 19:36 15.10.2019
6120 Clear 29 1018 25 10000 1.5 80 19:36 15.10.2019
6121 Clear 29 1018 25 10000 1.5 80 19:18 15.10.2019
6122 -273 0 0 0 0 0 18:41 15.10.2019
6123 Clear 31 1017 23 10000 2.1 90 18:23 15.10.2019
6124 Clouds 32 1017 24 10000 1.5 100 17:54 15.10.2019
6125 Clouds 32 1017 24 10000 1.5 100 17:36 15.10.2019
6126 Clouds 32 1017 24 10000 1.5 100 17:18 15.10.2019
6127 Clouds 34 1017 15 10000 3.6 90 16:42 15.10.2019
6128 Clouds 34 1017 15 10000 3.6 90 16:22 15.10.2019
6129 Clear 34 1017 21 10000 2.1 90 15:57 15.10.2019
6130 Clear 34 1017 21 10000 2.1 90 15:57 15.10.2019
6131 Clear 34 1017 21 10000 2.1 90 15:39 15.10.2019
6132 Clear 34 1017 21 10000 2.1 90 15:39 15.10.2019
6133 Clear 34 1017 21 10000 2.1 90 15:19 15.10.2019
6134 Clouds 36 1017 19 10000 3.23 83 14:55 15.10.2019
6135 Clouds 36 1017 19 10000 2.65 86 14:37 15.10.2019
6136 Clouds 36 1017 19 10000 2.65 86 14:18 15.10.2019
6137 Clouds 35 1017 16 10000 2.6 50 13:43 15.10.2019
6138 Clouds 35 1017 16 10000 2.6 50 13:20 15.10.2019
6139 Clouds 35 1018 15 10000 3.6 50 12:56 15.10.2019
6140 Clouds 35 1018 15 10000 3.6 50 12:56 15.10.2019
6141 Clouds 35 1018 15 10000 3.6 50 12:38 15.10.2019
6142 Clouds 35 1018 15 10000 3.6 50 12:19 15.10.2019
6143 Clouds 35 1018 15 10000 3.6 50 12:19 15.10.2019
6144 Clouds 35 1019 16 10000 2.6 90 11:42 15.10.2019
6145 Clouds 35 1019 16 10000 2.6 90 11:20 15.10.2019
6146 Clear 35 1020 24 10000 2.1 150 10:56 15.10.2019
6147 Clear 35 1020 24 10000 2.1 150 10:37 15.10.2019
6148 Clear 35 1020 24 10000 2.1 150 10:18 15.10.2019
6149 Clear 31 1020 31 10000 3.1 110 09:40 15.10.2019
6150 Clear 31 1020 31 10000 3.1 110 09:21 15.10.2019
6151 Clear 30 1020 37 10000 1.5 130 08:58 15.10.2019
6152 Clear 30 1020 37 10000 1.5 130 08:58 15.10.2019
6153 Clear 30 1020 37 10000 1.5 130 08:40 15.10.2019
6154 Clear 30 1020 37 10000 1.5 130 08:20 15.10.2019
6155 Clear 30 1020 37 10000 1.5 130 08:19 15.10.2019
6156 Clear 27 1020 42 10000 1 220 07:43 15.10.2019
6157 Clear 27 1020 42 10000 1 220 07:22 15.10.2019
6158 Clear 23 1019 53 10000 3.51 139.048 06:56 15.10.2019
6159 Clear 23 1019 53 10000 3.51 139.048 06:37 15.10.2019
6160 Clear 22 1019 53 8000 2.78 156.205 05:56 15.10.2019
6161 Clear 22 1019 53 8000 2.78 156.205 05:36 15.10.2019
6162 Clear 22 1018 49 10000 2.78 156.205 04:48 15.10.2019
6163 Clear 22 1018 49 10000 2.78 156.205 04:18 15.10.2019
6164 Clear 23 1018 53 10000 2.78 156.205 03:34 15.10.2019
6165 Clear 23 1018 53 10000 2.78 156.205 03:34 15.10.2019
6166 Clear 26 1018 47 10000 1 140 01:51 15.10.2019
6167 Clear 26 1018 47 10000 1 140 01:26 15.10.2019
6168 Clear 27 1018 34 10000 2.1 100 00:59 15.10.2019
6169 Clear 27 1018 34 10000 2.1 100 00:24 15.10.2019
6170 Clear 27 1019 30 10000 3.1 70 23:57 14.10.2019
6171 Clear 27 1019 30 10000 3.1 70 23:37 14.10.2019
6172 Clear 27 1019 30 10000 3.1 70 23:37 14.10.2019
6173 Clear 27 1019 30 10000 3.1 70 23:18 14.10.2019
6174 Clear 28 1019 26 10000 3.1 80 22:39 14.10.2019
6175 Clear 28 1019 26 10000 3.1 80 22:20 14.10.2019
6176 Clear 29 1019 23 10000 2.6 90 21:57 14.10.2019
6177 Clear 29 1019 23 10000 2.6 90 21:39 14.10.2019
6178 Clear 29 1019 23 10000 2.6 90 21:20 14.10.2019
6179 Clear 29 1019 23 10000 2.6 90 20:57 14.10.2019
6180 Clear 29 1019 23 10000 2.6 90 20:38 14.10.2019
6181 Clear 29 1019 23 10000 2.6 90 20:19 14.10.2019
6182 Clouds 31 1018 20 10000 2.6 90 19:44 14.10.2019
6183 Clouds 31 1018 20 10000 2.6 90 19:25 14.10.2019
6184 Clear 32 1018 19 10000 3.1 80 18:59 14.10.2019
6185 Clear 32 1018 19 10000 3.1 80 18:40 14.10.2019
6186 Clear 32 1018 19 10000 3.1 80 18:21 14.10.2019
6187 Clouds 33 1017 18 10000 2.6 80 17:59 14.10.2019
6188 Clouds 33 1017 18 10000 2.6 80 17:40 14.10.2019
6189 Clouds 33 1017 18 10000 2.6 80 17:22 14.10.2019
6190 Clouds 34 1017 18 10000 4.1 90 16:45 14.10.2019
6191 Clouds 34 1017 18 10000 4.1 90 16:22 14.10.2019
6192 Clouds 35 1017 19 10000 3.1 80 15:58 14.10.2019
6193 Clouds 35 1017 19 10000 3.1 80 15:38 14.10.2019
6194 Clouds 35 1017 19 10000 3.1 80 15:20 14.10.2019
6195 Clouds 35 1017 17 10000 3.6 120 14:43 14.10.2019
6196 Clouds 35 1017 17 10000 3.6 120 14:24 14.10.2019
6197 Clouds 35 1017 20 10000 3.1 110 13:57 14.10.2019
6198 Clouds 35 1017 20 10000 3.1 110 13:39 14.10.2019
6199 Clouds 35 1017 20 10000 3.1 110 13:20 14.10.2019
6200 Clear 35 1018 24 10000 2.6 110 12:41 14.10.2019
6201 Clear 35 1018 24 10000 2.6 110 12:19 14.10.2019
6202 Clear 34 1018 26 10000 3.6 140 11:47 14.10.2019
6203 Clear 34 1018 26 10000 3.6 140 11:27 14.10.2019
6204 Clouds 32 1019 31 10000 3.6 130 10:59 14.10.2019
6205 Clouds 32 1019 31 10000 3.6 130 10:40 14.10.2019
6206 Clouds 32 1019 31 10000 3.6 130 10:21 14.10.2019
6207 Clouds 31 1020 38 10000 3.6 140 09:57 14.10.2019
6208 Clouds 31 1020 38 10000 3.6 140 09:38 14.10.2019
6209 Clouds 31 1020 38 10000 3.6 140 09:19 14.10.2019
6210 Clear 30 1020 45 10000 3.1 130 08:45 14.10.2019
6211 Clear 30 1020 45 10000 3.1 130 08:22 14.10.2019
6212 Clear 28 1020 54 8000 1.5 130 07:43 14.10.2019
6213 Clear 28 1020 54 8000 1.5 130 07:19 14.10.2019
6214 Clear 25 1019 61 8000 1 110 06:53 14.10.2019
6215 Clear 25 1019 61 8000 1 110 06:26 14.10.2019
6216 Clear 24 1018 57 7000 1.5 130 05:49 14.10.2019
6217 Clear 24 1017 57 10000 1 110 04:49 14.10.2019
6218 Clear 26 1017 47 10000 1.5 140 03:28 14.10.2019
6219 Clear 27 1017 42 10000 1.5 140 02:56 14.10.2019
6220 Clear 27 1017 36 10000 2.1 130 01:25 14.10.2019
6221 Clear 28 1017 34 10000 2.6 130 00:59 14.10.2019
6222 Clear 28 1017 34 10000 2.6 130 00:21 14.10.2019
6223 Clear 28 1017 34 10000 2.6 130 00:21 14.10.2019
6224 Clear 29 1017 28 10000 3.1 130 23:45 13.10.2019
6225 Clear 29 1017 28 10000 3.1 130 23:21 13.10.2019
6226 Clouds 29 1017 32 10000 2.1 140 22:59 13.10.2019
6227 Clouds 29 1017 32 10000 2.1 140 22:41 13.10.2019
6228 Clouds 29 1017 32 10000 2.1 140 22:21 13.10.2019
6229 Clouds 30 1016 25 10000 2.6 130 21:58 13.10.2019
6230 Clouds 30 1016 25 10000 2.6 130 21:38 13.10.2019
6231 Clouds 30 1016 25 10000 2.6 130 21:19 13.10.2019
6232 Clear 30 1016 28 10000 1.5 130 20:58 13.10.2019
6233 Clear 30 1016 28 10000 1.5 130 20:39 13.10.2019
6234 Clear 30 1016 28 10000 1.5 130 20:21 13.10.2019
6235 Clear 31 1015 27 10000 1.5 120 19:59 13.10.2019
6236 Clear 31 1015 27 10000 1.5 120 19:39 13.10.2019
6237 Clear 31 1015 27 10000 1.5 120 19:39 13.10.2019
6238 Clear 31 1015 27 10000 1.5 120 19:21 13.10.2019
6239 Clouds 33 1014 19 10000 3.1 120 18:57 13.10.2019
6240 Clouds 33 1014 19 10000 3.1 120 18:57 13.10.2019
6241 Clouds 33 1014 19 10000 3.1 120 18:37 13.10.2019
6242 Clouds 33 1014 19 10000 3.1 120 18:19 13.10.2019
6243 Clouds 33 1014 19 10000 3.1 120 18:19 13.10.2019
6244 Clouds 34 1014 17 10000 3.1 100 17:57 13.10.2019
6245 Clouds 34 1014 17 10000 3.1 100 17:39 13.10.2019
6246 Clouds 34 1014 17 10000 3.1 100 17:21 13.10.2019
6247 Clouds 35 1013 17 10000 2.6 130 16:42 13.10.2019
6248 Clouds 35 1013 17 10000 2.6 130 16:19 13.10.2019
6249 Clouds 36 1013 16 10000 2.1 70 15:57 13.10.2019
6250 Clouds 36 1013 16 10000 2.1 70 15:57 13.10.2019
6251 Clouds 36 1013 16 10000 2.1 70 15:38 13.10.2019
6252 Clouds 36 1013 16 10000 2.1 70 15:19 13.10.2019
6253 Clouds 37 1013 16 10000 3.1 140 14:57 13.10.2019
6254 Clouds 37 1013 16 10000 3.1 140 14:56 13.10.2019
6255 Clouds 37 1013 16 10000 3.1 140 14:38 13.10.2019
6256 Clouds 37 1013 16 10000 3.1 140 14:18 13.10.2019
6257 Clouds 36 1013 15 10000 3.6 180 13:41 13.10.2019
6258 Clouds 36 1013 15 10000 3.6 180 13:22 13.10.2019
6259 Clouds 36 1014 16 10000 4.1 180 12:59 13.10.2019
6260 Clouds 36 1014 16 10000 4.1 180 12:39 13.10.2019
6261 Clouds 36 1014 16 10000 4.1 180 12:20 13.10.2019
6262 Clear 36 1014 15 10000 3.1 170 11:58 13.10.2019
6263 Clear 36 1014 15 10000 3.1 170 11:39 13.10.2019
6264 Clear 36 1014 15 10000 3.1 170 11:20 13.10.2019
6265 Clear 35 1015 17 10000 3.6 150 10:43 13.10.2019
6266 Clear 35 1015 17 10000 3.6 150 10:24 13.10.2019
6267 Clear 34 1015 17 9000 4.1 160 09:59 13.10.2019
6268 Clear 34 1015 17 9000 4.1 160 09:59 13.10.2019
6269 Clear 34 1015 17 9000 4.1 160 09:39 13.10.2019
6270 Clear 34 1015 17 9000 4.1 160 09:20 13.10.2019
6271 Clear 34 1015 17 9000 4.1 160 09:20 13.10.2019
6272 Clear 31 1016 19 9000 3.6 160 08:43 13.10.2019
6273 Clear 31 1016 19 9000 3.6 160 08:25 13.10.2019
6274 Clear 31 1016 19 9000 3.6 160 08:25 13.10.2019
6275 Clear 28 1015 24 8000 1 140 07:51 13.10.2019
6276 Clear 28 1015 24 8000 1 140 07:32 13.10.2019
6277 Clear 24 1015 33 8000 2.61 194.084 06:49 13.10.2019
6278 Clear 21 1014 37 8000 0.86 189.628 05:59 13.10.2019
6279 Clear 22 1014 35 10000 0.86 189.628 04:59 13.10.2019
6280 Clear 22 1014 35 10000 0.86 189.628 04:33 13.10.2019
6281 Clear 24 1013 27 10000 1 290 02:50 13.10.2019
6282 Clear 24 1013 27 10000 1 290 02:25 13.10.2019
6283 Clear 25 1013 22 10000 2.1 290 01:34 13.10.2019
6284 Clear 25 1013 22 10000 2.1 290 00:53 13.10.2019
6285 Clear 25 1013 22 10000 2.1 290 00:23 13.10.2019
6286 Clear 27 1013 28 10000 0.56 329.437 23:59 12.10.2019
6287 Clear 27 1013 28 10000 0.56 329.437 23:40 12.10.2019
6288 Clear 27 1013 28 10000 0.56 329.437 23:22 12.10.2019
6289 Clear 28 1013 24 10000 1.5 170 22:58 12.10.2019
6290 Clear 28 1013 24 10000 1.5 170 22:39 12.10.2019
6291 Clear 28 1013 24 10000 1.5 170 22:21 12.10.2019
6292 Clear 29 1013 23 10000 0.56 329.437 21:56 12.10.2019
6293 Clear 29 1013 23 10000 0.56 329.437 21:37 12.10.2019
6294 Clear 29 1013 23 10000 0.97 55.522 21:19 12.10.2019
6295 Clear 30 1013 17 10000 2.6 40 20:44 12.10.2019
6296 Clear 30 1013 17 10000 2.6 40 20:26 12.10.2019
6297 Clear 29 1013 26 10000 1.36 84.79 19:42 12.10.2019
6298 Clear 29 1013 26 10000 1.36 84.79 19:23 12.10.2019
6299 Clear 30 1012 27 10000 1.36 84.79 18:59 12.10.2019
6300 Clear 30 1012 27 10000 1.36 84.79 18:41 12.10.2019
6301 Clear 30 1012 27 10000 1.36 84.79 18:41 12.10.2019
6302 Clear 30 1012 27 10000 3.17 341.141 18:23 12.10.2019
6303 Clear 33 1012 24 10000 3.17 341.141 17:45 12.10.2019
6304 Clear 33 1012 24 10000 3.17 341.141 17:21 12.10.2019
6305 Clear 37 1012 19 10000 3.17 341.141 16:57 12.10.2019
6306 Clear 37 1012 19 10000 3.17 341.141 16:57 12.10.2019
6307 Clear 37 1012 19 10000 3.17 341.141 16:38 12.10.2019
6308 Clear 37 1012 19 10000 3.17 341.141 16:19 12.10.2019
6309 Clear 36 1012 13 10000 2.6 100 15:45 12.10.2019
6310 Clear 36 1012 13 10000 2.6 100 15:26 12.10.2019
6311 Clear 36 1011 14 10000 2.1 70 14:59 12.10.2019
6312 Clear 36 1011 14 10000 2.1 70 14:38 12.10.2019
6313 Clear 36 1011 14 10000 2.1 70 14:19 12.10.2019
6314 Clear 37 1012 18 10000 1.5 270 13:45 12.10.2019
6315 Clear 37 1012 18 10000 1.5 270 13:27 12.10.2019
6316 Clear 37 1012 18 10000 1.5 310 12:55 12.10.2019
6317 Clear 37 1012 18 10000 1.5 310 12:36 12.10.2019
6318 Clear 37 1012 18 10000 1.5 310 12:18 12.10.2019
6319 Clear 37 1013 17 10000 1.5 310 11:40 12.10.2019
6320 Clear 37 1013 17 10000 1.5 310 11:22 12.10.2019
6321 Clear 37 1014 18 10000 1.5 280 10:56 12.10.2019
6322 Clear 37 1014 18 10000 1.5 280 10:37 12.10.2019
6323 Clear 37 1014 18 10000 1.5 280 10:19 12.10.2019
6324 Clear 35 1010 9 0 2.48 14.176 09:56 12.10.2019
6325 Clear 35 1010 9 0 2.48 14.176 09:55 12.10.2019
6326 Clear 32 1015 19 10000 2.6 330 09:37 12.10.2019
6327 Clear 32 1015 19 10000 2.6 330 09:19 12.10.2019
6328 Clear 32 1015 19 10000 2.6 330 08:42 12.10.2019
6329 Clear 32 1015 19 10000 2.6 330 08:22 12.10.2019
6330 Clear 30 1015 28 10000 1 340 07:37 12.10.2019
6331 Clear 30 1015 28 10000 1 340 07:18 12.10.2019
6332 Clear 23 1014 33 10000 1.5 340 05:53 12.10.2019
6333 Clear 23 1014 33 10000 1.5 340 05:24 12.10.2019
6334 Clear 24 1013 29 10000 2.6 290 04:29 12.10.2019
6335 Clear 25 1013 31 10000 2.1 280 03:42 12.10.2019
6336 Clear 25 1012 25 10000 2.1 310 02:28 12.10.2019
6337 Clear 26 1013 24 10000 2.1 290 01:30 12.10.2019
6338 Clear 26 1013 27 10000 2.1 290 00:43 12.10.2019
6339 Clear 26 1013 27 10000 2.1 290 00:19 12.10.2019
6340 Clear 26 1013 34 10000 1.69 347.678 23:40 11.10.2019
6341 Clear 26 1013 34 10000 1.69 347.678 23:40 11.10.2019
6342 Clear 26 1013 34 10000 1.69 347.678 23:20 11.10.2019
6343 Clear 28 1014 30 10000 1.69 347.678 22:56 11.10.2019
6344 Clear 28 1014 30 10000 1.69 347.678 22:37 11.10.2019
6345 Clear 28 1014 30 10000 1.69 347.678 22:18 11.10.2019
6346 Clear 30 1014 23 10000 2.1 360 21:40 11.10.2019
6347 Clear 30 1014 23 10000 2.1 360 21:21 11.10.2019
6348 Clear 30 1014 19 10000 3.1 10 20:54 11.10.2019
6349 Clear 30 1014 19 10000 3.1 10 20:36 11.10.2019
6350 Clear 30 1014 19 10000 3.1 10 20:18 11.10.2019
6351 Clouds 32 1014 15 10000 3.6 10 19:54 11.10.2019
6352 Clouds 32 1014 15 10000 3.6 10 19:54 11.10.2019
6353 Clouds 32 1014 15 10000 3.6 10 19:36 11.10.2019
6354 Clouds 32 1014 15 10000 3.6 10 19:18 11.10.2019
6355 Clouds 32 1014 15 10000 3.6 10 19:18 11.10.2019
6356 Clouds 33 1014 14 10000 4.1 360 18:39 11.10.2019
6357 Clouds 33 1014 14 10000 4.1 360 18:19 11.10.2019
6358 Clouds 34 1013 15 10000 4.1 20 17:59 11.10.2019
6359 Clouds 34 1013 15 10000 4.1 20 17:38 11.10.2019
6360 Clouds 34 1013 15 10000 4.1 20 17:19 11.10.2019
6361 Clouds 36 1013 13 10000 3.6 10 16:59 11.10.2019
6362 Clouds 36 1013 13 10000 3.6 10 16:39 11.10.2019
6363 Clouds 36 1013 13 10000 3.6 10 16:39 11.10.2019
6364 Clouds 36 1013 13 10000 3.6 10 16:19 11.10.2019
6365 Clouds 37 1013 16 10000 2.1 10 15:55 11.10.2019
6366 Clouds 37 1013 16 10000 2.1 10 15:36 11.10.2019
6367 Clouds 37 1013 16 10000 2.1 10 15:18 11.10.2019
6368 Clouds 38 1013 15 10000 3.1 310 14:41 11.10.2019
6369 Clouds 38 1013 15 10000 3.1 310 14:21 11.10.2019
6370 Clouds 37 1014 13 10000 5.1 310 13:46 11.10.2019
6371 Clouds 37 1014 13 10000 5.1 310 13:26 11.10.2019
6372 Clouds 37 1015 16 10000 3.1 350 12:58 11.10.2019
6373 Clouds 37 1015 16 10000 3.1 350 12:39 11.10.2019
6374 Clouds 37 1015 16 10000 3.1 350 12:21 11.10.2019
6375 Clear 36 1015 18 10000 3.6 10 11:59 11.10.2019
6376 Clear 36 1015 18 10000 3.6 10 11:39 11.10.2019
6377 Clear 36 1015 18 10000 3.6 10 11:21 11.10.2019
6378 Clear 36 1017 19 10000 2.6 310 10:56 11.10.2019
6379 Clear 36 1017 19 10000 2.6 310 10:56 11.10.2019
6380 Clear 36 1017 19 10000 2.6 310 10:36 11.10.2019
6381 Clear 36 1017 19 10000 2.6 310 10:18 11.10.2019
6382 Clear 34 1017 23 10000 2.6 310 09:42 11.10.2019
6383 Clear 34 1017 23 10000 2.6 310 09:21 11.10.2019
6384 Clear 32 1017 24 10000 2.6 310 08:59 11.10.2019
6385 Clear 32 1017 24 10000 2.6 310 08:38 11.10.2019
6386 Clear 32 1017 24 10000 2.6 310 08:20 11.10.2019
6387 Clear 30 1018 30 10000 2.1 310 07:53 11.10.2019
6388 Clear 30 1018 30 10000 2.1 310 07:34 11.10.2019
6389 Clear 25 1017 36 10000 2.1 310 06:50 11.10.2019
6390 Clear 25 1017 36 10000 2.1 310 06:25 11.10.2019
6391 Clear 25 1016 36 10000 2.1 20 05:47 11.10.2019
6392 Clear 25 1016 36 10000 2.1 20 05:47 11.10.2019
6393 Clear 25 1016 36 10000 2.1 20 05:29 11.10.2019
6394 Clear 24 1016 38 10000 1.5 20 04:58 11.10.2019
6395 Clear 26 1015 36 10000 1.65 224.754 03:40 11.10.2019
6396 Clear 26 1015 34 10000 1.5 280 01:26 11.10.2019
6397 Clear 27 1016 36 10000 1.81 8.211 00:31 11.10.2019
6398 Clear 27 1016 36 10000 2.38 9.755 23:58 10.10.2019
6399 Clear 27 1016 36 10000 2.38 9.755 23:40 10.10.2019
6400 Clear 27 1016 36 10000 2.38 9.755 23:19 10.10.2019
6401 Clear 29 1016 30 10000 2.38 9.755 22:56 10.10.2019
6402 Clear 29 1016 30 10000 2.38 9.755 22:36 10.10.2019
6403 Clear 29 1016 30 10000 2.38 9.755 22:18 10.10.2019
6404 Clear 29 1016 35 10000 2.38 9.755 21:42 10.10.2019
6405 Clear 29 1016 35 10000 2.38 9.755 21:42 10.10.2019
6406 Clear 29 1016 35 10000 4.08 53.723 21:22 10.10.2019
6407 Clear 31 1016 27 10000 2.1 60 20:58 10.10.2019
6408 Clear 31 1016 27 10000 2.1 60 20:40 10.10.2019
6409 Clear 31 1016 27 10000 2.1 60 20:20 10.10.2019
6410 Clouds 32 1016 22 10000 2.6 40 19:57 10.10.2019
6411 Clouds 32 1016 22 10000 2.6 40 19:39 10.10.2019
6412 Clouds 32 1016 22 10000 2.6 40 19:19 10.10.2019
6413 Clouds 33 1015 21 10000 2.1 50 18:42 10.10.2019
6414 Clouds 33 1015 21 10000 2.1 50 18:21 10.10.2019
6415 Clouds 34 1015 23 10000 2.1 70 17:59 10.10.2019
6416 Clouds 34 1015 23 10000 2.1 70 17:40 10.10.2019
6417 Clouds 34 1015 23 10000 2.1 70 17:19 10.10.2019
6418 Clouds 35 1015 16 10000 3.1 40 16:56 10.10.2019
6419 Clouds 35 1015 16 10000 3.1 40 16:37 10.10.2019
6420 Clouds 35 1015 16 10000 3.1 40 16:19 10.10.2019
6421 Clouds 36 1015 18 10000 3.1 70 15:40 10.10.2019
6422 Clouds 36 1015 18 10000 3.1 70 15:22 10.10.2019
6423 Clouds 37 1015 18 10000 3.1 80 14:58 10.10.2019
6424 Clouds 37 1015 18 10000 3.1 80 14:37 10.10.2019
6425 Clouds 37 1015 18 10000 3.1 80 14:19 10.10.2019
6426 Clouds 37 1015 17 10000 5.1 360 13:57 10.10.2019
6427 Clouds 37 1015 17 10000 5.1 360 13:39 10.10.2019
6428 Clouds 37 1015 17 10000 5.1 360 13:18 10.10.2019
6429 Clouds 37 1016 23 10000 2.1 30 12:42 10.10.2019
6430 Clouds 37 1016 23 10000 2.1 30 12:21 10.10.2019
6431 Clouds 36 1017 20 10000 4.1 100 11:58 10.10.2019
6432 Clouds 36 1017 20 10000 4.1 100 11:40 10.10.2019
6433 Clouds 36 1017 20 10000 4.1 100 11:19 10.10.2019
6434 Clear 35 1018 26 10000 2.6 80 10:47 10.10.2019
6435 Clear 35 1018 26 10000 2.6 80 10:28 10.10.2019
6436 Clear 36 1018 28 9000 1.5 360 09:59 10.10.2019
6437 Clear 36 1018 28 9000 1.5 360 09:41 10.10.2019
6438 Clouds 36 1018 28 9000 1.5 360 09:23 10.10.2019
6439 Clouds 33 1018 36 8000 1 180 08:59 10.10.2019
6440 Clouds 33 1018 36 8000 1 180 08:39 10.10.2019
6441 Clouds 33 1018 36 8000 1 180 08:20 10.10.2019
6442 Clear 30 1018 40 10000 0.58 103.241 07:47 10.10.2019
6443 Clear 30 1018 40 10000 0.58 103.241 07:25 10.10.2019
6444 Clear 26 1018 44 10000 2.1 290 06:55 10.10.2019
6445 Clear 26 1018 44 10000 2.1 290 06:36 10.10.2019
6446 Clear 25 1017 50 10000 1.28 204.618 05:39 10.10.2019
6447 Clear 25 1017 50 10000 1.28 204.618 05:18 10.10.2019
6448 Clear 25 1017 50 10000 1.28 204.618 04:34 10.10.2019
6449 Clear 26 1017 47 10000 1.65 143.088 02:19 10.10.2019
6450 Clear 26 1017 44 10000 1 280 01:36 10.10.2019
6451 Clear 26 1017 44 10000 1 280 01:18 10.10.2019
6452 Clear 27 1017 44 10000 2.45 92.48 00:25 10.10.2019
6453 Clear 29 1017 39 10000 1 70 23:42 09.10.2019
6454 Clear 29 1017 39 10000 1 70 23:23 09.10.2019
6455 Clear 29 1018 39 10000 2.1 90 22:59 09.10.2019
6456 Clear 29 1018 39 10000 2.1 90 22:41 09.10.2019
6457 Clear 29 1018 39 10000 2.1 90 22:22 09.10.2019
6458 Clear 30 1018 37 10000 2.1 70 21:42 09.10.2019
6459 Clear 30 1018 37 10000 2.1 70 21:21 09.10.2019
6460 Clear 30 1018 37 10000 2.1 70 21:21 09.10.2019
6461 Clear 31 1017 33 10000 2.6 80 20:58 09.10.2019
6462 Clear 31 1017 33 10000 2.6 80 20:39 09.10.2019
6463 Clear 31 1017 33 10000 2.6 80 20:21 09.10.2019
6464 Clear 32 1017 31 10000 2.6 70 19:59 09.10.2019
6465 Clear 32 1017 31 10000 2.6 70 19:59 09.10.2019
6466 Clear 32 1017 31 10000 2.6 70 19:59 09.10.2019
6467 Clear 32 1017 31 10000 2.6 70 19:59 09.10.2019
6468 Clear 32 1017 31 10000 2.6 70 19:40 09.10.2019
6469 Clear 32 1017 31 10000 2.6 70 19:22 09.10.2019
6470 Clear 33 1017 29 10000 3.1 60 18:39 09.10.2019
6471 Clear 33 1017 29 10000 3.1 60 18:21 09.10.2019
6472 Clouds 34 1016 26 10000 4.1 70 17:58 09.10.2019
6473 Clouds 34 1016 26 10000 4.1 70 17:40 09.10.2019
6474 Clouds 34 1016 26 10000 4.1 70 17:22 09.10.2019
6475 Clouds 35 1016 24 10000 3.6 70 16:56 09.10.2019
6476 Clouds 35 1016 24 10000 3.6 70 16:38 09.10.2019
6477 Clouds 35 1016 24 10000 3.6 70 16:20 09.10.2019
6478 Clouds 35 1016 24 10000 3.6 40 15:55 09.10.2019
6479 Clouds 35 1016 24 10000 3.6 40 15:37 09.10.2019
6480 Clouds 35 1016 24 10000 3.6 40 15:18 09.10.2019
6481 Clouds 35 1016 24 10000 3.6 60 14:44 09.10.2019
6482 Clouds 35 1016 24 10000 3.6 60 14:19 09.10.2019
6483 Clouds 36 1017 25 10000 3.6 10 13:59 09.10.2019
6484 Clouds 36 1017 25 10000 3.6 10 13:38 09.10.2019
6485 Clouds 36 1017 25 10000 3.6 10 13:18 09.10.2019
6486 Clear 35 1018 28 10000 2.6 60 12:44 09.10.2019
6487 Clear 35 1018 28 10000 2.6 60 12:23 09.10.2019
6488 Clear 34 1019 28 10000 2.6 70 11:58 09.10.2019
6489 Clear 34 1019 28 10000 2.6 70 11:40 09.10.2019
6490 Clear 34 1019 28 10000 2.6 70 11:20 09.10.2019
6491 Clear 34 1019 30 10000 1.5 120 10:58 09.10.2019
6492 Clear 34 1019 30 10000 1.5 120 10:40 09.10.2019
6493 Clear 34 1019 30 10000 1.5 120 10:40 09.10.2019
6494 Clear 34 1019 30 10000 1.5 120 10:18 09.10.2019
6495 Clear 32 1020 31 10000 1.5 180 09:43 09.10.2019
6496 Clear 32 1020 31 10000 1.5 180 09:20 09.10.2019
6497 Clear 31 1020 33 10000 2.1 170 08:58 09.10.2019
6498 Clear 31 1020 33 10000 2.1 170 08:38 09.10.2019
6499 Clear 31 1020 33 10000 2.1 170 08:19 09.10.2019
6500 Clear 29 1020 45 10000 1.5 120 07:47 09.10.2019
6501 Clear 29 1020 45 10000 1.5 120 07:24 09.10.2019
6502 Clear 27 1020 47 10000 1 140 06:56 09.10.2019
6503 Clear 27 1020 47 10000 1 140 06:34 09.10.2019
6504 Clear 25 1019 47 10000 1.5 150 05:51 09.10.2019
6505 Clear 26 1019 44 10000 1 150 04:50 09.10.2019
6506 Clear 26 1018 41 10000 1 150 03:43 09.10.2019
6507 Clear 26 1018 41 10000 1 140 02:27 09.10.2019
6508 Clear 26 1018 44 10000 2.54 156.015 01:22 09.10.2019
6509 Clear 27 1018 42 10000 1 140 00:59 09.10.2019
6510 Clear 27 1018 42 10000 1 140 00:40 09.10.2019
6511 Clear 27 1018 42 10000 1 140 00:22 09.10.2019
6512 Clear 28 1018 37 10000 1.5 130 23:58 08.10.2019
6513 Clear 28 1018 37 10000 1.5 130 23:37 08.10.2019
6514 Clear 28 1018 37 10000 1.5 130 23:18 08.10.2019
6515 Clear 30 1018 35 10000 2.1 130 22:41 08.10.2019
6516 Clear 30 1018 35 10000 2.1 130 22:21 08.10.2019
6517 Clear 31 1018 29 10000 3.1 110 21:58 08.10.2019
6518 Clear 31 1018 29 10000 3.1 110 21:39 08.10.2019
6519 Clear 31 1018 29 10000 3.1 110 21:20 08.10.2019
6520 Clear 31 1018 29 8000 3.1 110 20:57 08.10.2019
6521 Clear 31 1018 29 8000 3.1 110 20:57 08.10.2019
6522 Clear 31 1018 29 8000 3.1 110 20:39 08.10.2019
6523 Clear 31 1018 29 8000 3.1 110 20:21 08.10.2019
6524 Clear 32 1017 25 8000 2.6 120 19:58 08.10.2019
6525 Clear 32 1017 25 8000 2.6 120 19:58 08.10.2019
6526 Clear 32 1017 25 8000 2.6 120 19:40 08.10.2019
6527 Clear 32 1017 25 8000 2.6 120 19:22 08.10.2019
6528 Clear 33 1016 22 8000 3.1 120 18:55 08.10.2019
6529 Clear 33 1016 22 8000 3.1 120 18:55 08.10.2019
6530 Clear 33 1016 22 8000 3.1 120 18:36 08.10.2019
6531 Clear 33 1016 22 8000 3.1 120 18:18 08.10.2019
6532 Clear 34 1016 21 8000 4.1 110 17:40 08.10.2019
6533 Clear 34 1016 21 8000 4.1 110 17:20 08.10.2019
6534 Clear 35 1015 23 8000 3.1 120 16:58 08.10.2019
6535 Clear 35 1015 23 8000 3.1 120 16:39 08.10.2019
6536 Clear 35 1015 23 8000 3.1 120 16:21 08.10.2019
6537 Clear 36 1015 18 10000 4.1 120 15:41 08.10.2019
6538 Clear 36 1015 18 10000 4.1 120 15:41 08.10.2019
6539 Clear 36 1015 18 10000 4.1 120 15:21 08.10.2019
6540 Clear 36 1015 20 10000 2.6 140 14:58 08.10.2019
6541 Clear 36 1015 20 10000 2.6 140 14:39 08.10.2019
6542 Clear 36 1015 20 10000 2.6 140 14:20 08.10.2019
6543 Clear 36 1015 20 10000 3.1 150 13:57 08.10.2019
6544 Clear 36 1015 20 10000 3.1 150 13:38 08.10.2019
6545 Clear 36 1015 20 10000 3.1 150 13:19 08.10.2019
6546 Clear 36 1016 23 10000 4.6 170 12:56 08.10.2019
6547 Clear 36 1016 23 10000 4.6 170 12:37 08.10.2019
6548 Clear 36 1016 23 10000 4.6 170 12:37 08.10.2019
6549 Clear 36 1016 23 10000 4.6 170 12:18 08.10.2019
6550 Clear 35 1017 26 10000 3.6 140 11:41 08.10.2019
6551 Clear 35 1017 26 10000 3.6 140 11:23 08.10.2019
6552 Clear 33 1018 36 10000 3.6 150 10:56 08.10.2019
6553 Clear 33 1018 36 10000 3.6 150 10:36 08.10.2019
6554 Clear 33 1018 36 10000 3.6 150 10:18 08.10.2019
6555 Clear 33 1018 38 10000 2.6 150 09:41 08.10.2019
6556 Clear 33 1018 38 10000 2.6 150 09:41 08.10.2019
6557 Clear 33 1018 38 10000 2.6 150 09:23 08.10.2019
6558 Clear 30 1018 51 9000 2.6 120 08:59 08.10.2019
6559 Clear 30 1018 51 9000 2.6 120 08:41 08.10.2019
6560 Clear 30 1018 51 9000 2.6 120 08:22 08.10.2019
6561 Clear 29 1018 58 8000 2.6 120 07:42 08.10.2019
6562 Clear 29 1018 58 8000 2.6 120 07:21 08.10.2019
6563 Clear 29 1018 58 8000 2.6 120 07:21 08.10.2019
6564 Clear 27 1017 65 8000 1 120 06:49 08.10.2019
6565 Clear 27 1017 65 8000 1 120 06:28 08.10.2019
6566 Clear 26 1017 74 7000 1.5 130 05:45 08.10.2019
6567 Clear 26 1017 74 7000 1.5 130 05:45 08.10.2019
6568 Clear 26 1017 74 7000 1.5 130 05:25 08.10.2019
6569 Clear 27 1015 65 10000 1 130 03:33 08.10.2019
6570 Clear 27 1015 57 10000 1 130 02:48 08.10.2019
6571 Clear 27 1015 57 10000 1 130 02:29 08.10.2019
6572 Clear 28 1015 48 10000 1.5 120 01:43 08.10.2019
6573 Clear 28 1015 48 10000 1.5 120 01:19 08.10.2019
6574 Clear 28 1015 45 10000 1.5 120 00:38 08.10.2019
6575 Clear 28 1015 45 10000 1.5 120 00:19 08.10.2019
6576 Clear 29 1015 39 10000 2.1 130 23:39 07.10.2019
6577 Clear 29 1015 39 10000 2.1 130 23:19 07.10.2019
6578 Clear 30 1015 40 10000 2.1 130 22:55 07.10.2019
6579 Clear 30 1015 40 10000 2.1 130 22:55 07.10.2019
6580 Clear 30 1015 40 10000 2.1 130 22:37 07.10.2019
6581 Clear 30 1015 40 10000 2.1 130 22:19 07.10.2019
6582 Clear 31 1015 31 10000 2.6 130 21:55 07.10.2019
6583 Clear 31 1015 31 10000 2.6 130 21:37 07.10.2019
6584 Clear 31 1015 31 10000 2.6 130 21:18 07.10.2019
6585 Clear 32 1015 24 10000 4.6 120 20:56 07.10.2019
6586 Clear 32 1015 24 10000 4.6 120 20:38 07.10.2019
6587 Clear 32 1015 24 10000 4.6 120 20:18 07.10.2019
6588 Clear 33 1014 21 10000 6.2 110 19:42 07.10.2019
6589 Clear 33 1014 21 10000 6.2 110 19:21 07.10.2019
6590 Clear 34 1013 17 10000 6.2 100 19:00 07.10.2019
6591 Clear 34 1013 17 10000 6.2 100 18:41 07.10.2019
6592 Clear 34 1013 17 10000 6.2 100 18:19 07.10.2019
6593 Clear 36 1013 16 10000 4.6 110 17:58 07.10.2019
6594 Clear 36 1013 16 10000 4.6 110 17:40 07.10.2019
6595 Clear 36 1013 16 10000 4.6 110 17:18 07.10.2019
6596 Clear 37 1012 17 10000 4.6 110 16:44 07.10.2019
6597 Clear 37 1012 17 10000 4.6 110 16:26 07.10.2019
6598 Clear 37 1012 18 10000 3.6 110 15:57 07.10.2019
6599 Clear 37 1012 18 10000 3.6 110 15:38 07.10.2019
6600 Clear 37 1012 18 10000 3.6 110 15:20 07.10.2019
6601 Clear 38 1012 18 10000 3.1 120 14:41 07.10.2019
6602 Clear 38 1012 18 10000 3.1 120 14:23 07.10.2019
6603 Clear 38 1012 16 10000 3.1 120 13:45 07.10.2019
6604 Clear 38 1012 16 10000 3.1 120 13:21 07.10.2019
6605 Clouds 38 1013 18 8000 2.6 160 12:58 07.10.2019
6606 Clouds 38 1013 18 8000 2.6 160 12:58 07.10.2019
6607 Clouds 38 1013 18 8000 2.6 160 12:39 07.10.2019
6608 Clouds 38 1013 18 8000 2.6 160 12:20 07.10.2019
6609 Clouds 37 1013 17 8000 3.1 170 11:59 07.10.2019
6610 Clouds 37 1013 17 8000 3.1 170 11:40 07.10.2019
6611 Clouds 37 1013 17 8000 3.1 170 11:40 07.10.2019
6612 Clouds 37 1013 17 8000 3.1 170 11:20 07.10.2019
6613 Clouds 36 1014 18 8000 3.6 170 10:44 07.10.2019
6614 Clouds 36 1014 18 8000 3.6 170 10:23 07.10.2019
6615 Clouds 34 1015 21 8000 3.1 160 09:58 07.10.2019
6616 Clouds 34 1015 21 8000 3.1 160 09:38 07.10.2019
6617 Clouds 34 1015 21 8000 3.1 160 09:20 07.10.2019
6618 Clouds 33 1015 24 9000 3.1 160 08:43 07.10.2019
6619 Clouds 33 1015 24 9000 3.1 160 08:20 07.10.2019
6620 Clouds 29 1014 32 8000 2.1 120 07:49 07.10.2019
6621 Clouds 29 1014 32 8000 2.1 120 07:28 07.10.2019
6622 Clouds 27 1014 39 8000 1 110 06:58 07.10.2019
6623 Clouds 27 1014 39 8000 1 110 06:38 07.10.2019
6624 Clouds 27 1014 39 8000 1 110 06:18 07.10.2019
6625 Clouds 27 1013 32 8000 2.1 160 05:26 07.10.2019
6626 Clear 27 1013 34 10000 1.5 150 04:50 07.10.2019
6627 Clear 27 1012 32 10000 1.5 140 03:46 07.10.2019
6628 Clear 27 1012 32 10000 1.5 140 03:27 07.10.2019
6629 Clear 28 1011 30 10000 2.1 160 02:37 07.10.2019
6630 Clear 28 1011 30 10000 2.1 160 02:19 07.10.2019
6631 Clear 28 1011 32 10000 1 140 01:23 07.10.2019
6632 Clear 28 1012 30 10000 2.1 100 00:51 07.10.2019
6633 Clear 28 1012 30 10000 2.1 100 00:26 07.10.2019
6634 Clear 30 1012 30 10000 1 170 23:59 06.10.2019
6635 Clear 30 1012 30 10000 1 170 23:40 06.10.2019
6636 Clear 30 1012 30 10000 1 170 23:20 06.10.2019
6637 Clear 31 1012 22 10000 4.1 140 22:56 06.10.2019
6638 Clear 31 1012 22 10000 4.1 140 22:37 06.10.2019
6639 Clear 31 1012 22 10000 4.1 140 22:18 06.10.2019
6640 Clear 32 1012 21 10000 3.1 140 21:55 06.10.2019
6641 Clear 32 1012 21 10000 3.1 140 21:55 06.10.2019
6642 Clear 32 1012 21 10000 3.1 140 21:55 06.10.2019
6643 Clear 32 1012 21 10000 3.1 140 21:36 06.10.2019
6644 Clear 32 1012 21 10000 3.1 140 21:18 06.10.2019
6645 Clear 33 1011 19 10000 4.6 120 20:54 06.10.2019
6646 Clear 33 1011 19 10000 4.6 120 20:54 06.10.2019
6647 Clear 33 1011 19 10000 4.6 120 20:36 06.10.2019
6648 Clear 33 1011 19 10000 4.6 120 20:18 06.10.2019
6649 Clouds 34 1011 16 10000 6.2 90 19:55 06.10.2019
6650 Clouds 34 1011 16 10000 6.2 90 19:36 06.10.2019
6651 Clouds 34 1011 16 10000 6.2 90 19:18 06.10.2019
6652 Clouds 35 1010 19 10000 2.6 80 18:54 06.10.2019
6653 Clouds 35 1010 19 10000 2.6 80 18:54 06.10.2019
6654 Clouds 35 1010 19 10000 2.6 80 18:36 06.10.2019
6655 Clouds 35 1010 19 10000 2.6 80 18:18 06.10.2019
6656 Clouds 37 1010 17 10000 2.1 80 17:42 06.10.2019
6657 Clouds 37 1010 17 10000 2.1 80 17:20 06.10.2019
6658 Clouds 39 1010 20 10000 1.5 10 16:55 06.10.2019
6659 Clouds 39 1010 20 10000 1.5 10 16:36 06.10.2019
6660 Clouds 39 1010 20 10000 1.5 10 16:18 06.10.2019
6661 Clouds 39 1010 16 10000 3.6 240 15:42 06.10.2019
6662 Clouds 39 1010 16 10000 3.6 240 15:19 06.10.2019
6663 Clouds 39 1010 16 10000 3.6 240 15:19 06.10.2019
6664 Clouds 39 1010 16 10000 3.6 240 15:19 06.10.2019
6665 Clouds 40 1010 19 10000 1.5 20 14:44 06.10.2019
6666 Clouds 40 1010 19 10000 1.5 20 14:25 06.10.2019
6667 Clouds 40 1010 19 10000 1.5 190 13:59 06.10.2019
6668 Clouds 40 1010 19 10000 1.5 190 13:39 06.10.2019
6669 Clouds 40 1010 19 10000 1.5 190 13:21 06.10.2019
6670 Clouds 40 1011 15 10000 2.1 160 12:58 06.10.2019
6671 Clouds 40 1011 15 10000 2.1 160 12:39 06.10.2019
6672 Clouds 40 1011 15 10000 2.1 160 12:39 06.10.2019
6673 Clouds 40 1011 15 10000 2.1 160 12:21 06.10.2019
6674 Clouds 37 1012 18 10000 2.6 270 11:58 06.10.2019
6675 Clouds 37 1012 18 10000 2.6 270 11:39 06.10.2019
6676 Clouds 37 1012 18 10000 2.6 270 11:20 06.10.2019
6677 Clouds 37 1012 18 10000 2.6 270 11:20 06.10.2019
6678 Clear 37 1013 20 10000 2.6 220 10:45 06.10.2019
6679 Clear 37 1013 20 10000 2.6 220 10:26 06.10.2019
6680 Clear 35 1013 26 10000 2.6 200 09:58 06.10.2019
6681 Clear 35 1013 26 10000 2.6 200 09:40 06.10.2019
6682 Clear 35 1013 26 10000